# Wetter Temperatur Luftdruck Luftfeuchtigkeit Sichtweite Windgeschwindigkeit Windrichtung Zeit
1 Clouds 22 1028 35 10000 5.7 80 10:18 08.04.2020
2 Clouds 22 1028 35 10000 5.7 80 10:18 08.04.2020
3 Clouds 22 1028 35 10000 5.7 80 09:55 08.04.2020
4 Clouds 22 1028 35 10000 5.7 80 09:36 08.04.2020
5 Clouds 20 1029 40 10000 4.6 90 09:18 08.04.2020
6 Clouds 20 1029 40 10000 4.6 90 08:42 08.04.2020
7 Clouds 20 1029 40 10000 4.6 90 08:22 08.04.2020
8 Clouds 20 1016 20 0 3.28 101 07:44 08.04.2020
9 Clouds 20 1016 20 0 3.28 101 07:25 08.04.2020
10 Clouds 20 1016 20 0 3.28 101 06:55 08.04.2020
11 Clouds 14 1026 50 10000 1.5 360 05:56 08.04.2020
12 Clouds 14 1025 47 10000 1.5 310 03:34 08.04.2020
13 Clouds 14 1026 47 10000 1 230 02:49 08.04.2020
14 Clouds 14 1015 26 0 1.47 3 02:19 08.04.2020
15 Clouds 14 1015 26 0 1.47 3 01:30 08.04.2020
16 Clouds 14 1015 26 0 1.47 3 01:30 08.04.2020
17 Clouds 14 1015 26 0 1.47 3 00:59 08.04.2020
18 Clouds 14 1015 26 0 1.47 3 00:59 08.04.2020
19 Clouds 14 1015 26 0 1.47 3 00:40 08.04.2020
20 Clouds 16 1027 41 10000 2.1 110 00:20 08.04.2020
21 Clouds 16 1027 41 10000 2.1 110 23:39 07.04.2020
22 Clouds 19 1028 34 10000 3.1 120 23:20 07.04.2020
23 Clouds 19 1028 34 10000 3.1 120 22:57 07.04.2020
24 Clouds 19 1028 34 10000 3.1 120 22:38 07.04.2020
25 Clouds 19 1028 37 10000 5.1 70 22:19 07.04.2020
26 Clouds 19 1028 37 10000 5.1 70 21:56 07.04.2020
27 Clouds 19 1028 37 10000 5.1 70 21:37 07.04.2020
28 Clouds 17 1015 23 0 3.86 85 21:19 07.04.2020
29 Clouds 17 1015 23 0 3.86 85 20:55 07.04.2020
30 Clouds 17 1015 23 0 3.86 85 20:55 07.04.2020
31 Clouds 17 1015 23 0 3.86 85 20:36 07.04.2020
32 Clouds 17 1015 23 0 3.86 85 20:18 07.04.2020
33 Clouds 17 1015 23 0 3.86 85 19:55 07.04.2020
34 Clouds 17 1015 23 0 3.86 85 19:36 07.04.2020
35 Clouds 17 1015 23 0 3.86 85 19:18 07.04.2020
36 Clouds 17 1015 23 0 3.86 85 19:18 07.04.2020
37 Clouds 17 1015 23 0 3.86 85 18:41 07.04.2020
38 Clouds 24 1025 31 10000 8.2 100 18:21 07.04.2020
39 Clouds 24 1025 31 10000 8.2 100 17:57 07.04.2020
40 Clouds 24 1025 31 10000 8.2 100 17:38 07.04.2020
41 Clouds 24 1025 31 10000 8.2 100 17:20 07.04.2020
42 Clouds 26 1024 27 10000 7.7 100 16:44 07.04.2020
43 Clouds 26 1024 27 10000 7.7 100 16:26 07.04.2020
44 Clouds 26 1024 27 10000 4.1 120 15:46 07.04.2020
45 Clouds 26 1024 27 10000 4.1 120 15:27 07.04.2020
46 Clouds 26 1025 27 10000 4.1 150 14:56 07.04.2020
47 Clouds 26 1025 27 10000 4.1 150 14:38 07.04.2020
48 Clouds 25 1025 29 10000 4.1 150 14:19 07.04.2020
49 Clouds 25 1025 29 10000 4.1 150 13:43 07.04.2020
50 Clouds 25 1026 29 10000 5.1 100 13:20 07.04.2020
51 Clouds 25 1026 29 10000 5.1 100 12:58 07.04.2020
52 Clouds 25 1026 29 10000 5.1 100 12:39 07.04.2020
53 Clouds 24 1014 17 0 4.1 94 12:21 07.04.2020
54 Clouds 24 1014 17 0 4.1 94 11:58 07.04.2020
55 Clouds 23 1028 33 10000 6.2 100 11:39 07.04.2020
56 Clouds 23 1028 33 10000 6.2 100 11:19 07.04.2020
57 Clouds 23 1028 33 10000 6.2 100 10:39 07.04.2020
58 Clouds 22 1029 35 10000 5.1 70 10:20 07.04.2020
59 Clouds 22 1029 35 10000 5.1 70 09:56 07.04.2020
60 Clouds 22 1029 35 10000 5.1 70 09:38 07.04.2020
61 Clouds 20 1029 45 10000 4.1 80 09:18 07.04.2020
62 Clouds 20 1029 45 10000 4.1 80 08:40 07.04.2020
63 Clouds 20 1029 45 10000 4.1 80 08:21 07.04.2020
64 Clouds 18 1028 48 10000 4.1 90 07:47 07.04.2020
65 Clouds 18 1028 48 10000 4.1 90 07:26 07.04.2020
66 Clouds 19 1017 24 0 4.23 93 06:53 07.04.2020
67 Clouds 13 1017 29 0 1.72 22 06:27 07.04.2020
68 Clouds 13 1017 29 0 1.72 22 05:59 07.04.2020
69 Clouds 13 1017 29 0 1.72 22 05:26 07.04.2020
70 Clouds 13 1017 29 0 1.72 22 04:22 07.04.2020
71 Clouds 13 1027 58 10000 1 200 03:23 07.04.2020
72 Clouds 13 1027 58 10000 1 200 02:46 07.04.2020
73 Clouds 15 1027 51 10000 1 280 01:40 07.04.2020
74 Clouds 13 1016 30 0 1.8 18 01:21 07.04.2020
75 Clouds 17 1029 48 10000 2.1 60 00:26 07.04.2020
76 Clouds 17 1029 48 10000 2.1 60 23:43 06.04.2020
77 Clouds 17 1029 48 10000 2.1 60 23:22 06.04.2020
78 Clouds 18 1029 45 10000 2.6 80 22:55 06.04.2020
79 Clouds 18 1029 45 10000 2.6 80 22:36 06.04.2020
80 Clouds 18 1029 45 10000 4.6 70 22:18 06.04.2020
81 Clouds 18 1029 45 10000 4.6 70 21:43 06.04.2020
82 Clouds 16 1016 27 0 3.97 88 21:20 06.04.2020
83 Clouds 16 1016 27 0 3.97 88 20:58 06.04.2020
84 Clouds 16 1016 27 0 3.97 88 20:58 06.04.2020
85 Clouds 20 1028 40 10000 5.1 90 20:40 06.04.2020
86 Clouds 20 1028 40 10000 5.1 90 20:21 06.04.2020
87 Clouds 20 1028 40 10000 5.1 90 19:58 06.04.2020
88 Clouds 20 1028 40 10000 5.1 90 19:39 06.04.2020
89 Clouds 16 1016 27 0 3.97 88 19:20 06.04.2020
90 Clouds 16 1016 27 0 3.97 88 18:43 06.04.2020
91 Clouds 21 1012 20 0 7.05 101 18:24 06.04.2020
92 Clouds 21 1012 20 0 7.05 101 17:59 06.04.2020
93 Clouds 21 1012 20 0 7.05 101 17:41 06.04.2020
94 Clouds 24 1026 27 10000 8.2 100 17:18 06.04.2020
95 Clouds 24 1026 27 10000 8.2 100 16:49 06.04.2020
96 Clouds 24 1026 27 10000 8.2 100 16:30 06.04.2020
97 Clouds 26 1026 21 10000 9.3 110 14:59 06.04.2020
98 Clouds 26 1026 21 10000 9.3 110 14:59 06.04.2020
99 Clouds 26 1026 21 10000 9.3 110 14:59 06.04.2020
100 Clouds 26 1026 21 10000 9.3 110 14:59 06.04.2020
101 Clouds 26 1026 21 10000 9.3 110 14:59 06.04.2020
102 Clouds 25 1011 13 0 6.97 101 13:45 06.04.2020
103 Clouds 25 1011 13 0 6.97 101 13:22 06.04.2020
104 Clouds 25 1011 13 0 6.97 101 12:46 06.04.2020
105 Clouds 24 1029 29 10000 6.2 90 12:20 06.04.2020
106 Clouds 24 1029 29 10000 6.2 90 12:20 06.04.2020
107 Clouds 24 1029 29 10000 6.2 90 11:42 06.04.2020
108 Clouds 24 1029 29 10000 6.2 90 11:24 06.04.2020
109 Clouds 24 1029 29 10000 6.2 90 11:24 06.04.2020
110 Clouds 24 1029 29 10000 6.2 90 11:24 06.04.2020
111 Clouds 24 1029 29 10000 6.2 90 11:24 06.04.2020
112 Clouds 24 1029 29 10000 6.2 90 11:24 06.04.2020
113 Clouds 24 1015 14 0 5.47 98 10:43 06.04.2020
114 Clouds 24 1015 14 0 5.47 98 10:43 06.04.2020
115 Clouds 24 1015 14 0 5.47 98 10:42 06.04.2020
116 Clouds 24 1015 14 0 5.47 98 10:42 06.04.2020
117 Clouds 24 1015 14 0 5.47 98 10:42 06.04.2020
118 Clouds 21 1029 40 10000 6.2 80 10:21 06.04.2020
119 Clouds 21 1029 40 10000 6.2 80 10:21 06.04.2020
120 Clouds 21 1029 40 10000 6.2 80 10:21 06.04.2020
121 Clouds 21 1029 40 10000 6.2 80 10:21 06.04.2020
122 Clouds 21 1029 40 10000 6.2 80 09:40 06.04.2020
123 Clouds 21 1029 40 10000 6.2 80 09:40 06.04.2020
124 Clouds 21 1029 40 10000 6.2 80 09:20 06.04.2020
125 Clouds 19 1029 45 10000 5.1 70 08:49 06.04.2020
126 Clouds 19 1029 45 10000 5.1 70 08:29 06.04.2020
127 Clouds 19 1029 45 10000 5.1 70 08:29 06.04.2020
128 Clouds 19 1029 45 10000 5.1 70 08:29 06.04.2020
129 Clouds 19 1029 45 10000 5.1 70 08:29 06.04.2020
130 Clouds 19 1029 45 10000 5.1 70 08:29 06.04.2020
131 Clouds 19 1018 25 0 4.04 95 07:23 06.04.2020
132 Clouds 13 1027 62 10000 1.5 70 06:28 06.04.2020
133 Clouds 13 1027 62 10000 1.5 70 05:55 06.04.2020
134 Clouds 15 1026 54 10000 1.5 140 04:18 06.04.2020
135 Clouds 16 1026 51 10000 1 110 02:54 06.04.2020
136 Clear 13 1015 36 0 1.83 50 01:56 06.04.2020
137 Clear 13 1015 36 0 1.83 50 01:56 06.04.2020
138 Clear 13 1015 36 0 1.83 50 00:58 06.04.2020
139 Clouds 17 1028 48 10000 6.2 70 00:28 06.04.2020
140 Clouds 17 1028 48 10000 6.2 70 23:55 05.04.2020
141 Clouds 17 1028 48 10000 6.2 70 23:37 05.04.2020
142 Clouds 17 1028 48 10000 6.2 70 23:19 05.04.2020
143 Clear 14 1017 32 0 2.65 70 22:54 05.04.2020
144 Clear 14 1017 32 0 2.65 70 22:36 05.04.2020
145 Clear 14 1017 32 0 2.65 70 22:18 05.04.2020
146 Clear 14 1017 32 0 2.65 70 21:41 05.04.2020
147 Clear 14 1016 32 0 2.77 68 21:23 05.04.2020
148 Clouds 16 1016 30 0 3.79 87 20:24 05.04.2020
149 Clouds 16 1016 30 0 3.79 87 20:24 05.04.2020
150 Clouds 16 1016 30 0 3.79 87 20:24 05.04.2020
151 Clouds 16 1016 30 0 3.79 87 19:43 05.04.2020
152 Clouds 16 1016 30 0 3.79 87 19:23 05.04.2020
153 Clouds 16 1016 30 0 3.79 87 18:48 05.04.2020
154 Clouds 16 1016 30 0 3.79 87 18:48 05.04.2020
155 Clouds 21 1012 21 0 7.08 97 18:18 05.04.2020
156 Clouds 21 1012 21 0 7.08 97 17:46 05.04.2020
157 Clouds 21 1012 21 0 7.08 97 17:46 05.04.2020
158 Clouds 21 1012 21 0 7.08 97 17:46 05.04.2020
159 Clouds 21 1012 21 0 7.08 97 17:46 05.04.2020
160 Clouds 21 1012 21 0 7.08 97 17:22 05.04.2020
161 Clouds 21 1012 21 0 7.08 97 16:47 05.04.2020
162 Clouds 21 1012 21 0 7.08 97 16:19 05.04.2020
163 Clouds 21 1012 21 0 7.08 97 16:19 05.04.2020
164 Clouds 27 1025 1 10000 8.2 100 15:45 05.04.2020
165 Clouds 27 1025 1 10000 8.2 100 15:26 05.04.2020
166 Clouds 27 1025 1 10000 8.2 100 14:48 05.04.2020
167 Clouds 27 1025 1 10000 8.2 100 14:48 05.04.2020
168 Clouds 27 1025 1 10000 8.2 100 14:48 05.04.2020
169 Clouds 26 1025 27 10000 6.2 100 14:48 05.04.2020
170 Clouds 27 1025 1 10000 8.2 100 14:48 05.04.2020
171 Clouds 27 1026 26 10000 6.2 90 13:59 05.04.2020
172 Clouds 27 1026 26 10000 6.2 90 13:40 05.04.2020
173 Clouds 27 1026 26 10000 6.2 90 13:40 05.04.2020
174 Clouds 27 1026 26 10000 6.2 90 13:40 05.04.2020
175 Clouds 27 1026 26 10000 6.2 90 13:40 05.04.2020
176 Clouds 27 1026 26 10000 6.2 90 13:40 05.04.2020
177 Clouds 26 1027 31 10000 5.7 90 12:20 05.04.2020
178 Clouds 26 1027 31 10000 5.7 90 12:20 05.04.2020
179 Clouds 26 1027 31 10000 5.7 90 12:20 05.04.2020
180 Clouds 24 1027 38 10000 6.2 110 11:39 05.04.2020
181 Clouds 24 1027 38 10000 6.2 110 11:19 05.04.2020
182 Clouds 23 1014 19 0 4.34 93 10:47 05.04.2020
183 Clouds 23 1014 19 0 4.34 93 10:22 05.04.2020
184 Clouds 23 1014 19 0 4.34 93 09:53 05.04.2020
185 Clouds 23 1014 19 0 4.34 93 09:27 05.04.2020
186 Clouds 24 1014 17 0 4.67 90 09:27 05.04.2020
187 Clouds 19 1017 27 0 3.7 93 08:31 05.04.2020
188 Clouds 19 1017 27 0 3.7 93 08:31 05.04.2020
189 Clouds 19 1017 27 0 3.7 93 08:31 05.04.2020
190 Clouds 19 1017 27 0 3.7 93 08:31 05.04.2020
191 Clouds 19 1017 27 0 3.7 93 08:31 05.04.2020
192 Clouds 19 1017 27 0 3.7 93 06:33 05.04.2020
193 Clouds 15 1026 62 10000 1 340 06:33 05.04.2020
194 Clouds 15 1026 62 10000 1 340 06:23 05.04.2020
195 Clouds 15 1026 62 10000 1 340 06:21 05.04.2020
196 Clouds 14 1026 71 10000 2.1 70 04:31 05.04.2020
197 Clouds 15 1026 67 10000 1 360 03:27 05.04.2020
198 Clouds 15 1026 67 10000 1 360 02:19 05.04.2020
199 Clouds 15 1026 67 10000 2.1 200 01:42 05.04.2020
200 Clouds 15 1026 67 10000 2.1 200 01:22 05.04.2020
201 Clouds 16 1027 63 10000 0.5 100 00:37 05.04.2020
202 Clouds 16 1027 63 10000 0.5 100 00:18 05.04.2020
203 Clouds 17 1027 59 10000 1.5 190 23:41 04.04.2020
204 Clouds 17 1027 59 10000 1.5 190 23:22 04.04.2020
205 Clouds 18 1028 55 10000 4.6 70 22:57 04.04.2020
206 Clouds 18 1028 55 10000 4.6 70 22:39 04.04.2020
207 Clouds 18 1028 55 10000 4.6 70 22:20 04.04.2020
208 Clouds 18 1028 55 10000 4.6 70 21:57 04.04.2020
209 Clouds 18 1028 55 10000 4.6 70 21:39 04.04.2020
210 Clouds 18 1028 55 10000 4.6 70 21:19 04.04.2020
211 Clouds 19 1027 55 10000 6.2 80 20:55 04.04.2020
212 Clouds 19 1027 55 10000 6.2 80 20:36 04.04.2020
213 Clouds 19 1027 55 10000 6.2 80 20:18 04.04.2020
214 Clouds 20 1026 49 10000 6.2 100 19:41 04.04.2020
215 Clouds 20 1026 49 10000 6.2 100 19:21 04.04.2020
216 Clouds 22 1025 35 10000 6.2 100 18:59 04.04.2020
217 Clouds 22 1025 35 10000 6.2 100 18:39 04.04.2020
218 Clouds 22 1025 35 10000 6.2 100 18:21 04.04.2020
219 Clouds 22 1025 35 10000 6.2 100 18:21 04.04.2020
220 Clouds 21 1012 21 0 6.33 95 17:58 04.04.2020
221 Clouds 21 1012 20 0 6.25 96 17:39 04.04.2020
222 Clouds 25 1024 27 10000 7.7 110 17:19 04.04.2020
223 Clouds 25 1024 27 10000 7.7 110 16:45 04.04.2020
224 Clouds 25 1024 27 10000 7.7 110 16:27 04.04.2020
225 Clouds 26 1024 26 10000 8.2 110 15:59 04.04.2020
226 Clouds 26 1024 26 10000 8.2 110 15:39 04.04.2020
227 Clouds 26 1024 26 10000 8.2 110 15:19 04.04.2020
228 Clouds 27 1024 28 10000 6.7 100 14:55 04.04.2020
229 Clouds 27 1024 28 10000 6.7 100 14:37 04.04.2020
230 Clouds 27 1024 28 10000 6.7 100 14:18 04.04.2020
231 Clouds 25 1009 16 0 5.7 102 13:42 04.04.2020
232 Clouds 26 1026 29 10000 5.7 100 13:21 04.04.2020
233 Clouds 26 1026 29 10000 5.7 100 12:58 04.04.2020
234 Clouds 26 1026 29 10000 5.7 100 12:40 04.04.2020
235 Clouds 26 1026 29 10000 5.7 100 12:20 04.04.2020
236 Clouds 24 1014 19 0 5.52 95 11:42 04.04.2020
237 Clouds 23 1027 43 10000 8.2 110 11:23 04.04.2020
238 Clouds 23 1027 43 10000 8.2 110 10:59 04.04.2020
239 Clouds 23 1027 43 10000 8.2 110 10:41 04.04.2020
240 Clouds 23 1027 43 10000 8.2 110 10:23 04.04.2020
241 Clouds 21 1028 52 10000 5.7 120 09:57 04.04.2020
242 Clouds 21 1028 52 10000 5.7 120 09:39 04.04.2020
243 Clouds 21 1028 52 10000 5.7 120 09:20 04.04.2020
244 Clouds 19 1028 63 10000 4.1 100 08:44 04.04.2020
245 Clouds 19 1028 63 10000 4.1 100 08:23 04.04.2020
246 Clouds 18 1016 30 0 4.25 95 07:59 04.04.2020
247 Clouds 18 1016 30 0 4.25 95 07:39 04.04.2020
248 Clouds 18 1016 30 0 4.25 95 07:21 04.04.2020
249 Clouds 18 1016 30 0 4.25 95 06:40 04.04.2020
250 Clouds 14 1026 76 10000 2.1 70 05:52 04.04.2020
251 Clouds 14 1026 76 10000 2.1 70 05:52 04.04.2020
252 Clouds 14 1026 76 10000 2.1 70 05:33 04.04.2020
253 Clouds 12 1016 41 0 1.01 4 04:34 04.04.2020
254 Clouds 12 1016 41 0 1.01 4 03:57 04.04.2020
255 Clouds 12 1016 41 0 1.01 4 03:37 04.04.2020
256 Clouds 14 1025 76 10000 2.1 110 02:48 04.04.2020
257 Clouds 14 1025 76 10000 2.1 110 02:29 04.04.2020
258 Clouds 15 1025 72 10000 1 20 01:46 04.04.2020
259 Clouds 15 1025 72 10000 1 20 01:20 04.04.2020
260 Clouds 15 1026 72 10000 2.1 70 00:43 04.04.2020
261 Clouds 15 1026 72 10000 2.1 70 00:23 04.04.2020
262 Clouds 16 1027 63 10000 3.1 90 23:38 03.04.2020
263 Clouds 16 1027 63 10000 3.1 90 23:19 03.04.2020
264 Clear 14 1016 33 0 2.55 61 22:41 03.04.2020
265 Clouds 18 1026 59 10000 3.1 50 22:19 03.04.2020
266 Clouds 18 1026 59 10000 3.1 50 21:59 03.04.2020
267 Clouds 18 1026 59 10000 3.1 50 21:40 03.04.2020
268 Clouds 18 1026 59 10000 3.1 50 21:21 03.04.2020
269 Clouds 18 1026 59 10000 4.1 60 20:56 03.04.2020
270 Clouds 18 1026 59 10000 4.1 60 20:36 03.04.2020
271 -273 0 0 0 0 0 20:18 03.04.2020
272 Clouds 16 1014 33 0 3.77 82 19:55 03.04.2020
273 Clouds 16 1014 33 0 3.77 82 19:36 03.04.2020
274 Clouds 16 1014 33 0 3.77 82 19:18 03.04.2020
275 Clouds 16 1014 33 0 3.77 82 18:57 03.04.2020
276 Clouds 16 1014 33 0 3.77 82 18:39 03.04.2020
277 Clouds 23 1024 33 10000 8.2 100 18:21 03.04.2020
278 Clouds 21 1011 22 0 7.17 93 17:41 03.04.2020
279 Clouds 24 1023 36 10000 8.2 100 17:20 03.04.2020
280 Clouds 24 1023 36 10000 8.2 100 16:56 03.04.2020
281 Clouds 21 1011 22 0 7.17 93 16:37 03.04.2020
282 Clouds 21 1011 22 0 7.17 93 16:19 03.04.2020
283 Clouds 21 1011 22 0 7.17 93 15:56 03.04.2020
284 Clouds 21 1011 22 0 7.17 93 15:37 03.04.2020
285 Clouds 26 1023 36 10000 8.2 110 15:19 03.04.2020
286 Clouds 24 1009 19 0 5.91 95 14:40 03.04.2020
287 Clouds 25 1024 38 10000 8.2 100 14:22 03.04.2020
288 Clouds 25 1024 38 10000 8.2 100 13:54 03.04.2020
289 Clouds 25 1024 38 10000 8.2 100 13:36 03.04.2020
290 Clouds 25 1024 38 10000 8.2 100 13:18 03.04.2020
291 Clouds 24 1009 19 0 5.73 98 12:42 03.04.2020
292 Clouds 24 1012 20 0 5.33 95 12:19 03.04.2020
293 Clouds 24 1012 20 0 5.33 95 11:56 03.04.2020
294 Clouds 24 1012 20 0 5.33 95 11:37 03.04.2020
295 Clouds 23 1026 49 10000 7.2 90 11:18 03.04.2020
296 Clouds 23 1026 49 10000 7.2 90 10:57 03.04.2020
297 Clouds 23 1026 49 10000 7.2 90 10:57 03.04.2020
298 Clouds 23 1026 49 10000 7.2 90 10:38 03.04.2020
299 Clouds 23 1026 49 10000 7.2 90 10:20 03.04.2020
300 Clouds 23 1026 49 10000 7.2 90 10:20 03.04.2020
301 Clouds 22 1026 53 10000 7.2 90 09:56 03.04.2020
302 Clouds 22 1026 53 10000 7.2 90 09:37 03.04.2020
303 Clouds 22 1026 53 10000 7.2 90 09:37 03.04.2020
304 Clouds 22 1026 53 10000 7.2 90 09:19 03.04.2020
305 Clouds 19 1027 68 10000 4.1 90 08:44 03.04.2020
306 Clouds 19 1014 29 0 3.25 106 08:25 03.04.2020
307 Clouds 19 1014 29 0 3.25 106 07:57 03.04.2020
308 Clouds 19 1014 29 0 3.25 106 07:39 03.04.2020
309 Clouds 19 1014 29 0 3.25 106 07:20 03.04.2020
310 Clouds 19 1014 29 0 3.25 106 06:28 03.04.2020
311 Clouds 14 1015 39 0 0.86 30 05:43 03.04.2020
312 Clouds 16 1025 72 10000 1 100 04:27 03.04.2020
313 Clouds 16 1024 67 10000 2.6 70 03:33 03.04.2020
314 Clouds 15 1012 37 0 0.41 344 02:39 03.04.2020
315 Clouds 17 1025 63 10000 1 30 01:25 03.04.2020
316 Clouds 17 1025 63 10000 1 30 00:47 03.04.2020
317 Clouds 17 1025 63 10000 1 30 00:29 03.04.2020
318 Clouds 17 1025 63 10000 1 30 23:54 02.04.2020
319 Clouds 16 1015 35 0 1.46 44 23:36 02.04.2020
320 Clouds 17 1026 67 10000 2.6 70 23:18 02.04.2020
321 Clouds 17 1026 67 10000 2.6 70 22:41 02.04.2020
322 Clouds 17 1026 67 10000 2.6 70 22:22 02.04.2020
323 Clouds 18 1026 59 10000 2.6 50 21:57 02.04.2020
324 Clouds 18 1026 59 10000 2.6 50 21:37 02.04.2020
325 Clouds 18 1026 59 10000 2.6 50 21:18 02.04.2020
326 Clouds 18 1026 59 10000 2.6 50 21:18 02.04.2020
327 Clouds 18 1026 59 10000 2.6 50 20:44 02.04.2020
328 Clouds 18 1026 59 10000 2.6 50 20:24 02.04.2020
329 Clouds 17 1026 63 10000 2.1 250 19:57 02.04.2020
330 Clouds 17 1026 63 10000 2.1 250 19:38 02.04.2020
331 Clouds 17 1026 63 10000 2.1 250 19:19 02.04.2020
332 Clouds 17 1026 63 10000 6.7 310 18:42 02.04.2020
333 Clouds 17 1026 63 10000 6.7 310 18:21 02.04.2020
334 Clouds 24 1024 38 10000 4.6 100 17:59 02.04.2020
335 Clouds 24 1024 38 10000 4.6 100 17:59 02.04.2020
336 Clouds 24 1024 38 10000 4.6 100 17:40 02.04.2020
337 Clouds 24 1024 38 10000 4.6 100 17:22 02.04.2020
338 Clouds 24 1023 36 10000 6.2 110 16:57 02.04.2020
339 Clouds 24 1023 36 10000 6.2 110 16:39 02.04.2020
340 Clouds 24 1023 36 10000 6.2 110 16:21 02.04.2020
341 Clouds 25 1023 36 10000 6.2 100 15:56 02.04.2020
342 Clouds 25 1023 36 10000 6.2 100 15:38 02.04.2020
343 Clouds 25 1023 36 10000 6.2 100 15:18 02.04.2020
344 Clouds 25 1008 18 0 5.09 93 14:55 02.04.2020
345 Clouds 25 1008 18 0 5.09 93 14:37 02.04.2020
346 Clouds 26 1024 29 10000 7.2 80 14:18 02.04.2020
347 Clouds 25 1008 17 0 4.6 91 13:40 02.04.2020
348 Clouds 24 1025 38 10000 6.2 80 13:21 02.04.2020
349 Clouds 24 1025 38 10000 6.2 80 12:59 02.04.2020
350 Clouds 24 1025 38 10000 6.2 80 12:41 02.04.2020
351 Clouds 24 1025 38 10000 6.2 80 12:19 02.04.2020
352 Clouds 24 1025 38 10000 6.2 80 12:19 02.04.2020
353 Clouds 24 1025 38 10000 6.2 80 11:57 02.04.2020
354 Clouds 24 1025 41 10000 6.2 100 11:38 02.04.2020
355 Clouds 24 1025 41 10000 6.2 100 11:19 02.04.2020
356 Clouds 24 1025 41 10000 6.2 100 11:19 02.04.2020
357 Clouds 24 1026 44 10000 7.2 70 10:55 02.04.2020
358 Clouds 24 1026 44 10000 7.2 70 10:37 02.04.2020
359 Clouds 21 1027 52 10000 5.1 100 10:19 02.04.2020
360 Clouds 21 1027 52 10000 5.1 100 09:56 02.04.2020
361 Clouds 21 1027 52 10000 5.1 100 09:38 02.04.2020
362 Clouds 21 1027 52 10000 5.1 100 09:19 02.04.2020
363 Clouds 20 1027 56 10000 3.1 90 08:46 02.04.2020
364 Clouds 20 1027 56 10000 3.1 90 08:26 02.04.2020
365 Clouds 19 1027 59 10000 1 340 07:45 02.04.2020
366 Clouds 19 1027 59 10000 1 340 07:21 02.04.2020
367 Clouds 15 1026 77 10000 1.5 40 06:58 02.04.2020
368 Clouds 16 1026 72 10000 1 20 06:22 02.04.2020
369 Clouds 16 1026 72 10000 1 20 05:45 02.04.2020
370 Clouds 17 1026 67 10000 1 40 04:35 02.04.2020
371 Clouds 17 1015 67 10000 3.1 70 01:52 02.04.2020
372 Clouds 18 1016 63 10000 1.5 150 00:50 02.04.2020
373 Clouds 18 1016 63 10000 1.5 150 00:50 02.04.2020
374 Clouds 18 1016 63 10000 1.5 150 00:28 02.04.2020
375 Clouds 18 1017 63 10000 2.1 110 23:57 01.04.2020
376 Clouds 18 1017 63 10000 2.1 110 23:37 01.04.2020
377 Clouds 18 1017 63 10000 2.1 110 23:37 01.04.2020
378 Clouds 18 1017 63 10000 2.1 110 23:18 01.04.2020
379 Clouds 19 1018 59 10000 1 130 22:41 01.04.2020
380 Clouds 19 1018 59 10000 1 130 22:22 01.04.2020
381 Clear 15 1016 37 0 1.76 51 21:57 01.04.2020
382 Clear 15 1016 37 0 1.76 51 21:38 01.04.2020
383 Clouds 20 1027 60 10000 6.2 70 21:18 01.04.2020
384 Clouds 20 1027 60 10000 6.2 70 20:55 01.04.2020
385 Clouds 20 1027 60 10000 6.2 70 20:37 01.04.2020
386 Clouds 20 1027 60 10000 6.2 70 20:18 01.04.2020
387 Clouds 20 1026 60 10000 6.2 80 19:43 01.04.2020
388 Clouds 20 1026 60 10000 6.2 80 19:22 01.04.2020
389 Clouds 20 1026 60 10000 6.2 80 18:59 01.04.2020
390 Clouds 22 1026 43 10000 6.2 90 18:40 01.04.2020
391 Clouds 22 1026 43 10000 6.2 90 18:21 01.04.2020
392 Clouds 22 1026 43 10000 6.2 90 17:55 01.04.2020
393 Clouds 24 1025 36 10000 7.2 100 17:36 01.04.2020
394 Clouds 24 1025 36 10000 7.2 100 17:18 01.04.2020
395 Clouds 24 1025 36 10000 7.2 100 17:18 01.04.2020
396 Clouds 26 1024 29 10000 7.2 80 16:42 01.04.2020
397 Clouds 26 1024 29 10000 7.2 80 16:24 01.04.2020
398 Clouds 26 1025 29 10000 8.2 90 15:59 01.04.2020
399 Clouds 26 1025 29 10000 8.2 90 15:41 01.04.2020
400 Clouds 26 1025 29 10000 8.2 90 15:21 01.04.2020
401 Clouds 26 1025 29 10000 9.3 110 14:58 01.04.2020
402 Clouds 26 1025 29 10000 9.3 110 14:38 01.04.2020
403 Clouds 26 1025 29 10000 9.3 110 14:20 01.04.2020
404 Clouds 24 1010 19 0 5.61 98 13:58 01.04.2020
405 Clouds 24 1010 19 0 5.61 98 13:38 01.04.2020
406 Clouds 24 1010 19 0 5.61 98 13:19 01.04.2020
407 Clouds 24 1010 19 0 5.61 98 12:56 01.04.2020
408 Clouds 24 1010 19 0 5.61 98 12:36 01.04.2020
409 Clouds 24 1028 41 10000 7.2 90 12:18 01.04.2020
410 Clouds 24 1028 41 10000 7.2 90 11:44 01.04.2020
411 Clouds 24 1028 41 10000 7.2 90 11:24 01.04.2020
412 Clouds 24 1028 47 10000 8.7 90 10:59 01.04.2020
413 Clouds 24 1028 47 10000 8.7 90 10:38 01.04.2020
414 Clouds 24 1028 47 10000 8.7 90 10:20 01.04.2020
415 Clouds 21 1028 56 10000 6.2 80 09:57 01.04.2020
416 Clouds 21 1028 56 10000 6.2 80 09:39 01.04.2020
417 Clouds 21 1028 56 10000 6.2 80 09:18 01.04.2020
418 Clouds 19 1016 30 0 2.63 104 08:42 01.04.2020
419 Clouds 19 1016 30 0 2.63 104 08:18 01.04.2020
420 Clouds 19 1016 30 0 2.63 104 07:46 01.04.2020
421 Clouds 16 1028 77 10000 2.1 80 07:21 01.04.2020
422 Clouds 16 1028 77 10000 2.1 80 06:52 01.04.2020
423 Clouds 16 1028 77 10000 2.1 80 06:27 01.04.2020
424 Clear 13 1016 43 0 1.51 5 05:58 01.04.2020
425 Clear 13 1016 43 0 1.51 5 04:36 01.04.2020
426 Clear 13 1016 43 0 1.51 5 03:33 01.04.2020
427 Clear 13 1014 42 0 0.8 11 02:57 01.04.2020
428 Clouds 16 1026 82 10000 4.1 70 01:59 01.04.2020
429 Clouds 16 1026 82 10000 4.1 70 01:40 01.04.2020
430 Clouds 16 1026 82 10000 4.1 70 01:19 01.04.2020
431 Clouds 13 1014 43 0 0.98 11 00:46 01.04.2020
432 Clouds 17 1028 77 10000 4.1 100 00:21 01.04.2020
433 Clouds 17 1028 77 10000 4.1 100 23:48 31.03.2020
434 Clouds 17 1028 77 10000 4.1 100 23:27 31.03.2020
435 Clouds 18 1028 72 10000 5.1 80 22:59 31.03.2020
436 Clouds 18 1028 72 10000 5.1 80 22:37 31.03.2020
437 Clouds 18 1028 72 10000 5.1 80 22:19 31.03.2020
438 Clouds 19 1028 59 10000 5.1 130 21:57 31.03.2020
439 Clouds 15 1016 40 0 1.67 75 21:39 31.03.2020
440 Clouds 20 1026 56 10000 6.2 60 21:20 31.03.2020
441 Clouds 20 1026 56 10000 6.2 60 20:55 31.03.2020
442 Clouds 20 1026 56 10000 6.2 60 20:36 31.03.2020
443 Clouds 20 1026 56 10000 6.2 60 20:36 31.03.2020
444 Clouds 20 1026 56 10000 5.1 70 20:18 31.03.2020
445 Clouds 20 1026 56 10000 5.1 70 19:42 31.03.2020
446 Clouds 20 1026 56 10000 5.1 70 19:24 31.03.2020
447 Clouds 17 1015 35 0 3.9 81 18:59 31.03.2020
448 Clouds 17 1015 35 0 3.9 81 18:40 31.03.2020
449 Clouds 21 1011 26 0 6.79 99 18:19 31.03.2020
450 Clouds 21 1011 26 0 6.79 99 17:55 31.03.2020
451 Clouds 21 1011 26 0 6.79 99 17:37 31.03.2020
452 Clouds 21 1011 26 0 6.79 99 17:19 31.03.2020
453 Clouds 21 1011 26 0 6.79 99 16:41 31.03.2020
454 Clouds 21 1011 26 0 6.79 99 16:20 31.03.2020
455 Clouds 21 1011 26 0 6.79 99 15:57 31.03.2020
456 Clouds 21 1011 26 0 6.79 99 15:39 31.03.2020
457 Clouds 21 1011 26 0 6.79 99 15:39 31.03.2020
458 Clouds 21 1011 26 0 6.79 99 15:21 31.03.2020
459 Clouds 24 1010 19 0 4.78 103 14:57 31.03.2020
460 Clouds 24 1010 19 0 4.78 103 14:39 31.03.2020
461 Clouds 24 1010 19 0 4.78 103 14:20 31.03.2020
462 Clouds 25 1010 18 0 4.22 99 13:43 31.03.2020
463 Clouds 25 1026 38 10000 5.7 100 13:20 31.03.2020
464 Clouds 25 1026 38 10000 5.7 100 12:57 31.03.2020
465 Clouds 25 1026 38 10000 5.7 100 12:39 31.03.2020
466 Clouds 25 1026 38 10000 5.7 100 12:19 31.03.2020
467 Clouds 24 1027 41 10000 5.1 70 11:40 31.03.2020
468 Clouds 24 1027 41 10000 5.1 70 11:20 31.03.2020
469 Clouds 23 1028 49 10000 5.7 110 10:58 31.03.2020
470 Clouds 23 1028 49 10000 5.7 110 10:58 31.03.2020
471 Clouds 23 1028 49 10000 5.7 110 10:40 31.03.2020
472 Clouds 23 1028 49 10000 5.7 110 10:21 31.03.2020
473 Clouds 21 1028 56 10000 6.7 110 09:57 31.03.2020
474 Clouds 21 1028 56 10000 6.7 110 09:39 31.03.2020
475 Clouds 21 1028 56 10000 6.7 110 09:21 31.03.2020
476 Clouds 19 1028 63 10000 4.6 100 08:57 31.03.2020
477 Clouds 19 1028 63 10000 4.6 100 08:38 31.03.2020
478 Clouds 19 1028 63 10000 4.6 100 08:19 31.03.2020
479 Clouds 17 1027 63 10000 1 80 07:56 31.03.2020
480 Clouds 17 1027 63 10000 1 80 07:37 31.03.2020
481 Clouds 17 1027 63 10000 1 80 07:18 31.03.2020
482 Clouds 19 1016 30 0 2.88 111 06:43 31.03.2020
483 Clouds 13 1015 38 0 1.25 37 05:59 31.03.2020
484 Clouds 13 1015 38 0 1.25 37 05:39 31.03.2020
485 Clouds 15 1025 72 10000 1 20 03:28 31.03.2020
486 Clouds 16 1026 67 10000 4.1 70 01:52 31.03.2020
487 Clouds 16 1026 67 10000 4.1 70 01:33 31.03.2020
488 Clouds 14 1013 36 0 1.09 341 00:46 31.03.2020
489 Clouds 14 1013 36 0 1.09 341 00:25 31.03.2020
490 Clouds 15 1015 34 0 0.86 89 23:41 30.03.2020
491 Clouds 15 1015 34 0 0.86 89 23:20 30.03.2020
492 Clouds 15 1015 34 0 0.86 89 22:58 30.03.2020
493 Clouds 15 1015 34 0 0.86 89 22:39 30.03.2020
494 Clouds 15 1015 34 0 0.86 89 22:39 30.03.2020
495 Clouds 15 1015 34 0 0.86 89 22:20 30.03.2020
496 Clouds 15 1015 34 0 0.86 89 21:58 30.03.2020
497 Clouds 15 1015 34 0 0.86 89 21:39 30.03.2020
498 Clouds 15 1015 34 0 0.86 89 21:21 30.03.2020
499 Clouds 17 1013 33 0 2.28 73 20:59 30.03.2020
500 Clouds 17 1013 33 0 2.28 73 20:39 30.03.2020
501 Clouds 21 1025 49 10000 6.7 70 20:20 30.03.2020
502 Clouds 21 1025 49 10000 6.7 70 19:57 30.03.2020
503 Clouds 21 1025 49 10000 6.7 70 19:39 30.03.2020
504 Clouds 21 1025 49 10000 6.7 70 19:20 30.03.2020
505 Clouds 22 1025 43 10000 7.2 90 18:43 30.03.2020
506 Clouds 22 1025 43 10000 7.2 90 18:25 30.03.2020
507 Clouds 23 1023 38 10000 7.2 100 17:58 30.03.2020
508 Clouds 23 1023 38 10000 7.2 100 17:39 30.03.2020
509 Clouds 23 1023 38 10000 7.2 100 17:39 30.03.2020
510 Clouds 23 1023 38 10000 7.2 100 17:21 30.03.2020
511 Clouds 26 1023 36 10000 8.2 110 16:59 30.03.2020
512 Clouds 26 1023 36 10000 8.2 110 16:40 30.03.2020
513 Clouds 26 1023 36 10000 8.2 110 16:20 30.03.2020
514 Clouds 21 1010 25 0 7.07 106 15:56 30.03.2020
515 Clouds 21 1010 25 0 7.07 106 15:56 30.03.2020
516 Clouds 21 1010 25 0 7.07 106 15:38 30.03.2020
517 Clouds 21 1010 25 0 7.07 106 15:38 30.03.2020
518 Clouds 26 1023 34 10000 3.6 140 15:20 30.03.2020
519 Clouds 26 1023 34 10000 3.6 140 14:56 30.03.2020
520 Clouds 26 1023 34 10000 3.6 140 14:37 30.03.2020
521 Clouds 26 1023 34 10000 3.6 140 14:18 30.03.2020
522 Clouds 26 1009 15 0 4.07 115 13:56 30.03.2020
523 Clouds 26 1009 15 0 4.07 115 13:37 30.03.2020
524 Clouds 25 1024 33 10000 4.6 160 13:19 30.03.2020
525 Clouds 25 1024 33 10000 4.6 160 12:44 30.03.2020
526 Clouds 25 1024 33 10000 4.6 160 12:21 30.03.2020
527 Clouds 25 1024 33 10000 4.6 160 12:21 30.03.2020
528 Clouds 25 1025 33 10000 4.6 90 11:57 30.03.2020
529 Clouds 25 1025 33 10000 4.6 90 11:57 30.03.2020
530 Clouds 25 1025 33 10000 4.6 90 11:39 30.03.2020
531 Clouds 25 1025 33 10000 4.6 90 11:39 30.03.2020
532 Clouds 25 1025 33 10000 4.6 90 11:21 30.03.2020
533 Clouds 24 1026 36 10000 5.1 110 10:41 30.03.2020
534 Clouds 24 1026 36 10000 5.1 110 10:23 30.03.2020
535 Clouds 23 1026 38 0 2.6 120 09:59 30.03.2020
536 Clouds 23 1026 38 0 2.6 120 09:59 30.03.2020
537 Clouds 23 1026 38 0 2.6 120 09:40 30.03.2020
538 Clouds 23 1026 38 0 2.6 120 09:19 30.03.2020
539 Clouds 21 1027 46 0 4.1 100 08:47 30.03.2020
540 Clouds 21 1027 46 0 4.1 100 08:28 30.03.2020
541 Clouds 21 1027 46 0 4.1 100 08:28 30.03.2020
542 Clouds 19 1026 48 0 1.5 80 07:58 30.03.2020
543 Clouds 19 1026 48 0 1.5 80 07:39 30.03.2020
544 Clouds 19 1026 48 0 1.5 80 07:18 30.03.2020
545 Clouds 15 1026 62 0 1.5 300 06:37 30.03.2020
546 Clear 15 1026 62 0 1.5 300 06:18 30.03.2020
547 Clear 14 1025 67 0 1 40 05:38 30.03.2020
548 Clear 14 1025 62 0 1 240 04:27 30.03.2020
549 Clear 15 1025 54 0 1 310 03:52 30.03.2020
550 Clear 15 1025 54 0 1 180 02:44 30.03.2020
551 Clear 17 1025 48 0 2.1 140 01:54 30.03.2020
552 Clouds 18 1025 45 10000 6.2 50 00:56 30.03.2020
553 Clouds 18 1025 45 10000 6.2 50 00:25 30.03.2020
554 Clouds 18 1025 45 10000 6.2 50 00:25 30.03.2020
555 Clouds 18 1026 45 10000 5.1 50 23:55 29.03.2020
556 Clouds 18 1026 45 10000 5.1 50 23:36 29.03.2020
557 Clouds 18 1026 45 10000 5.1 50 23:18 29.03.2020
558 Clouds 19 1026 37 10000 6.2 50 22:39 29.03.2020
559 Clouds 19 1026 37 10000 6.2 50 22:39 29.03.2020
560 Clouds 19 1026 37 10000 6.2 50 22:20 29.03.2020
561 Clouds 19 1026 42 10000 6.2 60 21:59 29.03.2020
562 Clouds 19 1026 42 10000 6.2 60 21:37 29.03.2020
563 Clouds 19 1026 42 10000 6.2 60 21:19 29.03.2020
564 Clouds 19 1026 42 10000 5.7 70 20:55 29.03.2020
565 Clouds 19 1026 42 10000 5.7 70 20:37 29.03.2020
566 Clouds 19 1026 42 10000 5.7 70 20:18 29.03.2020
567 Clouds 16 1014 28 0 2.97 71 19:55 29.03.2020
568 Clouds 16 1014 28 0 2.97 71 19:37 29.03.2020
569 Clouds 21 1024 40 10000 3.6 80 19:18 29.03.2020
570 Clouds 21 1024 40 10000 3.6 80 18:55 29.03.2020
571 Clouds 21 1024 40 10000 3.6 80 18:37 29.03.2020
572 Clouds 24 1024 33 10000 4.6 90 18:18 29.03.2020
573 Clouds 24 1024 33 10000 4.6 90 17:42 29.03.2020
574 Clouds 24 1024 33 10000 4.6 90 17:24 29.03.2020
575 Clouds 24 1024 36 10000 4.6 130 16:59 29.03.2020
576 Clouds 24 1024 36 10000 4.6 130 16:41 29.03.2020
577 Clouds 24 1024 36 10000 4.6 130 16:21 29.03.2020
578 Clouds 25 1023 33 10000 4.6 110 15:59 29.03.2020
579 Clouds 25 1023 33 10000 4.6 110 15:59 29.03.2020
580 Clouds 25 1023 33 10000 4.6 110 15:40 29.03.2020
581 Clouds 25 1023 33 10000 4.6 110 15:21 29.03.2020
582 Clouds 26 1023 29 10000 2.1 120 14:57 29.03.2020
583 Clouds 26 1023 29 10000 2.1 120 14:37 29.03.2020
584 Clouds 26 1023 29 10000 2.1 120 14:19 29.03.2020
585 Clouds 23 1009 19 0 3 119 13:55 29.03.2020
586 Clouds 23 1009 19 0 3 119 13:37 29.03.2020
587 Clouds 25 1025 33 10000 1.5 140 13:19 29.03.2020
588 Clouds 25 1025 33 10000 1.5 140 12:54 29.03.2020
589 Clouds 25 1025 33 10000 1.5 140 12:36 29.03.2020
590 Clouds 25 1025 33 10000 1.5 140 12:18 29.03.2020
591 Clouds 25 1026 33 10000 5.7 100 11:39 29.03.2020
592 Clouds 25 1026 33 10000 5.7 100 11:21 29.03.2020
593 Clouds 23 1027 40 10000 4.1 80 10:40 29.03.2020
594 Clouds 23 1027 40 10000 4.1 80 10:21 29.03.2020
595 Clouds 23 1013 19 0 2.17 137 09:59 29.03.2020
596 Clouds 23 1013 19 0 2.17 137 09:39 29.03.2020
597 Clouds 20 1028 49 10000 3.1 100 09:19 29.03.2020
598 Clouds 20 1028 49 10000 3.1 100 08:48 29.03.2020
599 Clouds 20 1028 49 10000 3.1 100 08:27 29.03.2020
600 Clouds 17 1028 48 10000 1.5 310 07:56 29.03.2020
601 Clouds 17 1028 48 10000 1.5 310 07:38 29.03.2020
602 Clouds 14 1027 54 10000 2.1 330 07:19 29.03.2020
603 Clouds 13 1015 38 0 1.12 355 04:59 29.03.2020
604 Clouds 13 1015 38 0 1.12 355 03:42 29.03.2020
605 Clouds 15 1026 58 10000 2.1 330 03:24 29.03.2020
606 Clouds 15 1026 58 10000 2.1 330 01:50 29.03.2020
607 Clouds 15 1026 58 10000 2.1 330 01:23 29.03.2020
608 Clouds 15 1026 58 10000 2.1 70 00:53 29.03.2020
609 Clouds 15 1026 58 10000 2.1 70 00:29 29.03.2020
610 Clouds 16 1027 51 10000 2.1 100 23:42 28.03.2020
611 Clouds 16 1027 51 10000 2.1 100 23:23 28.03.2020
612 Clear 15 1015 36 0 1.14 26 22:57 28.03.2020
613 Clear 15 1015 36 0 1.14 26 22:37 28.03.2020
614 Clouds 18 1027 42 10000 3.1 30 22:18 28.03.2020
615 Clouds 18 1027 42 10000 3.1 30 21:41 28.03.2020
616 Clouds 18 1027 42 10000 3.1 30 21:23 28.03.2020
617 Clouds 18 1026 45 10000 5.1 50 20:58 28.03.2020
618 Clouds 18 1026 45 10000 5.1 50 20:39 28.03.2020
619 Clouds 18 1026 45 10000 5.1 50 20:21 28.03.2020
620 Clouds 19 1026 45 10000 5.1 60 19:56 28.03.2020
621 Clouds 19 1026 45 10000 5.1 60 19:37 28.03.2020
622 Clouds 19 1026 45 10000 5.1 60 19:37 28.03.2020
623 Clouds 19 1026 45 10000 5.1 60 19:18 28.03.2020
624 Clouds 20 1025 40 10000 5.1 70 18:47 28.03.2020
625 Clouds 20 1025 40 10000 5.1 70 18:22 28.03.2020
626 Clouds 20 1025 40 10000 5.1 70 17:58 28.03.2020
627 Clouds 17 1014 32 0 2.05 80 17:38 28.03.2020
628 Clouds 23 1024 38 10000 5.1 80 17:19 28.03.2020
629 Clouds 23 1024 38 10000 5.1 80 16:42 28.03.2020
630 Clouds 23 1024 38 10000 5.1 80 16:20 28.03.2020
631 Clouds 23 1024 38 10000 5.1 80 16:20 28.03.2020
632 Clouds 21 1010 24 0 3.99 109 15:56 28.03.2020
633 Clouds 21 1010 24 0 3.99 109 15:37 28.03.2020
634 Clouds 21 1010 24 0 3.99 109 15:18 28.03.2020
635 Clouds 21 1010 24 0 3.99 109 14:42 28.03.2020
636 Clouds 26 1024 31 10000 4.1 120 14:22 28.03.2020
637 Clouds 26 1024 31 10000 4.1 120 13:56 28.03.2020
638 Clouds 26 1024 31 10000 4.1 120 13:37 28.03.2020
639 Clouds 26 1024 31 10000 4.1 120 13:18 28.03.2020
640 Clouds 26 1025 29 10000 4.1 140 12:37 28.03.2020
641 Clouds 26 1025 29 10000 4.1 140 12:19 28.03.2020
642 Clouds 25 1026 31 0 2.1 170 11:42 28.03.2020
643 Clouds 25 1026 31 0 2.1 170 11:42 28.03.2020
644 Clouds 25 1026 31 0 2.1 170 11:21 28.03.2020
645 Clouds 24 1027 33 0 2.1 160 10:43 28.03.2020
646 Clouds 24 1027 33 0 2.1 160 10:24 28.03.2020
647 Clouds 23 1028 38 0 3.1 70 09:59 28.03.2020
648 Clouds 23 1028 38 0 3.1 70 09:39 28.03.2020
649 Clouds 23 1028 38 0 3.1 70 09:21 28.03.2020
650 Clouds 23 1014 17 0 1.52 198 08:42 28.03.2020
651 Clouds 24 1014 17 0 0.83 254 08:42 28.03.2020
652 Clouds 24 1014 17 0 0.83 254 08:24 28.03.2020
653 Clouds 18 1017 24 0 1.1 125 07:52 28.03.2020
654 Clouds 18 1017 24 0 1.1 125 07:34 28.03.2020
655 Clouds 17 1028 48 10000 1.1 125 06:45 28.03.2020
656 Clouds 17 1028 48 10000 1.1 125 06:20 28.03.2020
657 Clouds 18 1017 24 0 1.1 125 05:26 28.03.2020
658 Clouds 12 1016 36 0 1.08 358 04:53 28.03.2020
659 Clouds 12 1016 36 0 1.08 358 04:35 28.03.2020
660 Clouds 13 1026 58 10000 1.08 358 02:50 28.03.2020
661 Clouds 14 1027 58 10000 2.1 280 01:47 28.03.2020
662 Clouds 14 1027 58 10000 2.1 280 01:23 28.03.2020
663 Clouds 14 1027 58 10000 2.1 50 00:47 28.03.2020
664 Clouds 14 1027 58 10000 2.1 50 00:21 28.03.2020
665 Clouds 13 1015 37 0 1.12 348 23:43 27.03.2020
666 Clouds 16 1028 51 10000 3.1 120 23:24 27.03.2020
667 Clouds 16 1028 51 10000 3.1 120 22:57 27.03.2020
668 Clouds 16 1028 51 10000 3.1 120 22:39 27.03.2020
669 Clouds 16 1028 51 10000 3.1 120 22:20 27.03.2020
670 Clouds 16 1028 55 10000 2.1 120 21:57 27.03.2020
671 Clouds 16 1028 55 10000 2.1 120 21:38 27.03.2020
672 Clouds 16 1028 55 10000 2.1 120 21:20 27.03.2020
673 Clouds 18 1027 48 10000 4.1 80 20:55 27.03.2020
674 Clouds 18 1027 48 10000 4.1 80 20:37 27.03.2020
675 Clouds 15 1015 33 0 2.82 88 20:18 27.03.2020
676 Clouds 15 1015 33 0 2.82 88 19:42 27.03.2020
677 Clouds 19 1026 48 10000 5.1 70 19:22 27.03.2020
678 Clouds 19 1026 48 10000 5.1 70 18:56 27.03.2020
679 Clouds 19 1026 48 10000 5.1 70 18:38 27.03.2020
680 Clouds 19 1026 48 10000 5.1 70 18:38 27.03.2020
681 Clouds 19 1026 48 10000 5.1 70 18:19 27.03.2020
682 Clouds 15 1015 33 0 2.82 88 17:40 27.03.2020
683 Clouds 20 1011 26 0 5.62 112 17:20 27.03.2020
684 Clouds 20 1011 26 0 5.62 112 16:54 27.03.2020
685 Clouds 20 1011 26 0 5.62 112 16:36 27.03.2020
686 Clouds 20 1011 26 0 5.62 112 16:18 27.03.2020
687 Clouds 20 1011 26 0 5.62 112 15:42 27.03.2020
688 Clouds 20 1011 26 0 5.62 112 15:24 27.03.2020
689 Clouds 20 1011 26 0 5.62 112 14:46 27.03.2020
690 Clouds 24 1024 31 10000 3.1 130 14:25 27.03.2020
691 Clouds 24 1024 31 10000 3.1 130 13:57 27.03.2020
692 Clouds 24 1024 31 10000 3.1 130 13:57 27.03.2020
693 Clouds 24 1024 31 10000 3.1 130 13:38 27.03.2020
694 Clouds 24 1024 31 10000 3.1 130 13:19 27.03.2020
695 Clouds 24 1025 31 10000 2.1 200 12:55 27.03.2020
696 Clouds 24 1025 31 10000 2.1 200 12:37 27.03.2020
697 Clouds 23 1010 18 0 2.88 130 12:18 27.03.2020
698 Clouds 23 1010 18 0 2.88 130 11:41 27.03.2020
699 Clouds 23 1027 35 10000 3.1 150 11:23 27.03.2020
700 Clouds 23 1027 35 10000 3.1 150 10:55 27.03.2020
701 Clouds 23 1027 35 10000 3.1 150 10:37 27.03.2020
702 Clouds 23 1027 35 10000 3.1 150 10:37 27.03.2020
703 Clouds 23 1027 35 10000 3.1 150 10:18 27.03.2020
704 Clouds 23 1027 35 10000 3.1 150 09:56 27.03.2020
705 Clouds 22 1028 37 0 5.1 70 09:37 27.03.2020
706 Clouds 22 1028 37 0 5.1 70 09:18 27.03.2020
707 Clouds 22 1028 37 0 5.1 70 08:55 27.03.2020
708 Clouds 20 1028 45 0 4.1 90 08:37 27.03.2020
709 Clouds 20 1028 45 0 4.1 90 08:18 27.03.2020
710 Clouds 17 1017 25 0 1.69 124 07:49 27.03.2020
711 Clouds 17 1027 51 0 1 110 07:23 27.03.2020
712 Clouds 17 1027 51 0 1 110 06:51 27.03.2020
713 Clouds 17 1027 51 0 1 110 06:33 27.03.2020
714 Clouds 13 1025 54 0 2.1 10 04:23 27.03.2020
715 Clouds 12 1025 62 0 3.1 35 02:25 27.03.2020
716 Clear 13 1025 62 0 1 280 01:23 27.03.2020
717 Clear 12 1014 30 0 0.84 352 00:48 27.03.2020
718 Clouds 16 1025 59 10000 5.1 70 00:23 27.03.2020
719 Clouds 16 1025 59 10000 5.1 70 23:43 26.03.2020
720 Clouds 16 1025 59 10000 5.1 70 23:21 26.03.2020
721 Clouds 16 1025 59 10000 5.1 70 22:58 26.03.2020
722 Clear 13 1015 29 0 1.18 51 22:37 26.03.2020
723 Clear 13 1015 29 0 1.18 51 22:19 26.03.2020
724 Clear 13 1015 29 0 1.18 51 21:55 26.03.2020
725 Clear 13 1015 29 0 1.18 51 21:37 26.03.2020
726 Clouds 18 1025 52 10000 6.2 70 21:18 26.03.2020
727 Clouds 18 1025 52 10000 6.2 70 20:41 26.03.2020
728 Clouds 18 1025 52 10000 6.2 70 20:23 26.03.2020
729 Clouds 18 1025 52 10000 5.1 60 19:58 26.03.2020
730 Clouds 18 1025 52 10000 5.1 60 19:40 26.03.2020
731 Clouds 18 1025 52 10000 5.1 60 19:22 26.03.2020
732 Clouds 19 1024 48 10000 5.1 80 18:59 26.03.2020
733 Clouds 19 1024 48 10000 5.1 80 18:41 26.03.2020
734 Clouds 19 1024 48 10000 5.1 80 18:23 26.03.2020
735 Clouds 20 1023 45 10000 5.7 80 17:45 26.03.2020
736 Clouds 19 1009 25 0 4.77 113 17:21 26.03.2020
737 Clouds 19 1009 25 0 4.77 113 16:59 26.03.2020
738 Clouds 19 1009 25 0 4.77 113 16:39 26.03.2020
739 Clouds 19 1009 25 0 4.77 113 16:39 26.03.2020
740 Clouds 23 1022 40 10000 4.1 140 16:21 26.03.2020
741 Clouds 23 1022 40 10000 4.1 140 15:56 26.03.2020
742 Clouds 23 1022 40 10000 4.1 140 15:38 26.03.2020
743 Clouds 23 1022 40 10000 4.1 140 15:38 26.03.2020
744 Clouds 23 1022 40 10000 4.1 140 15:20 26.03.2020
745 Clouds 19 1009 25 0 4.77 113 14:43 26.03.2020
746 Clouds 23 1022 40 10000 4.1 160 14:25 26.03.2020
747 Clouds 23 1022 40 10000 4.1 160 13:59 26.03.2020
748 Clouds 23 1022 40 10000 4.1 160 13:40 26.03.2020
749 Clouds 23 1022 40 10000 4.1 160 13:21 26.03.2020
750 Clouds 23 1022 40 10000 4.1 160 13:21 26.03.2020
751 Clouds 22 1008 22 0 3.27 127 12:39 26.03.2020
752 Clouds 23 1021 40 10000 4.1 180 12:21 26.03.2020
753 Clouds 23 1021 40 10000 4.1 180 12:21 26.03.2020
754 Clouds 23 1021 40 10000 4.1 180 11:56 26.03.2020
755 Clouds 23 1021 40 10000 4.1 180 11:56 26.03.2020
756 Clouds 23 1021 40 10000 4.1 180 11:37 26.03.2020
757 Clouds 20 1012 25 0 3.03 145 11:19 26.03.2020
758 Clouds 20 1012 25 0 3.03 145 10:42 26.03.2020
759 Clouds 21 1025 46 10000 4.6 170 10:20 26.03.2020
760 Clouds 21 1025 46 10000 4.6 170 09:46 26.03.2020
761 Clouds 21 1025 46 10000 4.6 170 09:24 26.03.2020
762 Clouds 20 1012 25 0 3.03 145 08:58 26.03.2020
763 Clouds 20 1012 25 0 3.03 145 08:40 26.03.2020
764 Clouds 18 1025 63 10000 1.5 70 08:22 26.03.2020
765 Clouds 18 1025 63 10000 1.5 70 07:56 26.03.2020
766 Clouds 18 1025 63 10000 1.5 70 07:38 26.03.2020
767 Clouds 18 1025 63 10000 1.5 70 07:19 26.03.2020
768 Clouds 16 1025 72 10000 2.1 130 06:33 26.03.2020
769 Clouds 14 1024 82 10000 1 120 05:47 26.03.2020
770 Clouds 13 1013 45 0 0.88 99 03:46 26.03.2020
771 Clouds 15 1023 72 10000 2.6 80 02:58 26.03.2020
772 Clouds 16 1022 67 10000 4.1 60 01:51 26.03.2020
773 Clouds 16 1022 67 10000 4.1 60 01:18 26.03.2020
774 Clouds 17 1024 67 10000 4.1 70 00:32 26.03.2020
775 Clouds 13 1011 47 0 1.01 100 23:44 25.03.2020
776 Clouds 17 1025 63 10000 5.1 70 23:24 25.03.2020
777 Clouds 17 1025 63 10000 5.1 70 22:42 25.03.2020
778 Clouds 17 1025 63 10000 5.1 70 22:22 25.03.2020
779 Clouds 17 1025 63 10000 5.1 70 21:59 25.03.2020
780 Clouds 17 1025 63 10000 5.1 70 21:41 25.03.2020
781 Clouds 17 1025 63 10000 5.1 70 21:23 25.03.2020
782 Clouds 14 1013 44 0 2 93 20:57 25.03.2020
783 Clouds 14 1013 44 0 2 93 20:38 25.03.2020
784 Clouds 14 1013 44 0 2 93 20:38 25.03.2020
785 Clouds 19 1023 59 10000 4.1 60 20:18 25.03.2020
786 Clouds 19 1023 59 10000 4.1 60 19:43 25.03.2020
787 Clouds 19 1023 59 10000 4.1 60 19:24 25.03.2020
788 Clouds 20 1022 56 10000 4.1 70 18:59 25.03.2020
789 Clouds 20 1022 56 10000 4.1 70 18:41 25.03.2020
790 Clouds 20 1022 56 10000 4.1 70 18:23 25.03.2020
791 Rain 16 1011 39 0 2.57 84 17:58 25.03.2020
792 Rain 16 1011 39 0 2.57 84 17:58 25.03.2020
793 Rain 16 1011 39 0 2.48 87 17:39 25.03.2020
794 Rain 16 1011 39 0 2.57 84 17:21 25.03.2020
795 Rain 20 1007 25 0 0.38 125 16:55 25.03.2020
796 Rain 20 1007 25 0 0.38 125 16:36 25.03.2020
797 Rain 20 1007 26 0 0.42 88 16:18 25.03.2020
798 Rain 20 1007 25 0 0.38 125 15:41 25.03.2020
799 Rain 20 1007 25 0 0.38 125 15:20 25.03.2020
800 Rain 20 1007 25 0 0.38 125 14:56 25.03.2020
801 Rain 20 1007 25 0 0.38 125 14:37 25.03.2020
802 Clouds 21 1021 52 10000 3.6 130 14:18 25.03.2020
803 Clouds 21 1021 52 10000 3.6 130 13:42 25.03.2020
804 Clouds 21 1021 52 10000 3.6 130 13:22 25.03.2020
805 Clouds 20 1022 60 10000 4.1 160 12:38 25.03.2020
806 Clouds 20 1022 60 10000 4.1 160 12:20 25.03.2020
807 Clouds 20 1022 60 10000 4.1 160 11:56 25.03.2020
808 Clouds 20 1023 60 10000 4.6 140 11:38 25.03.2020
809 Clouds 20 1023 60 10000 4.6 140 11:20 25.03.2020
810 Clouds 20 1023 60 10000 4.6 140 10:57 25.03.2020
811 Rain 21 1011 25 0 2.36 215 10:39 25.03.2020
812 Clouds 22 1025 53 10000 3.1 180 10:18 25.03.2020
813 Clouds 22 1025 53 10000 3.1 180 09:43 25.03.2020
814 Clouds 22 1025 53 10000 3.1 180 09:24 25.03.2020
815 Clouds 20 1025 60 10000 3.1 230 08:57 25.03.2020
816 Clouds 20 1025 60 10000 3.1 230 08:39 25.03.2020
817 Clouds 20 1025 60 10000 3.1 230 08:19 25.03.2020
818 Clouds 18 1025 77 10000 1 100 07:41 25.03.2020
819 Clouds 18 1025 77 10000 1 100 07:22 25.03.2020
820 Clouds 16 1024 77 10000 2.1 310 06:50 25.03.2020
821 Clouds 16 1024 77 10000 2.1 310 06:28 25.03.2020
822 Clouds 16 1024 77 10000 2.1 310 06:28 25.03.2020
823 Clouds 18 1013 34 0 2.21 156 05:56 25.03.2020
824 Clouds 18 1013 34 0 2.21 156 05:30 25.03.2020
825 Rain 14 1013 42 0 0.77 104 04:39 25.03.2020
826 Rain 14 1013 42 0 0.77 104 03:36 25.03.2020
827 Rain 14 1013 42 0 0.77 104 02:40 25.03.2020
828 Clouds 14 1024 82 10000 1 340 01:23 25.03.2020
829 Clouds 14 1024 82 10000 1 340 00:49 25.03.2020
830 Clouds 14 1024 82 10000 1 340 00:24 25.03.2020
831 Clouds 15 1024 82 10000 2.1 50 23:45 24.03.2020
832 Clouds 15 1024 82 10000 2.1 50 23:26 24.03.2020
833 Clouds 15 1025 82 10000 2.1 70 22:57 24.03.2020
834 Clouds 15 1025 82 10000 2.1 70 22:38 24.03.2020
835 Clouds 15 1025 82 10000 2.1 70 22:19 24.03.2020
836 Clouds 16 1025 77 10000 2.1 160 21:56 24.03.2020
837 Clouds 16 1025 77 10000 2.1 160 21:37 24.03.2020
838 Clouds 16 1025 77 10000 2.1 160 21:18 24.03.2020
839 Clouds 16 1024 77 10000 3.1 20 20:56 24.03.2020
840 Clouds 16 1024 77 10000 3.1 20 20:38 24.03.2020
841 Clouds 16 1024 77 10000 3.1 20 20:19 24.03.2020
842 Clouds 16 1025 77 10000 1 10 19:41 24.03.2020
843 Clouds 16 1025 77 10000 1 10 19:19 24.03.2020
844 Clouds 18 1024 68 10000 2.1 80 18:55 24.03.2020
845 Clouds 18 1024 68 10000 2.1 80 18:37 24.03.2020
846 Clouds 18 1024 68 10000 2.1 80 18:18 24.03.2020
847 Clouds 18 1024 68 10000 2.1 80 18:18 24.03.2020
848 Clouds 18 1023 77 7000 5.1 80 17:42 24.03.2020
849 Clouds 18 1023 77 7000 5.1 80 17:23 24.03.2020
850 Clouds 18 1023 77 7000 5.1 80 16:58 24.03.2020
851 Clouds 18 1023 77 7000 5.1 80 16:58 24.03.2020
852 Clouds 20 1022 68 9000 5.1 280 16:40 24.03.2020
853 Clouds 20 1022 68 9000 5.1 280 16:22 24.03.2020
854 Clouds 21 1021 60 10000 4.1 180 15:58 24.03.2020
855 Clouds 21 1021 60 10000 4.1 180 15:38 24.03.2020
856 Clouds 21 1021 60 10000 4.1 180 15:20 24.03.2020
857 Clouds 23 1021 49 10000 3.1 160 14:43 24.03.2020
858 Clouds 23 1021 49 10000 3.1 160 14:20 24.03.2020
859 Clouds 22 1021 49 10000 4.1 320 13:44 24.03.2020
860 Clouds 22 1021 49 10000 4.1 320 13:24 24.03.2020
861 Clouds 22 1023 46 10000 3.6 160 12:58 24.03.2020
862 Clouds 22 1023 46 10000 3.6 160 12:38 24.03.2020
863 Clouds 22 1023 46 10000 3.6 160 12:38 24.03.2020
864 Clouds 22 1023 46 10000 3.6 160 12:20 24.03.2020
865 Clouds 21 1024 49 10000 3.6 210 11:40 24.03.2020
866 Clouds 21 1024 49 10000 3.6 210 11:20 24.03.2020
867 Clouds 21 1025 49 10000 3.6 170 10:54 24.03.2020
868 Clouds 21 1025 49 10000 3.6 170 10:36 24.03.2020
869 Clouds 21 1025 49 10000 3.6 170 10:18 24.03.2020
870 Clouds 21 1026 49 10000 2.6 210 09:42 24.03.2020
871 Clouds 21 1026 49 10000 2.6 210 09:24 24.03.2020
872 Clouds 20 1027 52 10000 2.6 130 08:40 24.03.2020
873 Clouds 20 1027 52 10000 2.6 130 08:21 24.03.2020
874 Clouds 20 1027 52 10000 2.6 130 08:21 24.03.2020
875 Clouds 19 1027 59 10000 2.6 150 07:51 24.03.2020
876 Clouds 19 1027 59 10000 2.6 150 07:25 24.03.2020
877 Clouds 16 1026 72 10000 1.5 290 06:59 24.03.2020
878 Clouds 16 1026 72 10000 1.5 290 06:33 24.03.2020
879 Clouds 15 1026 77 10000 1.5 310 05:29 24.03.2020
880 Clouds 14 1025 82 10000 1.5 70 04:41 24.03.2020
881 Clouds 14 1025 82 10000 2.6 310 03:19 24.03.2020
882 Clouds 14 1025 82 10000 2.6 40 01:50 24.03.2020
883 Clouds 14 1026 82 10000 4.1 40 00:51 24.03.2020
884 Clouds 14 1026 82 10000 4.1 40 00:26 24.03.2020
885 Clouds 14 1026 82 10000 4.1 40 23:49 23.03.2020
886 Clouds 16 1027 72 10000 4.1 50 23:29 23.03.2020
887 Clouds 16 1027 72 10000 4.1 50 22:58 23.03.2020
888 Clouds 17 1027 72 10000 4.1 50 22:39 23.03.2020
889 Clouds 17 1027 72 10000 4.1 50 22:21 23.03.2020
890 Clouds 17 1027 72 10000 2.1 110 21:44 23.03.2020
891 Clouds 17 1027 72 10000 2.1 110 21:44 23.03.2020
892 Clouds 17 1027 72 10000 2.1 110 21:21 23.03.2020
893 Clouds 17 1027 72 10000 1 170 20:59 23.03.2020
894 Clouds 17 1027 72 10000 1 170 20:41 23.03.2020
895 Clouds 17 1027 72 10000 1 170 20:23 23.03.2020
896 Clouds 17 1027 72 10000 1 170 19:55 23.03.2020
897 Rain 15 1014 81 0 2.31 63 19:37 23.03.2020
898 Clouds 19 1026 55 10000 2.1 150 19:18 23.03.2020
899 Clouds 19 1026 55 10000 2.1 150 18:43 23.03.2020
900 Clouds 19 1026 55 10000 2.1 150 18:24 23.03.2020
901 Clouds 19 1026 55 10000 2.1 150 17:57 23.03.2020
902 Clouds 19 1026 55 10000 2.1 150 17:57 23.03.2020
903 Clouds 20 1025 56 10000 1 260 17:38 23.03.2020
904 Clouds 20 1024 56 10000 3.1 180 17:19 23.03.2020
905 Clouds 20 1024 56 10000 3.1 180 16:43 23.03.2020
906 Clouds 20 1024 56 10000 3.1 180 16:25 23.03.2020
907 Rain 19 1011 63 0 1.68 112 15:44 23.03.2020
908 Rain 19 1011 63 0 1.68 112 15:21 23.03.2020
909 Rain 19 1011 63 0 1.68 112 14:57 23.03.2020
910 Rain 19 1011 63 0 1.68 112 14:37 23.03.2020
911 Clouds 21 1025 56 10000 2.1 190 14:18 23.03.2020
912 Clouds 21 1025 56 10000 2.1 190 14:18 23.03.2020
913 Clouds 21 1025 56 10000 2.1 190 13:41 23.03.2020
914 Clouds 21 1025 56 10000 2.1 190 13:41 23.03.2020
915 Clouds 21 1025 56 10000 2.1 190 13:22 23.03.2020
916 Rain 21 1011 56 0 0.78 225 12:58 23.03.2020
917 Rain 21 1011 56 0 0.78 225 12:40 23.03.2020
918 Clouds 20 1027 60 10000 3.1 150 12:22 23.03.2020
919 Clouds 20 1027 60 10000 3.1 150 11:42 23.03.2020
920 Clouds 20 1027 60 10000 3.1 150 11:21 23.03.2020
921 Clouds 18 1028 68 10000 3.1 150 10:58 23.03.2020
922 Clouds 18 1028 68 10000 3.1 150 10:40 23.03.2020
923 Clouds 18 1028 68 10000 3.1 150 10:21 23.03.2020
924 Clouds 17 1030 82 10000 3.1 170 09:57 23.03.2020
925 Clouds 17 1030 82 10000 3.1 170 09:39 23.03.2020
926 Clouds 17 1030 82 10000 3.1 170 09:18 23.03.2020
927 Clouds 16 1030 87 10000 2.1 140 08:38 23.03.2020
928 Clouds 16 1030 87 10000 2.1 140 08:19 23.03.2020
929 Clouds 15 1030 87 10000 2.1 120 07:50 23.03.2020
930 Clouds 15 1030 87 10000 2.1 120 07:32 23.03.2020
931 Clouds 16 1018 76 0 2.49 107 06:54 23.03.2020
932 Clouds 16 1018 76 0 2.49 107 06:32 23.03.2020
933 Clouds 16 1018 76 0 2.49 107 05:42 23.03.2020
934 Rain 14 1017 84 0 1.02 89 03:54 23.03.2020
935 Rain 14 1017 84 0 1.02 89 02:43 23.03.2020
936 Clouds 14 1027 93 0 4.6 150 01:39 23.03.2020
937 Clouds 15 1027 87 10000 3.1 150 00:45 23.03.2020
938 Clouds 15 1028 87 0 5.1 110 23:58 22.03.2020
939 Clouds 15 1028 87 0 5.1 110 23:40 22.03.2020
940 Clouds 15 1028 87 0 5.1 110 23:22 22.03.2020
941 Rain 13 1017 86 0 0.91 305 22:40 22.03.2020
942 Rain 13 1017 86 0 0.91 305 22:20 22.03.2020
943 Rain 13 1017 86 0 0.91 305 21:40 22.03.2020
944 Rain 13 1017 86 0 0.91 305 21:21 22.03.2020
945 Rain 13 1017 86 0 0.91 305 20:58 22.03.2020
946 Rain 13 1017 86 0 0.91 305 20:40 22.03.2020
947 Clouds 18 1027 68 10000 4.1 220 20:21 22.03.2020
948 Clouds 18 1027 68 10000 4.1 220 19:56 22.03.2020
949 Clouds 18 1027 68 10000 4.1 220 19:38 22.03.2020
950 Clouds 18 1027 68 10000 4.1 220 19:19 22.03.2020
951 Clouds 18 1026 68 10000 4.1 240 18:57 22.03.2020
952 Clouds 18 1026 68 10000 4.1 240 18:39 22.03.2020
953 Clouds 18 1026 68 10000 4.1 240 18:18 22.03.2020
954 Rain 14 1016 88 0 2.3 100 17:56 22.03.2020
955 Rain 14 1016 88 0 2.3 100 17:37 22.03.2020
956 Clouds 20 1025 60 9000 3.1 340 17:19 22.03.2020
957 Clouds 20 1025 60 9000 3.1 340 16:55 22.03.2020
958 Clouds 20 1025 60 9000 3.1 340 16:37 22.03.2020
959 Clouds 20 1025 60 9000 3.1 340 16:19 22.03.2020
960 Clouds 21 1024 52 10000 3.1 260 15:39 22.03.2020
961 Clouds 21 1024 52 10000 3.1 260 15:19 22.03.2020
962 Clouds 21 1024 52 10000 3.1 200 14:46 22.03.2020
963 Clouds 21 1024 52 10000 3.1 200 14:18 22.03.2020
964 Rain 20 1011 56 0 2.16 237 13:42 22.03.2020
965 Rain 21 1011 53 0 1.32 208 13:20 22.03.2020
966 Rain 21 1011 53 0 1.32 208 12:47 22.03.2020
967 Rain 21 1011 53 0 1.32 208 12:23 22.03.2020
968 Rain 21 1011 53 0 1.32 208 12:23 22.03.2020
969 Rain 21 1011 53 0 1.32 208 11:59 22.03.2020
970 Rain 21 1011 53 0 1.32 208 11:41 22.03.2020
971 Rain 21 1011 53 0 1.32 208 11:23 22.03.2020
972 Rain 18 1015 63 0 1.88 231 10:57 22.03.2020
973 Rain 18 1015 63 0 1.88 231 10:39 22.03.2020
974 Clouds 17 1029 72 10000 1 140 10:21 22.03.2020
975 Clouds 17 1029 72 10000 1 140 09:43 22.03.2020
976 Clouds 17 1029 72 10000 1 140 09:23 22.03.2020
977 Rain 18 1015 63 0 1.88 231 08:44 22.03.2020
978 Clouds 15 1028 82 10000 2.1 150 08:25 22.03.2020
979 Clouds 15 1028 82 10000 2.1 150 07:53 22.03.2020
980 Clouds 15 1028 82 10000 2.1 150 07:28 22.03.2020
981 Rain 16 1016 74 0 1.52 196 06:40 22.03.2020
982 Clouds 13 1027 93 10000 2.1 90 05:35 22.03.2020
983 Clouds 14 1027 87 0 2.1 280 03:47 22.03.2020
984 Rain 14 1014 87 0 3.34 137 01:35 22.03.2020
985 Rain 14 1028 93 0 3.6 260 00:48 22.03.2020
986 Rain 14 1028 93 0 3.6 260 00:29 22.03.2020
987 Rain 14 1027 100 0 3.6 210 23:44 21.03.2020
988 Rain 14 1027 100 0 3.6 210 23:21 21.03.2020
989 Rain 15 1028 93 0 3.1 200 22:58 21.03.2020
990 Rain 16 1015 76 0 1.22 250 22:37 21.03.2020
991 Rain 15 1028 87 0 4.1 140 22:18 21.03.2020
992 Rain 15 1028 87 0 4.1 140 21:56 21.03.2020
993 Rain 15 1028 87 0 4.1 140 21:37 21.03.2020
994 Rain 15 1028 87 0 4.1 140 21:18 21.03.2020
995 Clouds 18 1027 68 10000 6.7 360 20:41 21.03.2020
996 Clouds 19 1025 59 10000 4.1 330 20:20 21.03.2020
997 Clouds 19 1025 59 10000 4.1 330 19:44 21.03.2020
998 Clouds 19 1025 59 10000 4.1 330 19:25 21.03.2020
999 Clouds 19 1025 59 10000 4.1 330 18:59 21.03.2020
1000 Clouds 19 1025 59 10000 3.1 280 18:40 21.03.2020
1001 Clouds 19 1025 59 10000 3.1 280 18:20 21.03.2020
1002 Rain 15 1014 77 0 5.96 348 17:57 21.03.2020
1003 Rain 15 1014 77 0 5.96 348 17:39 21.03.2020
1004 Rain 15 1014 77 0 5.96 348 17:20 21.03.2020
1005 Rain 19 1011 70 0 3.01 88 16:41 21.03.2020
1006 Clouds 19 1023 63 10000 4.1 110 16:22 21.03.2020
1007 Clouds 19 1023 63 10000 4.1 110 15:57 21.03.2020
1008 Clouds 19 1023 63 10000 4.1 110 15:39 21.03.2020
1009 Clouds 19 1023 63 10000 4.1 110 15:39 21.03.2020
1010 Clouds 19 1023 63 10000 4.1 110 15:20 21.03.2020
1011 Rain 19 1011 70 0 3.01 88 14:55 21.03.2020
1012 Rain 19 1011 70 0 3.01 88 14:37 21.03.2020
1013 Rain 21 1009 52 0 2.41 139 14:18 21.03.2020
1014 Rain 21 1009 52 0 2.41 139 13:57 21.03.2020
1015 Rain 21 1009 52 0 2.41 139 13:38 21.03.2020
1016 Rain 22 1009 48 0 3.53 123 13:19 21.03.2020
1017 Rain 22 1009 48 0 3.53 123 12:41 21.03.2020
1018 Rain 22 1009 48 0 3.53 123 12:20 21.03.2020
1019 Rain 22 1009 48 0 3.53 123 11:59 21.03.2020
1020 Rain 22 1009 48 0 3.53 123 11:39 21.03.2020
1021 Clouds 23 1026 43 10000 5.1 130 11:20 21.03.2020
1022 Clouds 23 1026 43 10000 5.1 130 10:58 21.03.2020
1023 Clouds 23 1026 43 10000 5.1 130 10:39 21.03.2020
1024 Clouds 23 1026 43 10000 5.1 130 10:21 21.03.2020
1025 Clouds 22 1027 40 10000 5.1 140 09:59 21.03.2020
1026 Clouds 22 1027 40 10000 5.1 140 09:39 21.03.2020
1027 Clouds 22 1027 40 10000 5.1 140 09:20 21.03.2020
1028 Clouds 20 1027 56 10000 4.6 150 08:55 21.03.2020
1029 Clouds 20 1027 56 10000 4.6 150 08:37 21.03.2020
1030 Clouds 20 1027 56 10000 4.6 150 08:18 21.03.2020
1031 Clouds 18 1027 72 10000 4.1 110 07:37 21.03.2020
1032 Clouds 18 1027 72 10000 4.1 110 07:18 21.03.2020
1033 Clouds 17 1026 82 10000 3.1 90 06:42 21.03.2020
1034 Clouds 17 1026 82 10000 3.1 90 06:23 21.03.2020
1035 Clouds 15 1026 87 10000 2.6 60 05:40 21.03.2020
1036 Rain 14 1025 93 6000 4.1 320 03:49 21.03.2020
1037 Rain 14 1025 87 6000 4.1 260 02:37 21.03.2020
1038 Rain 14 1025 93 6000 4.1 200 01:44 21.03.2020
1039 Rain 14 1025 93 6000 4.1 200 01:23 21.03.2020
1040 Clouds 15 1026 87 10000 2.1 220 00:39 21.03.2020
1041 Clouds 15 1026 87 10000 2.1 220 00:21 21.03.2020
1042 Clouds 15 1026 87 0 1.5 240 23:42 20.03.2020
1043 Clouds 15 1026 87 0 1.5 240 23:22 20.03.2020
1044 Clouds 16 1027 82 10000 5.1 200 22:44 20.03.2020
1045 Clouds 16 1027 82 10000 5.1 200 22:25 20.03.2020
1046 Clouds 18 1027 68 10000 3.6 60 21:58 20.03.2020
1047 Clouds 18 1027 68 10000 3.6 60 21:40 20.03.2020
1048 Clouds 18 1027 68 10000 3.6 60 21:20 20.03.2020
1049 Clouds 19 1027 55 10000 3.1 80 20:58 20.03.2020
1050 Clouds 19 1027 55 10000 3.1 80 20:40 20.03.2020
1051 Clouds 19 1027 55 10000 3.1 80 20:19 20.03.2020
1052 Clouds 20 1026 56 10000 3.1 70 19:47 20.03.2020
1053 Clouds 20 1026 56 10000 3.1 70 19:20 20.03.2020
1054 Clouds 20 1026 56 10000 3.1 70 18:57 20.03.2020
1055 Clouds 20 1026 56 10000 3.1 70 18:38 20.03.2020
1056 Clouds 20 1026 56 10000 3.1 70 18:20 20.03.2020
1057 Clouds 21 1025 46 10000 3.02 62 17:56 20.03.2020
1058 Clouds 21 1025 46 10000 3.02 62 17:37 20.03.2020
1059 Clouds 20 1011 56 0 4.44 92 17:18 20.03.2020
1060 Clouds 20 1011 56 0 4.44 92 16:41 20.03.2020
1061 Clouds 24 1024 38 10000 5.1 100 16:21 20.03.2020
1062 Clouds 24 1024 38 10000 5.1 100 15:45 20.03.2020
1063 Clouds 24 1024 38 10000 5.1 100 15:23 20.03.2020
1064 Clouds 20 1011 56 0 4.44 92 14:59 20.03.2020
1065 Clouds 20 1011 56 0 4.44 92 14:41 20.03.2020
1066 Clouds 20 1011 56 0 4.44 92 14:20 20.03.2020
1067 Rain 22 1010 47 0 4.34 120 13:48 20.03.2020
1068 Clouds 22 1010 47 0 3.56 117 13:24 20.03.2020
1069 Clouds 22 1010 47 0 3.56 117 13:24 20.03.2020
1070 Clouds 22 1010 47 0 3.56 117 12:58 20.03.2020
1071 Clouds 22 1010 47 0 3.56 117 12:38 20.03.2020
1072 Clouds 23 1026 43 10000 3.1 130 12:19 20.03.2020
1073 Clouds 23 1026 43 10000 3.1 130 11:39 20.03.2020
1074 Clouds 23 1026 43 10000 3.1 130 11:20 20.03.2020
1075 Clouds 21 1014 46 0 2.98 112 10:55 20.03.2020
1076 Clouds 21 1014 46 0 2.98 112 10:37 20.03.2020
1077 Clouds 21 1027 49 10000 5.1 110 10:18 20.03.2020
1078 Clouds 21 1027 49 10000 5.1 110 09:45 20.03.2020
1079 Clouds 21 1027 49 10000 5.1 110 09:21 20.03.2020
1080 Clouds 20 1028 60 10000 3.6 150 08:57 20.03.2020
1081 Clouds 20 1028 60 10000 3.6 150 08:38 20.03.2020
1082 Clouds 20 1028 60 10000 3.6 150 08:18 20.03.2020
1083 Clouds 18 1028 68 10000 2.1 90 07:39 20.03.2020
1084 Clouds 18 1028 68 10000 2.1 90 07:21 20.03.2020
1085 Clouds 17 1027 72 10000 1 110 06:42 20.03.2020
1086 Clouds 17 1027 72 10000 1 110 06:18 20.03.2020
1087 Clouds 15 1026 77 10000 2.26 26 04:38 20.03.2020
1088 -273 0 0 0 0 0 02:50 20.03.2020
1089 Clear 14 1015 83 0 2.22 68 01:50 20.03.2020
1090 Clouds 15 1026 72 10000 1 30 00:45 20.03.2020
1091 Clouds 15 1026 72 10000 1 30 00:23 20.03.2020
1092 Clouds 16 1027 72 10000 2.1 260 23:42 19.03.2020
1093 Clouds 16 1027 72 10000 2.1 260 23:23 19.03.2020
1094 Clouds 17 1027 63 10000 1 120 22:41 19.03.2020
1095 Clouds 17 1027 63 10000 1 120 22:23 19.03.2020
1096 Clouds 15 1016 78 0 2.49 70 21:58 19.03.2020
1097 Clouds 15 1016 78 0 2.49 70 21:38 19.03.2020
1098 Clouds 15 1016 78 0 2.49 70 21:19 19.03.2020
1099 Clouds 15 1016 78 0 2.49 70 20:44 19.03.2020
1100 Clouds 19 1027 59 10000 3.1 90 20:25 19.03.2020
1101 Clouds 19 1027 59 10000 3.1 90 19:59 19.03.2020
1102 Clouds 19 1027 59 10000 3.1 90 19:39 19.03.2020
1103 Clouds 19 1027 59 10000 3.1 90 19:21 19.03.2020
1104 Clouds 20 1026 49 10000 4.1 80 18:58 19.03.2020
1105 Clouds 16 1016 63 0 3.07 33 18:40 19.03.2020
1106 Clouds 16 1016 63 0 3.07 33 18:22 19.03.2020
1107 Clouds 16 1016 63 0 3.07 33 17:54 19.03.2020
1108 Clouds 16 1016 63 0 3.07 33 17:36 19.03.2020
1109 Rain 19 1012 59 0 4.51 97 17:18 19.03.2020
1110 Rain 19 1012 59 0 4.51 97 16:41 19.03.2020
1111 Clouds 25 1024 36 10000 4.6 140 16:21 19.03.2020
1112 Clouds 25 1024 36 10000 4.6 140 15:42 19.03.2020
1113 Clouds 25 1024 36 10000 4.6 140 15:23 19.03.2020
1114 Clouds 25 1024 36 10000 4.6 140 15:23 19.03.2020
1115 Clouds 24 1024 44 10000 6.7 140 14:43 19.03.2020
1116 Clouds 24 1024 44 10000 6.7 140 14:23 19.03.2020
1117 Clouds 25 1025 41 10000 4.6 140 13:57 19.03.2020
1118 Clouds 25 1025 41 10000 4.6 140 13:57 19.03.2020
1119 Clouds 25 1025 41 10000 4.6 140 13:37 19.03.2020
1120 Clouds 25 1025 41 10000 4.6 140 13:18 19.03.2020
1121 Clouds 24 1024 44 10000 5.1 140 12:41 19.03.2020
1122 Clouds 24 1024 44 10000 5.1 140 12:22 19.03.2020
1123 Clouds 22 1026 49 10000 4.1 140 11:57 19.03.2020
1124 Clouds 22 1026 49 10000 4.1 140 11:57 19.03.2020
1125 Clouds 22 1026 49 10000 4.1 140 11:38 19.03.2020
1126 Clouds 22 1026 49 10000 4.1 140 11:20 19.03.2020
1127 Clouds 21 1027 56 10000 4.6 130 10:41 19.03.2020
1128 -273 0 0 0 0 0 10:20 19.03.2020
1129 Clouds 19 1028 68 10000 4.1 150 09:57 19.03.2020
1130 Clouds 19 1028 68 10000 4.1 150 09:37 19.03.2020
1131 Clouds 19 1028 68 10000 4.1 150 09:18 19.03.2020
1132 Clouds 19 1028 68 10000 4.1 160 08:45 19.03.2020
1133 Clouds 19 1028 68 10000 4.1 160 08:21 19.03.2020
1134 Clouds 18 1028 77 10000 3.1 90 07:46 19.03.2020
1135 Clouds 18 1028 77 10000 3.1 90 07:28 19.03.2020
1136 Clouds 18 1028 77 10000 3.1 90 06:49 19.03.2020
1137 Clouds 15 1027 87 10000 1 250 05:52 19.03.2020
1138 Clouds 15 1016 80 0 1.89 86 04:59 19.03.2020
1139 Clouds 15 1016 80 0 1.89 86 04:40 19.03.2020
1140 Clouds 15 1016 80 0 1.89 86 02:50 19.03.2020
1141 Clouds 16 1026 77 10000 2.1 220 01:27 19.03.2020
1142 Clouds 16 1026 77 10000 2.1 220 00:35 19.03.2020
1143 Rain 14 1015 79 0 2.86 67 23:57 18.03.2020
1144 Clouds 17 1026 77 10000 2.1 220 23:31 18.03.2020
1145 Clouds 17 1026 77 10000 2.1 220 22:58 18.03.2020
1146 Rain 16 1016 72 0 3.45 57 22:40 18.03.2020
1147 Clouds 17 1028 63 10000 2.6 170 22:21 18.03.2020
1148 Clouds 17 1028 63 10000 2.6 170 21:43 18.03.2020
1149 Clouds 17 1028 63 10000 2.6 170 21:43 18.03.2020
1150 Clouds 17 1028 63 10000 2.6 170 21:22 18.03.2020
1151 Rain 16 1016 72 0 3.45 57 20:59 18.03.2020
1152 Rain 16 1016 72 0 3.45 57 20:40 18.03.2020
1153 Rain 16 1016 72 0 3.45 57 20:40 18.03.2020
1154 Clouds 19 1027 52 10000 3.1 40 20:20 18.03.2020
1155 Clouds 19 1027 52 10000 3.1 40 19:58 18.03.2020
1156 Clouds 19 1027 52 10000 3.1 40 19:39 18.03.2020
1157 Clouds 19 1027 52 10000 3.1 40 19:20 18.03.2020
1158 Clouds 20 1026 45 10000 2.1 70 18:42 18.03.2020
1159 Clouds 20 1026 45 10000 2.1 70 18:21 18.03.2020
1160 Clouds 20 1026 45 10000 2.1 70 18:21 18.03.2020
1161 Clouds 20 1026 45 10000 2.1 70 17:59 18.03.2020
1162 Clouds 21 1025 46 10000 2.1 90 17:41 18.03.2020
1163 Clouds 21 1025 46 10000 2.1 90 17:22 18.03.2020
1164 Clouds 21 1025 46 10000 2.1 90 16:58 18.03.2020
1165 Clouds 23 1024 38 10000 5.1 90 16:40 18.03.2020
1166 Clouds 23 1024 38 10000 5.1 90 16:20 18.03.2020
1167 Clouds 23 1024 38 10000 5.1 90 16:20 18.03.2020
1168 Clouds 19 1012 56 0 5.65 93 15:45 18.03.2020
1169 Clouds 23 1024 40 10000 4.1 110 15:23 18.03.2020
1170 Clouds 23 1024 40 10000 4.1 110 14:56 18.03.2020
1171 Clouds 23 1024 40 10000 4.1 110 14:38 18.03.2020
1172 Clouds 23 1024 40 10000 4.1 110 14:19 18.03.2020
1173 Rain 22 1011 41 0 2.16 148 13:38 18.03.2020
1174 Clouds 23 1025 49 10000 4.1 160 13:19 18.03.2020
1175 Clouds 23 1025 49 10000 4.1 160 12:42 18.03.2020
1176 Clouds 23 1025 49 10000 4.1 160 12:20 18.03.2020
1177 Clouds 23 1026 43 10000 5.1 130 11:41 18.03.2020
1178 Clouds 23 1026 43 10000 5.1 130 11:22 18.03.2020
1179 Clouds 21 1027 56 10000 5.1 140 10:59 18.03.2020
1180 Clouds 21 1027 56 10000 5.1 140 10:39 18.03.2020
1181 Clouds 21 1027 56 10000 5.1 140 10:20 18.03.2020
1182 Clouds 21 1015 47 0 3.3 155 09:59 18.03.2020
1183 Clouds 21 1015 47 0 3.3 155 09:39 18.03.2020
1184 Clouds 19 1028 63 10000 2.1 70 09:21 18.03.2020
1185 Clouds 19 1028 63 10000 2.1 70 08:40 18.03.2020
1186 Clouds 19 1028 63 10000 2.1 70 08:21 18.03.2020
1187 Clouds 16 1028 77 10000 3.1 320 07:49 18.03.2020
1188 Clouds 16 1028 77 10000 3.1 320 07:31 18.03.2020
1189 Rain 14 1027 93 8000 3.1 300 06:54 18.03.2020
1190 Rain 14 1027 93 8000 3.1 300 06:35 18.03.2020
1191 Rain 16 1017 71 0 1.24 159 05:37 18.03.2020
1192 Rain 15 1025 82 8000 4.1 260 04:32 18.03.2020
1193 Clouds 16 1025 77 10000 2.6 280 03:21 18.03.2020
1194 Clouds 16 1025 77 10000 2.1 300 02:35 18.03.2020
1195 Clouds 17 1025 72 10000 2.1 230 01:32 18.03.2020
1196 Clouds 17 1025 72 10000 2.1 122 00:42 18.03.2020
1197 Clouds 17 1025 72 10000 2.1 122 00:21 18.03.2020
1198 Rain 15 1015 81 0 1.62 284 23:41 17.03.2020
1199 Rain 14 1016 85 0 2.8 305 23:20 17.03.2020
1200 Clouds 17 1026 72 10000 2.1 160 22:42 17.03.2020
1201 Clouds 17 1026 72 10000 2.1 160 22:24 17.03.2020
1202 Clouds 18 1027 63 10000 3.1 60 21:43 17.03.2020
1203 Clouds 18 1027 63 10000 3.1 60 21:23 17.03.2020
1204 Clouds 19 1026 59 10000 2.1 110 20:57 17.03.2020
1205 Clouds 19 1026 59 10000 2.1 110 20:37 17.03.2020
1206 Clouds 19 1026 59 10000 2.1 110 20:19 17.03.2020
1207 Rain 15 1015 85 0 5.03 332 19:41 17.03.2020
1208 Rain 15 1015 85 0 5.03 332 19:18 17.03.2020
1209 Rain 15 1015 85 0 5.03 332 18:57 17.03.2020
1210 Rain 15 1015 85 0 5.03 332 18:39 17.03.2020
1211 Clouds 20 1025 56 10000 3.1 100 18:21 17.03.2020
1212 Clouds 20 1025 56 10000 3.1 100 18:21 17.03.2020
1213 Clouds 20 1025 56 10000 3.1 100 17:55 17.03.2020
1214 Clouds 20 1025 56 10000 3.1 100 17:36 17.03.2020
1215 Clouds 20 1025 56 10000 3.1 100 17:18 17.03.2020
1216 Clouds 21 1024 56 10000 5.1 150 16:41 17.03.2020
1217 Clouds 21 1024 56 10000 5.1 150 16:19 17.03.2020
1218 Rain 18 1012 74 0 4.64 83 15:44 17.03.2020
1219 Clouds 25 1023 44 10000 6.7 140 15:22 17.03.2020
1220 Clouds 25 1023 44 10000 6.7 140 14:44 17.03.2020
1221 Clouds 25 1023 44 10000 6.7 140 14:24 17.03.2020
1222 Clouds 24 1024 41 10000 6.2 130 13:57 17.03.2020
1223 Clouds 24 1024 41 10000 6.2 130 13:39 17.03.2020
1224 Clouds 24 1024 41 10000 6.2 130 13:21 17.03.2020
1225 Clouds 24 1024 41 10000 6.2 130 13:21 17.03.2020
1226 Rain 21 1010 61 0 5.57 101 12:43 17.03.2020
1227 Clouds 22 1025 49 10000 4.6 150 12:24 17.03.2020
1228 Clouds 22 1025 49 10000 4.6 150 11:48 17.03.2020
1229 Clouds 22 1025 49 10000 4.6 150 11:29 17.03.2020
1230 Clouds 21 1025 52 10000 4.1 150 10:58 17.03.2020
1231 Clouds 21 1025 52 10000 4.1 150 10:40 17.03.2020
1232 Clouds 21 1025 52 10000 4.1 150 10:22 17.03.2020
1233 Rain 20 1014 62 0 3.83 126 09:59 17.03.2020
1234 Rain 20 1014 62 0 3.83 126 09:40 17.03.2020
1235 Clouds 20 1014 59 0 3.3 127 09:19 17.03.2020
1236 Clouds 20 1014 59 0 3.3 127 08:48 17.03.2020
1237 Clouds 20 1014 59 0 3.3 127 08:23 17.03.2020
1238 Clouds 17 1016 64 0 2.02 109 07:56 17.03.2020
1239 Clouds 17 1016 64 0 2.02 109 07:38 17.03.2020
1240 Clouds 17 1016 64 0 2.02 109 07:19 17.03.2020
1241 Clouds 17 1016 64 0 2.02 109 06:38 17.03.2020
1242 Clouds 17 1016 64 0 2.02 109 05:58 17.03.2020
1243 Rain 13 1015 86 0 1.31 346 03:58 17.03.2020
1244 Clouds 14 1026 87 10000 3.6 90 02:54 17.03.2020
1245 Rain 13 1015 90 0 2.7 294 01:49 17.03.2020
1246 Rain 13 1015 90 0 2.7 294 01:25 17.03.2020
1247 Rain 14 1014 87 0 2.34 310 00:46 17.03.2020
1248 Clouds 15 1026 82 10000 3.1 360 23:48 16.03.2020
1249 Clouds 15 1026 82 10000 3.1 360 23:30 16.03.2020
1250 Clouds 15 1027 82 10000 3.1 250 22:41 16.03.2020
1251 Clouds 15 1027 82 10000 3.1 250 22:23 16.03.2020
1252 Rain 14 1016 84 0 3.73 302 21:58 16.03.2020
1253 Rain 14 1016 84 0 3.73 302 21:40 16.03.2020
1254 Rain 14 1016 84 0 3.73 302 21:21 16.03.2020
1255 Rain 14 1016 84 0 3.73 302 20:56 16.03.2020
1256 Rain 14 1016 84 0 3.73 302 20:37 16.03.2020
1257 Rain 15 1014 85 0 2.79 44 20:19 16.03.2020
1258 Rain 15 1014 85 0 2.79 44 19:41 16.03.2020
1259 Rain 15 1025 87 9000 5.1 350 19:20 16.03.2020
1260 Rain 15 1025 87 9000 5.1 350 18:43 16.03.2020
1261 Rain 15 1025 87 9000 5.1 350 18:21 16.03.2020
1262 Rain 15 1025 87 9000 5.1 350 17:56 16.03.2020
1263 Rain 15 1025 87 9000 5.1 350 17:56 16.03.2020
1264 Rain 15 1025 82 9000 6.2 350 17:37 16.03.2020
1265 Rain 15 1025 82 9000 6.2 350 17:18 16.03.2020
1266 Rain 15 1025 82 9000 6.2 350 16:45 16.03.2020
1267 Rain 15 1025 87 9000 4.1 270 16:27 16.03.2020
1268 Rain 18 1011 72 0 3.89 83 15:45 16.03.2020
1269 Rain 18 1011 72 0 3.89 83 15:27 16.03.2020
1270 Rain 18 1011 72 0 3.89 83 14:49 16.03.2020
1271 Rain 21 1022 60 9000 4.1 200 14:28 16.03.2020
1272 Rain 21 1022 60 9000 4.1 200 13:58 16.03.2020
1273 Rain 21 1009 62 0 3.84 104 13:40 16.03.2020
1274 Clouds 22 1023 56 10000 4.1 160 13:21 16.03.2020
1275 Clouds 22 1023 56 10000 4.1 160 12:44 16.03.2020
1276 Clouds 22 1023 56 10000 4.1 160 12:23 16.03.2020
1277 Clouds 22 1024 60 10000 4.6 160 11:46 16.03.2020
1278 Clouds 22 1024 60 10000 4.6 160 11:27 16.03.2020
1279 Clouds 22 1024 60 10000 4.6 160 11:27 16.03.2020
1280 Clouds 22 1024 60 10000 4.6 160 10:56 16.03.2020
1281 Clouds 21 1025 64 10000 4.6 190 10:37 16.03.2020
1282 Clouds 21 1025 64 10000 4.6 190 10:18 16.03.2020
1283 Clouds 19 1026 72 10000 3.6 170 09:42 16.03.2020
1284 Clouds 19 1026 72 10000 3.6 170 09:21 16.03.2020
1285 Clouds 18 1026 72 10000 1.5 110 08:50 16.03.2020
1286 Clouds 18 1026 72 10000 1.5 110 08:25 16.03.2020
1287 Clouds 17 1027 82 10000 2.1 120 07:45 16.03.2020
1288 Clouds 17 1027 82 10000 2.1 120 07:21 16.03.2020
1289 Clouds 16 1027 87 10000 2.1 10 06:51 16.03.2020
1290 Clouds 16 1027 87 10000 2.1 10 06:23 16.03.2020
1291 Rain 14 1025 93 5000 2.1 310 04:54 16.03.2020
1292 Rain 15 1014 86 0 1.55 106 02:40 16.03.2020
1293 Clouds 19 1024 63 10000 4.1 110 00:49 16.03.2020
1294 Clouds 19 1024 63 10000 4.1 110 00:30 16.03.2020
1295 Rain 15 1013 85 0 2.08 71 23:42 15.03.2020
1296 Rain 15 1014 84 0 2.94 74 23:20 15.03.2020
1297 Rain 15 1014 84 0 2.94 74 22:42 15.03.2020
1298 Rain 15 1014 84 0 2.94 74 22:22 15.03.2020
1299 Rain 15 1014 84 0 2.94 74 21:55 15.03.2020
1300 Rain 15 1014 84 0 2.94 74 21:37 15.03.2020
1301 Rain 15 1014 84 0 2.94 74 21:18 15.03.2020
1302 Rain 15 1014 84 0 2.94 74 20:42 15.03.2020
1303 Rain 16 1013 80 0 5.74 87 20:20 15.03.2020
1304 Rain 16 1013 80 0 5.74 87 19:56 15.03.2020
1305 Rain 16 1013 80 0 5.74 87 19:38 15.03.2020
1306 Rain 16 1013 80 0 5.74 87 19:19 15.03.2020
1307 Rain 16 1013 80 0 5.74 87 18:55 15.03.2020
1308 Rain 16 1013 80 0 5.74 87 18:36 15.03.2020
1309 Rain 16 1013 80 0 5.74 87 18:18 15.03.2020
1310 Rain 16 1013 80 0 5.74 87 17:40 15.03.2020
1311 Clouds 25 1022 41 10000 6.2 120 17:21 15.03.2020
1312 Clouds 25 1022 41 10000 6.2 120 16:56 15.03.2020
1313 Clouds 25 1022 41 10000 6.2 120 16:38 15.03.2020
1314 Clouds 25 1022 41 10000 6.2 120 16:19 15.03.2020
1315 Clouds 27 1021 34 10000 3.6 150 15:43 15.03.2020
1316 Clouds 27 1021 34 10000 3.6 150 15:25 15.03.2020
1317 Clouds 26 1021 36 10000 2.6 80 14:55 15.03.2020
1318 Clouds 26 1021 36 10000 2.6 80 14:37 15.03.2020
1319 Clouds 26 1021 36 10000 2.6 80 14:18 15.03.2020
1320 Clouds 26 1022 36 10000 3.1 190 13:40 15.03.2020
1321 Clouds 26 1022 36 10000 3.1 190 13:21 15.03.2020
1322 Clouds 26 1023 36 10000 1 230 12:59 15.03.2020
1323 Clouds 26 1023 36 10000 1 230 12:39 15.03.2020
1324 Clouds 26 1023 36 10000 1 230 12:21 15.03.2020
1325 Rain 20 1010 64 0 3.62 114 11:43 15.03.2020
1326 Rain 20 1010 64 0 3.62 114 11:24 15.03.2020
1327 Rain 19 1013 68 0 3.96 136 10:57 15.03.2020
1328 Rain 19 1013 68 0 3.96 136 10:38 15.03.2020
1329 Rain 19 1013 68 0 3.96 136 10:20 15.03.2020
1330 Rain 19 1013 68 0 3.96 136 09:42 15.03.2020
1331 Rain 19 1013 68 0 3.96 136 09:22 15.03.2020
1332 Rain 19 1013 68 0 3.96 136 08:58 15.03.2020
1333 Rain 19 1013 68 0 3.96 136 08:39 15.03.2020
1334 Clouds 19 1027 59 10000 5.1 110 08:18 15.03.2020
1335 Clouds 19 1027 59 10000 5.1 110 07:44 15.03.2020
1336 Rain 17 1015 72 0 2.78 124 06:59 15.03.2020
1337 Rain 17 1015 72 0 2.78 124 06:35 15.03.2020
1338 Rain 17 1015 72 0 2.78 124 05:46 15.03.2020
1339 Rain 14 1014 85 0 1.11 81 04:49 15.03.2020
1340 Clouds 16 1025 67 10000 1.5 110 04:29 15.03.2020
1341 Clouds 16 1025 67 10000 1.5 110 03:55 15.03.2020
1342 Clouds 16 1025 67 10000 2.1 110 02:48 15.03.2020
1343 Clouds 17 1025 63 10000 3.1 130 01:50 15.03.2020
1344 Clouds 18 1025 59 10000 3.1 110 00:51 15.03.2020
1345 Clouds 18 1025 59 10000 3.1 110 00:28 15.03.2020
1346 Clouds 18 1025 59 10000 3.1 110 23:58 14.03.2020
1347 Clouds 18 1026 59 10000 2.1 130 23:37 14.03.2020
1348 Clouds 18 1026 59 10000 2.1 130 23:19 14.03.2020
1349 Clouds 18 1027 59 10000 3.1 70 22:44 14.03.2020
1350 Clouds 18 1027 59 10000 3.1 70 22:26 14.03.2020
1351 Clouds 20 1027 52 10000 4.1 60 21:57 14.03.2020
1352 Clouds 20 1027 52 10000 4.1 60 21:37 14.03.2020
1353 Clouds 20 1027 52 10000 4.1 60 21:18 14.03.2020
1354 Clouds 20 1027 56 10000 4.1 40 20:59 14.03.2020
1355 Clouds 20 1027 56 10000 4.1 40 20:41 14.03.2020
1356 Clouds 20 1027 56 10000 4.1 40 20:20 14.03.2020
1357 Clouds 20 1027 56 10000 4.1 40 20:20 14.03.2020
1358 Clouds 20 1027 56 10000 5.1 70 19:58 14.03.2020
1359 Clouds 20 1027 56 10000 5.1 70 19:39 14.03.2020
1360 Clouds 20 1027 56 10000 5.1 70 19:19 14.03.2020
1361 Clouds 21 1026 49 10000 5.7 80 18:37 14.03.2020
1362 Clouds 21 1026 49 10000 5.7 80 18:19 14.03.2020
1363 Clouds 22 1025 46 10000 6.7 80 17:39 14.03.2020
1364 Clouds 22 1025 46 10000 6.7 80 17:21 14.03.2020
1365 Clouds 24 1024 38 10000 2.6 130 16:41 14.03.2020
1366 Clouds 24 1024 38 10000 2.6 130 16:23 14.03.2020
1367 Clouds 26 1023 34 10000 2.1 80 15:59 14.03.2020
1368 Clouds 26 1023 34 10000 2.1 80 15:27 14.03.2020
1369 Clouds 26 1023 34 10000 3.1 110 14:59 14.03.2020
1370 Clouds 26 1023 34 10000 3.1 110 14:37 14.03.2020
1371 Clouds 26 1023 34 10000 3.1 110 14:19 14.03.2020
1372 Clouds 25 1024 36 10000 3.6 180 13:54 14.03.2020
1373 Rain 21 1010 52 0 3.16 112 13:36 14.03.2020
1374 Rain 21 1010 52 0 3.11 112 13:18 14.03.2020
1375 Rain 21 1010 52 0 3.11 112 12:42 14.03.2020
1376 Clouds 24 1026 41 10000 5.1 150 12:23 14.03.2020
1377 Clouds 24 1026 41 10000 5.1 150 11:43 14.03.2020
1378 Clouds 24 1026 41 10000 5.1 150 11:24 14.03.2020
1379 Rain 20 1015 56 0 3.86 150 10:47 14.03.2020
1380 Clouds 23 1027 43 10000 3.6 80 10:28 14.03.2020
1381 Rain 20 1015 56 0 3.86 150 09:59 14.03.2020
1382 Rain 20 1015 56 0 3.86 150 09:40 14.03.2020
1383 Clouds 20 1029 49 10000 2.6 90 09:20 14.03.2020
1384 Clouds 20 1029 49 10000 2.6 90 08:46 14.03.2020
1385 Clouds 20 1029 49 10000 2.6 90 08:26 14.03.2020
1386 Clouds 19 1029 52 10000 2.6 110 07:40 14.03.2020
1387 Clouds 19 1029 52 10000 2.6 110 07:21 14.03.2020
1388 Clouds 19 1029 52 10000 2.6 110 06:55 14.03.2020
1389 Rain 17 1017 68 0 2.32 110 06:34 14.03.2020
1390 Clouds 17 1027 59 10000 2.6 70 04:55 14.03.2020
1391 Rain 15 1016 77 0 0.08 283 03:34 14.03.2020
1392 Clouds 18 1026 55 10000 1 200 02:48 14.03.2020
1393 Clouds 18 1026 52 10000 1 200 01:46 14.03.2020
1394 Clouds 18 1026 55 10000 1 210 00:34 14.03.2020
1395 Clouds 15 1014 71 0 0.22 137 23:42 13.03.2020
1396 Clouds 15 1014 71 0 0.22 137 23:23 13.03.2020
1397 Clouds 17 1015 62 0 1.83 290 22:44 13.03.2020
1398 Clouds 21 1027 46 10000 5.1 60 22:22 13.03.2020
1399 Clouds 21 1027 46 10000 5.1 60 21:41 13.03.2020
1400 Clouds 21 1027 46 10000 5.1 60 21:19 13.03.2020
1401 Clouds 21 1026 46 10000 5.1 50 20:42 13.03.2020
1402 Clouds 21 1026 46 10000 5.1 50 20:22 13.03.2020
1403 Clouds 21 1025 46 10000 7.2 50 19:57 13.03.2020
1404 Clouds 18 1013 60 0 5.09 356 19:39 13.03.2020
1405 Clouds 18 1013 60 0 5.09 356 19:18 13.03.2020
1406 Clouds 18 1013 60 0 5.09 356 18:43 13.03.2020
1407 Clouds 18 1013 60 0 5.09 356 18:23 13.03.2020
1408 Clouds 18 1013 60 0 5.09 356 17:43 13.03.2020
1409 Clouds 27 1023 28 10000 4.1 150 17:21 13.03.2020
1410 Clouds 27 1023 28 10000 4.1 150 16:57 13.03.2020
1411 Clouds 27 1023 28 10000 4.1 150 16:38 13.03.2020
1412 Clouds 27 1023 28 10000 4.1 150 16:20 13.03.2020
1413 Clouds 27 1022 30 10000 2.6 150 15:45 13.03.2020
1414 Clouds 28 1022 28 10000 3.1 190 15:22 13.03.2020
1415 Clouds 28 1022 28 10000 3.1 190 14:58 13.03.2020
1416 Clouds 28 1022 28 10000 3.1 190 14:40 13.03.2020
1417 Clouds 28 1022 28 10000 3.1 190 14:21 13.03.2020
1418 Clouds 26 1023 31 10000 2.6 140 13:42 13.03.2020
1419 Clouds 26 1023 31 10000 2.6 140 13:24 13.03.2020
1420 Clouds 26 1023 31 10000 2.6 140 12:59 13.03.2020
1421 Clouds 24 1008 33 0 2.8 327 12:38 13.03.2020
1422 Clouds 24 1008 33 0 2.8 327 12:19 13.03.2020
1423 Clouds 24 1008 33 0 2.8 327 11:55 13.03.2020
1424 Clouds 24 1008 33 0 2.8 327 11:36 13.03.2020
1425 Clouds 24 1025 38 10000 4.1 200 11:18 13.03.2020
1426 Clouds 24 1025 38 10000 4.1 200 10:46 13.03.2020
1427 Clouds 24 1025 38 10000 4.1 200 10:25 13.03.2020
1428 Clouds 23 1027 40 10000 3.1 160 09:48 13.03.2020
1429 Clouds 23 1027 40 10000 3.1 160 09:28 13.03.2020
1430 Clear 21 1027 46 0 2.6 220 08:57 13.03.2020
1431 Clear 21 1027 46 0 2.6 220 08:38 13.03.2020
1432 Clouds 21 1027 46 0 2.6 220 08:19 13.03.2020
1433 Clouds 18 1027 55 10000 2.1 140 07:44 13.03.2020
1434 Clouds 18 1026 55 10000 1 200 07:23 13.03.2020
1435 Clouds 18 1026 55 10000 1 200 06:46 13.03.2020
1436 Clouds 18 1026 55 10000 1 200 06:21 13.03.2020
1437 Clouds 14 1026 71 10000 1 40 05:44 13.03.2020
1438 Rain 15 1014 74 0 1.29 2 04:39 13.03.2020
1439 Clouds 15 1025 67 10000 1.29 2 03:51 13.03.2020
1440 Clouds 15 1025 62 10000 1.29 2 02:29 13.03.2020
1441 Clouds 15 1024 67 10000 1.5 80 01:20 13.03.2020
1442 Clouds 17 1025 55 10000 2.1 70 00:59 13.03.2020
1443 Clouds 17 1025 55 10000 2.1 70 00:39 13.03.2020
1444 Clouds 17 1025 55 10000 4.6 60 00:18 13.03.2020
1445 Clouds 17 1025 55 10000 4.6 60 23:38 12.03.2020
1446 Clouds 17 1025 55 10000 4.6 60 23:19 12.03.2020
1447 Clouds 18 1026 55 10000 4.1 50 22:44 12.03.2020
1448 Clouds 18 1026 55 10000 4.1 50 22:25 12.03.2020
1449 Clouds 15 1015 77 0 2.35 51 21:55 12.03.2020
1450 Clouds 15 1015 77 0 2.35 51 21:37 12.03.2020
1451 Clouds 15 1015 77 0 2.35 51 21:18 12.03.2020
1452 Clouds 15 1015 77 0 2.35 51 20:42 12.03.2020
1453 Clouds 20 1025 49 10000 6.2 70 20:20 12.03.2020
1454 Clouds 20 1025 49 10000 6.2 70 19:42 12.03.2020
1455 Clouds 20 1025 49 10000 6.2 70 19:21 12.03.2020
1456 Clouds 20 1025 49 10000 6.2 70 18:58 12.03.2020
1457 Clouds 21 1024 46 10000 6.2 80 18:39 12.03.2020
1458 Clouds 21 1024 46 10000 6.2 80 18:21 12.03.2020
1459 Clouds 23 1023 40 10000 5.1 130 17:41 12.03.2020
1460 Clouds 23 1023 40 10000 5.1 130 17:22 12.03.2020
1461 Clouds 20 1009 49 0 4.65 102 16:58 12.03.2020
1462 Clouds 20 1009 49 0 4.65 102 16:40 12.03.2020
1463 Clouds 20 1009 49 0 4.65 102 16:21 12.03.2020
1464 Clouds 20 1009 49 0 4.65 102 15:48 12.03.2020
1465 Clouds 26 1022 34 10000 4.1 160 15:28 12.03.2020
1466 Clouds 26 1022 34 10000 4.1 160 15:28 12.03.2020
1467 Clouds 26 1022 34 10000 4.1 160 14:55 12.03.2020
1468 Clouds 26 1022 34 10000 4.1 160 14:37 12.03.2020
1469 Clouds 26 1022 34 10000 4.1 160 14:18 12.03.2020
1470 Clouds 25 1023 36 10000 4.1 160 13:38 12.03.2020
1471 Clouds 25 1023 36 10000 4.1 160 13:20 12.03.2020
1472 Clouds 24 1023 41 10000 4.1 170 12:43 12.03.2020
1473 Clouds 24 1023 41 10000 4.1 170 12:23 12.03.2020
1474 Rain 23 1009 42 0 1.13 172 11:59 12.03.2020
1475 Rain 23 1009 42 0 1.13 172 11:39 12.03.2020
1476 Clouds 23 1025 43 10000 5.1 150 11:21 12.03.2020
1477 Clouds 23 1025 43 10000 5.1 150 10:59 12.03.2020
1478 Clouds 23 1025 43 10000 5.1 150 10:41 12.03.2020
1479 Clouds 23 1025 43 10000 5.1 150 10:22 12.03.2020
1480 Clouds 23 1025 43 10000 5.1 150 10:22 12.03.2020
1481 Clouds 21 1026 49 10000 6.2 120 09:49 12.03.2020
1482 Clouds 21 1026 49 10000 6.2 120 09:29 12.03.2020
1483 Clouds 21 1026 49 10000 6.2 120 08:55 12.03.2020
1484 Rain 19 1013 54 0 2.99 142 08:37 12.03.2020
1485 Rain 14 1016 79 0 0.42 342 08:18 12.03.2020
1486 Rain 15 1015 78 0 1.89 59 07:46 12.03.2020
1487 Rain 15 1015 78 0 1.89 59 07:21 12.03.2020
1488 Clouds 14 1026 71 10000 3.1 80 05:59 12.03.2020
1489 Clouds 14 1026 71 10000 3.1 80 05:27 12.03.2020
1490 Clouds 16 1025 63 10000 2.1 80 02:47 12.03.2020
1491 Clouds 16 1025 63 10000 2.1 60 01:39 12.03.2020
1492 Clouds 16 1025 63 10000 2.1 60 01:20 12.03.2020
1493 Clouds 17 1026 59 10000 1 70 00:41 12.03.2020
1494 Rain 14 1013 80 0 1.7 64 23:56 11.03.2020
1495 Rain 14 1013 80 0 1.7 64 23:27 11.03.2020
1496 Rain 14 1014 79 0 2.3 96 22:55 11.03.2020
1497 Rain 14 1014 79 0 2.3 96 22:37 11.03.2020
1498 Rain 14 1014 79 0 2.3 96 22:18 11.03.2020
1499 Rain 14 1014 79 0 2.3 96 21:54 11.03.2020
1500 Rain 14 1014 79 0 2.3 96 21:36 11.03.2020
1501 Clouds 18 1027 55 10000 4.1 100 21:18 11.03.2020
1502 Clouds 18 1027 55 10000 4.1 100 20:55 11.03.2020
1503 Clouds 18 1027 55 10000 4.1 100 20:36 11.03.2020
1504 Clouds 18 1027 55 10000 4.1 100 20:18 11.03.2020
1505 Rain 15 1013 75 0 4.39 75 19:41 11.03.2020
1506 Rain 15 1013 75 0 4.39 75 19:22 11.03.2020
1507 Rain 15 1013 75 0 4.39 75 18:56 11.03.2020
1508 Rain 15 1013 75 0 4.39 75 18:36 11.03.2020
1509 Rain 15 1013 75 0 4.39 75 18:18 11.03.2020
1510 Rain 15 1013 75 0 4.39 75 17:40 11.03.2020
1511 Rain 21 1023 46 9000 5.1 100 17:21 11.03.2020
1512 Rain 19 1009 59 0 7.54 91 16:55 11.03.2020
1513 Rain 19 1009 59 0 7.54 91 16:37 11.03.2020
1514 Haze 22 1022 46 9000 7.2 80 16:19 11.03.2020
1515 Haze 22 1022 46 9000 7.2 80 15:42 11.03.2020
1516 Haze 22 1022 46 9000 7.2 80 15:22 11.03.2020
1517 Rain 19 1009 59 0 7.54 91 14:44 11.03.2020
1518 Rain 19 1009 59 0 7.54 91 14:23 11.03.2020
1519 Rain 22 1009 46 0 5.98 91 13:58 11.03.2020
1520 Rain 22 1009 46 0 5.98 91 13:39 11.03.2020
1521 Clouds 24 1023 41 10000 4.1 90 13:21 11.03.2020
1522 Clouds 24 1023 41 10000 4.1 90 12:41 11.03.2020
1523 Clouds 24 1023 41 10000 4.1 90 12:21 11.03.2020
1524 Clouds 23 1024 43 10000 4.1 90 11:57 11.03.2020
1525 Clouds 23 1024 43 10000 4.1 90 11:57 11.03.2020
1526 Clouds 23 1024 43 10000 4.1 90 11:38 11.03.2020
1527 Clouds 23 1024 43 10000 4.1 90 11:19 11.03.2020
1528 Clouds 23 1025 46 10000 4.6 100 10:43 11.03.2020
1529 Clouds 23 1025 46 10000 4.6 100 10:19 11.03.2020
1530 Clouds 21 1026 52 10000 4.6 110 09:44 11.03.2020
1531 Clouds 21 1026 52 10000 4.6 110 09:25 11.03.2020
1532 Rain 22 1012 46 0 3.93 131 08:58 11.03.2020
1533 Rain 22 1012 46 0 3.93 131 08:40 11.03.2020
1534 Clouds 19 1026 63 10000 6.2 90 08:19 11.03.2020
1535 Clouds 19 1026 63 10000 6.2 90 07:44 11.03.2020
1536 Clouds 19 1026 63 10000 6.2 90 07:19 11.03.2020
1537 Clouds 18 1026 63 10000 3.1 100 06:46 11.03.2020
1538 Clouds 17 1025 67 10000 3.6 110 05:41 11.03.2020
1539 Clouds 16 1024 72 10000 2.1 90 04:50 11.03.2020
1540 Clouds 17 1024 67 10000 3.1 80 02:30 11.03.2020
1541 Clouds 17 1024 67 10000 3.1 80 01:30 11.03.2020
1542 Clear 13 1012 86 0 1.98 64 00:49 11.03.2020
1543 Clear 13 1012 86 0 1.98 64 00:21 11.03.2020
1544 Clear 13 1012 86 0 1.98 64 23:42 10.03.2020
1545 Clouds 19 1025 55 10000 5.1 90 23:22 10.03.2020
1546 Clouds 19 1025 55 10000 5.1 90 22:40 10.03.2020
1547 Clouds 19 1025 55 10000 5.1 90 22:20 10.03.2020
1548 Clear 15 1014 78 0 3.4 81 21:57 10.03.2020
1549 Clear 15 1014 78 0 3.4 81 21:39 10.03.2020
1550 Clear 15 1014 78 0 3.4 81 21:39 10.03.2020
1551 Clouds 19 1026 59 10000 4.1 50 21:20 10.03.2020
1552 Clouds 19 1026 59 10000 4.1 50 20:59 10.03.2020
1553 Clouds 19 1026 59 10000 4.1 50 20:41 10.03.2020
1554 Clouds 19 1026 59 10000 4.1 50 20:19 10.03.2020
1555 Rain 16 1012 71 0 5.33 77 19:57 10.03.2020
1556 Rain 16 1012 71 0 5.33 77 19:38 10.03.2020
1557 Rain 16 1012 71 0 5.33 77 19:38 10.03.2020
1558 Clouds 21 1024 49 10000 6.2 90 19:20 10.03.2020
1559 Clouds 21 1024 49 10000 6.2 90 18:45 10.03.2020
1560 Clouds 21 1024 49 10000 6.2 90 18:26 10.03.2020
1561 Clouds 22 1023 46 10000 5.1 90 17:58 10.03.2020
1562 Clouds 22 1023 46 10000 5.1 90 17:40 10.03.2020
1563 Clouds 22 1023 46 10000 5.1 90 17:21 10.03.2020
1564 Clouds 22 1023 46 10000 5.1 90 17:21 10.03.2020
1565 Clouds 24 1022 41 10000 6.2 100 16:40 10.03.2020
1566 Clouds 24 1022 41 10000 6.2 100 16:20 10.03.2020
1567 Clouds 25 1021 38 10000 6.2 90 15:57 10.03.2020
1568 Clouds 25 1021 38 10000 6.2 90 15:39 10.03.2020
1569 Clouds 25 1021 38 10000 6.2 90 15:19 10.03.2020
1570 Clouds 25 1021 38 10000 3.6 90 14:54 10.03.2020
1571 Clouds 25 1021 38 10000 3.6 90 14:36 10.03.2020
1572 Clouds 25 1021 38 10000 3.6 90 14:18 10.03.2020
1573 Clouds 25 1022 41 10000 5.1 140 13:42 10.03.2020
1574 Clouds 25 1022 41 10000 5.1 140 13:24 10.03.2020
1575 Rain 24 1007 38 0 2.74 113 12:42 10.03.2020
1576 Clouds 23 1024 46 10000 4.1 140 12:21 10.03.2020
1577 Clouds 23 1024 46 10000 4.1 140 11:59 10.03.2020
1578 Clouds 23 1024 46 10000 4.1 140 11:41 10.03.2020
1579 Clouds 23 1024 46 10000 4.1 140 11:22 10.03.2020
1580 Clouds 21 1025 56 10000 3.6 140 10:43 10.03.2020
1581 Clouds 21 1025 56 10000 3.6 140 10:23 10.03.2020
1582 Clouds 21 1026 56 10000 4.6 170 09:59 10.03.2020
1583 Clouds 21 1026 56 10000 4.6 170 09:41 10.03.2020
1584 Clouds 21 1026 56 10000 4.6 170 09:19 10.03.2020
1585 Clouds 21 1026 56 10000 3.6 110 08:51 10.03.2020
1586 Clouds 21 1026 56 10000 3.6 110 08:33 10.03.2020
1587 Clouds 20 1026 60 10000 4.1 80 07:51 10.03.2020
1588 Clouds 20 1026 60 10000 4.1 80 07:32 10.03.2020
1589 Clouds 18 1026 68 10000 5.1 80 06:50 10.03.2020
1590 Clouds 18 1026 68 10000 5.1 80 06:31 10.03.2020
1591 Clouds 17 1026 67 10000 2.1 70 05:42 10.03.2020
1592 Clear 12 1014 81 0 0.74 109 04:53 10.03.2020
1593 Clouds 15 1025 72 10000 2.1 70 04:24 10.03.2020
1594 Clouds 16 1024 72 10000 3.1 90 02:44 10.03.2020
1595 Clouds 17 1024 67 10000 4.1 90 01:30 10.03.2020
1596 Clouds 18 1024 63 10000 4.1 80 00:47 10.03.2020
1597 Clouds 18 1025 63 10000 5.1 70 00:27 10.03.2020
1598 Clouds 18 1025 63 10000 5.1 70 23:41 09.03.2020
1599 Clouds 18 1025 63 10000 5.1 70 23:22 09.03.2020
1600 Clouds 19 1026 55 10000 4.1 70 22:55 09.03.2020
1601 Clouds 19 1026 55 10000 4.1 70 22:36 09.03.2020
1602 Clouds 19 1026 55 10000 4.1 70 22:18 09.03.2020
1603 Clouds 15 1013 66 0 1.44 293 21:41 09.03.2020
1604 Clouds 20 1025 52 10000 4.1 70 21:21 09.03.2020
1605 Clouds 20 1025 52 10000 4.1 70 20:58 09.03.2020
1606 Clouds 20 1025 52 10000 4.1 70 20:58 09.03.2020
1607 Clouds 20 1025 52 10000 4.1 70 20:39 09.03.2020
1608 Clouds 20 1025 52 10000 4.1 70 20:20 09.03.2020
1609 Clouds 20 1025 52 10000 4.1 40 19:45 09.03.2020
1610 Clouds 20 1025 52 10000 4.1 40 19:25 09.03.2020
1611 Clouds 21 1024 49 10000 5.1 70 18:58 09.03.2020
1612 Clouds 21 1024 49 10000 5.1 70 18:39 09.03.2020
1613 Clouds 21 1024 49 10000 5.1 70 18:20 09.03.2020
1614 Rain 16 1012 64 0 3.36 66 17:58 09.03.2020
1615 Rain 16 1012 64 0 3.36 66 17:38 09.03.2020
1616 Rain 16 1012 64 0 3.36 66 17:38 09.03.2020
1617 Clouds 21 1008 45 0 6.97 98 17:20 09.03.2020
1618 Clouds 21 1008 45 0 6.97 98 16:58 09.03.2020
1619 Clouds 21 1008 45 0 6.97 98 16:40 09.03.2020
1620 Clouds 21 1008 45 0 6.97 98 16:22 09.03.2020
1621 Clouds 21 1008 45 0 6.97 98 15:58 09.03.2020
1622 Clouds 21 1008 45 0 6.97 98 15:39 09.03.2020
1623 Clouds 21 1008 45 0 6.97 98 15:20 09.03.2020
1624 Clouds 21 1008 45 0 6.97 98 14:55 09.03.2020
1625 Clouds 21 1008 45 0 6.97 98 14:37 09.03.2020
1626 Clouds 25 1023 33 10000 1 210 14:18 09.03.2020
1627 Clouds 25 1023 33 10000 1 210 13:55 09.03.2020
1628 Clouds 25 1023 33 10000 1 210 13:37 09.03.2020
1629 Clouds 25 1023 33 10000 1 210 13:18 09.03.2020
1630 Clouds 25 1024 36 10000 3.1 150 12:42 09.03.2020
1631 Clouds 24 1024 38 10000 3.1 110 12:22 09.03.2020
1632 Clouds 24 1024 38 10000 3.1 110 12:22 09.03.2020
1633 Clouds 24 1024 38 10000 3.1 110 11:54 09.03.2020
1634 Clouds 24 1024 38 10000 3.1 110 11:36 09.03.2020
1635 Clouds 24 1024 38 10000 3.1 110 11:18 09.03.2020
1636 Clouds 23 1025 40 10000 4.1 160 10:54 09.03.2020
1637 Clouds 23 1025 40 10000 4.1 160 10:36 09.03.2020
1638 Clouds 22 1027 40 10000 3.1 150 10:18 09.03.2020
1639 Clouds 22 1027 40 10000 3.1 150 09:38 09.03.2020
1640 Clouds 22 1027 40 10000 3.1 150 09:19 09.03.2020
1641 Clouds 24 1012 33 0 3.72 110 08:44 09.03.2020
1642 Clouds 24 1012 31 0 3.38 113 08:25 09.03.2020
1643 Clouds 19 1015 43 0 2.19 85 07:41 09.03.2020
1644 Clouds 16 1026 51 10000 3.1 90 07:22 09.03.2020
1645 Clouds 16 1026 51 10000 3.1 90 06:46 09.03.2020
1646 Clouds 16 1026 51 10000 3.1 90 06:25 09.03.2020
1647 Clouds 19 1015 43 0 2.19 85 05:52 09.03.2020
1648 Clouds 19 1015 43 0 2.19 85 05:34 09.03.2020
1649 Clouds 14 1014 57 0 1.13 66 04:43 09.03.2020
1650 Clouds 14 1024 50 0 2.1 80 04:22 09.03.2020
1651 Clouds 14 1024 50 0 2.1 80 03:20 09.03.2020
1652 Clouds 15 1024 51 10000 2.1 350 01:41 09.03.2020
1653 Clouds 16 1013 59 0 1.74 198 00:38 09.03.2020
1654 Clouds 16 1025 51 10000 2.6 130 00:20 09.03.2020
1655 Clouds 16 1025 51 10000 2.6 130 23:48 08.03.2020
1656 Clouds 16 1025 51 10000 2.6 130 23:23 08.03.2020
1657 Clouds 18 1026 39 10000 3.6 80 22:57 08.03.2020
1658 Clouds 18 1026 39 10000 3.6 80 22:38 08.03.2020
1659 Clouds 18 1026 39 10000 3.1 80 22:20 08.03.2020
1660 Clouds 18 1026 39 10000 3.1 80 21:54 08.03.2020
1661 Clouds 18 1026 39 10000 3.1 80 21:36 08.03.2020
1662 Clouds 18 1026 39 10000 3.1 80 21:18 08.03.2020
1663 Clouds 19 1026 37 0 3.1 60 20:39 08.03.2020
1664 Clouds 19 1026 37 0 3.1 60 20:21 08.03.2020
1665 Clouds 19 1026 37 0 3.1 60 20:21 08.03.2020
1666 Clouds 19 1026 37 0 4.6 60 19:56 08.03.2020
1667 Clouds 19 1026 37 0 4.6 60 19:37 08.03.2020
1668 Clouds 20 1025 32 0 6.7 70 19:18 08.03.2020
1669 Clouds 20 1025 32 0 6.7 70 18:41 08.03.2020
1670 Clouds 20 1025 32 0 6.7 70 18:23 08.03.2020
1671 Clouds 20 1025 32 0 6.7 70 17:56 08.03.2020
1672 Clouds 21 1024 32 0 7.7 90 17:37 08.03.2020
1673 Clouds 23 1024 31 0 7.7 100 17:18 08.03.2020
1674 Clouds 23 1024 31 0 7.7 100 16:45 08.03.2020
1675 Clouds 23 1024 31 0 7.7 100 16:27 08.03.2020
1676 Clouds 25 1023 27 0 7.7 110 15:56 08.03.2020
1677 Clouds 25 1023 27 0 7.7 110 15:37 08.03.2020
1678 Clouds 25 1023 27 0 7.7 110 15:19 08.03.2020
1679 Clouds 26 1023 24 0 6.7 100 14:40 08.03.2020
1680 Clouds 26 1023 24 0 6.7 100 14:21 08.03.2020
1681 Clouds 26 1023 24 0 6.7 100 14:21 08.03.2020
1682 Clouds 26 1023 24 0 6.7 100 14:21 08.03.2020
1683 Clouds 26 1023 22 0 7.2 90 13:57 08.03.2020
1684 Clouds 26 1023 22 0 7.2 90 13:38 08.03.2020
1685 Clouds 26 1023 22 0 7.2 90 13:19 08.03.2020
1686 Clouds 25 1009 29 0 5.02 104 12:39 08.03.2020
1687 Clouds 26 1024 22 0 7.2 110 12:20 08.03.2020
1688 Clouds 26 1024 22 0 7.2 110 11:54 08.03.2020
1689 Clouds 26 1024 22 0 7.2 110 11:36 08.03.2020
1690 Clouds 24 1026 27 0 7.2 110 11:18 08.03.2020
1691 Clouds 24 1026 27 0 7.2 110 10:41 08.03.2020
1692 Clouds 24 1026 27 0 7.2 110 10:22 08.03.2020
1693 Clouds 23 1027 31 0 6.2 90 09:40 08.03.2020
1694 Clouds 23 1027 31 0 6.2 90 09:22 08.03.2020
1695 Clouds 21 1027 35 0 6.2 90 08:50 08.03.2020
1696 Clouds 21 1027 35 0 6.2 90 08:27 08.03.2020
1697 Clouds 18 1028 45 0 5.1 80 07:51 08.03.2020
1698 Clouds 18 1028 45 0 5.1 80 07:29 08.03.2020
1699 Clouds 18 1016 41 0 3.06 100 06:58 08.03.2020
1700 Clouds 18 1016 41 0 3.06 100 06:37 08.03.2020
1701 Clouds 18 1016 41 0 3.06 100 06:18 08.03.2020
1702 Clouds 13 1015 63 0 1.42 28 05:18 08.03.2020
1703 Clouds 13 1015 63 0 1.42 28 03:50 08.03.2020
1704 Clouds 16 1026 48 10000 3.1 40 02:28 08.03.2020
1705 Clouds 16 1026 48 10000 3.1 40 01:22 08.03.2020
1706 Clouds 17 1026 48 10000 2.1 50 00:43 08.03.2020
1707 Clouds 17 1026 48 10000 2.1 50 00:24 08.03.2020
1708 Clouds 18 1026 45 10000 5.1 70 23:43 07.03.2020
1709 Clouds 18 1026 45 10000 5.1 70 23:22 07.03.2020
1710 Clouds 18 1027 45 10000 6.2 60 22:40 07.03.2020
1711 Clouds 18 1027 45 10000 6.2 60 22:21 07.03.2020
1712 Clouds 18 1027 45 10000 6.2 60 21:48 07.03.2020
1713 Clouds 18 1027 45 10000 6.2 60 21:25 07.03.2020
1714 Clouds 20 1027 40 10000 4.1 70 20:42 07.03.2020
1715 Clouds 20 1027 40 10000 4.1 70 20:23 07.03.2020
1716 Clouds 20 1026 42 10000 4.1 70 19:58 07.03.2020
1717 Clouds 20 1026 42 10000 4.1 70 19:40 07.03.2020
1718 Clouds 20 1026 42 10000 4.1 70 19:20 07.03.2020
1719 Clouds 17 1015 51 0 4.6 78 18:41 07.03.2020
1720 Clouds 17 1015 51 0 4.6 78 18:22 07.03.2020
1721 Clouds 17 1015 51 0 4.6 78 17:55 07.03.2020
1722 Clouds 17 1015 51 0 4.6 78 17:36 07.03.2020
1723 Clouds 22 1025 40 9000 4.1 30 17:18 07.03.2020
1724 Clouds 22 1025 40 9000 4.1 30 16:42 07.03.2020
1725 Clouds 22 1025 40 9000 4.1 30 16:23 07.03.2020
1726 Clouds 21 1012 40 0 5.83 99 15:57 07.03.2020
1727 Clouds 21 1012 40 0 5.83 99 15:39 07.03.2020
1728 Clouds 21 1012 40 0 5.83 99 15:39 07.03.2020
1729 Clouds 21 1012 40 0 5.83 99 15:21 07.03.2020
1730 Clouds 21 1012 40 0 5.83 99 14:56 07.03.2020
1731 Clouds 21 1012 40 0 5.83 99 14:37 07.03.2020
1732 Clouds 23 1011 36 0 5.99 80 14:19 07.03.2020
1733 Clouds 23 1011 36 0 5.99 80 13:40 07.03.2020
1734 Clouds 25 1025 33 10000 4.1 110 13:20 07.03.2020
1735 Clouds 22 1011 38 0 5.31 82 12:43 07.03.2020
1736 Clouds 22 1011 38 0 5.31 82 12:21 07.03.2020
1737 Clouds 22 1011 38 0 5.31 82 11:58 07.03.2020
1738 Clouds 22 1011 38 0 5.31 82 11:58 07.03.2020
1739 Clouds 22 1011 38 0 5.31 82 11:39 07.03.2020
1740 Clouds 22 1011 38 0 5.31 82 11:21 07.03.2020
1741 Clouds 23 1013 34 0 5.22 99 10:42 07.03.2020
1742 Clouds 23 1028 38 10000 6.2 120 10:21 07.03.2020
1743 Clouds 23 1028 38 10000 6.2 120 09:58 07.03.2020
1744 Clouds 23 1028 38 10000 6.2 120 09:39 07.03.2020
1745 Clouds 23 1028 38 10000 6.2 120 09:18 07.03.2020
1746 Clouds 22 1028 40 10000 6.2 90 08:44 07.03.2020
1747 Clouds 20 1027 45 10000 4.1 110 08:21 07.03.2020
1748 Clouds 17 1016 49 0 2.85 78 07:52 07.03.2020
1749 Clouds 17 1027 55 10000 2.1 240 07:23 07.03.2020
1750 Clouds 17 1027 55 10000 2.1 240 06:59 07.03.2020
1751 Clouds 17 1016 49 0 2.85 78 06:35 07.03.2020
1752 Clouds 17 1016 49 0 2.85 78 05:55 07.03.2020
1753 Clouds 16 1026 55 10000 0.78 122 04:56 07.03.2020
1754 Clouds 15 1015 58 0 0.78 122 02:58 07.03.2020
1755 Clouds 15 1015 58 0 0.78 122 02:34 07.03.2020
1756 Clouds 14 1014 61 0 1.06 286 01:45 07.03.2020
1757 Clouds 16 1014 56 0 0.91 248 00:41 07.03.2020
1758 Clouds 16 1014 56 0 0.91 248 00:22 07.03.2020
1759 Clouds 16 1014 56 0 0.91 248 23:54 06.03.2020
1760 Clouds 16 1014 56 0 0.91 248 23:26 06.03.2020
1761 Clouds 17 1016 53 0 3.02 8 22:58 06.03.2020
1762 Clouds 17 1016 53 0 3.02 8 22:40 06.03.2020
1763 Clouds 17 1016 53 0 3.02 8 22:18 06.03.2020
1764 Clouds 17 1016 53 0 3.02 8 21:43 06.03.2020
1765 Clouds 17 1016 53 0 3.02 8 21:19 06.03.2020
1766 Clouds 17 1016 53 0 3.02 8 20:39 06.03.2020
1767 Clouds 17 1016 53 0 3.02 8 20:21 06.03.2020
1768 Clouds 17 1015 49 0 5.08 84 19:52 06.03.2020
1769 Clouds 17 1015 49 0 5.08 84 19:33 06.03.2020
1770 Clouds 17 1015 49 0 5.08 84 18:59 06.03.2020
1771 Clouds 17 1015 49 0 5.08 84 18:40 06.03.2020
1772 Clouds 17 1015 49 0 5.08 84 18:19 06.03.2020
1773 Clouds 17 1015 49 0 5.08 84 17:43 06.03.2020
1774 Clouds 17 1015 49 0 5.08 84 17:43 06.03.2020
1775 Clouds 17 1015 49 0 5.08 84 17:25 06.03.2020
1776 Clouds 21 1011 37 0 2.04 99 16:59 06.03.2020
1777 Clouds 21 1011 37 0 2.04 99 16:41 06.03.2020
1778 Clouds 21 1011 37 0 2.04 99 16:20 06.03.2020
1779 Clouds 21 1011 37 0 2.04 99 15:45 06.03.2020
1780 Clouds 21 1011 37 0 2.04 99 15:25 06.03.2020
1781 Clouds 21 1011 37 0 2.04 99 14:55 06.03.2020
1782 Clouds 21 1011 37 0 2.04 99 14:37 06.03.2020
1783 Clouds 22 1011 34 0 2.56 175 14:19 06.03.2020
1784 Clouds 22 1011 34 0 2.56 175 13:43 06.03.2020
1785 Clouds 26 1025 29 10000 3.1 60 13:22 06.03.2020
1786 Clouds 26 1025 29 10000 3.1 60 12:57 06.03.2020
1787 Clouds 26 1025 29 10000 3.1 60 12:38 06.03.2020
1788 Clouds 26 1025 29 10000 3.1 60 12:19 06.03.2020
1789 Clouds 24 1026 33 10000 2.1 150 11:57 06.03.2020
1790 Clouds 24 1026 33 10000 2.1 150 11:38 06.03.2020
1791 Clouds 24 1026 33 10000 2.1 150 11:38 06.03.2020
1792 Clouds 24 1026 33 10000 2.1 150 11:19 06.03.2020
1793 Clouds 23 1027 35 10000 3.6 120 10:38 06.03.2020
1794 Clouds 23 1027 35 10000 3.6 120 10:20 06.03.2020
1795 Clouds 22 1029 37 10000 3.6 80 09:54 06.03.2020
1796 Clouds 22 1029 37 10000 3.6 80 09:36 06.03.2020
1797 Clouds 22 1029 37 10000 3.6 80 09:18 06.03.2020
1798 Clouds 22 1029 37 10000 3.6 200 08:42 06.03.2020
1799 Clouds 22 1029 37 10000 3.6 200 08:42 06.03.2020
1800 Clouds 22 1029 37 10000 3.6 200 08:24 06.03.2020
1801 Clouds 19 1029 45 10000 3.1 160 07:47 06.03.2020
1802 Clouds 19 1029 45 10000 3.1 160 07:26 06.03.2020
1803 Clouds 17 1028 55 10000 2.1 310 06:56 06.03.2020
1804 Clouds 17 1028 55 10000 2.1 310 06:38 06.03.2020
1805 Clouds 15 1027 58 10000 2.1 50 05:42 06.03.2020
1806 Clouds 15 1027 58 10000 2.1 50 05:22 06.03.2020
1807 Clouds 15 1026 58 10000 2.1 130 04:55 06.03.2020
1808 Clouds 16 1015 54 0 1.19 179 01:58 06.03.2020
1809 Clouds 16 1015 54 0 1.19 179 01:39 06.03.2020
1810 Clouds 16 1026 55 10000 1 70 01:19 06.03.2020
1811 Clouds 16 1026 55 10000 1 70 00:32 06.03.2020
1812 Clouds 16 1015 55 0 1.17 234 23:50 05.03.2020
1813 Clouds 18 1028 52 10000 1 310 23:30 05.03.2020
1814 Clouds 18 1028 52 10000 1 310 22:58 05.03.2020
1815 Clouds 18 1028 52 10000 1 310 22:39 05.03.2020
1816 Clouds 18 1028 52 10000 1 310 22:21 05.03.2020
1817 Clouds 19 1028 48 10000 1.11 2 21:56 05.03.2020
1818 Clouds 19 1028 48 10000 1.11 2 21:38 05.03.2020
1819 Clouds 19 1028 48 10000 1.11 2 21:20 05.03.2020
1820 Clouds 19 1028 48 10000 1.5 330 20:55 05.03.2020
1821 Clouds 19 1028 48 10000 1.5 330 20:37 05.03.2020
1822 Clouds 19 1028 48 10000 1.5 330 20:18 05.03.2020
1823 Clouds 19 1027 48 10000 3.1 330 19:56 05.03.2020
1824 Clouds 19 1027 48 10000 3.1 330 19:37 05.03.2020
1825 Clouds 19 1027 48 10000 3.1 330 19:18 05.03.2020
1826 Clouds 21 1027 43 10000 3.6 310 18:39 05.03.2020
1827 Clouds 21 1027 43 10000 3.6 310 18:20 05.03.2020
1828 Clouds 17 1015 53 0 3.23 45 17:59 05.03.2020
1829 Clouds 17 1015 53 0 3.23 45 17:40 05.03.2020
1830 Clouds 24 1025 33 10000 6.2 100 17:22 05.03.2020
1831 Clouds 24 1025 33 10000 6.2 100 16:54 05.03.2020
1832 Clouds 24 1025 33 10000 6.2 100 16:36 05.03.2020
1833 Clouds 24 1025 33 10000 6.2 100 16:18 05.03.2020
1834 Clouds 26 1024 29 10000 4.1 160 15:44 05.03.2020
1835 Clouds 26 1024 29 10000 4.1 160 15:22 05.03.2020
1836 Clouds 27 1024 30 10000 4.6 120 14:56 05.03.2020
1837 Clouds 27 1024 30 10000 4.6 120 14:37 05.03.2020
1838 Clouds 27 1024 30 10000 4.6 120 14:18 05.03.2020
1839 Clouds 26 1024 31 10000 3.6 170 13:43 05.03.2020
1840 Clouds 26 1024 31 10000 3.6 170 13:21 05.03.2020
1841 Clouds 24 1025 36 10000 5.1 120 12:58 05.03.2020
1842 Clouds 24 1027 38 10000 5.1 170 12:40 05.03.2020
1843 Clouds 24 1027 38 10000 5.1 170 12:19 05.03.2020
1844 Clouds 24 1027 38 10000 5.1 170 11:56 05.03.2020
1845 Clouds 24 1027 38 10000 5.1 170 11:37 05.03.2020
1846 Clouds 24 1027 38 10000 5.1 170 11:18 05.03.2020
1847 Clouds 23 1028 40 10000 4.1 160 10:56 05.03.2020
1848 Clouds 23 1028 40 10000 4.1 160 10:38 05.03.2020
1849 Clouds 23 1028 40 10000 4.1 160 10:20 05.03.2020
1850 Clouds 21 1029 46 10000 4.1 180 09:44 05.03.2020
1851 Clouds 21 1029 46 10000 4.1 180 09:26 05.03.2020
1852 Rain 20 1015 42 0 2.7 93 08:44 05.03.2020
1853 Rain 20 1015 42 0 2.7 93 08:25 05.03.2020
1854 Rain 16 1018 64 0 2.66 294 07:48 05.03.2020
1855 Rain 16 1018 64 0 2.66 294 07:22 05.03.2020
1856 Rain 16 1018 64 0 2.66 294 06:49 05.03.2020
1857 Rain 16 1018 64 0 2.66 294 06:22 05.03.2020
1858 Rain 16 1018 64 0 2.66 294 05:57 05.03.2020
1859 Clouds 17 1027 63 10000 3.1 320 05:25 05.03.2020
1860 Clouds 17 1027 63 10000 3.1 320 04:22 05.03.2020
1861 Clouds 16 1027 67 10000 5.1 320 03:51 05.03.2020
1862 Clouds 19 1027 48 10000 2.1 300 01:58 05.03.2020
1863 Clouds 19 1027 48 10000 2.1 300 01:22 05.03.2020
1864 Clouds 18 1027 48 10000 3.1 290 00:26 05.03.2020
1865 Clouds 18 1027 48 10000 2.1 30 23:43 04.03.2020
1866 Clouds 18 1027 48 10000 2.1 30 23:23 04.03.2020
1867 Clouds 18 1028 48 10000 2.1 30 22:58 04.03.2020
1868 Clouds 18 1028 48 10000 2.1 30 22:39 04.03.2020
1869 Clouds 19 1028 45 10000 1 80 22:19 04.03.2020
1870 Clouds 19 1028 45 10000 1 80 21:57 04.03.2020
1871 Clouds 19 1028 45 10000 1 80 21:39 04.03.2020
1872 Clouds 19 1028 45 10000 1 80 21:20 04.03.2020
1873 Clouds 20 1028 42 10000 1 80 20:54 04.03.2020
1874 Clouds 20 1028 42 10000 1 80 20:36 04.03.2020
1875 Clouds 20 1028 42 10000 1 80 20:18 04.03.2020
1876 Clouds 21 1027 40 10000 3.1 80 19:42 04.03.2020
1877 Clouds 17 1015 50 0 4.19 71 19:23 04.03.2020
1878 Clouds 17 1015 50 0 4.19 71 18:55 04.03.2020
1879 Clouds 17 1015 50 0 4.19 71 18:36 04.03.2020
1880 Clouds 17 1015 50 0 4.19 71 18:18 04.03.2020
1881 Clouds 17 1015 50 0 4.19 71 17:54 04.03.2020
1882 Clouds 17 1015 50 0 4.19 71 17:36 04.03.2020
1883 Clouds 25 1025 31 10000 5.1 150 17:18 04.03.2020
1884 Clouds 25 1025 31 10000 5.1 150 16:42 04.03.2020
1885 Clouds 25 1025 31 10000 5.1 150 16:23 04.03.2020
1886 Clouds 26 1024 29 10000 4.1 150 15:57 04.03.2020
1887 Clouds 26 1024 29 10000 4.1 150 15:39 04.03.2020
1888 Clouds 26 1024 29 10000 4.1 150 15:19 04.03.2020
1889 Clouds 26 1024 29 10000 4.1 150 15:19 04.03.2020
1890 Clouds 21 1012 39 0 4.31 96 14:54 04.03.2020
1891 Clouds 21 1012 39 0 4.31 96 14:36 04.03.2020
1892 Clouds 22 1010 36 0 2.74 111 14:18 04.03.2020
1893 Clouds 22 1010 36 0 2.74 111 13:40 04.03.2020
1894 Clouds 22 1010 36 0 2.74 111 13:22 04.03.2020
1895 Clouds 22 1010 37 0 3.11 113 12:59 04.03.2020
1896 Clouds 22 1010 37 0 3.11 113 12:41 04.03.2020
1897 Clouds 25 1027 33 10000 2.6 130 12:23 04.03.2020
1898 Clouds 25 1027 33 10000 2.6 130 11:55 04.03.2020
1899 Clouds 25 1027 33 10000 2.6 130 11:55 04.03.2020
1900 Clouds 25 1027 33 10000 2.6 130 11:37 04.03.2020
1901 Clouds 25 1027 33 10000 2.6 130 11:19 04.03.2020
1902 Clouds 24 1028 36 10000 4.6 100 10:42 04.03.2020
1903 Clouds 22 1029 40 10000 4.6 130 10:23 04.03.2020
1904 Clouds 22 1029 40 10000 4.6 130 09:55 04.03.2020
1905 Clouds 22 1029 40 10000 4.6 130 09:37 04.03.2020
1906 Clouds 22 1029 40 10000 4.6 130 09:18 04.03.2020
1907 Clouds 22 1029 40 10000 4.6 80 08:41 04.03.2020
1908 Clouds 22 1029 40 10000 4.6 80 08:23 04.03.2020
1909 Clouds 19 1029 52 10000 4.1 60 07:47 04.03.2020
1910 Clouds 19 1029 52 10000 4.1 60 07:28 04.03.2020
1911 Clouds 17 1017 49 0 4.58 97 06:51 04.03.2020
1912 Clouds 17 1017 49 0 4.58 97 06:26 04.03.2020
1913 Clouds 17 1017 49 0 4.58 97 05:57 04.03.2020
1914 Clouds 16 1087 55 10000 2.1 20 05:21 04.03.2020
1915 Clouds 16 1027 51 10000 2.1 330 03:52 04.03.2020
1916 Clouds 15 1016 67 0 0.91 21 03:33 04.03.2020
1917 Clouds 16 1027 51 10000 2.1 330 02:58 04.03.2020
1918 Clouds 16 1027 51 10000 2.1 330 02:26 04.03.2020
1919 Clouds 17 1027 51 10000 2.1 130 01:56 04.03.2020
1920 Clouds 17 1027 51 10000 2.1 130 01:31 04.03.2020
1921 Clouds 17 1027 48 10000 4.1 80 00:41 04.03.2020
1922 Clouds 17 1027 48 10000 4.1 80 00:21 04.03.2020
1923 Clouds 16 1015 65 0 1.06 63 23:42 03.03.2020
1924 Clouds 19 1028 39 10000 5.1 60 23:22 03.03.2020
1925 Clouds 19 1028 39 10000 5.1 60 22:55 03.03.2020
1926 Clouds 19 1028 39 10000 5.1 60 22:37 03.03.2020
1927 Clouds 19 1028 39 10000 5.1 60 22:18 03.03.2020
1928 Clouds 20 1029 37 10000 5.1 70 21:41 03.03.2020
1929 Clouds 15 1016 66 0 1.64 21 21:21 03.03.2020
1930 Clouds 15 1016 66 0 1.64 21 20:58 03.03.2020
1931 Clouds 15 1016 66 0 1.64 21 20:39 03.03.2020
1932 Clouds 20 1028 37 10000 4.1 60 20:18 03.03.2020
1933 Clouds 20 1028 37 10000 4.1 60 19:56 03.03.2020
1934 Clouds 20 1028 37 10000 4.1 60 19:37 03.03.2020
1935 Clouds 20 1028 37 10000 4.1 60 19:18 03.03.2020
1936 Clouds 21 1027 35 10000 5.1 70 18:56 03.03.2020
1937 Clouds 21 1027 35 10000 5.1 70 18:38 03.03.2020
1938 Clouds 23 1026 33 10000 6.2 90 18:18 03.03.2020
1939 Clouds 23 1026 33 10000 6.2 90 17:41 03.03.2020
1940 Clouds 23 1026 33 10000 6.2 90 17:22 03.03.2020
1941 Clouds 25 1025 27 10000 5.1 130 16:59 03.03.2020
1942 Clouds 25 1025 27 10000 5.1 130 16:38 03.03.2020
1943 Clouds 25 1025 27 10000 5.1 130 16:20 03.03.2020
1944 Clouds 26 1025 27 10000 6.2 160 15:58 03.03.2020
1945 Clouds 26 1025 27 10000 6.2 160 15:40 03.03.2020
1946 Clouds 26 1025 27 10000 6.2 160 15:20 03.03.2020
1947 Clouds 22 1012 36 0 6.71 102 14:43 03.03.2020
1948 Clouds 22 1012 36 0 6.71 102 14:43 03.03.2020
1949 Clouds 26 1025 27 10000 4.1 110 14:21 03.03.2020
1950 Clouds 26 1025 27 10000 4.1 110 13:58 03.03.2020
1951 Clouds 26 1025 27 10000 4.1 110 13:40 03.03.2020
1952 Clouds 26 1025 27 10000 4.1 110 13:22 03.03.2020
1953 Clouds 26 1026 27 10000 5.1 170 12:48 03.03.2020
1954 Clouds 26 1026 27 10000 5.1 170 12:27 03.03.2020
1955 Clouds 25 1027 29 10000 5.1 140 11:59 03.03.2020
1956 Clouds 25 1027 29 10000 5.1 140 11:38 03.03.2020
1957 Clouds 25 1027 29 10000 5.1 140 11:19 03.03.2020
1958 Clouds 24 1028 31 10000 5.1 70 10:56 03.03.2020
1959 Clouds 24 1028 31 10000 5.1 70 10:38 03.03.2020
1960 Clouds 24 1028 31 10000 5.1 70 10:19 03.03.2020
1961 Clouds 23 1029 31 0 3.1 130 09:44 03.03.2020
1962 Clouds 23 1029 31 0 3.1 130 09:23 03.03.2020
1963 Haze 21 1030 37 6000 4.1 70 08:58 03.03.2020
1964 Haze 21 1030 37 6000 4.1 70 08:39 03.03.2020
1965 Haze 21 1030 37 6000 4.1 70 08:20 03.03.2020
1966 Haze 18 1029 48 6000 4.1 70 07:44 03.03.2020
1967 Haze 18 1029 48 6000 4.1 70 07:22 03.03.2020
1968 Clouds 16 1029 51 10000 1 50 06:49 03.03.2020
1969 Clouds 16 1029 51 10000 1 50 06:49 03.03.2020
1970 Clouds 16 1029 51 10000 1 50 06:23 03.03.2020
1971 Clouds 14 1028 58 10000 1 30 05:47 03.03.2020
1972 Clouds 14 1028 58 10000 1 30 05:19 03.03.2020
1973 Clouds 15 1028 54 10000 2.1 350 04:25 03.03.2020
1974 Clouds 18 1027 45 10000 3.6 100 01:40 03.03.2020
1975 Clouds 18 1027 42 10000 4.6 90 00:49 03.03.2020
1976 Clouds 18 1027 42 10000 4.6 90 00:27 03.03.2020
1977 Clouds 18 1027 42 10000 3.1 90 23:57 02.03.2020
1978 Clouds 18 1027 42 10000 3.1 90 23:38 02.03.2020
1979 Clouds 18 1027 42 10000 3.1 90 23:20 02.03.2020
1980 Clouds 19 1028 37 10000 4.1 70 22:55 02.03.2020
1981 Clouds 19 1028 37 10000 4.1 70 22:37 02.03.2020
1982 Clouds 19 1028 37 10000 4.1 70 22:18 02.03.2020
1983 Clouds 19 1028 39 10000 4.6 50 21:42 02.03.2020
1984 Clouds 19 1028 39 10000 4.6 50 21:23 02.03.2020
1985 Clouds 19 1028 42 10000 3.1 40 20:58 02.03.2020
1986 Clouds 19 1028 42 10000 3.1 40 20:40 02.03.2020
1987 Clouds 19 1028 42 10000 3.1 40 20:20 02.03.2020
1988 Clouds 20 1027 37 10000 4.6 60 19:56 02.03.2020
1989 Clouds 20 1027 37 10000 4.6 60 19:38 02.03.2020
1990 Clouds 20 1027 37 10000 4.6 60 19:20 02.03.2020
1991 Clouds 21 1026 35 10000 5.1 70 18:45 02.03.2020
1992 Clouds 21 1026 35 10000 5.1 70 18:20 02.03.2020
1993 Clouds 23 1025 31 10000 5.1 100 17:59 02.03.2020
1994 Clouds 23 1025 31 10000 5.1 100 17:59 02.03.2020
1995 Clouds 23 1025 31 10000 5.1 100 17:41 02.03.2020
1996 Clouds 23 1025 31 10000 5.1 100 17:41 02.03.2020
1997 Clouds 23 1025 31 10000 5.1 100 17:21 02.03.2020
1998 Clouds 23 1025 31 10000 5.1 100 17:21 02.03.2020
1999 Clouds 25 1025 27 10000 4.1 130 16:56 02.03.2020
2000 Clouds 25 1025 27 10000 4.1 130 16:38 02.03.2020
2001 Clouds 25 1025 27 10000 4.1 130 16:20 02.03.2020
2002 Clouds 22 1011 34 0 6.37 92 15:44 02.03.2020
2003 Clouds 27 1024 22 10000 2.1 90 15:20 02.03.2020
2004 Clouds 27 1024 22 10000 2.1 90 14:56 02.03.2020
2005 Clouds 27 1024 22 10000 2.1 90 14:36 02.03.2020
2006 Clouds 27 1024 22 10000 2.1 90 14:18 02.03.2020
2007 Clouds 26 1024 22 10000 4.1 130 13:40 02.03.2020
2008 Clouds 26 1024 22 10000 4.1 130 13:19 02.03.2020
2009 Clouds 25 1010 23 0 4.19 123 12:54 02.03.2020
2010 Clouds 25 1010 23 0 4.19 123 12:36 02.03.2020
2011 Clouds 25 1010 23 0 4.19 123 12:18 02.03.2020
2012 Clouds 25 1010 23 0 4.19 123 11:38 02.03.2020
2013 Clouds 24 1028 29 10000 5.1 140 11:19 02.03.2020
2014 Clouds 24 1028 29 10000 5.1 140 10:55 02.03.2020
2015 Clouds 24 1028 29 10000 5.1 140 10:36 02.03.2020
2016 Clouds 24 1028 29 10000 5.1 140 10:18 02.03.2020
2017 Clouds 24 1014 26 0 3.61 125 09:44 02.03.2020
2018 Clouds 24 1014 26 0 3.61 125 09:25 02.03.2020
2019 Clouds 24 1014 26 0 3.61 125 08:47 02.03.2020
2020 Clouds 24 1013 25 0 4.76 117 08:22 02.03.2020
2021 Clouds 18 1017 39 0 1.93 109 07:44 02.03.2020
2022 Clouds 16 1028 48 10000 2.1 90 07:20 02.03.2020
2023 Clouds 16 1028 48 10000 2.1 90 06:47 02.03.2020
2024 Clouds 18 1017 39 0 1.93 109 05:55 02.03.2020
2025 Clouds 15 1026 51 10000 1.5 100 04:26 02.03.2020
2026 Clouds 15 1026 51 10000 1.5 100 03:23 02.03.2020
2027 Clouds 16 1026 48 10000 3.1 80 02:48 02.03.2020
2028 Clouds 14 1014 51 0 0.31 293 01:52 02.03.2020
2029 Clouds 14 1014 51 0 0.31 293 01:31 02.03.2020
2030 Clouds 17 1026 45 10000 3.1 110 00:24 02.03.2020
2031 Clouds 14 1014 49 0 0.33 277 23:58 01.03.2020
2032 Clouds 14 1014 49 0 0.33 277 23:40 01.03.2020
2033 Clear 15 1016 45 0 2.56 53 23:20 01.03.2020
2034 Clear 15 1016 45 0 2.56 53 22:43 01.03.2020
2035 Clear 15 1016 45 0 2.56 53 22:20 01.03.2020
2036 Clear 15 1016 45 0 2.56 53 21:56 01.03.2020
2037 Clear 15 1016 45 0 2.56 53 21:38 01.03.2020
2038 Clear 15 1016 45 0 2.56 53 21:19 01.03.2020
2039 Clear 15 1016 45 0 2.56 53 20:44 01.03.2020
2040 Clear 15 1016 45 0 2.56 53 20:25 01.03.2020
2041 Clouds 17 1014 41 0 3.6 71 19:56 01.03.2020
2042 Clouds 17 1014 41 0 3.6 71 19:37 01.03.2020
2043 Clouds 17 1014 41 0 3.6 71 19:19 01.03.2020
2044 Clouds 17 1014 41 0 3.6 71 18:41 01.03.2020
2045 Clouds 17 1014 41 0 3.6 71 18:20 01.03.2020
2046 Clouds 17 1014 41 0 3.6 71 17:58 01.03.2020
2047 Clouds 17 1014 41 0 3.6 71 17:40 01.03.2020
2048 Clouds 25 1023 27 10000 6.2 150 17:21 01.03.2020
2049 Clouds 25 1023 27 10000 6.2 150 16:57 01.03.2020
2050 Clouds 25 1023 27 10000 6.2 150 16:39 01.03.2020
2051 Clouds 25 1023 27 10000 6.2 150 16:18 01.03.2020
2052 Clouds 25 1023 27 10000 6.2 150 16:18 01.03.2020
2053 Clouds 26 1023 24 10000 4.1 150 15:57 01.03.2020
2054 Clouds 26 1023 24 10000 4.1 150 15:39 01.03.2020
2055 Clouds 26 1023 24 10000 4.1 150 15:20 01.03.2020
2056 Clouds 26 1023 24 10000 5.1 190 14:57 01.03.2020
2057 Clouds 26 1023 24 10000 5.1 190 14:38 01.03.2020
2058 Clouds 26 1023 24 10000 5.1 190 14:20 01.03.2020
2059 Clouds 25 1010 22 0 3.37 112 13:56 01.03.2020
2060 Clouds 25 1010 22 0 3.37 112 13:37 01.03.2020
2061 Clouds 25 1010 22 0 3.37 112 13:19 01.03.2020
2062 Clouds 24 1010 24 0 2.07 116 12:43 01.03.2020
2063 Clouds 24 1010 24 0 2.07 116 12:21 01.03.2020
2064 Clouds 24 1010 24 0 2.07 116 11:58 01.03.2020
2065 Clouds 24 1010 24 0 2.07 116 11:39 01.03.2020
2066 Clouds 24 1026 29 10000 5.1 100 11:18 01.03.2020
2067 Clouds 24 1026 29 10000 5.1 100 10:55 01.03.2020
2068 Clouds 24 1026 29 10000 5.1 100 10:36 01.03.2020
2069 Clouds 22 1014 29 0 2.74 148 10:18 01.03.2020
2070 Clouds 22 1014 29 0 2.74 148 09:41 01.03.2020
2071 Clear 23 1014 26 0 4.76 119 09:22 01.03.2020
2072 Clear 23 1014 26 0 4.76 119 08:46 01.03.2020
2073 Clear 23 1014 26 0 4.76 119 08:26 01.03.2020
2074 Clouds 17 1017 37 0 1.89 119 07:45 01.03.2020
2075 Clouds 17 1017 37 0 1.89 119 07:27 01.03.2020
2076 Clouds 17 1017 37 0 1.89 119 06:58 01.03.2020
2077 Clouds 17 1017 37 0 1.89 119 06:40 01.03.2020
2078 Clouds 15 1026 51 10000 1 70 04:47 01.03.2020
2079 Clouds 16 1025 48 10000 3.6 90 02:58 01.03.2020
2080 Clouds 16 1025 48 10000 3.6 90 02:18 01.03.2020
2081 Clouds 17 1025 45 10000 4.1 80 01:36 01.03.2020
2082 Clouds 18 1025 42 10000 4.1 80 00:48 01.03.2020
2083 Clouds 18 1025 42 10000 4.1 80 00:25 01.03.2020
2084 Clouds 15 1013 46 0 0.29 196 23:54 29.02.2020
2085 Clouds 15 1013 46 0 0.29 196 23:35 29.02.2020
2086 Clouds 15 1014 46 0 1.3 84 22:46 29.02.2020
2087 Clouds 19 1026 39 10000 5.1 70 22:26 29.02.2020
2088 Clouds 15 1014 46 0 1.3 84 21:57 29.02.2020
2089 Clouds 15 1014 46 0 1.3 84 21:38 29.02.2020
2090 Clouds 20 1025 37 10000 5.1 50 21:19 29.02.2020
2091 Clouds 20 1025 37 10000 5.1 50 20:41 29.02.2020
2092 Clouds 20 1025 37 10000 5.1 50 20:20 29.02.2020
2093 Clouds 19 1013 36 0 3.54 75 19:54 29.02.2020
2094 Clouds 19 1013 36 0 3.54 75 19:36 29.02.2020
2095 Clouds 23 1024 31 10000 2.1 110 19:18 29.02.2020
2096 Clouds 23 1024 31 10000 2.1 110 18:39 29.02.2020
2097 Clouds 23 1024 31 10000 2.1 110 18:19 29.02.2020
2098 Clouds 23 1024 31 10000 3.1 130 17:55 29.02.2020
2099 Clouds 23 1024 31 10000 3.1 130 17:37 29.02.2020
2100 Clouds 23 1024 31 10000 3.1 130 17:19 29.02.2020
2101 Clouds 25 1023 29 10000 2.1 180 16:43 29.02.2020
2102 Clouds 25 1023 29 10000 2.1 180 16:19 29.02.2020
2103 Clouds 23 1009 26 0 4.27 121 15:56 29.02.2020
2104 Clouds 23 1009 26 0 4.27 121 15:36 29.02.2020
2105 Clouds 23 1009 26 0 4.27 121 15:18 29.02.2020
2106 Clouds 23 1009 26 0 4.27 121 14:39 29.02.2020
2107 Clouds 24 1024 36 10000 4.1 710 14:21 29.02.2020
2108 Clouds 24 1024 36 10000 4.1 710 13:45 29.02.2020
2109 Clouds 24 1024 36 10000 4.1 710 13:26 29.02.2020
2110 Clouds 24 1024 33 10000 4.1 160 12:56 29.02.2020
2111 Clouds 24 1024 33 10000 4.1 160 12:37 29.02.2020
2112 Clouds 24 1024 33 10000 4.1 160 12:19 29.02.2020
2113 Clouds 24 1025 33 10000 4.1 90 11:44 29.02.2020
2114 Clouds 24 1025 33 10000 4.1 90 11:26 29.02.2020
2115 Clouds 23 1026 33 10000 4.1 120 10:51 29.02.2020
2116 Clouds 23 1026 33 10000 4.1 120 10:30 29.02.2020
2117 Clouds 23 1027 33 10000 5.7 150 09:52 29.02.2020
2118 Clouds 23 1027 33 10000 5.7 150 09:28 29.02.2020
2119 Clouds 23 1013 27 0 3.76 170 08:58 29.02.2020
2120 Clouds 23 1013 27 0 3.76 170 08:39 29.02.2020
2121 Clouds 18 1016 39 0 2.28 121 08:20 29.02.2020
2122 Clouds 18 1016 39 0 2.28 121 07:47 29.02.2020
2123 Clouds 18 1027 52 10000 2.6 50 07:22 29.02.2020
2124 Clouds 18 1027 52 10000 2.6 50 06:54 29.02.2020
2125 Clouds 18 1027 52 10000 2.6 50 06:28 29.02.2020
2126 Clouds 14 1027 71 10000 2.1 100 05:49 29.02.2020
2127 Clouds 14 1027 71 10000 2.1 100 05:30 29.02.2020
2128 Clouds 14 1026 67 10000 3.6 150 03:53 29.02.2020
2129 Clouds 14 1026 67 10000 3.6 150 03:23 29.02.2020
2130 Clouds 14 1015 62 0 2.03 312 02:51 29.02.2020
2131 Clouds 16 1025 59 10000 2.1 90 01:55 29.02.2020
2132 Clouds 16 1026 59 10000 2.1 100 00:49 29.02.2020
2133 Clouds 16 1026 59 10000 2.1 100 00:27 29.02.2020
2134 Clouds 16 1026 59 10000 3.1 120 23:40 28.02.2020
2135 Clouds 16 1026 59 10000 3.1 120 23:22 28.02.2020
2136 Clouds 17 1026 59 10000 3.1 90 22:42 28.02.2020
2137 Clouds 17 1026 59 10000 3.1 90 22:22 28.02.2020
2138 Clouds 18 1027 55 10000 4.1 60 21:42 28.02.2020
2139 Clouds 18 1027 55 10000 4.1 60 21:22 28.02.2020
2140 Clouds 18 1027 55 10000 4.1 60 21:22 28.02.2020
2141 Clouds 18 1027 55 10000 4.1 80 20:57 28.02.2020
2142 Clouds 18 1027 55 10000 4.1 80 20:38 28.02.2020
2143 Clouds 18 1027 55 10000 4.1 80 20:20 28.02.2020
2144 Clouds 19 1026 52 10000 4.1 70 19:56 28.02.2020
2145 Clouds 19 1026 52 10000 4.1 70 19:38 28.02.2020
2146 Clouds 19 1026 52 10000 4.1 70 19:19 28.02.2020
2147 Clouds 15 1015 44 0 2.66 47 18:46 28.02.2020
2148 Clouds 22 1025 43 10000 6.2 100 18:24 28.02.2020
2149 Clouds 15 1015 44 0 2.66 47 17:56 28.02.2020
2150 Clouds 15 1015 44 0 2.66 47 17:36 28.02.2020
2151 Clouds 15 1015 44 0 2.66 47 17:36 28.02.2020
2152 Clouds 24 1024 38 10000 5.1 160 17:18 28.02.2020
2153 Clouds 24 1024 38 10000 5.1 160 16:38 28.02.2020
2154 Clouds 25 1024 33 10000 5.7 160 16:19 28.02.2020
2155 Clouds 25 1024 33 10000 5.7 160 16:19 28.02.2020
2156 Clouds 25 1024 33 10000 5.7 160 15:56 28.02.2020
2157 Clouds 25 1024 33 10000 5.7 160 15:37 28.02.2020
2158 Clouds 25 1024 33 10000 5.7 160 15:18 28.02.2020
2159 Clouds 26 1023 31 10000 2.6 180 14:45 28.02.2020
2160 Clouds 26 1024 29 10000 3.6 100 14:20 28.02.2020
2161 Clouds 26 1024 29 10000 3.6 100 13:59 28.02.2020
2162 Clouds 26 1024 29 10000 3.6 100 13:40 28.02.2020
2163 Clouds 26 1024 29 10000 3.6 100 13:19 28.02.2020
2164 Clouds 25 1025 33 10000 3.1 120 12:45 28.02.2020
2165 Clouds 25 1025 33 10000 3.1 120 12:27 28.02.2020
2166 Clouds 25 1025 33 10000 3.1 120 12:27 28.02.2020
2167 Clouds 20 1011 45 0 3.28 71 11:56 28.02.2020
2168 Clouds 20 1011 45 0 3.28 71 11:37 28.02.2020
2169 Clouds 22 1027 40 10000 5.1 130 11:19 28.02.2020
2170 Clouds 22 1027 40 10000 5.1 130 10:43 28.02.2020
2171 Clouds 22 1027 40 10000 5.1 130 10:24 28.02.2020
2172 Clouds 21 1028 43 10000 3.1 130 09:49 28.02.2020
2173 Clouds 21 1028 43 10000 3.1 130 09:49 28.02.2020
2174 Clouds 21 1028 43 10000 3.1 130 09:49 28.02.2020
2175 Clouds 21 1028 43 10000 3.1 130 09:49 28.02.2020
2176 Clouds 21 1028 43 10000 3.1 130 09:49 28.02.2020
2177 Clouds 21 1028 43 10000 3.1 130 09:22 28.02.2020
2178 Clouds 20 1029 49 10000 4.1 90 08:59 28.02.2020
2179 Clouds 20 1029 49 10000 4.1 90 08:41 28.02.2020
2180 Clouds 20 1029 49 10000 4.1 90 08:41 28.02.2020
2181 Clouds 20 1029 49 10000 4.1 90 08:20 28.02.2020
2182 Clouds 17 1029 59 10000 6.2 90 07:45 28.02.2020
2183 Clouds 17 1029 59 10000 6.2 90 07:25 28.02.2020
2184 Clouds 17 1029 59 10000 2.6 90 06:48 28.02.2020
2185 Clouds 17 1029 59 10000 2.6 90 06:28 28.02.2020
2186 Clouds 15 1027 72 10000 2.1 80 04:50 28.02.2020
2187 Clouds 15 1027 72 10000 2.1 80 04:20 28.02.2020
2188 Clouds 16 1026 67 10000 3.1 80 02:47 28.02.2020
2189 Clouds 12 1016 86 0 1.43 88 02:28 28.02.2020
2190 Clouds 13 1015 82 0 1.63 24 01:33 28.02.2020
2191 Clouds 16 1026 63 10000 5.1 90 00:30 28.02.2020
2192 Clouds 16 1026 63 10000 5.1 90 23:42 27.02.2020
2193 Clear 12 1015 82 0 1.61 29 23:22 27.02.2020
2194 Clear 13 1017 85 0 2.31 58 22:55 27.02.2020
2195 Clear 13 1017 85 0 2.31 58 22:37 27.02.2020
2196 Clouds 17 1028 67 10000 6.2 70 22:19 27.02.2020
2197 Clouds 17 1028 67 10000 6.2 70 21:41 27.02.2020
2198 Clouds 17 1028 67 10000 6.2 70 21:19 27.02.2020
2199 Clear 13 1017 85 0 2.31 58 20:58 27.02.2020
2200 Clear 13 1017 85 0 2.31 58 20:39 27.02.2020
2201 Clouds 20 1027 52 10000 6.2 80 20:21 27.02.2020
2202 Clouds 20 1027 52 10000 6.2 80 19:56 27.02.2020
2203 Clouds 20 1027 52 10000 6.2 80 19:37 27.02.2020
2204 Clouds 20 1027 52 10000 6.2 80 19:37 27.02.2020
2205 Clouds 20 1027 52 10000 6.2 80 19:19 27.02.2020
2206 Rain 14 1015 80 0 3.56 79 18:42 27.02.2020
2207 -273 0 0 0 0 0 18:24 27.02.2020
2208 Rain 14 1015 80 0 3.56 79 17:58 27.02.2020
2209 Rain 14 1015 80 0 3.56 79 17:40 27.02.2020
2210 Clouds 18 1011 58 0 6.6 93 17:19 27.02.2020
2211 Clouds 18 1011 58 0 6.6 93 16:57 27.02.2020
2212 Clouds 18 1011 58 0 6.6 93 16:38 27.02.2020
2213 Clouds 18 1011 58 0 6.6 93 16:18 27.02.2020
2214 Clouds 18 1011 58 0 6.6 93 15:56 27.02.2020
2215 Clouds 18 1011 58 0 6.6 93 15:37 27.02.2020
2216 Clouds 18 1011 58 0 6.6 93 15:18 27.02.2020
2217 Clouds 18 1011 58 0 6.6 93 14:43 27.02.2020
2218 Clouds 25 1025 38 10000 5.1 140 14:24 27.02.2020
2219 Clouds 25 1025 38 10000 5.1 140 13:58 27.02.2020
2220 Clouds 25 1025 38 10000 5.1 140 13:40 27.02.2020
2221 Clouds 25 1025 38 10000 5.1 140 13:20 27.02.2020
2222 Clouds 25 1025 36 10000 5.1 140 12:46 27.02.2020
2223 Clouds 25 1025 36 10000 5.1 140 12:25 27.02.2020
2224 Clouds 24 1026 38 10000 4.1 90 11:58 27.02.2020
2225 Clouds 24 1026 38 10000 4.1 90 11:38 27.02.2020
2226 Clouds 24 1026 38 10000 4.1 90 11:20 27.02.2020
2227 Clouds 24 1027 38 10000 3.1 160 10:43 27.02.2020
2228 Clouds 24 1027 38 10000 3.1 160 10:22 27.02.2020
2229 Clouds 21 1028 52 10000 3.1 120 09:47 27.02.2020
2230 Clouds 21 1028 52 10000 3.1 120 09:29 27.02.2020
2231 Clouds 20 1029 56 10000 3.1 50 08:57 27.02.2020
2232 Clouds 20 1029 56 10000 3.1 50 08:38 27.02.2020
2233 Clouds 20 1029 56 10000 3.1 50 08:38 27.02.2020
2234 Clouds 20 1029 56 10000 3.1 50 08:18 27.02.2020
2235 Clouds 18 1028 63 10000 4.1 50 07:43 27.02.2020
2236 Clouds 15 1028 77 10000 5.1 70 07:24 27.02.2020
2237 Clouds 15 1028 77 10000 5.1 70 06:42 27.02.2020
2238 Clouds 14 1028 82 10000 4.1 60 05:27 27.02.2020
2239 Clear 12 1017 84 0 1.83 25 03:33 27.02.2020
2240 Clouds 15 1027 67 10000 2.1 90 02:19 27.02.2020
2241 Clouds 16 1027 67 10000 3.6 90 00:44 27.02.2020
2242 Clouds 16 1027 67 10000 3.6 90 00:24 27.02.2020
2243 Clouds 16 1028 63 10000 4.1 80 23:39 26.02.2020
2244 Clouds 16 1028 63 10000 4.1 80 23:18 26.02.2020
2245 Clouds 16 1028 67 10000 5.1 60 22:56 26.02.2020
2246 Clouds 16 1028 67 10000 5.1 60 22:38 26.02.2020
2247 Clouds 16 1028 67 10000 5.1 60 22:19 26.02.2020
2248 Clear 14 1018 76 0 3.81 65 21:40 26.02.2020
2249 Clouds 18 1028 55 10000 4.6 90 21:21 26.02.2020
2250 Clouds 18 1028 55 10000 4.6 90 20:57 26.02.2020
2251 Clouds 18 1028 55 10000 4.6 90 20:38 26.02.2020
2252 Clouds 18 1028 55 10000 4.6 90 20:19 26.02.2020
2253 Clouds 18 1027 55 10000 6.2 80 19:57 26.02.2020
2254 Clouds 18 1027 55 10000 6.2 80 19:38 26.02.2020
2255 Clouds 18 1027 55 10000 6.2 80 19:19 26.02.2020
2256 Clouds 19 1027 52 10000 5.1 70 18:57 26.02.2020
2257 -273 0 0 0 0 0 18:38 26.02.2020
2258 Clouds 19 1027 52 10000 5.1 70 18:19 26.02.2020
2259 Clouds 20 1026 49 10000 5.1 90 17:41 26.02.2020
2260 Clouds 20 1026 49 10000 5.1 90 17:21 26.02.2020
2261 Clouds 19 1013 52 0 6.57 94 16:57 26.02.2020
2262 Clouds 19 1013 52 0 6.57 94 16:39 26.02.2020
2263 Clouds 23 1025 40 10000 7.2 90 16:20 26.02.2020
2264 Clouds 23 1025 40 10000 7.2 90 15:46 26.02.2020
2265 Clouds 23 1025 40 10000 7.2 90 15:28 26.02.2020
2266 Clouds 24 1024 38 10000 6.2 120 14:55 26.02.2020
2267 Clouds 24 1024 38 10000 6.2 120 14:37 26.02.2020
2268 Clouds 24 1024 38 10000 6.2 120 14:18 26.02.2020
2269 Clouds 24 1025 38 10000 7.2 100 13:42 26.02.2020
2270 Clouds 24 1025 38 10000 7.2 100 13:20 26.02.2020
2271 Clouds 24 1026 38 10000 3.1 150 12:39 26.02.2020
2272 Clouds 24 1026 38 10000 3.1 150 12:19 26.02.2020
2273 Clouds 23 1011 37 0 6.67 100 11:56 26.02.2020
2274 Clouds 23 1011 37 0 6.67 100 11:56 26.02.2020
2275 Clouds 23 1011 37 0 6.67 100 11:38 26.02.2020
2276 Clouds 22 1015 40 0 5.64 99 11:20 26.02.2020
2277 Clouds 22 1015 40 0 5.64 99 10:41 26.02.2020
2278 Clouds 20 1029 52 10000 4.1 90 10:22 26.02.2020
2279 Clouds 20 1029 52 10000 4.1 90 09:56 26.02.2020
2280 Clouds 20 1029 52 10000 4.1 90 09:38 26.02.2020
2281 Clouds 19 1029 55 10000 2.1 80 09:18 26.02.2020
2282 Clouds 19 1029 55 10000 2.1 80 08:38 26.02.2020
2283 Clouds 19 1029 55 10000 2.1 80 08:19 26.02.2020
2284 Clouds 17 1029 63 10000 2.1 90 07:50 26.02.2020
2285 Clouds 16 1018 58 0 3.31 90 07:29 26.02.2020
2286 Clouds 16 1018 58 0 3.31 90 06:54 26.02.2020
2287 Clouds 16 1018 58 0 3.31 90 06:36 26.02.2020
2288 Clouds 16 1018 58 0 3.31 90 06:18 26.02.2020
2289 Clouds 16 1018 58 0 3.31 90 05:43 26.02.2020
2290 Clouds 12 1018 72 0 2.07 65 04:49 26.02.2020
2291 Clouds 14 1027 67 10000 4.6 70 02:54 26.02.2020
2292 Clouds 15 1026 62 10000 6.2 70 01:50 26.02.2020
2293 Clouds 16 1027 55 10000 4.1 70 00:51 26.02.2020
2294 Clouds 16 1027 55 10000 4.1 70 00:27 26.02.2020
2295 Clouds 16 1028 59 10000 3.1 60 23:59 25.02.2020
2296 Clouds 16 1028 59 10000 3.1 60 23:38 25.02.2020
2297 Clouds 16 1028 59 10000 3.1 60 23:20 25.02.2020
2298 Clouds 17 1028 55 10000 2.1 50 22:43 25.02.2020
2299 Clouds 17 1028 55 10000 2.1 50 22:20 25.02.2020
2300 Clouds 17 1027 72 10000 2.6 60 21:58 25.02.2020
2301 Clouds 17 1027 72 10000 2.6 60 21:37 25.02.2020
2302 Clouds 17 1027 72 10000 2.6 60 21:18 25.02.2020
2303 Clouds 18 1027 68 10000 2.6 340 20:55 25.02.2020
2304 Clouds 18 1027 68 10000 2.6 340 20:36 25.02.2020
2305 Clouds 18 1027 68 10000 2.6 340 20:18 25.02.2020
2306 Clouds 18 1027 68 10000 2.6 280 19:42 25.02.2020
2307 Clouds 18 1027 68 10000 2.6 280 19:22 25.02.2020
2308 Clouds 17 1026 67 10000 5.1 310 18:58 25.02.2020
2309 Clouds 17 1026 67 10000 5.1 310 18:38 25.02.2020
2310 Clouds 17 1026 67 10000 5.1 310 18:19 25.02.2020
2311 Clouds 23 1025 33 10000 5.1 350 17:55 25.02.2020
2312 Clouds 23 1025 33 10000 5.1 350 17:36 25.02.2020
2313 Clouds 23 1025 33 10000 5.1 350 17:18 25.02.2020
2314 Clouds 24 1023 29 10000 5.1 310 16:42 25.02.2020
2315 Clouds 24 1023 29 10000 5.1 310 16:22 25.02.2020
2316 Clouds 22 1011 31 0 6.95 104 15:59 25.02.2020
2317 Clouds 22 1011 31 0 6.95 104 15:41 25.02.2020
2318 Clouds 22 1011 31 0 6.95 104 15:20 25.02.2020
2319 Clouds 22 1011 31 0 6.95 104 14:58 25.02.2020
2320 Clouds 22 1011 31 0 6.95 104 14:38 25.02.2020
2321 Clouds 28 1023 24 10000 4.1 210 14:18 25.02.2020
2322 Clouds 28 1023 24 10000 4.1 210 13:56 25.02.2020
2323 Clouds 28 1023 24 10000 4.1 210 13:38 25.02.2020
2324 Clouds 28 1023 24 10000 4.1 210 13:19 25.02.2020
2325 Clouds 28 1023 24 10000 4.1 210 13:19 25.02.2020
2326 Clouds 26 1009 21 0 4.12 172 12:42 25.02.2020
2327 Clouds 26 1025 26 0 3.6 200 12:23 25.02.2020
2328 Clouds 26 1025 26 0 3.6 200 11:58 25.02.2020
2329 Clouds 26 1025 26 0 3.6 200 11:39 25.02.2020
2330 Clouds 26 1025 26 0 3.6 200 11:19 25.02.2020
2331 Clouds 24 1027 27 0 3.1 220 10:59 25.02.2020
2332 Clouds 24 1027 27 0 3.1 220 10:40 25.02.2020
2333 Clouds 24 1027 27 0 3.1 220 10:22 25.02.2020
2334 Clouds 22 1028 30 10000 2.6 230 09:42 25.02.2020
2335 Clouds 22 1028 30 10000 2.6 230 09:42 25.02.2020
2336 Clouds 22 1028 30 10000 2.6 230 09:22 25.02.2020
2337 Clouds 23 1014 26 0 2.79 162 08:55 25.02.2020
2338 Clouds 23 1014 26 0 2.79 162 08:37 25.02.2020
2339 Clouds 19 1028 37 10000 1.5 200 08:19 25.02.2020
2340 Clouds 19 1028 37 10000 1.5 200 07:40 25.02.2020
2341 Clouds 19 1028 37 10000 1.5 200 07:20 25.02.2020
2342 Clouds 17 1027 48 10000 1.5 100 06:37 25.02.2020
2343 Clouds 15 1026 44 10000 2.1 20 05:29 25.02.2020
2344 Clouds 14 1025 47 10000 2.1 80 03:30 25.02.2020
2345 Clouds 13 1014 56 0 2.15 41 01:36 25.02.2020
2346 Clouds 13 1014 50 0 1.81 46 00:48 25.02.2020
2347 Clouds 16 1026 41 10000 4.1 80 00:29 25.02.2020
2348 Clouds 16 1026 41 10000 4.1 80 23:43 24.02.2020
2349 Clouds 16 1026 41 10000 4.1 80 23:20 24.02.2020
2350 Clouds 14 1015 51 0 2.15 44 22:42 24.02.2020
2351 Clouds 18 1026 51 10000 5.1 60 22:20 24.02.2020
2352 Clouds 18 1026 51 10000 5.1 60 21:57 24.02.2020
2353 Clouds 18 1026 51 10000 5.1 60 21:39 24.02.2020
2354 Clouds 18 1026 51 10000 5.1 60 21:20 24.02.2020
2355 Clouds 14 1015 51 0 2.15 44 20:58 24.02.2020
2356 Clouds 14 1015 51 0 2.15 44 20:40 24.02.2020
2357 Clouds 16 1014 43 0 3.77 65 20:19 24.02.2020
2358 Clouds 16 1014 43 0 3.77 65 19:56 24.02.2020
2359 Clouds 16 1014 43 0 3.77 65 19:38 24.02.2020
2360 Clouds 19 1026 25 10000 5.1 70 19:19 24.02.2020
2361 Clouds 19 1026 25 10000 5.1 70 18:43 24.02.2020
2362 Clouds 19 1026 25 10000 5.1 70 18:43 24.02.2020
2363 Clouds 19 1026 25 10000 5.1 70 18:24 24.02.2020
2364 Clouds 16 1014 43 0 3.77 65 17:58 24.02.2020
2365 -273 0 0 0 0 0 17:39 24.02.2020
2366 Clouds 23 1024 18 10000 6.2 90 17:20 24.02.2020
2367 Clouds 23 1024 18 10000 6.2 90 16:58 24.02.2020
2368 Clouds 23 1024 18 10000 6.2 90 16:58 24.02.2020
2369 Clouds 23 1024 18 10000 6.2 90 16:38 24.02.2020
2370 Clouds 23 1024 18 10000 6.2 90 16:20 24.02.2020
2371 Clouds 20 1010 32 0 5.97 103 15:57 24.02.2020
2372 Clouds 20 1010 32 0 5.97 103 15:39 24.02.2020
2373 Clouds 26 1023 15 0 5.1 100 15:20 24.02.2020
2374 Clouds 26 1023 15 0 5.1 100 14:55 24.02.2020
2375 Clouds 26 1023 15 0 5.1 100 14:36 24.02.2020
2376 Clouds 26 1023 15 0 5.1 100 14:18 24.02.2020
2377 Clouds 26 1023 22 10000 4.6 110 13:41 24.02.2020
2378 Clouds 26 1023 23 10000 4.6 110 13:23 24.02.2020
2379 Clouds 26 1024 22 10000 3.6 120 12:59 24.02.2020
2380 Clouds 26 1024 22 10000 3.6 120 12:41 24.02.2020
2381 Clouds 26 1024 22 10000 3.6 120 12:23 24.02.2020
2382 Clouds 28 1025 23 10000 3.6 50 11:50 24.02.2020
2383 Clouds 28 1025 23 10000 3.6 50 11:32 24.02.2020
2384 Clouds 22 1026 33 10000 4.1 130 10:54 24.02.2020
2385 Clouds 22 1026 33 10000 4.1 130 10:36 24.02.2020
2386 Clouds 22 1026 33 10000 4.1 130 10:18 24.02.2020
2387 Clouds 21 1027 40 10000 4.6 60 09:40 24.02.2020
2388 Clouds 21 1027 40 10000 4.6 60 09:19 24.02.2020
2389 Clouds 21 1027 40 10000 4.6 60 09:19 24.02.2020
2390 Clouds 19 1028 48 10000 4.6 80 08:48 24.02.2020
2391 Clouds 19 1028 48 10000 4.6 80 08:29 24.02.2020
2392 Clouds 18 1028 55 10000 5.7 90 07:54 24.02.2020
2393 Clouds 17 1016 55 0 2.73 97 07:33 24.02.2020
2394 Clouds 14 1027 76 10000 2.1 90 06:50 24.02.2020
2395 Clouds 14 1027 76 10000 2.1 90 06:23 24.02.2020
2396 Clouds 12 1026 81 10000 2.6 90 05:44 24.02.2020
2397 Clouds 12 1026 81 10000 2.6 90 05:24 24.02.2020
2398 Clouds 11 1015 83 0 2.43 48 02:57 24.02.2020
2399 Clouds 12 1014 82 0 2 44 01:55 24.02.2020
2400 Clouds 12 1014 77 0 2.27 47 01:29 24.02.2020
2401 Clouds 12 1014 77 0 2.27 47 00:44 24.02.2020
2402 Clouds 15 1027 67 10000 3.1 60 00:20 24.02.2020
2403 Clouds 15 1027 67 10000 3.1 60 23:42 23.02.2020
2404 Clouds 15 1027 67 10000 3.1 60 23:23 23.02.2020
2405 Clouds 16 1028 63 10000 4.1 60 22:58 23.02.2020
2406 Clouds 16 1028 63 10000 4.1 60 22:40 23.02.2020
2407 Clouds 16 1028 63 10000 4.1 60 22:21 23.02.2020
2408 Clouds 16 1028 63 10000 5.1 50 21:46 23.02.2020
2409 Clouds 16 1028 63 10000 5.1 50 21:21 23.02.2020
2410 Clouds 17 1028 55 10000 5.1 60 20:58 23.02.2020
2411 Clouds 17 1028 55 10000 5.1 60 20:40 23.02.2020
2412 Clouds 17 1028 55 10000 5.1 60 20:22 23.02.2020
2413 Clouds 18 1028 48 10000 3.1 40 19:59 23.02.2020
2414 Clouds 18 1028 48 10000 3.1 40 19:40 23.02.2020
2415 Clouds 18 1028 48 10000 3.1 40 19:19 23.02.2020
2416 Clouds 19 1026 42 10000 6.2 80 18:59 23.02.2020
2417 Clouds 19 1026 42 10000 6.2 80 18:37 23.02.2020
2418 Clouds 19 1026 42 10000 6.2 80 18:19 23.02.2020
2419 Clouds 15 1015 59 0 4.21 67 17:57 23.02.2020
2420 Clouds 15 1015 59 0 4.21 67 17:39 23.02.2020
2421 Clouds 20 1012 41 0 7.06 97 17:20 23.02.2020
2422 Clouds 20 1012 41 0 7.06 97 16:46 23.02.2020
2423 Clouds 20 1012 41 0 7.06 97 16:28 23.02.2020
2424 Clouds 20 1012 41 0 7.06 97 15:59 23.02.2020
2425 Clouds 20 1012 41 0 7.06 97 15:39 23.02.2020
2426 -273 0 0 0 0 0 15:21 23.02.2020
2427 Clouds 25 1024 22 10000 8.2 80 14:59 23.02.2020
2428 Clouds 25 1024 22 10000 8.2 80 14:40 23.02.2020
2429 Clouds 25 1024 22 10000 8.2 80 14:21 23.02.2020
2430 Clouds 25 1024 22 10000 8.2 80 14:21 23.02.2020
2431 Clouds 25 1024 22 10000 8.2 80 13:57 23.02.2020
2432 Clouds 25 1024 22 10000 8.2 80 13:38 23.02.2020
2433 Clouds 26 1025 22 10000 7.7 100 13:20 23.02.2020
2434 Clouds 26 1025 22 10000 7.7 100 12:43 23.02.2020
2435 Clouds 26 1025 22 10000 7.7 100 12:22 23.02.2020
2436 Clouds 25 1026 29 10000 7.7 90 11:57 23.02.2020
2437 Clouds 25 1026 29 10000 7.7 90 11:37 23.02.2020
2438 Clouds 25 1026 29 10000 7.7 90 11:18 23.02.2020
2439 Clouds 22 1027 43 10000 6.7 80 10:54 23.02.2020
2440 Clouds 22 1027 43 10000 6.7 80 10:36 23.02.2020
2441 Clouds 22 1027 43 10000 6.7 80 10:18 23.02.2020
2442 Clouds 21 1028 49 10000 5.1 70 09:40 23.02.2020
2443 Clouds 21 1028 49 10000 5.1 70 09:21 23.02.2020
2444 Clouds 20 1029 52 10000 4.6 80 08:56 23.02.2020
2445 Clouds 20 1029 52 10000 4.6 80 08:36 23.02.2020
2446 Clouds 20 1029 52 10000 4.6 80 08:18 23.02.2020
2447 Clouds 18 1028 63 10000 4.6 80 07:40 23.02.2020
2448 Clouds 16 1028 72 10000 4.1 70 06:39 23.02.2020
2449 Clouds 14 1027 82 10000 4.6 50 05:48 23.02.2020
2450 Clouds 11 1016 91 0 2.42 69 04:42 23.02.2020
2451 Clouds 13 1026 87 10000 3.1 90 03:21 23.02.2020
2452 Clouds 14 1026 82 10000 4.1 90 02:26 23.02.2020
2453 Clear 12 1015 77 0 1.6 59 01:24 23.02.2020
2454 Clear 12 1015 77 0 1.6 59 00:47 23.02.2020
2455 Clear 12 1015 77 0 1.6 59 00:25 23.02.2020
2456 Clear 12 1015 77 0 1.6 59 23:45 22.02.2020
2457 Clouds 16 1028 72 10000 7.7 60 23:27 22.02.2020
2458 Clouds 16 1028 72 10000 7.7 60 22:57 22.02.2020
2459 Clouds 16 1028 72 10000 7.7 60 22:38 22.02.2020
2460 Clouds 16 1028 72 10000 3.6 60 22:18 22.02.2020
2461 Clouds 16 1028 72 10000 3.6 60 21:40 22.02.2020
2462 Clouds 16 1028 72 10000 3.6 60 21:22 22.02.2020
2463 Clouds 17 1028 59 10000 4.1 60 20:46 22.02.2020
2464 Clouds 17 1028 59 10000 4.1 60 20:24 22.02.2020
2465 Clouds 15 1016 68 0 3.59 59 19:56 22.02.2020
2466 Clouds 15 1016 68 0 3.59 59 19:37 22.02.2020
2467 Clouds 19 1027 45 10000 6.2 70 19:18 22.02.2020
2468 Clouds 19 1027 45 10000 6.2 70 18:39 22.02.2020
2469 Clouds 19 1027 45 10000 6.2 70 18:39 22.02.2020
2470 Clouds 19 1027 45 10000 6.2 70 18:21 22.02.2020
2471 Clouds 21 1026 35 10000 3.59 59 17:57 22.02.2020
2472 Clouds 21 1026 35 10000 3.59 59 17:39 22.02.2020
2473 Clouds 21 1026 35 10000 3.59 59 17:21 22.02.2020
2474 Clouds 19 1013 52 0 8.1 97 16:57 22.02.2020
2475 Clouds 19 1013 52 0 8.1 97 16:38 22.02.2020
2476 Clouds 19 1013 52 0 8.1 97 16:20 22.02.2020
2477 Clouds 19 1013 52 0 8.1 97 15:43 22.02.2020
2478 Clouds 19 1013 52 0 8.1 97 15:25 22.02.2020
2479 Clouds 19 1013 52 0 8.1 97 14:44 22.02.2020
2480 Clouds 25 1025 33 10000 7.2 100 14:24 22.02.2020
2481 Clouds 25 1025 33 10000 7.2 100 13:58 22.02.2020
2482 Clouds 25 1025 33 10000 7.2 100 13:40 22.02.2020
2483 Clouds 25 1025 33 10000 7.2 100 13:18 22.02.2020
2484 Clouds 24 1026 41 10000 7.2 110 12:44 22.02.2020
2485 Clouds 24 1026 41 10000 7.2 110 12:24 22.02.2020
2486 Clouds 24 1011 33 0 7.47 96 11:48 22.02.2020
2487 Clouds 22 1028 46 10000 8.2 100 11:29 22.02.2020
2488 Clouds 22 1028 46 10000 8.2 100 10:58 22.02.2020
2489 Clouds 22 1028 46 10000 8.2 100 10:40 22.02.2020
2490 Clouds 22 1028 46 10000 8.2 100 10:20 22.02.2020
2491 Clouds 21 1029 49 10000 7.2 100 09:58 22.02.2020
2492 Clouds 21 1029 49 10000 7.2 100 09:38 22.02.2020
2493 Clouds 21 1029 49 10000 7.2 100 09:20 22.02.2020
2494 Clouds 19 1029 59 10000 5.1 60 08:47 22.02.2020
2495 Clouds 19 1029 59 10000 5.1 60 08:28 22.02.2020
2496 Clouds 18 1029 63 10000 6.2 90 07:48 22.02.2020
2497 Clouds 18 1029 63 10000 6.2 90 07:19 22.02.2020
2498 Clouds 16 1028 72 10000 5.1 80 06:47 22.02.2020
2499 Clouds 16 1028 72 10000 5.1 80 06:28 22.02.2020
2500 Clouds 12 1016 93 0 2.69 58 04:33 22.02.2020
2501 Clouds 14 1026 71 10000 3.1 80 03:22 22.02.2020
2502 Clouds 14 1026 71 10000 3.1 80 02:29 22.02.2020
2503 Clouds 15 1026 72 10000 3.1 80 01:45 22.02.2020
2504 Clouds 15 1026 72 10000 3.1 80 01:45 22.02.2020
2505 Clouds 15 1026 72 10000 3.1 80 01:25 22.02.2020
2506 Clouds 16 1026 72 10000 4.1 70 00:45 22.02.2020
2507 Clouds 16 1026 72 10000 4.1 70 00:26 22.02.2020
2508 Clouds 16 1027 67 10000 5.1 70 23:45 21.02.2020
2509 Clouds 16 1027 67 10000 5.1 70 23:45 21.02.2020
2510 Clouds 16 1027 67 10000 5.1 70 23:21 21.02.2020
2511 Clouds 16 1028 55 10000 2.1 120 22:54 21.02.2020
2512 Clouds 16 1028 55 10000 2.1 120 22:36 21.02.2020
2513 Clouds 16 1028 55 10000 2.1 120 22:18 21.02.2020
2514 Clear 14 1016 70 0 3.13 62 21:41 21.02.2020
2515 Clouds 18 1028 45 10000 4.1 80 21:23 21.02.2020
2516 Clouds 18 1028 45 10000 4.1 80 20:48 21.02.2020
2517 Clouds 18 1028 45 10000 4.1 80 20:48 21.02.2020
2518 Clouds 18 1028 45 10000 4.1 80 20:29 21.02.2020
2519 Clouds 17 1015 54 0 4.43 71 19:42 21.02.2020
2520 Clouds 17 1015 54 0 4.43 71 19:24 21.02.2020
2521 Clouds 17 1015 54 0 4.43 71 18:56 21.02.2020
2522 Clouds 17 1015 54 0 4.43 71 18:38 21.02.2020
2523 Clouds 17 1015 54 0 4.43 71 18:19 21.02.2020
2524 Clouds 17 1015 54 0 4.43 71 17:41 21.02.2020
2525 Clouds 20 1011 39 0 6.84 100 17:21 21.02.2020
2526 Clouds 20 1011 39 0 6.84 100 16:57 21.02.2020
2527 Clouds 20 1011 39 0 6.84 100 16:39 21.02.2020
2528 Clouds 25 1024 33 10000 7.2 100 16:20 21.02.2020
2529 Clouds 25 1024 33 10000 7.2 100 15:46 21.02.2020
2530 Clouds 25 1024 33 10000 7.2 100 15:19 21.02.2020
2531 Clouds 25 1024 33 10000 7.2 100 15:19 21.02.2020
2532 Clouds 25 1024 33 10000 7.2 100 15:19 21.02.2020
2533 Clouds 20 1011 39 0 6.84 100 14:59 21.02.2020
2534 Clouds 20 1011 39 0 6.84 100 14:41 21.02.2020
2535 Clouds 24 1011 30 0 6.48 101 14:19 21.02.2020
2536 Clouds 24 1011 30 0 6.48 101 13:42 21.02.2020
2537 Clouds 25 1024 33 10000 5.1 90 13:24 21.02.2020
2538 Clouds 25 1024 33 10000 5.1 90 12:54 21.02.2020
2539 Clouds 25 1024 33 10000 5.1 90 12:36 21.02.2020
2540 Clouds 25 1024 33 10000 5.1 90 12:18 21.02.2020
2541 Clouds 22 1027 40 10000 2.6 90 11:40 21.02.2020
2542 Clouds 22 1027 40 10000 2.6 90 11:21 21.02.2020
2543 Clouds 22 1027 40 10000 2.1 90 10:56 21.02.2020
2544 Clouds 22 1027 40 10000 2.1 90 10:56 21.02.2020
2545 Clouds 22 1027 40 10000 2.1 90 10:38 21.02.2020
2546 Clouds 21 1028 46 10000 4.1 110 10:19 21.02.2020
2547 Clouds 21 1028 46 10000 4.1 110 09:56 21.02.2020
2548 Clouds 21 1028 46 10000 4.1 110 09:37 21.02.2020
2549 Clouds 21 1028 46 10000 4.1 110 09:18 21.02.2020
2550 Clouds 22 1014 36 0 4.7 109 08:41 21.02.2020
2551 Clouds 22 1014 34 0 4.42 111 08:22 21.02.2020
2552 Clouds 17 1017 51 0 3.5 80 07:59 21.02.2020
2553 Clouds 17 1017 51 0 3.5 80 07:40 21.02.2020
2554 Clouds 15 1027 67 10000 2.1 80 07:18 21.02.2020
2555 Clouds 15 1027 67 10000 2.1 80 06:47 21.02.2020
2556 Clouds 15 1027 67 10000 2.1 80 06:28 21.02.2020
2557 Clouds 17 1017 51 0 3.5 80 05:42 21.02.2020
2558 Clouds 11 1025 76 10000 4.1 80 04:33 21.02.2020
2559 Clouds 11 1016 79 0 1.74 21 03:58 21.02.2020
2560 Clouds 11 1016 79 0 1.74 21 03:24 21.02.2020
2561 Clouds 12 1014 76 0 1.32 68 01:51 21.02.2020
2562 Clouds 12 1014 77 0 1.6 56 01:23 21.02.2020
2563 Clouds 12 1014 77 0 1.6 56 00:41 21.02.2020
2564 Clouds 12 1014 77 0 1.6 56 00:22 21.02.2020
2565 Clouds 12 1014 77 0 1.6 56 23:43 20.02.2020
2566 Clouds 12 1014 77 0 1.6 56 23:43 20.02.2020
2567 Clouds 13 1016 72 0 2.56 62 23:23 20.02.2020
2568 Clouds 13 1016 72 0 2.56 62 22:56 20.02.2020
2569 Clouds 13 1016 72 0 2.56 62 22:37 20.02.2020
2570 Clouds 16 1027 67 10000 5.1 70 22:18 20.02.2020
2571 Clouds 16 1027 67 10000 5.1 70 21:55 20.02.2020
2572 Clouds 16 1027 67 10000 5.1 70 21:36 20.02.2020
2573 Clouds 16 1027 67 10000 5.1 70 21:18 20.02.2020
2574 Clouds 17 1027 63 10000 7.2 70 20:54 20.02.2020
2575 Clouds 17 1027 63 10000 7.2 70 20:54 20.02.2020
2576 Clouds 17 1027 63 10000 7.2 70 20:36 20.02.2020
2577 Clouds 17 1027 63 10000 7.2 70 20:18 20.02.2020
2578 Clouds 17 1027 63 10000 7.2 70 20:18 20.02.2020
2579 Clouds 17 1027 63 10000 7.2 70 20:18 20.02.2020
2580 Clouds 18 1027 59 10000 6.2 70 19:42 20.02.2020
2581 Clouds 16 1014 67 0 4.71 81 19:24 20.02.2020
2582 Clouds 16 1014 67 0 4.71 81 18:59 20.02.2020
2583 Clouds 16 1014 67 0 4.71 81 18:38 20.02.2020
2584 Clouds 16 1014 67 0 4.71 81 18:19 20.02.2020
2585 Clouds 16 1014 67 0 4.71 81 18:19 20.02.2020
2586 Clouds 16 1014 67 0 4.71 81 17:41 20.02.2020
2587 Clouds 23 1025 35 10000 6.2 90 17:22 20.02.2020
2588 Clouds 23 1025 35 10000 6.2 90 16:58 20.02.2020
2589 Clouds 23 1025 35 10000 6.2 90 16:40 20.02.2020
2590 Clouds 23 1025 35 10000 6.2 90 16:20 20.02.2020
2591 Clouds 24 1025 33 10000 6.2 90 15:58 20.02.2020
2592 Clouds 26 1024 31 10000 6.2 160 15:39 20.02.2020
2593 Clouds 26 1024 31 10000 6.2 160 15:20 20.02.2020
2594 Clouds 26 1024 31 10000 6.2 160 14:54 20.02.2020
2595 Clouds 26 1024 31 10000 6.2 160 14:36 20.02.2020
2596 Clouds 25 1024 31 10000 5.1 160 14:18 20.02.2020
2597 Clouds 25 1024 31 10000 5.1 160 13:44 20.02.2020
2598 Clouds 25 1024 31 10000 5.1 160 13:19 20.02.2020
2599 Clouds 24 1025 36 10000 3.1 140 12:56 20.02.2020
2600 Clouds 24 1025 36 10000 3.1 140 12:37 20.02.2020
2601 Clouds 24 1026 36 10000 3.1 110 12:18 20.02.2020
2602 Clouds 24 1026 36 10000 3.1 110 11:42 20.02.2020
2603 Clouds 24 1026 36 10000 3.1 110 11:22 20.02.2020
2604 Clouds 22 1027 43 10000 5.1 100 10:57 20.02.2020
2605 Clouds 22 1027 43 10000 5.1 100 10:39 20.02.2020
2606 Clouds 22 1027 43 10000 5.1 100 10:20 20.02.2020
2607 Clouds 22 1028 43 10000 6.2 90 09:46 20.02.2020
2608 Clouds 20 1028 49 10000 6.2 90 09:25 20.02.2020
2609 Clouds 20 1028 49 10000 6.2 90 08:59 20.02.2020
2610 Clouds 20 1028 49 10000 6.2 90 08:38 20.02.2020
2611 Clouds 18 1028 59 10000 4.6 80 08:20 20.02.2020
2612 Clouds 18 1016 44 0 6.31 91 07:45 20.02.2020
2613 Clouds 16 1028 67 10000 2.6 70 07:23 20.02.2020
2614 Clouds 16 1028 67 10000 2.6 70 06:53 20.02.2020
2615 Clouds 16 1028 67 10000 2.6 70 06:26 20.02.2020
2616 Clouds 12 1026 76 10000 1 20 05:46 20.02.2020
2617 Clouds 13 1026 71 10000 1 60 04:54 20.02.2020
2618 Clouds 13 1025 71 10000 1 320 03:58 20.02.2020
2619 Clouds 13 1025 71 10000 1 320 03:29 20.02.2020
2620 Clouds 13 1015 57 0 2.18 34 02:25 20.02.2020
2621 Clouds 13 1014 59 0 1.53 7 00:59 20.02.2020
2622 Clouds 13 1014 59 0 1.53 7 00:32 20.02.2020
2623 Clouds 13 1014 59 0 1.53 7 23:49 19.02.2020
2624 Clouds 13 1014 59 0 1.53 7 23:22 19.02.2020
2625 Clear 14 1015 58 0 2.09 33 22:47 19.02.2020
2626 Clear 14 1015 58 0 2.09 33 22:28 19.02.2020
2627 Clear 14 1015 58 0 2.09 33 21:59 19.02.2020
2628 Clear 14 1015 58 0 2.09 33 21:41 19.02.2020
2629 Clear 14 1015 58 0 2.09 33 21:19 19.02.2020
2630 Clear 14 1015 58 0 2.09 33 20:58 19.02.2020
2631 Clear 14 1015 58 0 2.09 33 20:39 19.02.2020
2632 Clear 17 1015 51 0 5.03 78 20:20 19.02.2020
2633 Clear 17 1015 51 0 5.03 78 19:59 19.02.2020
2634 Clear 17 1015 51 0 5.03 78 19:39 19.02.2020
2635 Clear 17 1015 51 0 5.03 78 19:21 19.02.2020
2636 Clear 17 1015 51 0 5.03 78 18:59 19.02.2020
2637 Clear 17 1015 51 0 5.03 78 18:40 19.02.2020
2638 Clouds 22 1025 35 10000 6.2 90 18:22 19.02.2020
2639 Clouds 22 1025 35 10000 6.2 90 17:59 19.02.2020
2640 Clouds 22 1025 35 10000 6.2 90 17:41 19.02.2020
2641 Clouds 22 1025 35 10000 6.2 90 17:19 19.02.2020
2642 Clear 21 1012 41 0 8.02 97 16:43 19.02.2020
2643 Clouds 26 1024 24 10000 8.2 110 16:19 19.02.2020
2644 Clouds 26 1024 24 10000 8.2 110 15:57 19.02.2020
2645 Clouds 26 1024 24 10000 8.2 110 15:38 19.02.2020
2646 Clouds 26 1024 24 10000 8.2 110 15:19 19.02.2020
2647 Clear 21 1012 41 0 8.02 97 14:41 19.02.2020
2648 Clouds 27 1025 28 10000 5.1 110 14:23 19.02.2020
2649 Clouds 27 1025 28 10000 5.1 110 13:56 19.02.2020
2650 Clouds 27 1025 28 10000 5.1 110 13:37 19.02.2020
2651 Clouds 27 1025 28 10000 5.1 110 13:18 19.02.2020
2652 Clouds 25 1011 28 0 7.01 99 12:39 19.02.2020
2653 Clouds 26 1026 34 10000 3.6 110 12:19 19.02.2020
2654 Clouds 26 1026 34 10000 3.6 110 12:19 19.02.2020
2655 Clouds 26 1026 34 10000 3.6 110 11:55 19.02.2020
2656 Clouds 26 1026 34 10000 3.6 110 11:37 19.02.2020
2657 Clouds 26 1026 34 10000 3.6 110 11:18 19.02.2020
2658 Clouds 23 1014 36 0 5.17 94 10:56 19.02.2020
2659 Clouds 23 1014 36 0 5.17 94 10:36 19.02.2020
2660 Clouds 21 1028 52 10000 5.1 110 10:18 19.02.2020
2661 Clouds 21 1028 52 10000 5.1 110 09:41 19.02.2020
2662 Clouds 21 1028 52 10000 5.1 110 09:20 19.02.2020
2663 Clouds 19 1029 59 10000 4.1 110 08:56 19.02.2020
2664 Clouds 19 1029 59 10000 4.1 110 08:37 19.02.2020
2665 Clouds 19 1029 59 10000 4.1 110 08:19 19.02.2020
2666 Clear 18 1029 63 10000 2.1 100 07:41 19.02.2020
2667 Clear 18 1029 63 10000 2.1 100 07:20 19.02.2020
2668 Clear 18 1018 53 0 4.11 91 06:46 19.02.2020
2669 Clouds 13 1028 76 10000 1 270 05:35 19.02.2020
2670 Clouds 14 1027 71 10000 3.1 100 03:56 19.02.2020
2671 Clear 12 1016 77 0 1.87 10 02:48 19.02.2020
2672 Clear 13 1015 73 0 1.19 33 01:54 19.02.2020
2673 Clouds 15 1027 72 10000 3.1 80 01:23 19.02.2020
2674 Clouds 15 1027 72 10000 3.1 80 00:42 19.02.2020
2675 Clouds 15 1027 72 10000 3.1 80 00:23 19.02.2020
2676 Clouds 16 1027 67 10000 2.1 120 23:41 18.02.2020
2677 Clouds 16 1027 67 10000 2.1 120 23:20 18.02.2020
2678 Clear 15 1017 69 0 2.55 30 22:56 18.02.2020
2679 Clear 15 1017 69 0 2.55 30 22:37 18.02.2020
2680 Clear 15 1017 69 0 2.55 30 22:19 18.02.2020
2681 Clear 15 1017 69 0 2.55 30 21:55 18.02.2020
2682 Clear 15 1017 69 0 2.55 30 21:36 18.02.2020
2683 Clear 15 1017 69 0 2.55 30 21:18 18.02.2020
2684 Clear 15 1017 69 0 2.55 30 20:54 18.02.2020
2685 Clear 15 1017 69 0 2.55 30 20:36 18.02.2020
2686 Clear 16 1016 65 0 4.98 81 20:18 18.02.2020
2687 Clear 16 1016 65 0 4.98 81 20:18 18.02.2020
2688 Clear 16 1016 65 0 4.98 81 19:42 18.02.2020
2689 Clear 16 1016 65 0 4.98 81 19:19 18.02.2020
2690 Clear 16 1016 65 0 4.98 81 18:57 18.02.2020
2691 Clear 16 1016 65 0 4.98 81 18:39 18.02.2020
2692 Clear 16 1016 65 0 4.98 81 18:19 18.02.2020
2693 Clear 16 1016 65 0 4.98 81 17:42 18.02.2020
2694 Clouds 24 1025 33 10000 8.2 110 17:20 18.02.2020
2695 Clouds 24 1025 33 10000 8.2 110 17:19 18.02.2020
2696 Clouds 24 1025 33 10000 8.2 110 16:40 18.02.2020
2697 Clouds 24 1025 33 10000 8.2 110 16:22 18.02.2020
2698 Clear 20 1013 50 0 6.1 93 15:58 18.02.2020
2699 Clear 20 1013 50 0 6.1 93 15:37 18.02.2020
2700 Clouds 26 1024 34 10000 5.7 90 15:18 18.02.2020
2701 Clouds 26 1024 34 10000 5.7 90 14:56 18.02.2020
2702 Clouds 26 1024 34 10000 5.7 90 14:37 18.02.2020
2703 Clouds 26 1024 34 10000 5.7 90 14:19 18.02.2020
2704 Clouds 26 1025 34 10000 4.1 110 13:41 18.02.2020
2705 Clouds 26 1025 34 10000 4.1 110 13:21 18.02.2020
2706 Clouds 25 1026 38 10000 2.6 110 12:54 18.02.2020
2707 Clouds 25 1026 38 10000 2.6 110 12:54 18.02.2020
2708 Clouds 25 1026 38 10000 2.6 110 12:36 18.02.2020
2709 Clouds 25 1026 38 10000 2.6 110 12:18 18.02.2020
2710 Clouds 24 1026 41 10000 5.1 80 11:42 18.02.2020
2711 Clouds 24 1026 41 10000 5.1 80 11:24 18.02.2020
2712 Clouds 23 1028 43 10000 5.1 100 10:55 18.02.2020
2713 Clouds 23 1028 43 10000 5.1 100 10:36 18.02.2020
2714 Clouds 23 1028 43 10000 5.1 100 10:18 18.02.2020
2715 Clouds 22 1028 49 10000 5.7 100 09:55 18.02.2020
2716 Clouds 22 1028 49 10000 5.7 100 09:36 18.02.2020
2717 Clouds 22 1028 49 10000 5.7 100 09:18 18.02.2020
2718 -273 0 0 0 0 0 08:41 18.02.2020
2719 Clouds 21 1029 49 10000 5.1 90 08:20 18.02.2020
2720 Clouds 19 1029 55 10000 5.1 60 07:56 18.02.2020
2721 Clouds 19 1029 55 10000 5.1 60 07:30 18.02.2020
2722 Clouds 17 1028 63 10000 2.6 90 06:56 18.02.2020
2723 Clouds 17 1028 63 10000 2.6 90 06:36 18.02.2020
2724 Clouds 16 1027 59 10000 2.1 90 05:56 18.02.2020
2725 Clouds 16 1027 59 10000 2.1 90 05:27 18.02.2020
2726 Clouds 14 1025 62 10000 2.1 180 03:58 18.02.2020
2727 Clouds 16 1025 63 10000 2.1 80 02:58 18.02.2020
2728 Clouds 17 1025 59 10000 3.1 70 01:58 18.02.2020
2729 Clouds 16 1025 55 10000 3.1 80 00:46 18.02.2020
2730 Clouds 16 1025 55 10000 3.1 80 00:46 18.02.2020
2731 Clouds 14 1014 65 0 1.95 26 00:20 18.02.2020
2732 Clouds 14 1014 65 0 1.95 26 23:44 17.02.2020
2733 Clouds 18 1027 48 10000 2.6 70 23:25 17.02.2020
2734 Clouds 18 1027 48 10000 2.6 70 22:59 17.02.2020
2735 Clouds 18 1027 48 10000 2.6 70 22:41 17.02.2020
2736 Clouds 18 1027 48 10000 2.6 70 22:20 17.02.2020
2737 Clear 15 1015 59 0 3.09 71 21:41 17.02.2020
2738 Clouds 18 1027 48 10000 4.1 70 21:20 17.02.2020
2739 Clouds 18 1027 48 10000 4.1 70 20:59 17.02.2020
2740 Clouds 18 1027 48 10000 4.1 70 20:39 17.02.2020
2741 Clouds 18 1027 48 10000 4.1 70 20:20 17.02.2020
2742 Clouds 19 1027 45 10000 3.6 70 19:56 17.02.2020
2743 Clouds 19 1027 45 10000 3.6 70 19:37 17.02.2020
2744 Clouds 19 1027 45 10000 3.6 70 19:19 17.02.2020
2745 Clouds 20 1026 42 10000 4.1 90 18:37 17.02.2020
2746 Clouds 20 1026 42 10000 4.1 90 18:19 17.02.2020
2747 Clear 17 1014 52 0 3.95 70 17:55 17.02.2020
2748 Clear 17 1014 52 0 3.95 70 17:36 17.02.2020
2749 Clear 17 1014 52 0 3.95 70 17:36 17.02.2020
2750 Clear 21 1011 42 0 6.8 98 17:18 17.02.2020
2751 Clear 21 1011 42 0 6.8 98 16:43 17.02.2020
2752 Clouds 26 1024 29 10000 4.1 130 16:23 17.02.2020
2753 Clouds 26 1024 29 10000 4.1 130 15:59 17.02.2020
2754 Clouds 26 1024 29 10000 4.1 130 15:40 17.02.2020
2755 Clouds 26 1024 29 10000 4.1 130 15:22 17.02.2020
2756 Clouds 26 1024 31 10000 4.6 160 14:46 17.02.2020
2757 Clouds 26 1024 31 10000 4.6 160 14:27 17.02.2020
2758 Clouds 25 1011 29 0 4.74 108 13:59 17.02.2020
2759 Clouds 25 1011 29 0 4.74 108 13:39 17.02.2020
2760 Clouds 25 1025 33 10000 4.1 120 13:19 17.02.2020
2761 Clouds 25 1025 33 10000 4.1 120 12:54 17.02.2020
2762 Clouds 25 1025 33 10000 4.1 120 12:36 17.02.2020
2763 Clouds 25 1025 33 10000 4.1 120 12:18 17.02.2020
2764 Clouds 25 1026 33 10000 4.1 130 11:43 17.02.2020
2765 Clouds 25 1026 33 10000 4.1 130 11:22 17.02.2020
2766 Clouds 23 1027 40 10000 5.1 100 10:56 17.02.2020
2767 Clouds 23 1027 40 10000 5.1 100 10:37 17.02.2020
2768 Clouds 23 1027 40 10000 5.1 100 10:19 17.02.2020
2769 Clouds 23 1027 40 10000 5.1 100 10:19 17.02.2020
2770 Clouds 23 1028 40 10000 5.1 110 09:42 17.02.2020
2771 Clouds 23 1028 40 10000 5.1 110 09:23 17.02.2020
2772 Clouds 20 1028 49 10000 5.1 100 08:59 17.02.2020
2773 Clouds 20 1028 49 10000 5.1 100 08:41 17.02.2020
2774 Clouds 20 1028 49 10000 5.1 100 08:21 17.02.2020
2775 Clouds 19 1028 48 10000 4.1 80 07:55 17.02.2020
2776 Clouds 19 1028 48 10000 4.1 80 07:26 17.02.2020
2777 Clouds 18 1028 52 10000 3.1 70 06:56 17.02.2020
2778 Clouds 18 1028 52 10000 3.1 70 06:36 17.02.2020
2779 Clouds 13 1027 66 10000 0.5 270 05:59 17.02.2020
2780 Clouds 13 1027 66 10000 0.5 270 05:38 17.02.2020
2781 Clouds 13 1026 62 10000 1 100 03:24 17.02.2020
2782 Clouds 15 1026 54 10000 2.6 100 02:19 17.02.2020
2783 Clouds 16 1026 51 10000 2.6 80 00:55 17.02.2020
2784 Clouds 16 1026 51 10000 2.6 80 00:25 17.02.2020
2785 Clouds 16 1027 51 10000 3.1 90 23:56 16.02.2020
2786 Clouds 16 1027 51 10000 3.1 90 23:34 16.02.2020
2787 Clouds 17 1028 48 10000 2.6 80 22:59 16.02.2020
2788 Clouds 17 1028 48 10000 2.6 80 22:39 16.02.2020
2789 Clouds 17 1028 48 10000 2.6 80 22:21 16.02.2020
2790 Clouds 18 1028 45 10000 3.1 70 21:59 16.02.2020
2791 Clouds 18 1028 45 10000 3.1 70 21:41 16.02.2020
2792 Clouds 18 1028 45 10000 3.1 70 21:23 16.02.2020
2793 Clear 15 1016 53 0 3.59 60 20:58 16.02.2020
2794 Clear 15 1016 53 0 3.59 60 20:40 16.02.2020
2795 Clear 15 1016 53 0 3.59 60 20:40 16.02.2020
2796 Clear 15 1016 53 0 3.59 60 20:40 16.02.2020
2797 Clouds 19 1027 45 10000 4.1 50 20:22 16.02.2020
2798 Clouds 19 1027 45 10000 4.1 50 19:58 16.02.2020
2799 Clouds 19 1027 45 10000 4.1 50 19:39 16.02.2020
2800 Clouds 19 1027 45 10000 4.1 50 19:19 16.02.2020
2801 Clouds 19 1027 45 10000 4.6 70 18:45 16.02.2020
2802 Clouds 17 1014 48 0 4.05 60 18:27 16.02.2020
2803 Clouds 17 1014 48 0 4.05 60 17:59 16.02.2020
2804 Clouds 17 1014 48 0 4.05 60 17:40 16.02.2020
2805 Clear 21 1011 32 0 6.33 102 17:20 16.02.2020
2806 Clear 21 1011 32 0 6.33 102 16:56 16.02.2020
2807 Clear 21 1011 32 0 6.33 102 16:38 16.02.2020
2808 Clear 21 1011 32 0 6.33 102 16:19 16.02.2020
2809 Clear 21 1011 32 0 6.33 102 15:42 16.02.2020
2810 Clear 21 1011 32 0 6.33 102 15:23 16.02.2020
2811 Clear 21 1011 32 0 6.33 102 15:23 16.02.2020
2812 Clear 21 1011 32 0 6.33 102 14:59 16.02.2020
2813 Clear 21 1011 32 0 6.33 102 14:38 16.02.2020
2814 Clear 25 1010 24 0 5.26 110 14:19 16.02.2020
2815 Clear 25 1010 24 0 5.26 110 13:45 16.02.2020
2816 Clear 25 1010 24 0 5.26 110 13:24 16.02.2020
2817 Clear 25 1010 24 0 5.28 113 12:54 16.02.2020
2818 Clear 25 1010 24 0 5.28 113 12:36 16.02.2020
2819 Clouds 23 1026 35 0 2.6 130 12:18 16.02.2020
2820 Clouds 23 1026 35 0 2.6 130 11:38 16.02.2020
2821 Clouds 23 1026 35 0 2.6 130 11:18 16.02.2020
2822 Clear 22 1015 31 0 3.31 123 10:56 16.02.2020
2823 Clear 22 1015 31 0 3.31 123 10:38 16.02.2020
2824 Clear 21 1028 43 0 5.1 120 10:19 16.02.2020
2825 Clear 21 1028 43 0 5.1 120 09:55 16.02.2020
2826 Clear 21 1028 43 0 5.1 120 09:36 16.02.2020
2827 Clear 21 1028 43 0 5.1 120 09:18 16.02.2020
2828 Clear 22 1015 31 0 3.31 123 08:44 16.02.2020
2829 Clear 18 1029 48 0 5.1 70 08:21 16.02.2020
2830 -273 0 0 0 0 0 07:51 16.02.2020
2831 Clear 18 1029 48 0 5.1 70 07:33 16.02.2020
2832 Clear 17 1018 49 0 2.31 86 06:33 16.02.2020
2833 Clear 11 1018 71 0 1.82 21 04:43 16.02.2020
2834 Clear 12 1026 66 0 2.1 330 03:29 16.02.2020
2835 Clear 11 1018 71 0 1.82 21 02:32 16.02.2020
2836 Clear 12 1017 71 0 1.84 50 01:43 16.02.2020
2837 Clouds 15 1027 58 10000 3.1 70 01:23 16.02.2020
2838 Clouds 15 1027 58 10000 3.1 70 00:53 16.02.2020
2839 Clouds 15 1027 58 10000 3.1 70 00:31 16.02.2020
2840 Clear 12 1017 70 0 1.88 47 23:58 15.02.2020
2841 Clear 12 1017 70 0 1.88 47 23:40 15.02.2020
2842 Clouds 16 1028 51 10000 6.2 70 23:21 15.02.2020
2843 Clouds 16 1028 51 10000 6.2 70 22:41 15.02.2020
2844 Clouds 16 1028 51 10000 6.2 70 22:22 15.02.2020
2845 Clouds 17 1029 48 10000 6.2 70 21:59 15.02.2020
2846 Clouds 17 1029 48 10000 6.2 70 21:41 15.02.2020
2847 Clouds 17 1029 48 10000 6.2 70 21:21 15.02.2020
2848 Clear 12 1018 68 0 2.39 42 20:41 15.02.2020
2849 Clouds 13 1018 63 0 2.55 38 20:21 15.02.2020
2850 Clear 14 1017 62 0 3.08 59 19:44 15.02.2020
2851 Clear 14 1017 62 0 3.08 59 19:24 15.02.2020
2852 Clear 14 1017 62 0 3.08 59 18:55 15.02.2020
2853 Clear 14 1017 62 0 3.08 59 18:37 15.02.2020
2854 Clouds 19 1027 37 10000 7.2 80 18:18 15.02.2020
2855 Clouds 19 1027 37 10000 7.2 80 17:43 15.02.2020
2856 Clouds 19 1027 37 10000 7.2 80 17:22 15.02.2020
2857 Clouds 21 1026 28 10000 8.2 90 16:59 15.02.2020
2858 Clouds 21 1026 28 10000 8.2 90 16:39 15.02.2020
2859 Clouds 21 1026 28 10000 8.2 90 16:19 15.02.2020
2860 Clouds 17 1013 50 0 6.98 100 15:43 15.02.2020
2861 Clouds 17 1013 50 0 6.98 100 15:24 15.02.2020
2862 Clouds 17 1013 50 0 6.98 100 14:45 15.02.2020
2863 Clouds 21 1013 35 0 6.03 101 14:23 15.02.2020
2864 Clouds 21 1013 35 0 6.03 101 13:58 15.02.2020
2865 Clouds 21 1013 35 0 6.03 101 13:39 15.02.2020
2866 Clouds 23 1025 35 10000 5.7 120 13:20 15.02.2020
2867 Clouds 23 1025 35 10000 5.7 120 12:44 15.02.2020
2868 Clouds 23 1025 35 10000 5.7 120 12:25 15.02.2020
2869 Clouds 23 1025 35 10000 5.7 120 12:25 15.02.2020
2870 Clouds 23 1026 35 10000 5.1 100 11:55 15.02.2020
2871 Clouds 23 1026 35 10000 5.1 100 11:36 15.02.2020
2872 Clouds 23 1026 35 10000 5.1 100 11:18 15.02.2020
2873 Clouds 22 1027 37 10000 5.1 90 10:39 15.02.2020
2874 Clouds 22 1027 37 10000 5.1 90 10:20 15.02.2020
2875 Clouds 20 1028 42 10000 6.2 100 09:44 15.02.2020
2876 Clouds 20 1028 42 10000 6.2 100 09:25 15.02.2020
2877 Clear 19 1028 48 0 6.7 110 08:58 15.02.2020
2878 Clear 19 1028 48 0 6.7 110 08:39 15.02.2020
2879 Clear 19 1028 48 0 6.7 110 08:19 15.02.2020
2880 Clear 17 1028 55 0 6.2 80 07:40 15.02.2020
2881 Clear 17 1028 55 0 6.2 80 07:22 15.02.2020
2882 Clear 16 1028 59 0 3.1 90 06:38 15.02.2020
2883 Clear 16 1028 59 0 3.1 90 06:18 15.02.2020
2884 Clouds 12 1026 76 10000 3.6 40 04:50 15.02.2020
2885 Clouds 12 1026 76 10000 3.6 40 04:24 15.02.2020
2886 Clouds 12 1026 76 10000 3.6 40 04:24 15.02.2020
2887 Clear 10 1018 71 0 2.58 48 02:58 15.02.2020
2888 Clear 10 1018 71 0 2.58 48 02:26 15.02.2020
2889 Clear 11 1016 70 0 1.9 39 01:50 15.02.2020
2890 Clouds 13 1026 71 10000 5.1 70 01:31 15.02.2020
2891 Clouds 13 1026 71 10000 5.1 70 00:28 15.02.2020
2892 Clear 11 1016 70 0 1.71 39 23:47 14.02.2020
2893 Clear 11 1016 70 0 1.71 39 23:21 14.02.2020
2894 Clear 12 1018 66 0 2.59 49 22:56 14.02.2020
2895 Clear 12 1018 66 0 2.59 49 22:56 14.02.2020
2896 Clear 12 1018 66 0 2.59 49 22:37 14.02.2020
2897 Clear 12 1018 66 0 2.59 49 22:19 14.02.2020
2898 Clear 12 1018 66 0 2.59 49 21:49 14.02.2020
2899 Clear 12 1018 66 0 2.59 49 21:30 14.02.2020
2900 Clear 12 1018 66 0 2.59 49 20:46 14.02.2020
2901 Clear 13 1018 58 0 4.23 79 20:20 14.02.2020
2902 Clear 13 1018 58 0 4.23 79 19:59 14.02.2020
2903 Clear 13 1018 58 0 4.23 79 19:40 14.02.2020
2904 Clear 13 1018 58 0 4.23 79 19:22 14.02.2020
2905 Clear 13 1018 58 0 4.23 79 18:56 14.02.2020
2906 Clear 13 1018 58 0 4.23 79 18:38 14.02.2020
2907 Clear 18 1027 52 0 6.2 70 18:19 14.02.2020
2908 Clear 18 1027 52 0 6.2 70 17:43 14.02.2020
2909 Clear 18 1027 52 0 6.2 70 17:21 14.02.2020
2910 Clouds 19 1026 48 10000 7.2 100 16:58 14.02.2020
2911 Clouds 19 1026 48 10000 7.2 100 16:58 14.02.2020
2912 Clouds 19 1026 48 10000 7.2 100 16:39 14.02.2020
2913 Clouds 19 1026 48 10000 7.2 100 16:21 14.02.2020
2914 Clouds 21 1026 40 10000 7.2 90 15:56 14.02.2020
2915 Clouds 21 1026 40 10000 7.2 90 15:37 14.02.2020
2916 Clouds 21 1026 40 10000 7.2 90 15:37 14.02.2020
2917 Clouds 21 1026 40 10000 7.2 90 15:37 14.02.2020
2918 Clouds 21 1026 40 10000 7.2 90 15:37 14.02.2020
2919 Clouds 21 1026 40 10000 7.2 90 15:19 14.02.2020
2920 Clouds 20 1026 45 10000 8.7 100 14:58 14.02.2020
2921 Clouds 20 1026 45 10000 8.7 100 14:39 14.02.2020
2922 Clouds 20 1026 45 10000 8.7 100 14:21 14.02.2020
2923 Clouds 21 1026 43 10000 7.7 100 13:40 14.02.2020
2924 Clouds 21 1026 43 10000 7.7 100 13:21 14.02.2020
2925 Clouds 20 1027 45 10000 6.2 100 12:58 14.02.2020
2926 Clouds 20 1027 45 10000 6.2 100 12:40 14.02.2020
2927 Clouds 19 1028 48 10000 6.2 90 12:21 14.02.2020
2928 Clouds 19 1028 48 10000 6.2 90 11:59 14.02.2020
2929 Clouds 19 1028 48 10000 6.2 90 11:41 14.02.2020
2930 Clouds 19 1028 48 10000 6.2 90 11:20 14.02.2020
2931 Clouds 19 1028 55 10000 7.7 110 10:56 14.02.2020
2932 Clouds 19 1028 55 10000 7.7 110 10:37 14.02.2020
2933 Clouds 19 1028 55 10000 7.7 110 10:19 14.02.2020
2934 Clouds 17 1029 59 10000 5.7 100 09:42 14.02.2020
2935 Clouds 17 1029 59 10000 5.7 100 09:21 14.02.2020
2936 Clouds 15 1029 72 10000 5.1 90 08:44 14.02.2020
2937 Clouds 15 1029 72 10000 5.1 90 08:25 14.02.2020
2938 Clouds 13 1029 82 10000 2.6 120 07:57 14.02.2020
2939 Clouds 13 1029 82 10000 2.6 120 07:38 14.02.2020
2940 Clouds 13 1029 82 10000 2.6 120 07:19 14.02.2020
2941 Clouds 13 1028 76 10000 2.1 120 06:30 14.02.2020
2942 Clouds 12 1028 81 10000 3.6 70 05:47 14.02.2020
2943 Clouds 12 1028 81 10000 3.1 50 04:46 14.02.2020
2944 Clouds 12 1027 81 10000 2.1 80 03:29 14.02.2020
2945 Clouds 12 1027 81 10000 4.1 80 02:30 14.02.2020
2946 Clouds 13 1027 76 10000 4.1 90 01:27 14.02.2020
2947 Clouds 13 1027 82 10000 4.1 80 00:43 14.02.2020
2948 Clouds 13 1027 82 10000 4.1 80 00:43 14.02.2020
2949 Clouds 13 1027 82 10000 4.1 80 00:23 14.02.2020
2950 Clouds 11 1018 82 0 3.09 71 23:45 13.02.2020
2951 Clouds 14 1029 76 10000 3.1 70 23:21 13.02.2020
2952 Clouds 14 1029 76 10000 3.1 70 22:44 13.02.2020
2953 Clouds 12 1020 78 0 4.11 64 22:20 13.02.2020
2954 Clouds 12 1020 78 0 4.11 64 22:20 13.02.2020
2955 Clouds 12 1020 78 0 4.11 64 22:20 13.02.2020
2956 Clouds 12 1020 78 0 4.11 64 21:59 13.02.2020
2957 Clouds 12 1020 78 0 4.11 64 21:40 13.02.2020
2958 Clouds 14 1029 76 10000 4.1 80 21:22 13.02.2020
2959 Clouds 14 1029 76 10000 4.1 80 20:56 13.02.2020
2960 Clouds 14 1029 76 10000 4.1 80 20:38 13.02.2020
2961 Clouds 14 1029 76 10000 4.1 80 20:20 13.02.2020
2962 Clouds 14 1029 76 10000 5.1 80 19:55 13.02.2020
2963 Clouds 14 1029 76 10000 5.1 80 19:36 13.02.2020
2964 Clouds 14 1029 76 10000 5.1 80 19:36 13.02.2020
2965 Clouds 14 1029 76 10000 5.1 80 19:18 13.02.2020
2966 Clouds 14 1028 76 10000 5.1 80 18:43 13.02.2020
2967 -273 0 0 0 0 0 18:24 13.02.2020
2968 Clouds 15 1028 72 10000 5.1 80 17:59 13.02.2020
2969 Clouds 15 1028 72 10000 5.1 80 17:40 13.02.2020
2970 Clouds 15 1028 72 10000 5.1 80 17:40 13.02.2020
2971 Clouds 15 1028 72 10000 5.1 80 17:20 13.02.2020
2972 Clouds 17 1027 63 10000 4.1 80 16:58 13.02.2020
2973 Clouds 17 1027 63 10000 4.1 80 16:37 13.02.2020
2974 Clouds 17 1027 63 10000 4.1 80 16:19 13.02.2020
2975 Clouds 18 1027 63 10000 8.2 80 15:56 13.02.2020
2976 Clouds 18 1027 63 10000 8.2 80 15:37 13.02.2020
2977 Clouds 18 1027 63 10000 8.2 80 15:19 13.02.2020
2978 Clouds 20 1026 52 10000 7.7 100 14:56 13.02.2020
2979 Clouds 20 1026 52 10000 7.7 100 14:37 13.02.2020
2980 Clouds 20 1026 52 10000 7.7 100 14:19 13.02.2020
2981 Clouds 19 1027 55 10000 6.7 70 13:44 13.02.2020
2982 Clouds 19 1027 55 10000 6.7 70 13:44 13.02.2020
2983 Clouds 19 1027 55 10000 6.7 70 13:18 13.02.2020
2984 Clouds 20 1027 56 10000 6.2 90 12:56 13.02.2020
2985 Clouds 20 1027 56 10000 6.2 90 12:56 13.02.2020
2986 Clouds 20 1027 56 10000 6.2 90 12:37 13.02.2020
2987 Clouds 20 1027 56 10000 6.2 90 12:18 13.02.2020
2988 Clouds 19 1028 63 10000 7.2 110 11:43 13.02.2020
2989 Clouds 19 1028 63 10000 7.2 110 11:43 13.02.2020
2990 Clouds 19 1028 63 10000 7.2 110 11:43 13.02.2020
2991 Clouds 19 1028 63 10000 7.2 110 11:20 13.02.2020
2992 Clouds 18 1029 68 10000 7.2 110 10:46 13.02.2020
2993 Rain 18 1019 57 0 6.38 99 10:27 13.02.2020
2994 Rain 18 1019 57 0 6.38 99 09:55 13.02.2020
2995 Rain 18 1019 57 0 6.38 99 09:36 13.02.2020
2996 Clouds 16 1029 77 10000 4.6 80 09:18 13.02.2020
2997 Clouds 16 1029 77 10000 4.6 80 08:37 13.02.2020
2998 Clouds 16 1029 77 10000 4.6 80 08:19 13.02.2020
2999 Clouds 15 1029 82 10000 4.6 80 07:40 13.02.2020
3000 Clouds 15 1029 82 10000 4.6 80 07:21 13.02.2020
3001 Clouds 14 1028 87 10000 4.6 90 06:44 13.02.2020
3002 Clouds 14 1028 87 10000 4.6 90 06:20 13.02.2020
3003 Clouds 14 1028 87 10000 4.1 110 05:33 13.02.2020
3004 Clouds 12 1018 91 0 2.12 71 04:26 13.02.2020
3005 Clouds 12 1018 91 0 2.12 71 03:52 13.02.2020
3006 Clouds 12 1018 91 0 2.12 71 03:26 13.02.2020
3007 Clouds 12 1018 91 0 2.12 71 02:52 13.02.2020
3008 Clouds 13 1017 81 0 2.29 76 02:19 13.02.2020
3009 Clouds 13 1017 81 0 2.29 76 01:35 13.02.2020
3010 Clouds 13 1017 84 0 2.6 97 00:39 13.02.2020
3011 Clouds 13 1017 84 0 2.6 97 00:21 13.02.2020
3012 Clouds 13 1017 84 0 2.6 97 23:40 12.02.2020
3013 Clouds 13 1017 84 0 2.6 97 23:40 12.02.2020
3014 Clouds 13 1019 86 0 2.11 93 23:21 12.02.2020
3015 Clouds 15 1029 77 10000 5.1 110 22:45 12.02.2020
3016 Clouds 15 1029 77 10000 5.1 110 22:26 12.02.2020
3017 Clouds 15 1029 77 10000 5.1 110 21:58 12.02.2020
3018 Clouds 15 1029 77 10000 5.1 110 21:40 12.02.2020
3019 Clouds 13 1019 86 0 2.11 93 21:19 12.02.2020
3020 Clouds 13 1019 86 0 2.11 93 20:57 12.02.2020
3021 Clouds 13 1019 86 0 2.11 93 20:39 12.02.2020
3022 Clouds 15 1028 77 10000 5.1 100 20:19 12.02.2020
3023 Clouds 15 1028 77 10000 5.1 100 19:55 12.02.2020
3024 Clouds 15 1028 77 10000 5.1 100 19:36 12.02.2020
3025 Clouds 15 1028 77 10000 5.1 100 19:36 12.02.2020
3026 Clouds 15 1028 77 10000 5.1 100 19:18 12.02.2020
3027 Clouds 13 1019 87 0 2.95 81 18:45 12.02.2020
3028 Clouds 13 1019 86 0 2.71 76 18:18 12.02.2020
3029 Clouds 13 1019 86 0 2.71 76 17:43 12.02.2020
3030 Clouds 19 1025 59 10000 5.1 90 17:21 12.02.2020
3031 Clouds 19 1025 59 10000 5.1 90 16:59 12.02.2020
3032 Clouds 19 1025 59 10000 5.1 90 16:39 12.02.2020
3033 Clouds 19 1025 59 10000 5.1 90 16:19 12.02.2020
3034 Clouds 15 1015 74 0 5.26 99 15:43 12.02.2020
3035 Clouds 15 1015 76 0 5.02 93 15:23 12.02.2020
3036 Clouds 15 1015 76 0 5.02 93 14:57 12.02.2020
3037 Clouds 15 1015 76 0 5.02 93 14:39 12.02.2020
3038 Clouds 22 1026 53 10000 5.1 150 14:19 12.02.2020
3039 Clouds 20 1014 51 0 5.91 120 13:56 12.02.2020
3040 Clouds 20 1014 51 0 5.91 120 13:38 12.02.2020
3041 Clouds 21 1026 56 10000 6.7 180 13:19 12.02.2020
3042 Clouds 21 1026 56 10000 6.7 180 12:57 12.02.2020
3043 Clouds 21 1026 56 10000 6.7 180 12:37 12.02.2020
3044 Clouds 21 1026 56 10000 6.7 180 12:18 12.02.2020
3045 Clouds 21 1014 49 0 5.35 111 11:55 12.02.2020
3046 Clouds 21 1014 49 0 5.35 111 11:37 12.02.2020
3047 Clouds 19 1027 59 10000 5.1 110 11:19 12.02.2020
3048 Clouds 19 1027 59 10000 5.1 110 10:54 12.02.2020
3049 Clouds 19 1027 59 10000 5.1 110 10:36 12.02.2020
3050 Clouds 19 1027 59 10000 5.1 110 10:18 12.02.2020
3051 Clouds 19 1027 59 10000 5.1 110 10:18 12.02.2020
3052 Rain 18 1017 62 0 4.28 124 09:40 12.02.2020
3053 Clouds 18 1028 63 10000 5.7 70 09:20 12.02.2020
3054 Clouds 18 1028 63 10000 5.7 70 08:57 12.02.2020
3055 Clouds 18 1028 63 10000 5.7 70 08:37 12.02.2020
3056 Clouds 18 1028 63 10000 5.7 70 08:19 12.02.2020
3057 Clouds 17 1027 72 10000 5.7 70 07:43 12.02.2020
3058 Clouds 17 1027 72 10000 5.7 70 07:43 12.02.2020
3059 Clouds 17 1027 72 10000 5.7 70 07:23 12.02.2020
3060 Clouds 15 1027 77 10000 4.6 70 06:53 12.02.2020
3061 Clouds 15 1027 77 10000 4.6 70 06:20 12.02.2020
3062 Clouds 14 1026 82 9000 4.6 90 05:36 12.02.2020
3063 Clouds 15 1026 82 10000 5.1 80 04:57 12.02.2020
3064 Clouds 15 1026 82 10000 5.1 80 04:39 12.02.2020
3065 Clouds 15 1026 82 10000 4.1 80 03:32 12.02.2020
3066 Clouds 15 1025 82 10000 5.1 80 02:58 12.02.2020
3067 Clouds 15 1025 82 10000 5.1 80 02:28 12.02.2020
3068 Clouds 15 1025 82 10000 5.1 80 02:28 12.02.2020
3069 Clouds 15 1025 82 10000 4.1 80 01:49 12.02.2020
3070 Clouds 15 1026 77 10000 4.6 60 00:45 12.02.2020
3071 Clouds 15 1026 77 10000 4.6 60 00:25 12.02.2020
3072 Clouds 16 1026 77 10000 4.6 70 23:55 11.02.2020
3073 Clouds 16 1026 77 10000 4.6 70 23:37 11.02.2020
3074 Clouds 16 1026 77 10000 4.6 70 23:18 11.02.2020
3075 Clouds 16 1026 72 10000 4.1 70 22:55 11.02.2020
3076 Clouds 16 1026 72 10000 4.1 70 22:36 11.02.2020
3077 Clouds 16 1026 72 10000 4.1 70 22:18 11.02.2020
3078 Clouds 17 1026 67 10000 5.1 70 21:55 11.02.2020
3079 Clouds 17 1026 67 10000 5.1 70 21:36 11.02.2020
3080 Clouds 17 1026 67 10000 5.1 70 21:18 11.02.2020
3081 Clouds 17 1026 67 10000 5.1 70 21:18 11.02.2020
3082 Clouds 14 1015 83 0 3.88 97 20:39 11.02.2020
3083 Clouds 14 1015 83 0 3.88 97 20:39 11.02.2020
3084 Clouds 19 1025 55 10000 5.1 70 20:20 11.02.2020
3085 Clouds 19 1025 55 10000 5.1 70 19:59 11.02.2020
3086 Clouds 19 1025 55 10000 5.1 70 19:41 11.02.2020
3087 Clouds 19 1025 55 10000 5.1 70 19:23 11.02.2020
3088 Clouds 17 1013 62 0 3.53 69 18:55 11.02.2020
3089 Clouds 17 1013 62 0 3.53 69 18:37 11.02.2020
3090 Clouds 22 1024 33 10000 3.1 120 18:18 11.02.2020
3091 Clouds 22 1024 33 10000 3.1 120 17:54 11.02.2020
3092 Clouds 22 1024 33 10000 3.1 120 17:36 11.02.2020
3093 Clouds 22 1024 33 10000 3.1 120 17:18 11.02.2020
3094 Clouds 22 1024 33 10000 3.1 120 17:18 11.02.2020
3095 Clouds 25 1023 27 10000 3.1 170 16:55 11.02.2020
3096 Clouds 25 1023 27 10000 3.1 170 16:36 11.02.2020
3097 Clouds 25 1023 27 10000 3.1 170 16:18 11.02.2020
3098 Clouds 26 1023 27 10000 4.1 200 15:42 11.02.2020
3099 Clouds 26 1023 27 10000 4.1 200 15:23 11.02.2020
3100 Clouds 26 1023 27 10000 3.1 170 14:43 11.02.2020
3101 Clouds 26 1023 27 10000 3.1 170 14:20 11.02.2020
3102 Clouds 25 1023 31 10000 4.1 210 13:58 11.02.2020
3103 Clouds 25 1023 31 10000 4.1 210 13:39 11.02.2020
3104 Clouds 25 1023 31 10000 4.1 210 13:20 11.02.2020
3105 Clear 24 1024 36 0 2.6 200 12:57 11.02.2020
3106 Clear 24 1024 36 0 2.6 200 12:38 11.02.2020
3107 Clear 25 1009 25 0 3.67 207 12:19 11.02.2020
3108 Clear 25 1009 25 0 3.67 207 11:41 11.02.2020
3109 Clear 22 1014 34 0 3.46 199 11:20 11.02.2020
3110 Clear 22 1014 34 0 3.46 199 11:20 11.02.2020
3111 Clear 22 1014 34 0 3.46 199 10:55 11.02.2020
3112 Clear 22 1014 34 0 3.46 199 10:36 11.02.2020
3113 Clear 20 1027 49 0 3.1 200 10:18 11.02.2020
3114 Clear 20 1027 49 0 3.1 200 10:18 11.02.2020
3115 Clear 20 1027 49 0 3.1 200 09:44 11.02.2020
3116 Clear 20 1027 49 0 3.1 200 09:23 11.02.2020
3117 Clear 22 1014 34 0 3.46 199 08:59 11.02.2020
3118 Clear 22 1014 34 0 3.46 199 08:41 11.02.2020
3119 Clear 22 1014 34 0 3.46 199 08:41 11.02.2020
3120 Clear 22 1014 34 0 3.46 199 08:23 11.02.2020
3121 Clear 16 1017 57 0 0.78 143 07:48 11.02.2020
3122 Clear 16 1017 57 0 0.78 143 07:25 11.02.2020
3123 Clear 16 1017 57 0 0.78 143 06:43 11.02.2020
3124 Clouds 12 1027 66 10000 1 350 06:22 11.02.2020
3125 Clouds 12 1027 66 10000 1 350 05:47 11.02.2020
3126 Clouds 12 1027 66 10000 1 350 05:23 11.02.2020
3127 Clear 11 1016 78 0 0.39 26 04:37 11.02.2020
3128 Clear 11 1016 78 0 0.39 26 02:53 11.02.2020
3129 Clouds 15 1026 58 10000 4.6 70 02:27 11.02.2020
3130 Clouds 15 1026 58 10000 4.6 70 01:36 11.02.2020
3131 Clear 13 1015 73 0 1.24 329 00:40 11.02.2020
3132 Clear 13 1015 73 0 1.24 329 23:57 10.02.2020
3133 Clear 13 1015 73 0 1.24 329 23:38 10.02.2020
3134 Clouds 16 1027 41 10000 5.1 70 23:19 10.02.2020
3135 Clouds 16 1027 41 10000 5.1 70 22:40 10.02.2020
3136 Clouds 16 1027 41 10000 5.1 70 22:20 10.02.2020
3137 Clear 14 1016 69 0 2 54 21:45 10.02.2020
3138 Clear 14 1016 69 0 2 54 21:25 10.02.2020
3139 Clear 14 1016 69 0 2 54 20:58 10.02.2020
3140 Clear 14 1016 69 0 2 54 20:58 10.02.2020
3141 Clear 14 1016 69 0 2 54 20:39 10.02.2020
3142 Clear 15 1014 65 0 3.03 65 20:20 10.02.2020
3143 Clouds 16 1015 56 0 3.54 71 19:58 10.02.2020
3144 Clouds 16 1015 56 0 3.54 71 19:38 10.02.2020
3145 Clouds 16 1015 56 0 3.54 71 19:19 10.02.2020
3146 Clouds 16 1015 56 0 3.54 71 18:59 10.02.2020
3147 Clouds 16 1015 56 0 3.54 71 18:40 10.02.2020
3148 Clouds 16 1015 56 0 3.54 71 18:21 10.02.2020
3149 Clouds 16 1015 56 0 3.54 71 17:58 10.02.2020
3150 Clouds 16 1015 56 0 3.54 71 17:37 10.02.2020
3151 Clouds 16 1015 56 0 3.54 71 17:37 10.02.2020
3152 Clouds 22 1026 33 10000 6.2 120 17:19 10.02.2020
3153 -273 0 0 0 0 0 16:58 10.02.2020
3154 Clouds 22 1026 33 10000 6.2 120 16:39 10.02.2020
3155 Clouds 22 1026 33 10000 6.2 120 16:19 10.02.2020
3156 Clouds 20 1012 45 0 5.82 101 15:56 10.02.2020
3157 Clouds 20 1012 45 0 5.82 101 15:38 10.02.2020
3158 Clouds 24 1025 31 10000 5.1 130 15:20 10.02.2020
3159 Clouds 24 1025 31 10000 5.1 130 14:55 10.02.2020
3160 Clouds 24 1025 31 10000 5.1 130 14:36 10.02.2020
3161 Clouds 24 1025 29 10000 4.1 130 14:18 10.02.2020
3162 Clouds 24 1025 29 10000 4.1 130 14:18 10.02.2020
3163 Clouds 24 1025 29 10000 4.1 130 13:42 10.02.2020
3164 Clouds 24 1025 29 10000 4.1 130 13:23 10.02.2020
3165 Clear 24 1012 25 0 2.76 144 12:50 10.02.2020
3166 Clear 24 1012 25 0 2.76 144 12:26 10.02.2020
3167 Clear 24 1012 25 0 2.76 144 11:56 10.02.2020
3168 Clear 24 1012 25 0 2.76 144 11:38 10.02.2020
3169 Clear 20 1016 35 0 3.83 99 11:19 10.02.2020
3170 Clear 20 1016 35 0 3.83 99 10:46 10.02.2020
3171 Clear 20 1016 35 0 3.83 99 10:27 10.02.2020
3172 Clear 20 1016 35 0 3.83 99 09:47 10.02.2020
3173 Clear 20 1016 35 0 3.83 99 09:26 10.02.2020
3174 Clear 20 1016 35 0 3.83 99 09:26 10.02.2020
3175 Clear 20 1016 35 0 3.83 99 08:57 10.02.2020
3176 Clear 20 1016 35 0 3.83 99 08:37 10.02.2020
3177 Clear 16 1019 48 0 2.59 87 08:18 10.02.2020
3178 Clear 16 1019 48 0 2.59 87 07:49 10.02.2020
3179 Clear 16 1019 48 0 2.59 87 07:27 10.02.2020
3180 Clear 16 1019 48 0 2.59 87 06:20 10.02.2020
3181 Clear 12 1028 66 0 2.1 60 04:28 10.02.2020
3182 Clear 12 1028 66 0 2.1 60 03:34 10.02.2020
3183 Clear 11 1018 63 0 1.7 23 02:54 10.02.2020
3184 Clear 13 1028 62 0 1.5 350 01:57 10.02.2020
3185 Clear 12 1017 61 0 1.14 352 00:51 10.02.2020
3186 Clear 12 1017 61 0 1.14 352 00:31 10.02.2020
3187 Clear 12 1017 61 0 1.14 352 23:57 09.02.2020
3188 Clear 12 1017 61 0 1.14 352 23:39 09.02.2020
3189 Clear 16 1029 48 0 5.1 60 23:19 09.02.2020
3190 Clear 16 1029 48 0 5.1 60 22:40 09.02.2020
3191 Clear 16 1029 48 0 5.1 60 22:21 09.02.2020
3192 Clear 13 1019 57 0 0.57 5 21:43 09.02.2020
3193 Clear 13 1019 57 0 0.57 5 21:24 09.02.2020
3194 Clear 13 1019 57 0 0.57 5 20:48 09.02.2020
3195 Clear 13 1019 57 0 0.57 5 20:28 09.02.2020
3196 Clouds 14 1018 50 0 3.35 70 19:58 09.02.2020
3197 Clouds 14 1018 50 0 3.35 70 19:39 09.02.2020
3198 Clouds 14 1018 50 0 3.35 70 19:21 09.02.2020
3199 Clouds 14 1018 50 0 3.35 70 18:56 09.02.2020
3200 Clouds 14 1018 50 0 3.35 70 18:38 09.02.2020
3201 Clouds 14 1018 50 0 3.35 70 18:20 09.02.2020
3202 Clouds 14 1018 50 0 3.35 70 17:42 09.02.2020
3203 Clouds 14 1018 50 0 3.35 70 17:22 09.02.2020
3204 Clouds 18 1015 41 0 6.52 95 16:56 09.02.2020
3205 Clouds 18 1015 41 0 6.52 95 16:37 09.02.2020
3206 Clouds 23 1027 25 10000 9.3 90 16:18 09.02.2020
3207 Clouds 23 1027 25 10000 9.3 90 15:54 09.02.2020
3208 Clouds 23 1027 25 10000 9.3 90 15:36 09.02.2020
3209 Clouds 18 1015 41 0 6.52 95 15:18 09.02.2020
3210 Clouds 18 1015 41 0 6.52 95 14:41 09.02.2020
3211 Clouds 18 1015 41 0 6.52 95 14:22 09.02.2020
3212 Clouds 22 1014 30 0 6.31 98 13:47 09.02.2020
3213 Clouds 27 1027 22 0 7.2 90 13:28 09.02.2020
3214 Clouds 27 1027 22 0 7.2 90 12:57 09.02.2020
3215 Clouds 27 1027 22 0 7.2 90 12:38 09.02.2020
3216 Clouds 27 1027 22 0 7.2 90 12:19 09.02.2020
3217 Clouds 22 1014 28 0 6.55 99 11:41 09.02.2020
3218 Clouds 23 1029 27 0 6.7 80 11:22 09.02.2020
3219 Clouds 23 1029 27 0 6.7 80 10:59 09.02.2020
3220 Clouds 23 1029 27 0 6.7 80 10:41 09.02.2020
3221 Clouds 23 1029 27 0 6.7 80 10:21 09.02.2020
3222 Clouds 21 1030 37 10000 6.2 100 09:46 09.02.2020
3223 Clouds 21 1018 30 0 5.93 86 09:27 09.02.2020
3224 Clouds 21 1018 30 0 5.93 86 08:45 09.02.2020
3225 Clouds 21 1018 30 0 5.93 86 08:27 09.02.2020
3226 Clouds 16 1020 49 0 3.27 76 07:59 09.02.2020
3227 Clouds 16 1020 49 0 3.27 76 07:39 09.02.2020
3228 Clouds 16 1029 55 0 5.7 60 06:47 09.02.2020
3229 Clouds 16 1029 55 0 5.7 60 06:26 09.02.2020
3230 Clouds 16 1020 49 0 3.27 76 05:38 09.02.2020
3231 Clouds 13 1028 66 0 3.1 70 05:18 09.02.2020
3232 Clouds 13 1028 66 0 4.1 90 03:52 09.02.2020
3233 Clouds 13 1027 62 0 4.1 110 02:45 09.02.2020
3234 Clouds 13 1027 62 0 4.1 110 02:26 09.02.2020
3235 Clouds 15 1027 54 0 4.1 60 01:35 09.02.2020
3236 Clouds 15 1028 58 0 6.7 50 00:44 09.02.2020
3237 Clouds 15 1028 58 0 6.7 50 00:24 09.02.2020
3238 Clouds 15 1029 58 0 8.2 50 23:43 08.02.2020
3239 Clouds 15 1029 58 0 8.2 50 23:20 08.02.2020
3240 Clouds 16 1030 55 0 5.7 50 22:43 08.02.2020
3241 Clouds 16 1030 55 0 5.7 50 22:22 08.02.2020
3242 Clouds 16 1030 59 0 4.6 50 21:59 08.02.2020
3243 Clouds 16 1030 59 0 4.6 50 21:40 08.02.2020
3244 Clouds 16 1030 59 0 4.6 50 21:21 08.02.2020
3245 Clouds 16 1031 55 0 4.1 50 20:56 08.02.2020
3246 Clouds 16 1031 55 0 4.1 50 20:38 08.02.2020
3247 Clouds 16 1031 55 0 4.1 50 20:19 08.02.2020
3248 Clear 15 1020 49 0 3.6 69 19:55 08.02.2020
3249 Clear 15 1020 49 0 3.6 69 19:36 08.02.2020
3250 Clear 18 1030 45 0 4.1 80 19:18 08.02.2020
3251 Clear 18 1030 45 0 4.1 80 18:42 08.02.2020
3252 Clear 18 1030 45 0 4.1 80 18:23 08.02.2020
3253 Clear 20 1029 37 0 4.6 110 17:43 08.02.2020
3254 Clear 20 1029 37 0 4.6 110 17:21 08.02.2020
3255 Clouds 20 1029 37 0 4.6 110 17:21 08.02.2020
3256 Clouds 22 1027 28 0 9.3 90 16:59 08.02.2020
3257 Clouds 22 1027 28 0 9.3 90 16:39 08.02.2020
3258 Clouds 22 1027 28 0 9.3 90 16:20 08.02.2020
3259 Clouds 23 1027 23 0 10.3 100 15:42 08.02.2020
3260 Clouds 23 1027 23 0 10.3 100 15:19 08.02.2020
3261 Clouds 24 1027 25 0 8.2 90 14:59 08.02.2020
3262 Clouds 24 1027 25 0 8.2 90 14:39 08.02.2020
3263 Clouds 24 1027 25 0 8.2 90 14:19 08.02.2020
3264 Clouds 22 1014 28 0 8.11 90 13:43 08.02.2020
3265 Clouds 22 1014 25 0 8.08 89 13:23 08.02.2020
3266 Clouds 22 1014 25 0 8.08 89 12:57 08.02.2020
3267 Clouds 22 1014 25 0 8.08 89 12:37 08.02.2020
3268 Clouds 22 1014 25 0 8.08 89 12:37 08.02.2020
3269 Clouds 24 1028 27 10000 8.7 100 12:19 08.02.2020
3270 Clouds 24 1028 27 10000 8.7 100 12:19 08.02.2020
3271 Clouds 24 1028 27 10000 8.7 100 11:41 08.02.2020
3272 Clouds 24 1028 27 10000 8.7 100 11:21 08.02.2020
3273 Clouds 21 1018 26 0 6.79 85 10:43 08.02.2020
3274 Clouds 20 1030 52 10000 6.2 80 10:25 08.02.2020
3275 Clouds 20 1030 52 10000 6.2 80 09:55 08.02.2020
3276 Clouds 20 1030 52 10000 6.2 80 09:36 08.02.2020
3277 Clouds 20 1030 52 10000 6.2 80 09:18 08.02.2020
3278 Clouds 20 1030 52 10000 5.1 80 08:40 08.02.2020
3279 Clouds 18 1030 59 10000 5.1 80 08:22 08.02.2020
3280 Clouds 18 1030 59 10000 5.1 80 07:51 08.02.2020
3281 Clouds 18 1030 59 10000 5.1 80 07:33 08.02.2020
3282 Clear 17 1020 49 0 4.43 77 06:49 08.02.2020
3283 Clear 17 1020 49 0 4.43 77 06:21 08.02.2020
3284 Clear 17 1020 49 0 4.43 77 05:33 08.02.2020
3285 Clear 11 1019 72 0 2.78 55 04:53 08.02.2020
3286 Clear 14 1028 71 10000 2.1 110 04:24 08.02.2020
3287 Clear 14 1028 71 10000 2.1 110 03:35 08.02.2020
3288 Clear 14 1028 71 10000 2.1 80 02:28 08.02.2020
3289 Clear 14 1028 71 10000 1.5 30 01:31 08.02.2020
3290 Clear 12 1018 62 0 2.25 47 00:46 08.02.2020
3291 Clear 15 1029 62 10000 5.1 60 00:25 08.02.2020
3292 Clear 15 1029 62 10000 5.1 60 23:57 07.02.2020
3293 Clear 15 1029 62 10000 5.1 60 23:39 07.02.2020
3294 Clear 15 1029 62 10000 5.1 60 23:19 07.02.2020
3295 Clear 16 1030 63 10000 4.1 60 22:41 07.02.2020
3296 Clear 16 1030 63 10000 4.1 60 22:19 07.02.2020
3297 Clear 16 1030 63 10000 4.1 60 22:19 07.02.2020
3298 Clear 13 1019 63 0 2.71 40 21:57 07.02.2020
3299 Clear 13 1019 63 0 2.71 40 21:39 07.02.2020
3300 Clear 16 1030 63 10000 4.1 50 21:19 07.02.2020
3301 Clear 13 1019 63 0 2.71 40 20:39 07.02.2020
3302 Clouds 15 1019 60 0 4.81 80 20:19 07.02.2020
3303 Clouds 15 1019 60 0 4.81 80 19:54 07.02.2020
3304 Clouds 15 1019 60 0 4.81 80 19:36 07.02.2020
3305 Clouds 18 1029 55 10000 4.1 60 19:18 07.02.2020
3306 Clouds 18 1029 55 10000 4.1 60 18:43 07.02.2020
3307 Clouds 18 1029 55 10000 4.1 60 18:24 07.02.2020
3308 Clouds 20 1028 45 10000 7.2 100 17:45 07.02.2020
3309 Clouds 20 1028 45 10000 7.2 100 17:22 07.02.2020
3310 Clouds 22 1027 40 10000 6.7 90 16:59 07.02.2020
3311 Clouds 22 1027 40 10000 6.7 90 16:41 07.02.2020
3312 Clouds 23 1027 40 10000 7.2 100 16:22 07.02.2020
3313 Clouds 23 1027 40 10000 7.2 100 15:53 07.02.2020
3314 Clouds 23 1027 40 10000 7.2 100 15:28 07.02.2020
3315 Clouds 23 1027 35 10000 4.6 90 14:55 07.02.2020
3316 Clouds 23 1027 35 10000 4.6 90 14:37 07.02.2020
3317 Clouds 23 1027 35 10000 4.6 90 14:19 07.02.2020
3318 Clouds 23 1027 35 10000 5.1 100 13:56 07.02.2020
3319 Clouds 23 1027 35 10000 5.1 100 13:38 07.02.2020
3320 Clouds 23 1027 35 10000 5.1 100 13:18 07.02.2020
3321 Clouds 22 1014 38 0 6.22 99 12:41 07.02.2020
3322 Clouds 22 1014 38 0 6.22 99 12:23 07.02.2020
3323 Clouds 22 1014 38 0 6.22 99 11:45 07.02.2020
3324 Clouds 22 1014 38 0 6.22 99 11:22 07.02.2020
3325 Clear 20 1017 43 0 5.22 85 10:58 07.02.2020
3326 Clear 20 1017 43 0 5.22 85 10:38 07.02.2020
3327 Clouds 19 1030 52 10000 5.1 120 10:19 07.02.2020
3328 Clouds 19 1030 52 10000 5.1 120 09:41 07.02.2020
3329 Clouds 19 1030 52 10000 5.1 120 09:22 07.02.2020
3330 Clear 20 1017 43 0 5.22 85 08:45 07.02.2020
3331 Clouds 16 1020 60 0 4.4 87 08:22 07.02.2020
3332 Clouds 17 1031 63 10000 5.1 80 07:54 07.02.2020
3333 Clouds 17 1031 63 10000 5.1 80 07:33 07.02.2020
3334 Clouds 14 1030 71 10000 1 60 06:59 07.02.2020
3335 Clouds 14 1030 71 10000 1 60 06:39 07.02.2020
3336 Clouds 14 1030 71 10000 1 60 06:19 07.02.2020
3337 Clouds 16 1020 60 0 4.4 87 05:37 07.02.2020
3338 Clouds 11 1020 81 0 1.74 35 03:43 07.02.2020
3339 Clouds 14 1027 67 10000 2.1 50 01:57 07.02.2020
3340 Clouds 15 1028 62 10000 3.1 50 00:59 07.02.2020
3341 Clouds 11 1018 83 0 1.72 22 00:27 07.02.2020
3342 Clouds 11 1018 83 0 1.72 22 23:38 06.02.2020
3343 Clouds 13 1020 79 0 2.5 68 23:19 06.02.2020
3344 Clouds 13 1020 79 0 2.5 68 22:48 06.02.2020
3345 Clouds 13 1020 79 0 2.5 68 22:27 06.02.2020
3346 Clouds 13 1020 79 0 2.5 68 21:58 06.02.2020
3347 Clouds 13 1020 79 0 2.5 68 21:36 06.02.2020
3348 Clouds 13 1020 79 0 2.5 68 21:18 06.02.2020
3349 Clouds 13 1020 79 0 2.5 68 20:55 06.02.2020
3350 Clouds 13 1020 79 0 2.5 68 20:36 06.02.2020
3351 Clouds 15 1019 70 0 4.46 78 20:18 06.02.2020
3352 Clouds 15 1019 70 0 4.46 78 19:56 06.02.2020
3353 Clouds 15 1019 70 0 4.46 78 19:37 06.02.2020
3354 Clouds 15 1019 70 0 4.46 78 19:18 06.02.2020
3355 Clouds 15 1019 70 0 4.46 78 18:40 06.02.2020
3356 Clouds 15 1019 70 0 4.46 78 18:40 06.02.2020
3357 Clouds 15 1019 70 0 4.46 78 18:22 06.02.2020
3358 Clouds 15 1019 70 0 4.46 78 17:57 06.02.2020
3359 Clouds 15 1019 70 0 4.46 78 17:38 06.02.2020
3360 Clouds 21 1027 43 10000 8.2 100 17:19 06.02.2020
3361 Clouds 21 1027 43 10000 8.2 100 16:42 06.02.2020
3362 Clouds 21 1027 43 10000 8.2 100 16:23 06.02.2020
3363 Clouds 23 1026 38 10000 8.2 100 15:43 06.02.2020
3364 Clouds 23 1026 40 10000 7.2 100 15:23 06.02.2020
3365 Clouds 23 1026 40 10000 7.2 100 14:57 06.02.2020
3366 Clouds 23 1026 40 10000 7.2 100 14:39 06.02.2020
3367 Clouds 23 1026 40 10000 7.2 100 14:20 06.02.2020
3368 Clouds 23 1026 40 10000 6.2 100 13:42 06.02.2020
3369 Clouds 23 1026 40 10000 6.2 100 13:24 06.02.2020
3370 Clouds 22 1027 40 10000 5.1 110 12:44 06.02.2020
3371 Clouds 22 1027 40 10000 5.1 110 12:19 06.02.2020
3372 Clouds 21 1014 46 0 4.7 96 11:57 06.02.2020
3373 Clouds 21 1014 46 0 4.7 96 11:39 06.02.2020
3374 Rain 20 1018 49 0 5.22 100 11:19 06.02.2020
3375 Rain 20 1018 49 0 5.22 100 10:56 06.02.2020
3376 Rain 20 1018 49 0 5.22 100 10:38 06.02.2020
3377 Clouds 19 1030 48 10000 4.1 140 10:20 06.02.2020
3378 Clouds 19 1030 48 10000 4.1 140 09:56 06.02.2020
3379 Clouds 19 1030 48 10000 4.1 140 09:56 06.02.2020
3380 Clouds 19 1030 48 10000 4.1 140 09:36 06.02.2020
3381 Clouds 19 1030 48 10000 4.1 140 09:18 06.02.2020
3382 Rain 20 1018 49 0 5.22 100 08:41 06.02.2020
3383 Clouds 17 1030 59 10000 3.1 120 08:22 06.02.2020
3384 Clouds 17 1030 59 10000 3.1 120 07:47 06.02.2020
3385 Clouds 17 1030 59 10000 3.1 120 07:25 06.02.2020
3386 Clouds 12 1029 76 10000 2.1 260 06:22 06.02.2020
3387 Clouds 12 1029 76 10000 2.1 260 06:22 06.02.2020
3388 Clouds 12 1029 76 10000 2.1 260 05:56 06.02.2020
3389 Clouds 11 1019 84 0 1.09 28 04:43 06.02.2020
3390 Clouds 11 1019 84 0 1.09 28 03:20 06.02.2020
3391 Clouds 11 1019 84 0 1.09 28 02:29 06.02.2020
3392 Clouds 12 1018 77 0 1.6 61 01:35 06.02.2020
3393 Clouds 15 1027 67 10000 3.1 80 00:58 06.02.2020
3394 Clouds 15 1027 67 10000 3.1 80 00:26 06.02.2020
3395 Clouds 15 1028 62 10000 3.1 70 23:46 05.02.2020
3396 Clouds 15 1028 62 10000 3.1 70 23:28 05.02.2020
3397 Clouds 16 1028 59 10000 5.1 80 22:58 05.02.2020
3398 Clouds 16 1028 59 10000 5.1 80 22:40 05.02.2020
3399 Clouds 16 1028 59 10000 5.1 80 22:21 05.02.2020
3400 Clouds 16 1028 59 10000 5.1 80 22:21 05.02.2020
3401 Clouds 17 1028 51 10000 2.6 100 21:43 05.02.2020
3402 Clouds 17 1028 51 10000 2.6 100 21:24 05.02.2020
3403 Clouds 18 1028 48 10000 2.6 100 20:59 05.02.2020
3404 Clouds 18 1028 48 10000 2.6 100 20:38 05.02.2020
3405 Clouds 18 1028 48 10000 2.6 100 20:19 05.02.2020
3406 Clouds 18 1028 52 10000 6.2 50 19:56 05.02.2020
3407 Clouds 18 1028 52 10000 6.2 50 19:38 05.02.2020
3408 Clouds 18 1028 52 10000 6.2 50 19:19 05.02.2020
3409 Clouds 15 1017 61 0 4.17 78 18:45 05.02.2020
3410 Clouds 19 1026 45 10000 7.2 90 18:21 05.02.2020
3411 Clouds 19 1026 45 10000 7.2 90 18:21 05.02.2020
3412 Clouds 19 1026 45 10000 7.2 90 17:58 05.02.2020
3413 Clouds 19 1026 45 10000 7.2 90 17:37 05.02.2020
3414 Clouds 19 1026 45 10000 7.2 90 17:18 05.02.2020
3415 Clouds 22 1025 40 10000 6.2 100 16:44 05.02.2020
3416 Clouds 22 1025 40 10000 6.2 100 16:25 05.02.2020
3417 Clouds 19 1015 47 0 4.71 93 15:59 05.02.2020
3418 Clouds 19 1015 47 0 4.71 93 15:41 05.02.2020
3419 Clouds 24 1024 38 10000 5.1 140 15:19 05.02.2020
3420 Clouds 24 1024 38 10000 5.1 140 14:55 05.02.2020
3421 Clouds 24 1024 38 10000 5.1 140 14:37 05.02.2020
3422 Clouds 24 1024 38 10000 5.1 140 14:18 05.02.2020
3423 Rain 20 1013 45 0 2.75 113 13:40 05.02.2020
3424 Rain 19 1013 49 0 3.23 115 13:22 05.02.2020
3425 Rain 19 1013 49 0 3.23 115 12:44 05.02.2020
3426 Clouds 23 1026 38 10000 5.1 150 12:24 05.02.2020
3427 Clouds 23 1026 38 10000 5.1 150 11:57 05.02.2020
3428 Clouds 23 1026 38 10000 5.1 150 11:38 05.02.2020
3429 Clouds 23 1026 38 10000 5.1 150 11:20 05.02.2020
3430 Clouds 22 1027 40 10000 3.6 100 10:42 05.02.2020
3431 Clouds 22 1027 40 10000 3.6 100 10:24 05.02.2020
3432 Clouds 20 1028 45 10000 3.6 90 09:58 05.02.2020
3433 Clouds 20 1028 45 10000 3.6 90 09:37 05.02.2020
3434 Clouds 20 1028 45 10000 3.6 90 09:19 05.02.2020
3435 Clouds 19 1028 48 10000 4.6 80 08:43 05.02.2020
3436 Clouds 19 1028 48 10000 4.6 80 08:23 05.02.2020
3437 Clouds 18 1028 55 10000 5.7 80 07:54 05.02.2020
3438 Clouds 18 1028 55 10000 5.7 80 07:33 05.02.2020
3439 Clouds 15 1028 67 10000 1.5 100 06:49 05.02.2020
3440 Clouds 15 1028 67 10000 1.5 100 06:23 05.02.2020
3441 Clouds 14 1027 71 10000 0.5 210 05:51 05.02.2020
3442 Clouds 14 1027 71 10000 0.5 210 05:18 05.02.2020
3443 Clouds 13 1026 76 10000 1 60 04:45 05.02.2020
3444 Clouds 13 1026 76 10000 2.1 120 03:36 05.02.2020
3445 Clouds 13 1026 76 10000 2.1 70 02:24 05.02.2020
3446 Clouds 13 1026 76 10000 2.1 70 01:36 05.02.2020
3447 Clouds 13 1015 81 0 1.98 48 00:42 05.02.2020
3448 Clouds 15 1027 67 10000 2.1 70 23:43 04.02.2020
3449 Clouds 15 1027 67 10000 2.1 70 23:23 04.02.2020
3450 Clouds 16 1027 63 10000 3.1 70 22:59 04.02.2020
3451 Clouds 16 1027 63 10000 3.1 70 22:41 04.02.2020
3452 Clouds 16 1027 63 10000 3.1 70 22:21 04.02.2020
3453 Clouds 16 1027 67 10000 3.6 70 21:59 04.02.2020
3454 Clouds 16 1027 67 10000 3.6 70 21:40 04.02.2020
3455 Clouds 16 1027 67 10000 3.6 70 21:19 04.02.2020
3456 Clouds 16 1027 67 10000 3.6 70 21:19 04.02.2020
3457 Clouds 16 1027 67 10000 3.6 50 20:58 04.02.2020
3458 Clouds 16 1027 67 10000 3.6 50 20:38 04.02.2020
3459 Clouds 17 1027 63 10000 5.1 60 20:20 04.02.2020
3460 Clouds 17 1027 63 10000 5.1 60 19:56 04.02.2020
3461 Clouds 17 1027 63 10000 5.1 60 19:56 04.02.2020
3462 Clouds 17 1027 63 10000 5.1 60 19:38 04.02.2020
3463 Clouds 17 1027 63 10000 5.1 60 19:20 04.02.2020
3464 Clouds 14 1016 73 0 3.16 84 18:54 04.02.2020
3465 Clouds 14 1016 73 0 3.16 84 18:36 04.02.2020
3466 Clouds 20 1025 49 10000 2.6 140 18:18 04.02.2020
3467 Clouds 20 1025 49 10000 2.6 140 17:41 04.02.2020
3468 Clouds 20 1025 49 10000 2.6 140 17:20 04.02.2020
3469 Clouds 22 1025 43 10000 4.1 140 16:40 04.02.2020
3470 Clouds 22 1024 43 10000 3.6 140 16:21 04.02.2020
3471 Clouds 22 1024 43 10000 3.6 140 15:59 04.02.2020
3472 Clouds 22 1024 43 10000 3.6 140 15:41 04.02.2020
3473 Clouds 22 1024 43 10000 3.6 140 15:21 04.02.2020
3474 Clouds 22 1024 43 10000 3.6 160 14:58 04.02.2020
3475 Clouds 22 1024 43 10000 3.6 160 14:40 04.02.2020
3476 Clouds 22 1024 43 10000 3.6 160 14:20 04.02.2020
3477 Rain 19 1012 53 0 2.48 130 13:42 04.02.2020
3478 Clouds 22 1026 46 10000 3.1 100 13:23 04.02.2020
3479 Clouds 22 1026 46 10000 3.1 100 12:59 04.02.2020
3480 Clouds 22 1026 46 10000 3.1 100 12:59 04.02.2020
3481 Clouds 22 1026 46 10000 3.1 100 12:59 04.02.2020
3482 Clouds 22 1026 46 10000 3.1 100 12:41 04.02.2020
3483 Clouds 22 1026 46 10000 3.1 100 12:41 04.02.2020
3484 Clouds 22 1026 46 10000 3.1 100 12:22 04.02.2020
3485 Clouds 20 1027 52 10000 3.6 140 11:56 04.02.2020
3486 Clouds 20 1027 52 10000 3.6 140 11:37 04.02.2020
3487 Clouds 20 1027 52 10000 3.6 140 11:19 04.02.2020
3488 Rain 16 1017 66 0 2.68 97 10:46 04.02.2020
3489 Clouds 17 1028 67 10000 4.1 130 10:26 04.02.2020
3490 Clouds 17 1028 67 10000 4.1 130 09:57 04.02.2020
3491 Clouds 17 1028 67 10000 4.1 130 09:39 04.02.2020
3492 Clouds 17 1028 67 10000 4.1 130 09:20 04.02.2020
3493 Rain 16 1017 66 0 2.68 97 08:46 04.02.2020
3494 Rain 16 1016 66 0 2.23 105 08:27 04.02.2020
3495 Rain 13 1019 80 0 2.54 65 07:52 04.02.2020
3496 -273 0 0 0 0 0 07:24 04.02.2020
3497 Rain 13 1019 80 0 2.54 65 06:53 04.02.2020
3498 Rain 13 1019 80 0 2.54 65 06:34 04.02.2020
3499 Clouds 14 1028 76 10000 3.1 60 05:34 04.02.2020
3500 Clouds 14 1027 76 10000 2.1 20 04:27 04.02.2020
3501 Clouds 13 1027 82 10000 3.1 50 03:46 04.02.2020
3502 Clouds 13 1027 82 10000 3.1 50 03:27 04.02.2020
3503 Clouds 13 1017 81 0 0.95 49 02:37 04.02.2020
3504 Clouds 13 1016 79 0 1.98 89 01:58 04.02.2020
3505 Clouds 13 1016 79 0 1.98 89 01:39 04.02.2020
3506 Clouds 14 1027 76 10000 3.1 60 00:55 04.02.2020
3507 Clouds 14 1027 76 10000 3.1 60 00:23 04.02.2020
3508 Clouds 14 1027 76 10000 4.1 70 23:48 03.02.2020
3509 Clouds 14 1027 76 10000 4.1 70 23:28 03.02.2020
3510 Clouds 15 1028 72 10000 3.1 80 22:54 03.02.2020
3511 Clouds 15 1028 72 10000 3.1 80 22:36 03.02.2020
3512 Clouds 15 1028 72 10000 3.1 80 22:18 03.02.2020
3513 Clouds 13 1017 81 0 2.56 79 21:41 03.02.2020
3514 Clouds 16 1028 72 10000 3.1 80 21:19 03.02.2020
3515 Clouds 16 1028 72 10000 3.1 80 20:42 03.02.2020
3516 Clouds 16 1028 72 10000 3.1 80 20:21 03.02.2020
3517 Clouds 16 1027 67 10000 4.1 70 19:59 03.02.2020
3518 Clouds 16 1027 67 10000 4.1 70 19:41 03.02.2020
3519 Clouds 16 1027 67 10000 4.1 70 19:22 03.02.2020
3520 Clouds 14 1017 80 0 4.83 85 18:57 03.02.2020
3521 Clouds 14 1017 80 0 4.83 85 18:38 03.02.2020
3522 Clouds 14 1017 80 0 4.83 85 18:20 03.02.2020
3523 Clouds 14 1017 80 0 4.83 85 17:55 03.02.2020
3524 Clouds 14 1017 80 0 4.83 85 17:36 03.02.2020
3525 Clouds 20 1026 52 10000 5.1 90 17:18 03.02.2020
3526 Clouds 20 1026 52 10000 5.1 90 16:40 03.02.2020
3527 Clouds 20 1026 52 10000 5.1 90 16:21 03.02.2020
3528 Clouds 16 1014 68 0 6.03 91 15:56 03.02.2020
3529 Clouds 16 1014 68 0 6.03 91 15:38 03.02.2020
3530 Clouds 22 1025 46 10000 5.1 160 15:19 03.02.2020
3531 Clouds 22 1025 46 10000 5.1 160 14:45 03.02.2020
3532 Clouds 22 1025 46 10000 5.1 160 14:27 03.02.2020
3533 Clouds 21 1025 49 10000 3.1 140 13:58 03.02.2020
3534 Clouds 21 1025 49 10000 3.1 140 13:40 03.02.2020
3535 Clouds 21 1025 49 10000 3.1 140 13:19 03.02.2020
3536 Rain 19 1013 53 0 5.15 112 12:56 03.02.2020
3537 Rain 19 1013 53 0 5.15 112 12:37 03.02.2020
3538 Rain 19 1013 53 0 5.15 112 12:37 03.02.2020
3539 Clouds 20 1027 52 10000 2.6 120 12:19 03.02.2020
3540 Clouds 20 1027 52 10000 2.6 120 11:39 03.02.2020
3541 Clouds 20 1027 52 10000 2.6 120 11:19 03.02.2020
3542 Clouds 20 1027 52 10000 2.6 120 11:19 03.02.2020
3543 Rain 18 1016 58 0 4.81 109 10:58 03.02.2020
3544 Rain 18 1016 58 0 4.81 109 10:39 03.02.2020
3545 Clouds 18 1029 63 10000 6.2 100 10:20 03.02.2020
3546 Clouds 18 1029 63 10000 6.2 100 09:39 03.02.2020
3547 Clouds 18 1029 63 10000 6.2 100 09:20 03.02.2020
3548 Clouds 17 1030 67 10000 5.1 100 08:41 03.02.2020
3549 Clouds 17 1030 67 10000 5.1 100 08:41 03.02.2020
3550 Clouds 17 1030 67 10000 5.1 100 08:23 03.02.2020
3551 Clouds 16 1029 72 10000 4.1 90 07:57 03.02.2020
3552 Clouds 16 1029 72 10000 4.1 90 07:39 03.02.2020
3553 Clouds 16 1029 72 10000 4.1 90 07:20 03.02.2020
3554 Rain 14 1019 79 0 2.55 79 06:42 03.02.2020
3555 Clouds 14 1028 82 10000 3.1 60 06:24 03.02.2020
3556 Clouds 14 1028 82 10000 3.1 60 05:35 03.02.2020
3557 Clouds 13 1018 79 0 1.39 53 04:50 03.02.2020
3558 Clouds 14 1027 76 10000 3.1 110 02:58 03.02.2020
3559 Clouds 14 1027 76 10000 3.1 110 02:33 03.02.2020
3560 Clouds 14 1027 76 10000 3.1 110 01:24 03.02.2020
3561 Clouds 14 1017 77 0 1.99 95 00:37 03.02.2020
3562 Clouds 16 1028 67 10000 4.1 80 00:19 03.02.2020
3563 Clouds 16 1028 67 10000 4.1 80 23:37 02.02.2020
3564 Clouds 16 1028 67 10000 4.1 80 23:19 02.02.2020
3565 Clouds 16 1028 67 10000 4.1 70 22:55 02.02.2020
3566 Clouds 16 1028 67 10000 4.1 70 22:36 02.02.2020
3567 Clouds 16 1028 67 10000 4.1 70 22:36 02.02.2020
3568 Clouds 16 1028 67 10000 4.1 70 22:18 02.02.2020
3569 Clouds 17 1029 67 10000 5.1 80 21:41 02.02.2020
3570 Clouds 17 1029 67 10000 5.1 80 21:22 02.02.2020
3571 Clouds 17 1029 63 10000 4.1 70 20:58 02.02.2020
3572 Clouds 17 1029 63 10000 4.1 70 20:39 02.02.2020
3573 Clouds 17 1029 63 10000 4.1 70 20:39 02.02.2020
3574 Clouds 17 1029 63 10000 4.1 70 20:21 02.02.2020
3575 Clouds 15 1017 70 0 5.02 84 19:59 02.02.2020
3576 Clouds 15 1017 70 0 5.02 84 19:41 02.02.2020
3577 Clouds 19 1027 55 10000 4.1 90 19:23 02.02.2020
3578 Clouds 19 1027 55 10000 4.1 90 18:57 02.02.2020
3579 Clouds 15 1017 70 0 5.02 84 18:38 02.02.2020
3580 Clouds 15 1017 70 0 5.02 84 18:38 02.02.2020
3581 Clouds 20 1027 49 10000 5.1 90 18:20 02.02.2020
3582 Clouds 20 1027 49 10000 5.1 90 17:57 02.02.2020
3583 Clouds 20 1027 49 10000 5.1 90 17:37 02.02.2020
3584 Clouds 20 1027 49 10000 5.1 90 17:18 02.02.2020
3585 Clouds 22 1026 43 10000 5.1 150 16:58 02.02.2020
3586 Clouds 22 1026 43 10000 5.1 150 16:38 02.02.2020
3587 Clouds 22 1026 43 10000 5.1 150 16:19 02.02.2020
3588 Clouds 22 1026 43 10000 5.1 150 16:19 02.02.2020
3589 Clouds 23 1025 43 10000 5.1 150 15:57 02.02.2020
3590 Clouds 23 1025 43 10000 5.1 150 15:37 02.02.2020
3591 Clouds 23 1025 43 10000 5.1 150 15:19 02.02.2020
3592 Clouds 23 1025 40 10000 4.1 150 14:44 02.02.2020
3593 Clouds 23 1025 40 10000 4.1 150 14:19 02.02.2020
3594 Clouds 23 1025 40 10000 2.6 130 13:59 02.02.2020
3595 Clouds 23 1025 40 10000 2.6 130 13:41 02.02.2020
3596 Rain 21 1013 45 0 4.66 105 13:21 02.02.2020
3597 Rain 20 1013 49 0 5.36 104 12:57 02.02.2020
3598 Rain 20 1013 49 0 5.36 104 12:57 02.02.2020
3599 Clouds 20 1013 46 0 4.37 114 12:38 02.02.2020
3600 Clouds 22 1027 46 10000 3.1 130 12:20 02.02.2020
3601 Clouds 22 1027 46 10000 3.1 130 11:42 02.02.2020
3602 Clouds 22 1027 46 10000 3.1 130 11:19 02.02.2020
3603 Clouds 19 1028 55 10000 3.1 170 10:58 02.02.2020
3604 Clouds 19 1028 55 10000 3.1 170 10:39 02.02.2020
3605 Clouds 19 1028 55 10000 3.1 170 10:39 02.02.2020
3606 Clouds 19 1028 55 10000 3.1 170 10:21 02.02.2020
3607 Clouds 19 1029 55 10000 5.1 100 09:59 02.02.2020
3608 Clouds 19 1029 55 10000 5.1 100 09:39 02.02.2020
3609 Clouds 19 1029 55 10000 5.1 100 09:20 02.02.2020
3610 Clouds 19 1029 55 10000 5.1 100 09:20 02.02.2020
3611 Clouds 18 1029 59 10000 5.1 90 08:46 02.02.2020
3612 Clouds 18 1029 59 10000 5.1 90 08:26 02.02.2020
3613 Clouds 16 1029 67 10000 4.1 110 07:48 02.02.2020
3614 Clouds 16 1029 67 10000 4.1 110 07:30 02.02.2020
3615 Clouds 13 1019 83 0 2.52 101 06:56 02.02.2020
3616 Clouds 13 1019 83 0 2.52 101 06:37 02.02.2020
3617 Clouds 15 1028 72 10000 3.1 100 06:18 02.02.2020
3618 Clouds 15 1028 72 10000 3.1 100 05:18 02.02.2020
3619 Clouds 13 1017 83 0 1.57 85 03:41 02.02.2020
3620 Clouds 15 1026 67 10000 2.1 120 02:42 02.02.2020
3621 Clouds 15 1026 67 10000 2.1 120 02:19 02.02.2020
3622 Clouds 16 1027 67 10000 2.6 80 01:36 02.02.2020
3623 Clouds 16 1027 63 10000 4.1 70 00:49 02.02.2020
3624 Clouds 16 1027 63 10000 4.1 70 00:24 02.02.2020
3625 Clouds 16 1028 63 10000 4.6 60 23:55 01.02.2020
3626 Clouds 16 1028 63 10000 4.6 60 23:36 01.02.2020
3627 Clouds 16 1028 63 10000 4.6 60 23:18 01.02.2020
3628 Clouds 16 1028 63 10000 3.6 80 22:42 01.02.2020
3629 Clouds 16 1028 63 10000 3.6 80 22:18 01.02.2020
3630 Clouds 17 1028 63 10000 3.6 80 21:40 01.02.2020
3631 Clouds 17 1028 63 10000 3.6 80 21:19 01.02.2020
3632 Clouds 17 1029 63 10000 3.1 80 20:43 01.02.2020
3633 Clouds 17 1029 63 10000 3.1 80 20:21 01.02.2020
3634 Clouds 18 1028 55 10000 2.6 80 19:58 01.02.2020
3635 Clouds 18 1028 55 10000 2.6 80 19:40 01.02.2020
3636 Clouds 18 1028 55 10000 2.6 80 19:20 01.02.2020
3637 Clouds 18 1027 52 10000 1.5 130 18:59 01.02.2020
3638 Clouds 18 1027 52 10000 1.5 130 18:59 01.02.2020
3639 Clouds 18 1027 52 10000 1.5 130 18:41 01.02.2020
3640 Clouds 18 1027 52 10000 1.5 130 18:23 01.02.2020
3641 Clouds 19 1027 52 10000 4.1 80 17:59 01.02.2020
3642 Clouds 19 1027 52 10000 4.1 80 17:40 01.02.2020
3643 Clouds 19 1027 52 10000 4.1 80 17:20 01.02.2020
3644 Clouds 20 1026 49 10000 3.1 150 16:57 01.02.2020
3645 Clouds 20 1026 49 10000 3.1 150 16:38 01.02.2020
3646 Clouds 20 1026 49 10000 3.1 150 16:20 01.02.2020
3647 Rain 17 1014 70 0 3.37 107 15:42 01.02.2020
3648 Rain 17 1014 70 0 3.37 107 15:24 01.02.2020
3649 Rain 17 1014 70 0 3.37 107 14:58 01.02.2020
3650 Rain 17 1014 70 0 3.37 107 14:39 01.02.2020
3651 Clouds 20 1025 52 10000 4.1 160 14:20 01.02.2020
3652 Clouds 20 1025 52 10000 4.1 160 13:43 01.02.2020
3653 Clouds 20 1025 52 10000 4.1 160 13:21 01.02.2020
3654 Rain 20 1013 55 0 4.14 123 12:44 01.02.2020
3655 Rain 20 1013 55 0 4.14 123 12:26 01.02.2020
3656 Rain 20 1013 55 0 4.14 123 11:56 01.02.2020
3657 Rain 20 1013 55 0 4.14 123 11:37 01.02.2020
3658 Rain 19 1016 54 0 3.52 120 11:18 01.02.2020
3659 Rain 19 1016 54 0 3.52 120 10:55 01.02.2020
3660 Rain 19 1016 54 0 3.52 120 10:37 01.02.2020
3661 Rain 19 1016 54 0 3.52 120 10:18 01.02.2020
3662 Rain 19 1016 54 0 3.52 120 09:41 01.02.2020
3663 Rain 19 1016 54 0 3.52 120 09:41 01.02.2020
3664 Rain 19 1016 54 0 3.52 120 09:23 01.02.2020
3665 Rain 19 1016 54 0 3.52 120 08:59 01.02.2020
3666 Rain 19 1016 54 0 3.52 120 08:36 01.02.2020
3667 Rain 14 1018 77 0 1.82 110 07:46 01.02.2020
3668 Clouds 14 1028 76 10000 1 130 07:25 01.02.2020
3669 Clouds 14 1028 76 10000 1 130 06:49 01.02.2020
3670 Rain 14 1018 77 0 1.82 110 05:55 01.02.2020
3671 Rain 14 1018 77 0 1.82 110 05:37 01.02.2020
3672 Rain 13 1017 84 0 2.03 67 03:39 01.02.2020
3673 Rain 13 1017 84 0 2.03 67 03:18 01.02.2020
3674 Rain 13 1017 84 0 2.03 67 02:41 01.02.2020
3675 Clouds 15 1026 72 10000 5.1 70 02:21 01.02.2020
3676 Clouds 15 1026 72 10000 5.1 70 01:47 01.02.2020
3677 Clouds 15 1026 72 10000 5.1 70 01:28 01.02.2020
3678 Clouds 15 1026 72 10000 3.1 80 00:24 01.02.2020
3679 Clouds 15 1026 72 10000 3.6 70 23:42 31.01.2020
3680 Clouds 15 1026 72 10000 3.6 70 23:19 31.01.2020
3681 Clouds 15 1026 72 10000 3.6 70 23:19 31.01.2020
3682 Clouds 16 1026 67 10000 4.1 70 22:57 31.01.2020
3683 Clouds 16 1026 67 10000 4.1 70 22:39 31.01.2020
3684 Clouds 16 1026 67 10000 4.1 70 22:21 31.01.2020
3685 Clouds 16 1027 67 10000 4.6 50 21:55 31.01.2020
3686 Clouds 16 1027 67 10000 4.6 50 21:37 31.01.2020
3687 Clouds 16 1027 67 10000 4.6 50 21:18 31.01.2020
3688 Clouds 16 1027 67 10000 5.1 70 20:55 31.01.2020
3689 Clouds 16 1027 67 10000 5.1 70 20:37 31.01.2020
3690 Clouds 16 1027 67 10000 5.1 70 20:18 31.01.2020
3691 Clouds 17 1027 63 10000 5.1 70 19:54 31.01.2020
3692 Clouds 17 1027 63 10000 5.1 70 19:36 31.01.2020
3693 Clouds 17 1027 63 10000 5.1 70 19:18 31.01.2020
3694 Clouds 18 1026 63 10000 6.7 60 18:38 31.01.2020
3695 Clouds 18 1026 63 10000 6.7 60 18:20 31.01.2020
3696 Clouds 15 1015 74 0 4.11 82 17:44 31.01.2020
3697 Clouds 23 1024 33 10000 4.1 190 17:26 31.01.2020
3698 Clouds 23 1024 33 10000 4.1 190 16:57 31.01.2020
3699 Clouds 23 1024 33 10000 4.1 190 16:38 31.01.2020
3700 Clouds 23 1024 33 10000 4.1 190 16:19 31.01.2020
3701 Clouds 23 1024 33 10000 4.1 190 16:19 31.01.2020
3702 Clouds 21 1011 41 0 2.48 136 15:57 31.01.2020
3703 Clouds 21 1011 41 0 2.48 136 15:39 31.01.2020
3704 Clouds 24 1023 36 10000 3.1 220 15:19 31.01.2020
3705 Clouds 24 1023 36 10000 3.1 220 14:43 31.01.2020
3706 Clouds 24 1023 36 10000 3.1 220 14:24 31.01.2020
3707 Clouds 24 1024 36 10000 2.6 180 13:54 31.01.2020
3708 Clouds 24 1024 36 10000 2.6 180 13:34 31.01.2020
3709 Clouds 23 1024 40 10000 2.6 190 12:59 31.01.2020
3710 Clouds 23 1024 40 10000 2.6 190 12:41 31.01.2020
3711 Clouds 23 1024 40 10000 2.6 190 12:22 31.01.2020
3712 Clouds 23 1024 40 10000 2.6 190 12:22 31.01.2020
3713 Clouds 22 1025 43 10000 2.1 80 11:45 31.01.2020
3714 Clouds 22 1025 43 10000 2.1 80 11:26 31.01.2020
3715 Clouds 21 1027 46 10000 1.5 60 10:59 31.01.2020
3716 Clouds 21 1027 46 10000 1.5 60 10:41 31.01.2020
3717 Clouds 21 1027 46 10000 1.5 60 10:21 31.01.2020
3718 Clouds 20 1028 49 10000 3.1 130 09:57 31.01.2020
3719 Clouds 20 1028 49 10000 3.1 130 09:38 31.01.2020
3720 Clouds 20 1028 49 10000 3.1 130 09:38 31.01.2020
3721 Clouds 20 1028 49 10000 3.1 130 09:19 31.01.2020
3722 Clouds 17 1029 63 10000 2.6 140 08:50 31.01.2020
3723 Clouds 17 1029 63 10000 2.6 140 08:50 31.01.2020
3724 Clouds 17 1029 63 10000 2.6 140 08:50 31.01.2020
3725 Clouds 17 1029 63 10000 2.6 140 08:25 31.01.2020
3726 Clouds 14 1029 71 10000 2.6 150 07:53 31.01.2020
3727 Clouds 14 1029 71 10000 2.6 150 07:24 31.01.2020
3728 Rain 16 1018 67 0 2.73 114 06:43 31.01.2020
3729 Rain 16 1018 67 0 2.73 114 06:18 31.01.2020
3730 Rain 16 1018 67 0 2.73 114 05:43 31.01.2020
3731 Clouds 12 1017 85 0 1.65 70 04:55 31.01.2020
3732 Clouds 12 1017 85 0 1.65 70 02:58 31.01.2020
3733 Clouds 14 1027 76 10000 3.1 90 01:38 31.01.2020
3734 Clouds 11 1016 93 0 1.34 37 00:45 31.01.2020
3735 Clouds 11 1016 93 0 1.34 37 00:26 31.01.2020
3736 Clouds 11 1016 93 0 1.34 37 23:53 30.01.2020
3737 Clouds 14 1017 81 0 1.96 89 23:24 30.01.2020
3738 Clouds 14 1017 81 0 1.96 89 22:56 30.01.2020
3739 Clouds 14 1017 81 0 1.96 89 22:36 30.01.2020
3740 Clouds 14 1017 81 0 1.96 89 22:18 30.01.2020
3741 Clouds 14 1017 81 0 1.96 89 21:43 30.01.2020
3742 Clouds 14 1017 81 0 1.96 89 21:20 30.01.2020
3743 Clouds 14 1017 81 0 1.96 89 20:59 30.01.2020
3744 Clouds 14 1017 81 0 1.96 89 20:39 30.01.2020
3745 Clouds 16 1027 63 10000 5.1 70 20:21 30.01.2020
3746 Clouds 16 1027 63 10000 5.1 70 20:21 30.01.2020
3747 Clouds 16 1027 63 10000 5.1 70 19:55 30.01.2020
3748 Clouds 16 1027 63 10000 5.1 70 19:36 30.01.2020
3749 Clouds 16 1027 63 10000 5.1 70 19:18 30.01.2020
3750 Clouds 14 1016 73 0 4.28 82 18:40 30.01.2020
3751 Clouds 19 1025 45 10000 5.1 100 18:21 30.01.2020
3752 Clouds 19 1025 45 10000 5.1 100 17:55 30.01.2020
3753 Clouds 19 1025 45 10000 5.1 100 17:37 30.01.2020
3754 Clouds 19 1025 45 10000 5.1 100 17:18 30.01.2020
3755 Clouds 22 1024 37 10000 4.1 140 16:56 30.01.2020
3756 Clouds 22 1024 37 10000 4.1 140 16:37 30.01.2020
3757 Clouds 22 1024 37 10000 4.1 140 16:19 30.01.2020
3758 Clouds 24 1024 31 10000 3.1 140 15:43 30.01.2020
3759 Clouds 24 1024 31 10000 3.1 140 15:19 30.01.2020
3760 Clouds 24 1024 36 10000 4.1 140 14:46 30.01.2020
3761 Clouds 24 1024 36 10000 4.1 140 14:26 30.01.2020
3762 Clouds 24 1024 36 10000 4.1 140 14:26 30.01.2020
3763 Clouds 23 1025 38 10000 4.1 150 13:54 30.01.2020
3764 Clouds 23 1025 38 10000 4.1 150 13:36 30.01.2020
3765 Clouds 23 1025 38 10000 4.1 150 13:18 30.01.2020
3766 Clouds 22 1026 43 10000 2.1 100 12:41 30.01.2020
3767 Clouds 20 1027 49 10000 4.1 160 12:22 30.01.2020
3768 Clouds 20 1027 49 10000 4.1 160 11:56 30.01.2020
3769 Clouds 20 1027 49 10000 4.1 160 11:38 30.01.2020
3770 Clouds 20 1027 49 10000 4.1 160 11:38 30.01.2020
3771 Clouds 20 1027 49 10000 4.1 160 11:19 30.01.2020
3772 Clouds 20 1016 42 0 4.4 107 10:42 30.01.2020
3773 Clouds 19 1029 52 10000 3.6 100 10:22 30.01.2020
3774 Clouds 19 1029 52 10000 3.6 100 09:48 30.01.2020
3775 Clouds 19 1029 52 10000 3.6 100 09:30 30.01.2020
3776 Clouds 20 1016 42 0 4.4 107 08:59 30.01.2020
3777 Clouds 20 1016 42 0 4.4 107 08:39 30.01.2020
3778 Clouds 15 1019 66 0 3.41 82 08:20 30.01.2020
3779 Clouds 15 1019 66 0 3.41 82 07:49 30.01.2020
3780 Clouds 15 1029 72 10000 2.6 90 07:22 30.01.2020
3781 Clouds 15 1029 72 10000 2.6 90 06:47 30.01.2020
3782 Clouds 15 1029 72 10000 2.6 90 06:47 30.01.2020
3783 Clouds 15 1029 72 10000 2.6 90 06:28 30.01.2020
3784 Clouds 15 1019 66 0 3.41 82 05:44 30.01.2020
3785 Clouds 10 1019 94 0 2.03 53 05:20 30.01.2020
3786 Clouds 10 1019 94 0 2.03 53 03:53 30.01.2020
3787 Clouds 10 1019 94 0 2.03 53 03:35 30.01.2020
3788 Clouds 14 1027 82 10000 3.6 70 02:19 30.01.2020
3789 Clouds 17 1027 63 10000 4.1 70 00:40 30.01.2020
3790 Clouds 17 1027 63 10000 4.1 70 00:20 30.01.2020
3791 Clouds 17 1028 63 10000 4.1 70 23:45 29.01.2020
3792 Clouds 17 1028 63 10000 4.1 70 23:21 29.01.2020
3793 Clouds 17 1028 63 10000 4.1 70 23:21 29.01.2020
3794 Clouds 14 1028 76 10000 4.1 50 22:56 29.01.2020
3795 Clouds 14 1028 76 10000 4.1 50 22:38 29.01.2020
3796 Clouds 14 1028 76 10000 4.1 50 22:19 29.01.2020
3797 Clouds 14 1028 76 10000 4.1 50 22:19 29.01.2020
3798 Clouds 15 1029 77 10000 3.1 80 21:57 29.01.2020
3799 Clouds 15 1029 77 10000 3.1 80 21:38 29.01.2020
3800 Clouds 15 1029 77 10000 3.1 80 21:19 29.01.2020
3801 Clouds 15 1028 72 10000 4.1 100 20:57 29.01.2020
3802 Clouds 15 1028 72 10000 4.1 100 20:37 29.01.2020
3803 Clouds 18 1027 63 10000 4.1 70 20:19 29.01.2020
3804 Clouds 14 1016 77 0 2.6 70 19:55 29.01.2020
3805 Clouds 14 1016 77 0 2.6 70 19:36 29.01.2020
3806 Clouds 17 1026 67 10000 4.6 70 19:18 29.01.2020
3807 Clouds 17 1026 67 10000 4.6 70 18:40 29.01.2020
3808 Clouds 17 1026 67 10000 4.6 70 18:19 29.01.2020
3809 Clouds 18 1026 63 10000 5.1 70 17:41 29.01.2020
3810 Clouds 18 1026 63 10000 5.1 70 17:23 29.01.2020
3811 Clouds 17 1011 63 0 5.87 96 16:59 29.01.2020
3812 Clouds 17 1011 63 0 5.87 96 16:40 29.01.2020
3813 Clouds 23 1024 43 10000 4.1 140 16:19 29.01.2020
3814 Clouds 23 1024 43 10000 4.1 140 15:40 29.01.2020
3815 -273 0 0 0 0 0 15:22 29.01.2020
3816 Clouds 17 1011 63 0 5.87 96 14:57 29.01.2020
3817 Clouds 17 1011 63 0 5.87 96 14:39 29.01.2020
3818 Clouds 24 1011 29 0 3.66 161 14:18 29.01.2020
3819 Clouds 24 1011 29 0 3.66 161 13:40 29.01.2020
3820 Clouds 22 1025 49 10000 2.1 170 13:22 29.01.2020
3821 Clouds 22 1025 49 10000 2.1 170 13:22 29.01.2020
3822 Clouds 22 1025 49 10000 2.1 170 12:56 29.01.2020
3823 Clouds 22 1025 49 10000 2.1 170 12:38 29.01.2020
3824 Clouds 22 1025 49 10000 2.1 170 12:20 29.01.2020
3825 Clouds 22 1025 49 10000 4.6 140 11:47 29.01.2020
3826 Clouds 22 1025 49 10000 4.6 140 11:24 29.01.2020
3827 Clear 21 1015 40 0 2.37 114 10:58 29.01.2020
3828 Clear 21 1015 40 0 2.37 114 10:40 29.01.2020
3829 Clouds 21 1027 49 10000 3.6 120 10:20 29.01.2020
3830 Clear 21 1015 40 0 2.37 114 09:40 29.01.2020
3831 Clear 21 1015 40 0 2.37 114 09:22 29.01.2020
3832 Clear 21 1015 40 0 2.37 114 08:58 29.01.2020
3833 Clear 21 1015 40 0 2.37 114 08:39 29.01.2020
3834 Clouds 16 1028 72 10000 3.6 70 08:20 29.01.2020
3835 Clouds 16 1028 72 10000 3.6 70 07:45 29.01.2020
3836 Clouds 16 1028 72 10000 3.6 70 07:25 29.01.2020
3837 Clouds 14 1017 78 0 1.97 69 06:55 29.01.2020
3838 Clouds 14 1017 78 0 1.97 69 06:37 29.01.2020
3839 Clouds 14 1017 78 0 1.97 69 06:18 29.01.2020
3840 Clouds 14 1017 78 0 1.97 69 05:44 29.01.2020
3841 Clouds 14 1026 82 10000 3.6 70 05:25 29.01.2020
3842 Clouds 14 1026 82 10000 3.6 70 04:37 29.01.2020
3843 Clouds 10 1017 94 0 1.16 36 02:50 29.01.2020
3844 Clouds 14 1026 82 10000 4.1 70 02:18 29.01.2020
3845 Clouds 11 1016 91 0 1.08 49 00:43 29.01.2020
3846 Clouds 11 1016 91 0 1.08 49 00:25 29.01.2020
3847 Clouds 11 1016 91 0 1.08 49 23:58 28.01.2020
3848 Clouds 11 1016 91 0 1.08 49 23:37 28.01.2020
3849 Clouds 13 1016 86 0 1.89 71 23:18 28.01.2020
3850 Clouds 13 1016 86 0 1.89 71 22:40 28.01.2020
3851 Clouds 15 1028 82 10000 6.2 60 22:21 28.01.2020
3852 Clouds 15 1028 82 10000 6.2 60 21:42 28.01.2020
3853 Clouds 15 1028 82 10000 6.2 60 21:23 28.01.2020
3854 Clouds 15 1028 82 10000 6.2 60 21:23 28.01.2020
3855 Clouds 13 1016 86 0 1.89 71 20:58 28.01.2020
3856 Clouds 13 1016 86 0 1.89 71 20:40 28.01.2020
3857 Clouds 17 1027 67 10000 5.1 50 20:21 28.01.2020
3858 Clouds 17 1027 67 10000 5.1 50 19:39 28.01.2020
3859 Clouds 17 1027 67 10000 5.1 50 19:20 28.01.2020
3860 Clouds 17 1026 72 10000 5.1 60 18:58 28.01.2020
3861 Clouds 17 1026 72 10000 5.1 60 18:58 28.01.2020
3862 Clouds 17 1026 72 10000 5.1 60 18:39 28.01.2020
3863 Clouds 17 1026 72 10000 5.1 60 18:21 28.01.2020
3864 Clouds 17 1026 72 10000 5.1 60 18:21 28.01.2020
3865 Clouds 19 1026 63 10000 5.1 80 17:57 28.01.2020
3866 Clouds 19 1026 63 10000 5.1 80 17:37 28.01.2020
3867 Clouds 19 1026 63 10000 5.1 80 17:19 28.01.2020
3868 Clouds 20 1025 60 10000 5.1 80 16:54 28.01.2020
3869 Clouds 20 1025 60 10000 5.1 80 16:36 28.01.2020
3870 Clouds 20 1025 60 10000 5.1 80 16:18 28.01.2020
3871 Clouds 22 1024 53 10000 5.1 150 15:41 28.01.2020
3872 Clouds 17 1011 64 0 5.52 101 15:19 28.01.2020
3873 Clouds 17 1011 64 0 5.52 101 14:46 28.01.2020
3874 Clouds 24 1024 41 10000 4.6 150 14:20 28.01.2020
3875 Clouds 24 1024 41 10000 4.6 150 13:58 28.01.2020
3876 Clouds 24 1024 41 10000 4.6 150 13:39 28.01.2020
3877 Clouds 24 1024 41 10000 4.6 150 13:20 28.01.2020
3878 Clouds 23 1025 43 10000 3.6 180 12:42 28.01.2020
3879 Clouds 23 1025 43 10000 3.6 180 12:42 28.01.2020
3880 Clouds 23 1025 43 10000 3.6 180 12:22 28.01.2020
3881 Clouds 22 1026 46 10000 3.1 170 11:48 28.01.2020
3882 Clouds 22 1026 46 10000 3.1 170 11:23 28.01.2020
3883 Clouds 20 1027 56 10000 3.1 180 10:58 28.01.2020
3884 Clouds 20 1027 56 10000 3.1 180 10:39 28.01.2020
3885 Clouds 20 1027 56 10000 3.1 180 10:20 28.01.2020
3886 Clouds 21 1015 41 0 0.92 86 09:43 28.01.2020
3887 Clouds 17 1029 63 10000 3.1 190 09:21 28.01.2020
3888 Clouds 17 1029 63 10000 3.1 190 08:57 28.01.2020
3889 Clouds 17 1029 63 10000 3.1 190 08:39 28.01.2020
3890 Clouds 17 1029 63 10000 3.1 190 08:18 28.01.2020
3891 Clouds 17 1028 67 10000 2.1 60 07:37 28.01.2020
3892 Clouds 17 1028 67 10000 2.1 60 07:37 28.01.2020
3893 Clouds 16 1028 72 10000 4.1 60 06:50 28.01.2020
3894 Clouds 16 1028 72 10000 4.1 60 06:26 28.01.2020
3895 Clouds 15 1027 77 10000 3.6 60 05:54 28.01.2020
3896 Clouds 14 1018 73 0 2.1 102 05:26 28.01.2020
3897 Clouds 13 1017 84 0 1.74 80 03:59 28.01.2020
3898 Clouds 13 1017 84 0 1.74 80 02:58 28.01.2020
3899 Clouds 15 1026 82 10000 3.1 100 02:25 28.01.2020
3900 Clouds 15 1026 82 10000 3.1 100 01:57 28.01.2020
3901 Clouds 15 1026 82 10000 3.1 100 01:24 28.01.2020
3902 Clouds 15 1027 77 10000 3.1 80 00:48 28.01.2020
3903 Clouds 15 1027 77 10000 3.1 80 00:28 28.01.2020
3904 Clouds 14 1016 82 0 1.91 84 23:49 27.01.2020
3905 Clouds 14 1016 82 0 1.91 84 23:29 27.01.2020
3906 Clouds 14 1017 85 0 2.58 83 22:55 27.01.2020
3907 Clouds 14 1017 85 0 2.58 83 22:36 27.01.2020
3908 Clouds 14 1017 85 0 2.58 83 22:18 27.01.2020
3909 Clouds 14 1017 85 0 2.58 83 21:54 27.01.2020
3910 Clouds 14 1017 85 0 2.58 83 21:36 27.01.2020
3911 Clouds 14 1017 85 0 2.58 83 21:18 27.01.2020
3912 Clouds 14 1017 85 0 2.58 83 20:42 27.01.2020
3913 Clouds 13 1016 92 0 3.99 82 20:21 27.01.2020
3914 Clouds 13 1016 92 0 3.99 82 19:59 27.01.2020
3915 Clouds 13 1016 92 0 3.99 82 19:40 27.01.2020
3916 Clouds 13 1016 92 0 3.99 82 19:22 27.01.2020
3917 Clouds 13 1016 92 0 3.99 82 18:56 27.01.2020
3918 Clouds 13 1016 92 0 3.99 82 18:37 27.01.2020
3919 Clouds 13 1016 92 0 3.99 82 18:19 27.01.2020
3920 Clouds 13 1016 92 0 3.99 82 17:39 27.01.2020
3921 Clouds 19 1025 63 10000 5.1 200 17:20 27.01.2020
3922 Clouds 19 1025 63 10000 5.1 200 16:58 27.01.2020
3923 Clouds 19 1025 63 10000 5.1 200 16:58 27.01.2020
3924 Clouds 19 1025 63 10000 5.1 200 16:40 27.01.2020
3925 Clouds 19 1025 63 10000 5.1 200 16:22 27.01.2020
3926 Clouds 19 1025 63 10000 5.1 200 16:22 27.01.2020
3927 Clear 16 1013 76 0 4.14 98 15:55 27.01.2020
3928 Clear 16 1013 76 0 4.14 98 15:36 27.01.2020
3929 Clouds 22 1025 49 10000 4.1 140 15:18 27.01.2020
3930 Clouds 22 1025 49 10000 4.1 140 14:41 27.01.2020
3931 Clouds 22 1025 49 10000 4.1 140 14:22 27.01.2020
3932 Clouds 22 1026 53 10000 4.1 140 13:55 27.01.2020
3933 Clouds 22 1026 53 10000 4.1 140 13:37 27.01.2020
3934 Clouds 22 1026 53 10000 4.1 140 13:18 27.01.2020
3935 Clouds 21 1026 56 10000 4.71 116 12:43 27.01.2020
3936 Clouds 21 1026 56 10000 4.71 116 12:23 27.01.2020
3937 Clouds 20 1028 56 10000 4.1 150 11:55 27.01.2020
3938 Clouds 20 1028 56 10000 4.1 150 11:36 27.01.2020
3939 Clouds 20 1028 56 10000 4.1 150 11:18 27.01.2020
3940 Clouds 19 1029 59 10000 3.1 100 10:42 27.01.2020
3941 Clouds 18 1029 63 10000 3.1 120 10:23 27.01.2020
3942 Clouds 18 1029 63 10000 3.1 120 09:40 27.01.2020
3943 Clouds 18 1029 63 10000 3.1 120 09:19 27.01.2020
3944 Clouds 19 1017 54 0 3.09 111 08:59 27.01.2020
3945 Clouds 19 1017 54 0 3.09 111 08:40 27.01.2020
3946 Clouds 14 1020 73 0 2.44 82 08:19 27.01.2020
3947 Clouds 14 1020 73 0 2.44 82 07:52 27.01.2020
3948 Clouds 14 1020 73 0 2.44 82 07:33 27.01.2020
3949 Clouds 14 1020 73 0 2.44 82 06:49 27.01.2020
3950 Clouds 14 1020 73 0 2.44 82 05:53 27.01.2020
3951 Clouds 14 1028 82 10000 3.6 80 05:18 27.01.2020
3952 Clouds 12 1018 84 0 2.8 85 03:36 27.01.2020
3953 Clouds 14 1027 82 10000 3.1 70 02:27 27.01.2020
3954 Clouds 12 1017 85 0 2.95 74 01:28 27.01.2020
3955 Clouds 12 1017 84 0 2.79 78 00:42 27.01.2020
3956 Clouds 14 1028 82 10000 2.1 130 00:22 27.01.2020
3957 Clouds 14 1028 82 10000 2.1 130 23:58 26.01.2020
3958 Clouds 14 1028 82 10000 2.1 130 23:39 26.01.2020
3959 Clouds 14 1028 82 10000 2.1 130 23:18 26.01.2020
3960 Clouds 14 1028 82 10000 3.6 100 22:39 26.01.2020
3961 Clouds 14 1028 82 10000 3.6 100 22:20 26.01.2020
3962 Clouds 14 1028 82 10000 4.1 80 21:59 26.01.2020
3963 Clouds 14 1028 82 10000 4.1 80 21:40 26.01.2020
3964 Clouds 14 1028 82 10000 4.1 80 21:21 26.01.2020
3965 Clouds 14 1028 82 10000 2.1 140 20:58 26.01.2020
3966 Clouds 14 1028 82 10000 2.1 140 20:39 26.01.2020
3967 Clouds 15 1028 77 10000 2.1 200 20:20 26.01.2020
3968 Clouds 15 1028 77 10000 2.1 200 19:59 26.01.2020
3969 Clouds 15 1028 77 10000 2.1 200 19:39 26.01.2020
3970 Clouds 15 1028 77 10000 2.1 200 19:21 26.01.2020
3971 Clouds 13 1017 91 0 3.3 69 18:58 26.01.2020
3972 Clouds 13 1017 91 0 3.3 69 18:39 26.01.2020
3973 Clouds 13 1017 91 0 3.3 69 18:39 26.01.2020
3974 Clouds 13 1017 91 0 3.3 69 18:21 26.01.2020
3975 Clouds 13 1017 91 0 3.3 69 17:56 26.01.2020
3976 Clouds 13 1017 91 0 3.3 69 17:37 26.01.2020
3977 Clouds 19 1026 59 10000 5.1 160 17:18 26.01.2020
3978 Clouds 19 1026 59 10000 5.1 160 16:56 26.01.2020
3979 Clouds 19 1026 59 10000 5.1 160 16:38 26.01.2020
3980 Clouds 16 1013 71 0 4.84 101 16:19 26.01.2020
3981 Clouds 16 1013 71 0 4.84 101 16:19 26.01.2020
3982 Clouds 16 1013 71 0 4.84 101 15:43 26.01.2020
3983 Clouds 16 1013 71 0 4.84 101 15:22 26.01.2020
3984 Clouds 16 1013 71 0 4.84 101 14:58 26.01.2020
3985 Clouds 16 1013 71 0 4.84 101 14:58 26.01.2020
3986 Clouds 16 1013 71 0 4.84 101 14:38 26.01.2020
3987 Clouds 22 1013 38 0 4.04 158 14:19 26.01.2020
3988 Clouds 22 1013 38 0 4.04 158 13:40 26.01.2020
3989 Clouds 22 1013 38 0 4.14 158 13:20 26.01.2020
3990 Clouds 22 1013 38 0 4.14 158 12:56 26.01.2020
3991 Clouds 22 1013 38 0 4.14 158 12:37 26.01.2020
3992 Clouds 22 1013 38 0 4.14 158 12:19 26.01.2020
3993 Clouds 22 1013 38 0 4.14 158 11:57 26.01.2020
3994 Clouds 22 1013 38 0 4.14 158 11:37 26.01.2020
3995 Clouds 20 1028 56 10000 2.1 160 11:18 26.01.2020
3996 Clouds 20 1028 56 10000 2.1 160 10:55 26.01.2020
3997 Clouds 20 1028 56 10000 2.1 160 10:37 26.01.2020
3998 Clouds 20 1028 56 10000 2.1 160 10:19 26.01.2020
3999 Clouds 20 1028 56 10000 2.1 160 10:19 26.01.2020
4000 Clouds 19 1029 59 10000 2.6 80 09:42 26.01.2020
4001 Clouds 19 1029 59 10000 2.6 80 09:23 26.01.2020
4002 Clouds 16 1030 72 10000 3.6 100 08:59 26.01.2020
4003 Clouds 16 1030 72 10000 3.6 100 08:41 26.01.2020
4004 Clouds 16 1030 72 10000 3.6 100 08:21 26.01.2020
4005 Clouds 15 1030 77 10000 4.1 50 07:50 26.01.2020
4006 Clouds 15 1030 77 10000 4.1 50 07:27 26.01.2020
4007 Clouds 14 1019 80 0 2.84 99 06:51 26.01.2020
4008 Clouds 14 1019 80 0 2.84 99 06:23 26.01.2020
4009 Clouds 13 1028 87 10000 2.6 50 05:28 26.01.2020
4010 Clouds 14 1028 82 10000 5.1 70 03:31 26.01.2020
4011 Clouds 14 1028 82 10000 5.1 70 02:38 26.01.2020
4012 Rain 12 1017 91 0 3.79 75 01:45 26.01.2020
4013 Rain 12 1017 91 0 3.79 75 01:22 26.01.2020
4014 Rain 12 1017 90 0 4.1 69 00:42 26.01.2020
4015 Rain 12 1017 90 0 4.1 69 00:23 26.01.2020
4016 Rain 12 1017 90 0 4.1 69 23:39 25.01.2020
4017 Rain 13 1018 92 0 3.16 81 23:20 25.01.2020
4018 Rain 13 1018 92 0 3.16 81 22:56 25.01.2020
4019 Rain 13 1018 92 0 3.16 81 22:36 25.01.2020
4020 Rain 13 1018 92 0 3.16 81 22:18 25.01.2020
4021 Rain 13 1018 92 0 3.16 81 21:41 25.01.2020
4022 Rain 13 1018 92 0 3.16 81 21:23 25.01.2020
4023 Rain 13 1018 92 0 3.16 81 20:56 25.01.2020
4024 Rain 13 1018 92 0 3.16 81 20:38 25.01.2020
4025 Rain 13 1018 89 0 2.64 69 20:20 25.01.2020
4026 Rain 13 1018 87 0 1.94 63 19:44 25.01.2020
4027 Rain 13 1018 87 0 1.94 63 19:20 25.01.2020
4028 Rain 13 1018 87 0 1.94 63 18:57 25.01.2020
4029 Rain 13 1018 87 0 1.94 63 18:39 25.01.2020
4030 Rain 13 1018 87 0 1.94 63 18:20 25.01.2020
4031 Rain 13 1018 87 0 1.94 63 17:42 25.01.2020
4032 Rain 13 1018 87 0 1.94 63 17:23 25.01.2020
4033 Rain 17 1015 66 0 4.46 98 16:58 25.01.2020
4034 Rain 17 1014 64 0 5 99 16:40 25.01.2020
4035 Rain 17 1014 64 0 5 99 16:21 25.01.2020
4036 Rain 17 1014 64 0 5 99 15:47 25.01.2020
4037 Rain 17 1014 64 0 5 99 15:25 25.01.2020
4038 Rain 17 1014 64 0 5 99 14:59 25.01.2020
4039 Rain 17 1014 64 0 5 99 14:41 25.01.2020
4040 Clouds 20 1013 49 0 4.91 121 14:18 25.01.2020
4041 Clouds 20 1013 49 0 4.91 121 13:43 25.01.2020
4042 Clouds 20 1013 49 0 4.91 121 13:23 25.01.2020
4043 Clouds 21 1014 49 0 5.21 117 12:46 25.01.2020
4044 Clouds 21 1028 52 10000 4.1 160 12:26 25.01.2020
4045 Clouds 21 1028 52 10000 4.1 160 11:45 25.01.2020
4046 Clouds 21 1028 52 10000 4.1 160 11:22 25.01.2020
4047 Clouds 19 1017 53 0 3.95 110 10:59 25.01.2020
4048 Clouds 19 1017 53 0 3.95 110 10:40 25.01.2020
4049 Clouds 19 1017 53 0 3.95 110 10:20 25.01.2020
4050 Clouds 19 1017 53 0 3.95 110 09:54 25.01.2020
4051 Clouds 19 1017 53 0 3.95 110 09:36 25.01.2020
4052 Clouds 19 1017 53 0 3.95 110 09:18 25.01.2020
4053 Clouds 19 1017 53 0 3.95 110 08:42 25.01.2020
4054 Rain 15 1020 76 0 3.85 82 07:50 25.01.2020
4055 Rain 15 1020 76 0 3.85 82 06:54 25.01.2020
4056 Rain 15 1020 76 0 3.85 82 06:29 25.01.2020
4057 Rain 15 1020 76 0 3.85 82 05:48 25.01.2020
4058 Rain 15 1020 76 0 3.85 82 05:23 25.01.2020
4059 Rain 12 1019 95 0 3.29 67 03:54 25.01.2020
4060 Rain 12 1019 95 0 3.29 67 03:22 25.01.2020
4061 Clouds 15 1027 77 10000 3.1 60 02:23 25.01.2020
4062 Clouds 15 1027 77 10000 3.1 60 01:53 25.01.2020
4063 Clouds 15 1028 77 10000 3.1 40 00:52 25.01.2020
4064 Clouds 15 1028 77 10000 3.1 40 00:26 25.01.2020
4065 Clouds 15 1029 77 10000 4.1 60 23:59 24.01.2020
4066 Clouds 15 1029 77 10000 4.1 60 23:59 24.01.2020
4067 Clouds 15 1029 77 10000 4.1 60 23:40 24.01.2020
4068 Clouds 15 1029 77 10000 4.1 60 23:22 24.01.2020
4069 Clouds 15 1029 77 10000 3.1 60 22:45 24.01.2020
4070 Clouds 15 1029 77 10000 3.1 60 22:25 24.01.2020
4071 Clouds 16 1029 72 10000 3.1 70 21:56 24.01.2020
4072 Clouds 16 1029 72 10000 3.1 70 21:37 24.01.2020
4073 Clouds 16 1029 72 10000 3.1 70 21:18 24.01.2020
4074 Clouds 16 1029 72 10000 3.1 70 20:42 24.01.2020
4075 Clouds 17 1028 67 10000 5.1 70 20:21 24.01.2020
4076 Clouds 17 1028 67 10000 5.1 70 19:57 24.01.2020
4077 Clouds 17 1028 67 10000 5.1 70 19:39 24.01.2020
4078 Clouds 17 1028 67 10000 5.1 70 19:21 24.01.2020
4079 Clouds 18 1027 63 10000 5.1 70 18:43 24.01.2020
4080 Clouds 18 1027 63 10000 5.1 70 18:43 24.01.2020
4081 Clouds 18 1027 63 10000 5.1 70 18:24 24.01.2020
4082 Rain 13 1018 84 0 2.99 65 17:56 24.01.2020
4083 Clouds 21 1026 43 10000 5.1 150 17:38 24.01.2020
4084 Clouds 21 1026 43 10000 5.1 150 17:18 24.01.2020
4085 Clouds 21 1026 43 10000 5.1 150 16:39 24.01.2020
4086 Clouds 21 1026 43 10000 5.1 150 16:21 24.01.2020
4087 Clouds 17 1014 61 0 5.9 96 15:43 24.01.2020
4088 Clouds 23 1025 35 10000 4.1 220 15:23 24.01.2020
4089 Clouds 23 1025 35 10000 4.1 220 14:59 24.01.2020
4090 Clouds 23 1025 35 10000 4.1 220 14:40 24.01.2020
4091 Clouds 23 1025 35 10000 4.1 220 14:22 24.01.2020
4092 Rain 20 1012 47 0 3.83 130 13:43 24.01.2020
4093 Rain 20 1013 44 0 3.21 134 13:23 24.01.2020
4094 Rain 20 1013 44 0 3.21 134 12:45 24.01.2020
4095 Rain 20 1013 44 0 3.21 134 12:45 24.01.2020
4096 Rain 20 1013 44 0 3.21 134 12:23 24.01.2020
4097 Rain 20 1013 44 0 3.21 134 11:57 24.01.2020
4098 Rain 20 1013 44 0 3.21 134 11:39 24.01.2020
4099 Clouds 20 1028 49 10000 2.6 180 11:18 24.01.2020
4100 Clouds 20 1028 49 10000 2.6 180 10:42 24.01.2020
4101 Clouds 20 1028 49 10000 2.6 180 10:42 24.01.2020
4102 Clouds 20 1028 49 10000 2.6 180 10:42 24.01.2020
4103 Rain 18 1016 57 0 3.16 155 10:21 24.01.2020
4104 Rain 18 1016 57 0 3.16 155 09:55 24.01.2020
4105 Rain 18 1016 57 0 3.16 155 09:37 24.01.2020
4106 Clouds 17 1029 63 10000 3.6 100 09:18 24.01.2020
4107 Clouds 17 1029 63 10000 3.6 100 08:39 24.01.2020
4108 Clouds 15 1029 72 10000 4.1 80 08:19 24.01.2020
4109 Clouds 15 1029 72 10000 4.1 80 07:48 24.01.2020
4110 Clouds 14 1029 76 10000 3.1 60 07:22 24.01.2020
4111 Clouds 14 1029 76 10000 3.1 60 06:45 24.01.2020
4112 Clouds 14 1029 76 10000 3.1 60 06:24 24.01.2020
4113 Clouds 14 1019 78 0 3.57 90 05:37 24.01.2020
4114 Rain 11 1017 95 0 2.45 67 03:47 24.01.2020
4115 Rain 11 1017 95 0 2.45 67 02:41 24.01.2020
4116 Rain 11 1016 93 0 2.96 67 02:22 24.01.2020
4117 Rain 11 1016 93 0 2.96 67 01:39 24.01.2020
4118 Rain 12 1016 89 0 2.45 65 00:52 24.01.2020
4119 Clouds 15 1027 72 10000 5.1 70 00:19 24.01.2020
4120 Clouds 15 1027 72 10000 5.1 70 23:42 23.01.2020
4121 Clouds 15 1027 72 10000 5.1 70 23:23 23.01.2020
4122 Rain 13 1017 81 0 3.89 80 22:59 23.01.2020
4123 Rain 13 1017 81 0 3.89 80 22:37 23.01.2020
4124 Rain 13 1017 81 0 3.89 80 22:18 23.01.2020
4125 Rain 13 1017 81 0 3.89 80 21:55 23.01.2020
4126 Rain 13 1017 81 0 3.89 80 21:37 23.01.2020
4127 Rain 13 1017 81 0 3.89 80 21:19 23.01.2020
4128 Rain 13 1017 81 0 3.89 80 20:55 23.01.2020
4129 Rain 13 1017 81 0 3.89 80 20:37 23.01.2020
4130 Rain 14 1017 74 0 2.11 82 20:18 23.01.2020
4131 Rain 14 1017 74 0 2.11 82 19:44 23.01.2020
4132 Rain 14 1017 74 0 2.11 82 19:23 23.01.2020
4133 Rain 14 1017 74 0 2.11 82 18:58 23.01.2020
4134 Rain 14 1017 74 0 2.11 82 18:39 23.01.2020
4135 Rain 14 1017 74 0 2.11 82 18:20 23.01.2020
4136 Rain 14 1017 74 0 2.11 82 17:56 23.01.2020
4137 Rain 14 1017 74 0 2.11 82 17:37 23.01.2020
4138 Clouds 21 1024 40 10000 4.6 150 17:18 23.01.2020
4139 Clouds 21 1024 40 10000 4.6 150 16:39 23.01.2020
4140 Clouds 21 1024 40 10000 4.6 150 16:39 23.01.2020
4141 Clouds 23 1024 35 10000 3.6 170 16:20 23.01.2020
4142 Clouds 23 1024 35 10000 3.6 170 16:20 23.01.2020
4143 Rain 17 1013 54 0 4.08 119 15:58 23.01.2020
4144 Rain 17 1013 54 0 4.08 119 15:39 23.01.2020
4145 Clouds 23 1024 35 10000 4.1 190 15:19 23.01.2020
4146 Clouds 23 1024 35 10000 4.1 190 14:58 23.01.2020
4147 Clouds 23 1024 35 10000 4.1 190 14:40 23.01.2020
4148 Clouds 23 1024 35 10000 4.1 190 14:22 23.01.2020
4149 Clouds 21 1024 40 10000 3.1 180 13:55 23.01.2020
4150 Clouds 21 1024 40 10000 3.1 180 13:37 23.01.2020
4151 Clouds 22 1025 37 10000 3.1 150 13:18 23.01.2020
4152 Clouds 22 1025 37 10000 3.1 150 12:42 23.01.2020
4153 Clouds 22 1025 37 10000 3.1 150 12:24 23.01.2020
4154 Clouds 21 1025 43 10000 3.1 130 11:56 23.01.2020
4155 Clouds 21 1025 43 10000 3.1 130 11:37 23.01.2020
4156 Clouds 21 1025 43 10000 3.1 130 11:37 23.01.2020
4157 Clouds 20 1026 49 10000 4.1 150 11:18 23.01.2020
4158 Clouds 20 1026 49 10000 4.1 150 10:42 23.01.2020
4159 Clouds 20 1026 49 10000 4.1 150 10:19 23.01.2020
4160 Clouds 17 1027 59 10000 4.1 120 09:42 23.01.2020
4161 Clouds 17 1027 59 10000 4.1 120 09:24 23.01.2020
4162 Clouds 16 1028 63 10000 5.1 70 08:58 23.01.2020
4163 Clouds 16 1028 63 10000 5.1 70 08:40 23.01.2020
4164 Clouds 16 1028 63 10000 5.1 70 08:21 23.01.2020
4165 Clouds 14 1028 71 10000 5.7 80 07:44 23.01.2020
4166 Clouds 14 1028 71 10000 5.7 80 07:24 23.01.2020
4167 Clouds 13 1027 71 10000 2.1 310 06:51 23.01.2020
4168 Clouds 13 1027 71 10000 2.1 310 06:51 23.01.2020
4169 Clouds 13 1027 71 10000 2.1 310 06:20 23.01.2020
4170 Clouds 14 1017 70 0 2.26 97 05:37 23.01.2020
4171 Clouds 12 1026 76 10000 2.1 110 04:24 23.01.2020
4172 Rain 11 1016 88 0 1.28 56 02:33 23.01.2020
4173 Clouds 12 1015 77 0 1.64 95 00:58 23.01.2020
4174 Clouds 12 1015 77 0 1.64 95 00:27 23.01.2020
4175 Clouds 12 1015 77 0 1.64 95 23:47 22.01.2020
4176 Clouds 12 1015 77 0 1.64 95 23:29 22.01.2020
4177 Clear 11 1015 89 0 2.45 56 22:58 22.01.2020
4178 Clear 11 1015 89 0 2.45 56 22:39 22.01.2020
4179 Clear 11 1015 89 0 2.45 56 22:21 22.01.2020
4180 Clear 11 1015 89 0 2.45 56 21:40 22.01.2020
4181 Clear 11 1015 89 0 2.45 56 21:22 22.01.2020
4182 Clear 11 1015 89 0 2.45 56 20:57 22.01.2020
4183 Clear 11 1015 89 0 2.45 56 20:37 22.01.2020
4184 Clouds 13 1014 78 0 2.87 62 20:19 22.01.2020
4185 Clouds 13 1014 76 0 2.69 61 19:56 22.01.2020
4186 Clouds 13 1014 76 0 2.69 61 19:37 22.01.2020
4187 Clouds 18 1025 48 0 3.1 110 19:18 22.01.2020
4188 Clouds 18 1025 48 0 3.1 110 18:56 22.01.2020
4189 Clouds 18 1025 48 0 3.1 110 18:37 22.01.2020
4190 Clouds 18 1025 48 0 3.1 110 18:19 22.01.2020
4191 Clouds 13 1014 76 0 2.69 61 17:40 22.01.2020
4192 Clouds 22 1023 37 10000 3.1 130 17:21 22.01.2020
4193 Clouds 22 1023 37 10000 3.1 130 16:58 22.01.2020
4194 Clouds 22 1023 37 10000 3.1 130 16:58 22.01.2020
4195 Clouds 22 1023 37 10000 3.1 130 16:39 22.01.2020
4196 Clouds 22 1023 37 10000 3.1 130 16:21 22.01.2020
4197 Clouds 23 1023 31 10000 3.1 180 15:56 22.01.2020
4198 Clouds 23 1023 31 10000 3.1 180 15:38 22.01.2020
4199 Clouds 23 1023 31 10000 3.1 180 15:19 22.01.2020
4200 Clouds 23 1023 31 10000 4.1 200 14:39 22.01.2020
4201 Clouds 23 1023 31 10000 4.1 200 14:20 22.01.2020
4202 Clouds 22 1023 35 10000 6.2 200 13:58 22.01.2020
4203 Clouds 22 1023 35 10000 6.2 200 13:38 22.01.2020
4204 Clouds 22 1023 35 10000 6.2 200 13:19 22.01.2020
4205 Clouds 22 1024 37 10000 4.1 120 12:57 22.01.2020
4206 Clouds 22 1024 37 10000 4.1 120 12:39 22.01.2020
4207 Clouds 22 1024 37 10000 4.1 120 12:19 22.01.2020
4208 Clouds 21 1025 43 10000 4.1 150 11:58 22.01.2020
4209 Clouds 21 1025 43 10000 4.1 150 11:39 22.01.2020
4210 Clouds 21 1025 43 10000 4.1 150 11:19 22.01.2020
4211 Clouds 19 1027 48 10000 3.1 130 10:46 22.01.2020
4212 Clouds 19 1027 48 10000 3.1 130 10:21 22.01.2020
4213 Clouds 18 1027 48 0 3.1 180 09:59 22.01.2020
4214 Clouds 18 1027 48 0 3.1 180 09:40 22.01.2020
4215 Clouds 18 1027 48 0 3.1 180 09:22 22.01.2020
4216 Clouds 17 1027 55 10000 4.1 120 08:56 22.01.2020
4217 Clouds 17 1027 55 10000 4.1 120 08:37 22.01.2020
4218 Clouds 17 1027 55 10000 4.1 120 08:19 22.01.2020
4219 Clouds 15 1027 62 10000 4.1 100 07:44 22.01.2020
4220 Clouds 15 1027 62 10000 4.1 100 07:26 22.01.2020
4221 Clouds 12 1027 66 10000 1 70 06:36 22.01.2020
4222 Clouds 9 1026 76 10000 2.1 350 05:57 22.01.2020
4223 Clear 9 1017 80 0 1.51 30 04:27 22.01.2020
4224 Clear 12 1025 71 0 4.1 50 03:27 22.01.2020
4225 Clear 12 1025 71 0 4.1 50 02:48 22.01.2020
4226 Clouds 13 1025 66 0 5.7 60 00:47 22.01.2020
4227 Clouds 13 1025 66 0 5.7 60 00:28 22.01.2020
4228 Clouds 13 1026 71 0 6.2 60 23:59 21.01.2020
4229 Clouds 13 1026 71 0 6.2 60 23:37 21.01.2020
4230 Clouds 13 1026 71 0 6.2 60 23:19 21.01.2020
4231 Clouds 13 1026 71 0 6.2 60 22:41 21.01.2020
4232 Clouds 13 1026 71 0 6.2 60 22:23 21.01.2020
4233 Clouds 13 1027 66 0 5.7 70 21:58 21.01.2020
4234 Clouds 13 1027 66 0 5.7 70 21:39 21.01.2020
4235 Clouds 13 1027 66 0 5.7 70 21:20 21.01.2020
4236 Clouds 15 1027 58 0 1.11 42 20:57 21.01.2020
4237 Clouds 15 1027 58 0 1.11 42 20:39 21.01.2020
4238 Clouds 15 1027 58 0 2.79 59 20:20 21.01.2020
4239 Clouds 15 1026 58 0 5.1 70 19:58 21.01.2020
4240 Clouds 15 1026 58 0 5.1 70 19:39 21.01.2020
4241 Clouds 15 1026 58 0 5.1 70 19:20 21.01.2020
4242 Clouds 16 1026 55 0 5.7 60 18:56 21.01.2020
4243 Clouds 16 1026 55 0 5.7 60 18:38 21.01.2020
4244 Clouds 16 1026 55 0 5.7 60 18:20 21.01.2020
4245 Clouds 19 1025 37 10000 5.1 120 17:45 21.01.2020
4246 Clouds 19 1025 37 10000 5.1 120 17:21 21.01.2020
4247 Clouds 22 1024 24 10000 5.1 150 16:59 21.01.2020
4248 Clouds 22 1024 24 10000 5.1 150 16:59 21.01.2020
4249 Clouds 22 1024 24 10000 5.1 150 16:37 21.01.2020
4250 Clouds 22 1024 24 10000 5.1 150 16:19 21.01.2020
4251 Clouds 18 1011 47 0 5.2 107 15:56 21.01.2020
4252 Clouds 18 1011 47 0 5.2 107 15:37 21.01.2020
4253 Clouds 23 1023 28 10000 3.1 130 15:18 21.01.2020
4254 Clouds 23 1023 28 10000 3.1 130 14:38 21.01.2020
4255 Clouds 23 1023 28 10000 3.1 130 14:20 21.01.2020
4256 Clouds 23 1024 31 10000 5.1 140 13:41 21.01.2020
4257 Clouds 23 1024 31 10000 5.1 140 13:19 21.01.2020
4258 Clouds 23 1025 35 10000 4.6 130 12:56 21.01.2020
4259 Clouds 23 1025 35 10000 4.6 130 12:38 21.01.2020
4260 Clouds 23 1025 35 10000 4.6 130 12:19 21.01.2020
4261 Clouds 21 1026 40 10000 4.1 150 11:40 21.01.2020
4262 Clouds 21 1026 40 10000 4.1 150 11:21 21.01.2020
4263 Clouds 20 1027 42 10000 4.6 200 10:57 21.01.2020
4264 Clouds 20 1027 42 10000 4.6 200 10:57 21.01.2020
4265 Clouds 20 1027 42 10000 4.6 200 10:57 21.01.2020
4266 Clouds 20 1027 42 10000 4.6 200 10:57 21.01.2020
4267 Clouds 20 1027 42 10000 4.6 200 10:39 21.01.2020
4268 Clouds 20 1027 42 10000 4.6 200 10:20 21.01.2020
4269 Clouds 18 1028 52 10000 4.1 160 09:42 21.01.2020
4270 Clouds 18 1028 52 10000 4.1 160 09:23 21.01.2020
4271 Clouds 16 1028 59 10000 1 130 08:50 21.01.2020
4272 Clouds 16 1028 59 10000 1 130 08:32 21.01.2020
4273 Clouds 14 1028 67 10000 1 100 08:00 21.01.2020
4274 Clouds 14 1028 67 10000 1 100 07:40 21.01.2020
4275 Clouds 14 1028 67 10000 1 100 07:22 21.01.2020
4276 Clouds 11 1027 81 10000 1 350 06:49 21.01.2020
4277 Clouds 11 1027 81 10000 1 350 06:29 21.01.2020
4278 Clouds 11 1027 81 10000 1 350 06:29 21.01.2020
4279 Clouds 11 1027 81 10000 1 350 06:29 21.01.2020
4280 Clouds 9 1027 87 10000 2.6 40 05:42 21.01.2020
4281 Clouds 10 1026 81 10000 1 30 04:40 21.01.2020
4282 Clouds 10 1026 81 10000 1 350 02:57 21.01.2020
4283 Clouds 10 1026 87 10000 0.95 346 01:55 21.01.2020
4284 Clouds 10 1026 87 10000 0.83 314 01:18 21.01.2020
4285 Clouds 11 1027 76 10000 1.5 80 00:37 21.01.2020
4286 Clear 9 1017 80 0 0.83 314 23:59 20.01.2020
4287 Clear 9 1017 80 0 0.83 314 23:39 20.01.2020
4288 Clear 9 1017 80 0 0.83 314 23:39 20.01.2020
4289 Clouds 13 1029 71 10000 4.1 70 23:19 20.01.2020
4290 Clouds 13 1029 71 10000 4.1 70 22:56 20.01.2020
4291 Clouds 13 1029 71 10000 4.1 70 22:37 20.01.2020
4292 Clouds 13 1029 71 10000 4.1 70 22:19 20.01.2020
4293 Clouds 14 1029 67 10000 3.6 60 21:57 20.01.2020
4294 Clouds 14 1029 67 10000 3.6 60 21:37 20.01.2020
4295 Clouds 14 1029 67 10000 3.6 60 21:19 20.01.2020
4296 Clear 11 1018 75 0 1.16 53 20:55 20.01.2020
4297 Clear 11 1018 75 0 1.16 53 20:36 20.01.2020
4298 Clouds 12 1017 67 0 2.69 53 20:18 20.01.2020
4299 Clouds 12 1017 67 0 2.69 53 19:56 20.01.2020
4300 Clouds 12 1017 67 0 2.69 53 19:37 20.01.2020
4301 Clouds 12 1017 67 0 2.69 53 19:18 20.01.2020
4302 Clouds 12 1017 67 0 2.69 53 18:43 20.01.2020
4303 Clouds 12 1017 67 0 2.69 53 18:22 20.01.2020
4304 Clouds 12 1017 67 0 2.69 53 17:41 20.01.2020
4305 Clouds 16 1013 56 0 5.15 103 17:19 20.01.2020
4306 Clouds 16 1013 56 0 5.15 103 16:58 20.01.2020
4307 Clouds 16 1013 56 0 5.15 103 16:37 20.01.2020
4308 Clouds 21 1025 40 0 5.7 160 16:18 20.01.2020
4309 Clouds 21 1025 40 0 5.7 160 16:18 20.01.2020
4310 Clouds 21 1025 40 0 5.7 160 15:54 20.01.2020
4311 Clouds 21 1025 40 0 5.7 160 15:36 20.01.2020
4312 Clouds 21 1025 40 0 5.7 160 15:18 20.01.2020
4313 Clouds 22 1025 35 0 3.6 160 14:41 20.01.2020
4314 Clouds 22 1025 35 0 3.6 160 14:22 20.01.2020
4315 Clouds 22 1026 35 0 4.1 140 13:57 20.01.2020
4316 Clouds 22 1026 35 0 4.1 140 13:39 20.01.2020
4317 Clouds 22 1026 35 0 4.1 140 13:20 20.01.2020
4318 Clouds 22 1027 35 0 3.1 130 12:45 20.01.2020
4319 Clouds 22 1027 35 0 3.1 130 12:26 20.01.2020
4320 Clouds 20 1027 40 0 4.6 180 11:57 20.01.2020
4321 Clouds 20 1027 40 0 4.6 180 11:38 20.01.2020
4322 Clouds 20 1027 40 0 4.6 180 11:19 20.01.2020
4323 Clouds 19 1028 39 0 4.1 190 10:47 20.01.2020
4324 Clouds 19 1028 39 0 4.1 190 10:21 20.01.2020
4325 Clouds 19 1028 39 0 4.1 190 10:21 20.01.2020
4326 Clouds 19 1029 39 0 2.6 140 09:42 20.01.2020
4327 Clouds 19 1029 39 0 2.6 140 09:24 20.01.2020
4328 Clouds 16 1030 51 0 2.6 90 08:59 20.01.2020
4329 Clouds 16 1030 51 0 2.6 90 08:39 20.01.2020
4330 Clouds 16 1030 51 0 2.6 90 08:20 20.01.2020
4331 Clouds 14 1029 54 0 4.1 80 07:42 20.01.2020
4332 Clouds 14 1029 54 0 4.1 80 07:22 20.01.2020
4333 Clouds 12 1029 62 0 3.1 70 06:44 20.01.2020
4334 Clouds 12 1029 62 0 3.1 70 06:24 20.01.2020
4335 Clouds 14 1019 49 0 2.04 78 05:41 20.01.2020
4336 Clouds 9 1027 76 10000 1 340 05:20 20.01.2020
4337 Clouds 9 1027 76 10000 1 340 04:24 20.01.2020
4338 Clouds 9 1018 67 0 1.7 47 02:33 20.01.2020
4339 Clouds 11 1026 66 0 2.1 40 01:40 20.01.2020
4340 Clouds 11 1026 66 0 2.1 40 01:20 20.01.2020
4341 Clouds 11 1027 66 0 2.1 50 00:43 20.01.2020
4342 Clouds 12 1027 66 0 1.36 37 00:21 20.01.2020
4343 Clouds 12 1027 66 0 1.36 37 23:38 19.01.2020
4344 Clear 11 1018 55 0 1.05 20 23:19 19.01.2020
4345 Clear 11 1018 55 0 1.05 20 22:56 19.01.2020
4346 Clear 11 1018 55 0 1.05 20 22:37 19.01.2020
4347 Clear 13 1028 62 0 5.1 70 22:19 19.01.2020
4348 Clear 13 1028 62 0 5.1 70 21:56 19.01.2020
4349 Clear 13 1028 62 0 5.1 70 21:38 19.01.2020
4350 Clear 13 1028 62 0 5.1 70 21:38 19.01.2020
4351 Clear 14 1028 58 0 5.1 70 21:19 19.01.2020
4352 Clear 14 1028 58 0 5.1 70 20:57 19.01.2020
4353 Clear 14 1028 58 0 5.1 70 20:38 19.01.2020
4354 Clear 15 1028 54 10000 5.1 70 20:20 19.01.2020
4355 Clear 13 1017 50 0 2.81 51 19:55 19.01.2020
4356 Clear 13 1017 50 0 2.81 51 19:37 19.01.2020
4357 Clear 13 1017 50 0 2.81 51 19:37 19.01.2020
4358 Clear 13 1017 50 0 2.81 51 19:19 19.01.2020
4359 Clear 13 1017 50 0 2.81 51 19:19 19.01.2020
4360 Clear 13 1017 50 0 2.81 51 18:55 19.01.2020
4361 Clear 13 1017 50 0 2.81 51 18:37 19.01.2020
4362 Clear 13 1017 50 0 2.81 51 18:37 19.01.2020
4363 Clear 13 1017 50 0 2.81 51 18:19 19.01.2020
4364 Clear 13 1017 50 0 2.81 51 17:57 19.01.2020
4365 Clear 13 1017 50 0 2.81 51 17:57 19.01.2020
4366 Clear 13 1017 50 0 2.81 51 17:38 19.01.2020
4367 Clear 21 1025 32 0 5.1 150 17:20 19.01.2020
4368 Clear 21 1025 32 0 5.1 150 16:57 19.01.2020
4369 Clear 21 1025 32 0 5.1 150 16:37 19.01.2020
4370 Clear 17 1013 40 0 5.35 101 16:19 19.01.2020
4371 Clear 17 1013 40 0 5.35 101 15:57 19.01.2020
4372 Clear 17 1013 40 0 5.35 101 15:37 19.01.2020
4373 Clear 17 1013 40 0 5.35 101 15:19 19.01.2020
4374 Clear 17 1013 40 0 5.35 101 14:57 19.01.2020
4375 Clear 17 1013 40 0 5.35 101 14:37 19.01.2020
4376 Clear 24 1012 21 0 5.07 135 14:18 19.01.2020
4377 Clear 24 1012 21 0 5.07 135 13:54 19.01.2020
4378 Clear 24 1012 21 0 5.07 135 13:36 19.01.2020
4379 Clear 22 1026 24 0 4.1 160 13:18 19.01.2020
4380 Clear 22 1026 24 0 4.1 160 12:42 19.01.2020
4381 Clear 22 1026 24 0 4.1 160 12:23 19.01.2020
4382 Clear 22 1026 26 0 3.6 180 11:57 19.01.2020
4383 Clear 22 1026 26 0 3.6 180 11:39 19.01.2020
4384 Clear 22 1026 26 0 3.6 180 11:19 19.01.2020
4385 Clear 21 1027 28 0 2.1 180 10:55 19.01.2020
4386 Clear 21 1027 28 0 2.1 180 10:37 19.01.2020
4387 Clear 21 1027 28 0 2.1 180 10:18 19.01.2020
4388 Clear 19 1028 32 0 2.1 150 09:41 19.01.2020
4389 Clear 19 1028 32 0 2.1 150 09:23 19.01.2020
4390 Clear 16 1028 48 0 2.1 160 08:57 19.01.2020
4391 Clear 16 1028 48 0 2.1 160 08:38 19.01.2020
4392 Clear 16 1028 48 0 2.1 160 08:20 19.01.2020
4393 Clouds 15 1028 58 7000 2.1 110 07:40 19.01.2020
4394 Clouds 15 1028 58 7000 2.1 110 07:21 19.01.2020
4395 Clouds 16 1019 40 0 0.87 151 06:44 19.01.2020
4396 Clouds 10 1027 76 10000 2.1 10 04:41 19.01.2020
4397 Clouds 10 1025 76 10000 1.01 16 02:37 19.01.2020
4398 Clouds 10 1025 76 10000 1.25 358 02:19 19.01.2020
4399 Clouds 11 1026 71 10000 1.23 357 01:24 19.01.2020
4400 Clouds 11 1026 71 10000 1.23 357 00:45 19.01.2020
4401 Clouds 11 1026 71 10000 1.23 357 00:27 19.01.2020
4402 Clouds 13 1026 66 10000 5.1 50 23:55 18.01.2020
4403 Clouds 13 1026 66 10000 5.1 50 23:37 18.01.2020
4404 Clouds 13 1026 66 10000 5.1 50 23:18 18.01.2020
4405 Clouds 13 1027 66 10000 5.1 60 22:54 18.01.2020
4406 Clouds 13 1027 66 10000 5.1 60 22:36 18.01.2020
4407 Clouds 13 1027 66 10000 5.1 60 22:36 18.01.2020
4408 Clouds 13 1027 66 10000 5.1 60 22:18 18.01.2020
4409 Clouds 13 1028 66 10000 5.1 70 21:56 18.01.2020
4410 Clouds 13 1028 66 10000 5.1 70 21:36 18.01.2020
4411 Clouds 13 1028 66 10000 5.1 70 21:18 18.01.2020
4412 Clouds 14 1028 62 10000 6.2 70 20:42 18.01.2020
4413 Clouds 14 1028 62 10000 6.2 70 20:20 18.01.2020
4414 Clear 15 1027 58 0 6.2 70 19:55 18.01.2020
4415 Clear 15 1027 58 0 6.2 70 19:36 18.01.2020
4416 Clear 15 1027 58 0 6.2 70 19:18 18.01.2020
4417 Clouds 16 1027 51 10000 5.1 70 18:40 18.01.2020
4418 Clouds 16 1027 51 10000 5.1 70 18:21 18.01.2020
4419 Clouds 18 1026 42 10000 5.1 80 17:41 18.01.2020
4420 Clouds 18 1026 42 10000 5.1 80 17:21 18.01.2020
4421 Clouds 20 1025 37 10000 5.1 90 16:59 18.01.2020
4422 Clouds 20 1025 37 10000 5.1 90 16:41 18.01.2020
4423 Clouds 20 1025 37 10000 5.1 90 16:22 18.01.2020
4424 Clouds 20 1025 37 10000 5.1 90 16:22 18.01.2020
4425 Clouds 23 1024 28 10000 5.7 140 15:58 18.01.2020
4426 Clouds 23 1024 28 10000 5.7 140 15:40 18.01.2020
4427 Clouds 23 1024 28 10000 5.7 140 15:21 18.01.2020
4428 Clouds 23 1024 28 10000 5.7 140 14:44 18.01.2020
4429 Clouds 24 1024 27 10000 5.7 150 14:21 18.01.2020
4430 Clouds 24 1025 27 10000 4.6 130 13:59 18.01.2020
4431 Clouds 24 1025 27 10000 4.6 130 13:41 18.01.2020
4432 Clouds 24 1025 27 10000 4.6 130 13:20 18.01.2020
4433 Clouds 24 1025 27 10000 6.2 140 12:55 18.01.2020
4434 Clouds 24 1025 27 10000 6.2 140 12:36 18.01.2020
4435 Clouds 24 1025 27 10000 6.2 140 12:18 18.01.2020
4436 Clouds 23 1025 27 10000 7.2 180 11:43 18.01.2020
4437 Clouds 22 1027 30 10000 4.1 200 11:21 18.01.2020
4438 Clouds 22 1027 30 10000 4.1 200 10:45 18.01.2020
4439 Clouds 22 1027 30 10000 4.1 200 10:22 18.01.2020
4440 Clouds 21 1027 30 10000 4.1 200 09:59 18.01.2020
4441 Clouds 21 1027 30 10000 4.1 200 09:41 18.01.2020
4442 Clouds 21 1027 30 10000 4.1 200 09:19 18.01.2020
4443 Clouds 19 1028 34 10000 2.1 170 08:42 18.01.2020
4444 Clouds 19 1028 34 10000 2.1 170 08:20 18.01.2020
4445 Clouds 17 1028 39 10000 1 110 07:59 18.01.2020
4446 Clouds 17 1028 39 10000 1 110 07:40 18.01.2020
4447 Clouds 17 1028 39 10000 1 110 07:18 18.01.2020
4448 Clouds 13 1027 58 10000 1 290 06:44 18.01.2020
4449 Clear 16 1018 42 0 1.16 174 05:52 18.01.2020
4450 Clouds 10 1025 71 10000 2.1 330 04:25 18.01.2020
4451 Clouds 10 1025 71 10000 2.6 320 02:49 18.01.2020
4452 Clouds 10 1025 71 10000 1 350 01:40 18.01.2020
4453 Clouds 11 1025 66 10000 2.1 330 00:39 18.01.2020
4454 Clouds 11 1025 66 10000 2.1 330 00:20 18.01.2020
4455 Clouds 12 1026 66 10000 1 320 23:58 17.01.2020
4456 Clouds 12 1026 66 10000 1 320 23:39 17.01.2020
4457 Clouds 12 1026 66 10000 1 320 23:18 17.01.2020
4458 Clouds 13 1027 58 10000 1.5 350 22:42 17.01.2020
4459 Clouds 13 1027 58 10000 1.5 350 22:20 17.01.2020
4460 Clouds 13 1027 58 10000 1.5 350 22:20 17.01.2020
4461 Clouds 14 1027 58 10000 2.1 360 21:56 17.01.2020
4462 Clouds 14 1027 58 10000 2.1 360 21:38 17.01.2020
4463 Clouds 14 1027 58 10000 2.1 360 21:19 17.01.2020
4464 Clouds 12 1017 64 0 1.13 48 20:43 17.01.2020
4465 Clouds 16 1026 51 0 3.6 70 20:21 17.01.2020
4466 Clouds 16 1026 51 0 3.6 70 19:58 17.01.2020
4467 Clouds 16 1026 51 0 3.6 70 19:39 17.01.2020
4468 Clouds 16 1026 51 0 3.6 70 19:20 17.01.2020
4469 Clouds 17 1026 45 0 3.1 50 18:58 17.01.2020
4470 Clouds 17 1026 45 0 3.1 50 18:40 17.01.2020
4471 Clouds 17 1026 45 0 3.1 50 18:21 17.01.2020
4472 Clouds 19 1026 37 0 5.1 80 17:40 17.01.2020
4473 Clouds 19 1026 37 0 5.1 80 17:22 17.01.2020
4474 Clouds 21 1025 37 0 5.1 100 16:57 17.01.2020
4475 Clouds 21 1025 37 0 5.1 100 16:39 17.01.2020
4476 Clouds 21 1025 37 0 5.1 100 16:19 17.01.2020
4477 Clouds 24 1024 29 0 5.7 150 15:45 17.01.2020
4478 Clouds 24 1024 29 0 5.7 150 15:26 17.01.2020
4479 Clouds 24 1024 27 0 5.1 170 14:46 17.01.2020
4480 Clouds 24 1024 27 0 5.1 170 14:27 17.01.2020
4481 Clouds 24 1024 22 0 4.1 180 13:58 17.01.2020
4482 Clouds 24 1024 22 0 4.1 180 13:58 17.01.2020
4483 Clouds 24 1024 22 0 4.1 180 13:38 17.01.2020
4484 Clouds 24 1024 22 0 4.1 180 13:19 17.01.2020
4485 Clouds 26 1025 31 0 3.1 130 12:44 17.01.2020
4486 Clouds 26 1025 31 0 3.1 130 12:22 17.01.2020
4487 Clouds 25 1011 22 0 4.86 141 11:40 17.01.2020
4488 Clouds 21 1027 40 0 3.1 210 11:19 17.01.2020
4489 Clouds 21 1027 40 0 3.1 210 10:44 17.01.2020
4490 -273 0 0 0 0 0 10:23 17.01.2020
4491 Clouds 20 1029 37 0 4.1 190 09:58 17.01.2020
4492 Clouds 20 1029 37 0 4.1 190 09:40 17.01.2020
4493 Clouds 20 1029 37 0 4.1 190 09:20 17.01.2020
4494 Clouds 18 1029 45 0 2.1 160 08:46 17.01.2020
4495 Clouds 18 1029 45 0 2.1 160 08:25 17.01.2020
4496 Clear 18 1029 45 0 2.1 160 08:25 17.01.2020
4497 Haze 15 1029 51 9000 1 220 07:56 17.01.2020
4498 Haze 15 1029 51 9000 1 220 07:56 17.01.2020
4499 Haze 15 1029 51 9000 1 220 07:34 17.01.2020
4500 Haze 11 1028 62 9000 1 20 06:59 17.01.2020
4501 Haze 11 1028 62 9000 1 20 06:41 17.01.2020
4502 Clear 10 1028 76 0 3.1 330 05:57 17.01.2020
4503 Clear 9 1018 81 0 1.17 359 03:39 17.01.2020
4504 Clear 9 1018 81 0 1.17 359 02:55 17.01.2020
4505 Clouds 12 1027 66 0 3.1 340 01:48 17.01.2020
4506 Clouds 10 1017 80 0 1.2 15 01:29 17.01.2020
4507 Clouds 10 1017 80 0 1.2 15 00:55 17.01.2020
4508 Clouds 13 1028 76 0 4.1 60 00:28 17.01.2020
4509 Clouds 13 1028 76 0 4.1 60 23:46 16.01.2020
4510 Clouds 13 1028 76 0 4.1 60 23:26 16.01.2020
4511 Clouds 13 1028 71 0 4.1 80 22:58 16.01.2020
4512 Clouds 13 1028 71 0 4.1 80 22:40 16.01.2020
4513 Clouds 13 1028 71 0 4.1 80 22:21 16.01.2020
4514 Clouds 13 1028 76 0 5.1 70 21:55 16.01.2020
4515 Clouds 13 1028 76 0 5.1 70 21:37 16.01.2020
4516 Clouds 13 1028 76 0 5.1 70 21:18 16.01.2020
4517 Clouds 13 1028 76 0 5.1 70 21:18 16.01.2020
4518 Clouds 14 1028 76 10000 6.2 70 20:56 16.01.2020
4519 Clouds 14 1028 76 10000 6.2 70 20:36 16.01.2020
4520 Clouds 14 1028 76 10000 6.2 70 20:18 16.01.2020
4521 Clouds 14 1028 76 10000 6.2 70 20:18 16.01.2020
4522 Clouds 15 1028 72 10000 6.2 70 19:41 16.01.2020
4523 Clouds 15 1028 72 10000 6.2 70 19:23 16.01.2020
4524 Clouds 18 1027 52 0 5.1 70 18:58 16.01.2020
4525 Clouds 18 1027 52 0 5.1 70 18:39 16.01.2020
4526 Clouds 18 1027 52 0 5.1 70 18:21 16.01.2020
4527 Clouds 18 1027 52 0 5.1 70 17:59 16.01.2020
4528 Clouds 18 1027 52 0 5.1 70 17:41 16.01.2020
4529 Clouds 18 1027 52 0 5.1 70 17:41 16.01.2020
4530 Clouds 21 1026 43 10000 4.1 140 17:21 16.01.2020
4531 Clouds 21 1026 43 10000 4.1 140 16:56 16.01.2020
4532 Clouds 21 1026 43 10000 4.1 140 16:36 16.01.2020
4533 Clouds 17 1013 59 0 4.75 100 16:18 16.01.2020
4534 Clouds 17 1013 59 0 4.75 100 15:42 16.01.2020
4535 Clouds 23 1025 31 10000 4.1 150 15:21 16.01.2020
4536 Clouds 23 1025 31 10000 4.1 150 14:45 16.01.2020
4537 Clouds 23 1025 31 10000 4.1 150 14:24 16.01.2020
4538 Clouds 23 1025 31 10000 4.1 150 13:57 16.01.2020
4539 Clouds 23 1025 31 10000 4.1 150 13:39 16.01.2020
4540 Clouds 23 1025 31 10000 4.1 150 13:21 16.01.2020
4541 Clouds 23 1026 31 10000 4.1 120 12:45 16.01.2020
4542 Clouds 23 1026 31 10000 4.1 120 12:27 16.01.2020
4543 Clouds 23 1027 31 10000 2.6 140 11:55 16.01.2020
4544 Clouds 23 1027 31 10000 2.6 140 11:37 16.01.2020
4545 Clouds 23 1027 31 10000 2.6 140 11:19 16.01.2020
4546 Clouds 21 1027 32 10000 3.6 130 10:39 16.01.2020
4547 Clouds 21 1027 32 10000 3.6 130 10:20 16.01.2020
4548 Clouds 20 1028 34 10000 3.6 120 09:57 16.01.2020
4549 Clouds 20 1028 34 10000 3.6 120 09:38 16.01.2020
4550 Clouds 20 1028 34 10000 3.6 120 09:19 16.01.2020
4551 Clouds 17 1029 39 10000 3.6 110 08:51 16.01.2020
4552 Clouds 17 1029 39 10000 3.6 110 08:30 16.01.2020
4553 Clouds 15 1029 41 10000 3.6 110 07:58 16.01.2020
4554 Clouds 15 1029 41 10000 3.6 110 07:38 16.01.2020
4555 Clouds 15 1029 41 10000 3.6 110 07:19 16.01.2020
4556 Clouds 13 1028 58 10000 2.1 80 06:42 16.01.2020
4557 Clouds 12 1027 62 10000 2.1 310 05:59 16.01.2020
4558 Clouds 12 1027 62 10000 2.1 310 05:40 16.01.2020
4559 Clouds 11 1027 71 10000 2.6 310 04:37 16.01.2020
4560 Clouds 11 1027 71 10000 2.6 310 04:37 16.01.2020
4561 Clouds 12 1026 71 10000 1 250 03:28 16.01.2020
4562 Clouds 12 1025 71 10000 1 210 02:42 16.01.2020
4563 Clouds 13 1026 71 10000 5.1 50 00:53 16.01.2020
4564 Clouds 13 1026 71 10000 5.1 50 00:24 16.01.2020
4565 Clouds 13 1026 71 10000 5.1 50 23:50 15.01.2020
4566 Clouds 13 1026 71 10000 5.1 50 23:50 15.01.2020
4567 Clouds 14 1028 67 10000 6.7 60 23:23 15.01.2020
4568 Clouds 14 1028 67 10000 6.7 60 22:58 15.01.2020
4569 Clouds 14 1028 67 10000 6.7 60 22:40 15.01.2020
4570 Clouds 14 1028 67 10000 6.7 60 22:19 15.01.2020
4571 Clouds 14 1028 67 10000 6.7 60 22:19 15.01.2020
4572 Clear 9 1019 88 0 1.24 359 21:58 15.01.2020
4573 Clear 9 1019 88 0 1.24 359 21:38 15.01.2020
4574 Clouds 15 1029 62 10000 5.7 40 21:20 15.01.2020
4575 Clouds 15 1029 62 10000 5.7 40 20:58 15.01.2020
4576 Clouds 15 1029 62 10000 5.7 40 20:40 15.01.2020
4577 Clouds 15 1029 62 10000 5.7 40 20:20 15.01.2020
4578 Clouds 15 1029 62 10000 5.7 40 19:55 15.01.2020
4579 Clouds 15 1029 62 10000 5.7 40 19:37 15.01.2020
4580 Clear 15 1029 62 0 5.1 60 19:19 15.01.2020
4581 Clear 16 1028 51 0 5.1 80 18:57 15.01.2020
4582 Clear 16 1028 51 0 5.1 80 18:57 15.01.2020
4583 Clear 16 1028 51 0 5.1 80 18:38 15.01.2020
4584 Clear 16 1028 51 0 5.1 80 18:20 15.01.2020
4585 Clear 17 1027 48 0 5.1 90 17:58 15.01.2020
4586 Clear 17 1027 48 0 5.1 90 17:39 15.01.2020
4587 Clear 17 1027 48 0 5.1 90 17:20 15.01.2020
4588 Clouds 19 1026 37 10000 6.7 90 16:42 15.01.2020
4589 Clouds 19 1026 37 10000 6.7 90 16:23 15.01.2020
4590 Clouds 22 1026 33 10000 6.7 90 15:59 15.01.2020
4591 Clouds 22 1026 33 10000 6.7 90 15:41 15.01.2020
4592 Clouds 22 1026 33 10000 6.7 90 15:20 15.01.2020
4593 Clear 15 1014 53 0 6.01 92 14:44 15.01.2020
4594 Clouds 23 1025 31 10000 7.7 110 14:21 15.01.2020
4595 Clouds 23 1025 31 10000 7.7 110 13:56 15.01.2020
4596 Clouds 23 1025 31 10000 7.7 110 13:38 15.01.2020
4597 Clouds 23 1025 31 10000 7.7 110 13:19 15.01.2020
4598 Clear 20 1012 33 0 6.82 101 12:41 15.01.2020
4599 Clouds 20 1026 32 10000 7.2 110 12:20 15.01.2020
4600 Clouds 20 1026 32 10000 7.2 110 11:59 15.01.2020
4601 Clouds 20 1026 32 10000 7.2 110 11:38 15.01.2020
4602 Clouds 20 1026 32 10000 7.2 110 11:38 15.01.2020
4603 Clouds 20 1026 32 10000 7.2 110 11:19 15.01.2020
4604 Clouds 20 1026 32 10000 7.2 110 11:19 15.01.2020
4605 Clouds 20 1027 56 10000 4.1 100 10:47 15.01.2020
4606 Clouds 20 1027 56 10000 4.1 100 10:28 15.01.2020
4607 Clouds 16 1028 59 10000 2.1 120 09:57 15.01.2020
4608 Clouds 16 1028 59 10000 2.1 120 09:38 15.01.2020
4609 Clouds 16 1028 59 10000 2.1 120 09:19 15.01.2020
4610 Clouds 14 1029 62 10000 3.1 90 08:44 15.01.2020
4611 Clouds 14 1029 62 10000 3.1 90 08:24 15.01.2020
4612 Clouds 12 1029 76 10000 3.1 70 07:54 15.01.2020
4613 Clouds 12 1029 76 10000 3.1 70 07:33 15.01.2020
4614 Clouds 12 1028 71 10000 2.1 80 06:49 15.01.2020
4615 Clouds 12 1028 71 10000 2.1 80 06:26 15.01.2020
4616 Clouds 10 1027 81 10000 1.17 5 04:46 15.01.2020
4617 Clouds 10 1026 87 10000 3.1 30 02:40 15.01.2020
4618 Clouds 10 1026 87 10000 4.1 40 01:43 15.01.2020
4619 Clouds 10 1026 87 10000 4.1 40 01:20 15.01.2020
4620 Clouds 12 1026 62 10000 3.1 50 00:37 15.01.2020
4621 Clouds 12 1026 62 10000 3.1 50 00:19 15.01.2020
4622 Clouds 13 1027 71 10000 2.1 40 23:46 14.01.2020
4623 Clouds 13 1027 71 10000 2.1 40 23:24 14.01.2020
4624 Clear 10 1018 94 0 1.5 35 22:55 14.01.2020
4625 Clear 10 1018 94 0 1.5 35 22:36 14.01.2020
4626 Clouds 13 1028 71 10000 2.1 140 22:18 14.01.2020
4627 Clear 10 1018 94 0 1.5 35 21:55 14.01.2020
4628 Clear 10 1018 94 0 1.5 35 21:37 14.01.2020
4629 Clouds 14 1028 71 10000 4.1 90 21:19 14.01.2020
4630 Clouds 14 1028 71 10000 4.1 90 20:42 14.01.2020
4631 Clouds 15 1028 82 10000 5.1 60 20:22 14.01.2020
4632 Clouds 15 1028 82 10000 5.1 60 19:57 14.01.2020
4633 Clouds 15 1028 82 10000 5.1 60 19:38 14.01.2020
4634 Clouds 16 1027 67 10000 4.1 80 19:20 14.01.2020
4635 Clouds 16 1027 67 10000 4.1 80 18:58 14.01.2020
4636 Clouds 16 1027 67 10000 4.1 80 18:39 14.01.2020
4637 Clouds 17 1027 63 10000 5.1 80 18:19 14.01.2020
4638 Clouds 17 1027 63 10000 5.1 80 17:39 14.01.2020
4639 Clouds 17 1027 63 10000 5.1 80 17:19 14.01.2020
4640 Clouds 17 1026 67 10000 5.1 80 16:57 14.01.2020
4641 Clouds 17 1026 67 10000 5.1 80 16:38 14.01.2020
4642 Clouds 17 1026 67 10000 5.1 80 16:20 14.01.2020
4643 Clouds 17 1026 72 10000 4.1 100 15:54 14.01.2020
4644 Clouds 17 1026 72 10000 4.1 100 15:36 14.01.2020
4645 Clouds 17 1026 72 10000 4.1 100 15:18 14.01.2020
4646 Clouds 15 1014 74 0 4.22 92 14:41 14.01.2020
4647 Clouds 21 1025 46 10000 3.1 140 14:20 14.01.2020
4648 Clouds 21 1025 46 10000 3.1 140 13:42 14.01.2020
4649 Clouds 21 1025 46 10000 3.1 140 13:20 14.01.2020
4650 Clouds 20 1025 52 10000 5.1 170 12:57 14.01.2020
4651 Clouds 20 1025 52 10000 5.1 170 12:39 14.01.2020
4652 Clouds 20 1025 52 10000 5.1 170 12:20 14.01.2020
4653 Clouds 20 1025 52 10000 5.1 170 12:20 14.01.2020
4654 Clouds 19 1026 55 10000 5.1 160 11:42 14.01.2020
4655 Clouds 19 1026 55 10000 5.1 160 11:23 14.01.2020
4656 Clouds 19 1027 55 10000 4.6 160 10:58 14.01.2020
4657 Clouds 19 1027 55 10000 4.6 160 10:39 14.01.2020
4658 Clouds 19 1027 55 10000 4.6 160 10:19 14.01.2020
4659 Clouds 17 1028 59 10000 4.6 160 09:56 14.01.2020
4660 Clouds 17 1028 59 10000 4.6 160 09:38 14.01.2020
4661 Clouds 17 1028 59 10000 4.6 160 09:20 14.01.2020
4662 Clouds 16 1028 63 10000 2.6 150 08:42 14.01.2020
4663 Clouds 16 1028 63 10000 2.6 150 08:23 14.01.2020
4664 Clouds 14 1028 76 10000 3.1 120 07:53 14.01.2020
4665 Clouds 14 1028 76 10000 3.1 120 07:31 14.01.2020
4666 Clouds 13 1028 76 10000 3.1 50 06:50 14.01.2020
4667 Clouds 13 1028 76 10000 3.1 50 06:23 14.01.2020
4668 Clouds 13 1017 80 0 1.51 97 04:58 14.01.2020
4669 Clouds 13 1027 66 10000 2.6 80 03:48 14.01.2020
4670 Clouds 14 1027 62 10000 2.6 80 02:42 14.01.2020
4671 Clouds 14 1026 62 10000 3.6 60 01:35 14.01.2020
4672 Clouds 14 1027 62 10000 4.1 80 00:49 14.01.2020
4673 Clouds 14 1027 62 10000 4.1 80 00:28 14.01.2020
4674 Clouds 13 1016 83 0 1.95 101 23:48 13.01.2020
4675 Clouds 13 1017 87 0 3.69 87 23:20 13.01.2020
4676 Clouds 13 1017 87 0 3.69 87 22:59 13.01.2020
4677 Clouds 13 1017 87 0 3.69 87 22:40 13.01.2020
4678 Clouds 13 1017 87 0 3.69 87 22:20 13.01.2020
4679 Clouds 13 1017 87 0 3.69 87 21:56 13.01.2020
4680 Clouds 13 1017 87 0 3.69 87 21:37 13.01.2020
4681 Clouds 13 1017 87 0 3.69 87 21:18 13.01.2020
4682 Clouds 13 1017 87 0 3.69 87 20:57 13.01.2020
4683 Clouds 13 1017 87 0 3.69 87 20:57 13.01.2020
4684 Clouds 13 1017 87 0 3.69 87 20:38 13.01.2020
4685 Clouds 16 1027 55 10000 3.1 180 20:20 13.01.2020
4686 Clouds 16 1027 55 10000 3.1 180 19:56 13.01.2020
4687 Clouds 16 1027 55 10000 3.1 180 19:38 13.01.2020
4688 Clouds 16 1027 55 10000 3.1 180 19:18 13.01.2020
4689 Rain 12 1016 94 0 3.38 75 18:56 13.01.2020
4690 Rain 12 1016 94 0 3.38 75 18:37 13.01.2020
4691 Rain 12 1016 94 0 3.38 75 18:18 13.01.2020
4692 Rain 12 1016 94 0 3.38 75 17:40 13.01.2020
4693 Clouds 16 1013 72 0 4.11 95 17:21 13.01.2020
4694 Clouds 16 1013 72 0 4.11 95 16:56 13.01.2020
4695 Clouds 16 1013 72 0 4.11 95 16:37 13.01.2020
4696 Clouds 16 1013 72 0 4.11 95 16:18 13.01.2020
4697 Clouds 16 1013 72 0 4.11 95 15:43 13.01.2020
4698 Clouds 16 1013 72 0 4.11 95 15:22 13.01.2020
4699 Clouds 16 1013 72 0 4.11 95 15:22 13.01.2020
4700 Clouds 16 1013 72 0 4.11 95 14:57 13.01.2020
4701 Clouds 16 1013 72 0 4.11 95 14:37 13.01.2020
4702 Clouds 16 1013 72 0 4.11 95 14:37 13.01.2020
4703 Clouds 21 1012 44 0 3.92 123 14:18 13.01.2020
4704 Clouds 21 1012 44 0 3.92 123 13:41 13.01.2020
4705 Clouds 20 1012 47 0 4.35 126 13:23 13.01.2020
4706 Clouds 20 1012 47 0 4.35 126 12:58 13.01.2020
4707 Clouds 20 1012 47 0 4.35 126 12:40 13.01.2020
4708 Clouds 20 1026 56 10000 3.1 180 12:22 13.01.2020
4709 Clouds 20 1026 56 10000 3.1 180 11:56 13.01.2020
4710 Clouds 20 1026 56 10000 3.1 180 11:37 13.01.2020
4711 Clouds 20 1026 56 10000 3.1 180 11:18 13.01.2020
4712 Clouds 18 1028 63 10000 3.1 180 10:55 13.01.2020
4713 Clouds 18 1028 63 10000 3.1 180 10:36 13.01.2020
4714 Clouds 18 1028 63 10000 3.1 180 10:18 13.01.2020
4715 Clouds 18 1028 63 10000 3.1 180 10:18 13.01.2020
4716 Clouds 18 1016 52 0 2.98 122 09:42 13.01.2020
4717 Mist 15 1029 77 8000 2.1 170 09:23 13.01.2020
4718 Mist 15 1029 77 8000 2.1 170 08:44 13.01.2020
4719 Mist 15 1029 77 8000 2.1 170 08:22 13.01.2020
4720 Mist 14 1030 82 8000 2.1 160 07:59 13.01.2020
4721 Mist 14 1030 82 8000 2.1 160 07:59 13.01.2020
4722 Mist 14 1030 82 8000 2.1 160 07:40 13.01.2020
4723 Mist 14 1030 82 8000 2.1 160 07:18 13.01.2020
4724 Clouds 14 1029 76 8000 2.1 150 06:37 13.01.2020
4725 Clouds 12 1028 81 8000 2.1 160 05:36 13.01.2020
4726 Clouds 12 1027 76 10000 2.1 170 04:25 13.01.2020
4727 Clouds 12 1027 76 10000 2.35 87 03:34 13.01.2020
4728 Haze 12 1026 76 9000 6.2 90 02:49 13.01.2020
4729 Haze 12 1026 76 9000 6.2 90 02:29 13.01.2020
4730 Haze 12 1026 76 9000 6.2 90 02:29 13.01.2020
4731 Clouds 12 1026 76 10000 2.1 160 01:32 13.01.2020
4732 Clouds 12 1016 87 0 2.46 88 00:43 13.01.2020
4733 Clouds 15 1027 62 10000 1.5 160 00:24 13.01.2020
4734 Clouds 15 1027 62 10000 1.5 160 23:56 12.01.2020
4735 Clouds 15 1027 62 10000 1.5 160 23:37 12.01.2020
4736 Clouds 15 1027 62 10000 1.5 160 23:19 12.01.2020
4737 Clouds 15 1027 67 10000 1.5 220 22:42 12.01.2020
4738 Clouds 15 1027 67 10000 1.5 220 22:24 12.01.2020
4739 Clouds 14 1027 71 10000 1.5 230 21:57 12.01.2020
4740 Clouds 14 1027 71 10000 1.5 230 21:39 12.01.2020
4741 Clouds 14 1027 71 10000 1.5 230 21:39 12.01.2020
4742 Clouds 14 1027 71 10000 1.5 230 21:20 12.01.2020
4743 Clouds 14 1028 71 10000 2.1 80 20:57 12.01.2020
4744 Clouds 14 1028 71 10000 2.1 80 20:39 12.01.2020
4745 Clouds 14 1028 71 10000 2.1 80 20:20 12.01.2020
4746 Clouds 16 1027 63 10000 3.1 90 19:56 12.01.2020
4747 Clouds 16 1027 63 10000 3.1 90 19:38 12.01.2020
4748 Clouds 16 1027 63 10000 3.1 90 19:19 12.01.2020
4749 Clouds 17 1027 59 10000 4.1 160 18:57 12.01.2020
4750 Clouds 17 1027 59 10000 4.1 160 18:39 12.01.2020
4751 Clouds 17 1027 59 10000 4.1 160 18:21 12.01.2020
4752 Clouds 18 1025 55 10000 3.1 140 17:55 12.01.2020
4753 Clouds 18 1025 55 10000 3.1 140 17:37 12.01.2020
4754 Clouds 18 1025 55 10000 3.1 140 17:18 12.01.2020
4755 Clouds 19 1025 55 10000 5.1 140 16:54 12.01.2020
4756 Clouds 19 1025 55 10000 5.1 140 16:36 12.01.2020
4757 Clouds 19 1025 55 10000 5.1 140 16:18 12.01.2020
4758 Clouds 21 1024 46 10000 6.2 150 15:42 12.01.2020
4759 Clouds 21 1024 46 10000 6.2 150 15:23 12.01.2020
4760 Clouds 23 1024 38 10000 6.2 180 14:55 12.01.2020
4761 Clouds 23 1024 38 10000 6.2 180 14:36 12.01.2020
4762 Clouds 23 1024 38 10000 6.2 180 14:18 12.01.2020
4763 Clouds 23 1024 38 10000 4.1 160 13:42 12.01.2020
4764 Clouds 23 1024 38 10000 4.1 160 13:23 12.01.2020
4765 Clouds 22 1025 43 10000 4.1 130 12:58 12.01.2020
4766 Clouds 22 1025 43 10000 4.1 130 12:38 12.01.2020
4767 Clouds 22 1025 43 10000 4.1 130 12:19 12.01.2020
4768 Clouds 21 1012 41 0 4.61 135 11:55 12.01.2020
4769 Clouds 21 1012 41 0 4.61 135 11:36 12.01.2020
4770 Clouds 19 1027 48 10000 4.1 190 11:18 12.01.2020
4771 Clouds 19 1027 48 10000 4.1 190 10:41 12.01.2020
4772 Clouds 19 1027 48 10000 4.1 190 10:21 12.01.2020
4773 Clouds 19 1028 48 10000 5.1 180 09:55 12.01.2020
4774 Clouds 19 1028 48 10000 5.1 180 09:37 12.01.2020
4775 Clouds 19 1028 48 10000 5.1 180 09:18 12.01.2020
4776 Clouds 18 1029 59 10000 3.1 110 08:42 12.01.2020
4777 Clouds 18 1029 59 10000 3.1 110 08:19 12.01.2020
4778 Clouds 16 1029 67 10000 4.1 110 07:39 12.01.2020
4779 Clouds 16 1029 67 10000 4.1 110 07:21 12.01.2020
4780 Clouds 15 1029 67 10000 3.1 100 06:42 12.01.2020
4781 Clouds 15 1029 67 10000 3.1 100 06:18 12.01.2020
4782 Clouds 12 1027 87 10000 3.1 80 05:21 12.01.2020
4783 Clouds 12 1027 87 10000 3.1 80 03:45 12.01.2020
4784 Clouds 12 1017 93 0 1.97 114 02:59 12.01.2020
4785 Clouds 13 1026 87 10000 5.1 70 02:30 12.01.2020
4786 Clouds 13 1026 87 10000 5.1 70 01:42 12.01.2020
4787 Clouds 13 1026 87 10000 5.1 70 01:21 12.01.2020
4788 Rain 13 1016 87 0 3.64 86 00:40 12.01.2020
4789 Clouds 15 1027 54 10000 5.1 70 00:19 12.01.2020
4790 Rain 13 1016 87 0 3.64 86 23:42 11.01.2020
4791 Rain 12 1016 94 0 3.13 71 23:19 11.01.2020
4792 Rain 12 1016 94 0 3.13 71 22:57 11.01.2020
4793 Rain 12 1016 94 0 3.13 71 22:39 11.01.2020
4794 Rain 12 1016 94 0 3.13 71 22:20 11.01.2020
4795 Rain 12 1016 94 0 3.13 71 21:55 11.01.2020
4796 Rain 12 1016 94 0 3.13 71 21:37 11.01.2020
4797 Clouds 17 1028 51 10000 5.1 70 21:18 11.01.2020
4798 Clouds 17 1028 51 10000 5.1 70 20:40 11.01.2020
4799 Clouds 17 1028 51 10000 5.1 70 20:22 11.01.2020
4800 Rain 14 1015 90 0 2.63 70 19:58 11.01.2020
4801 Rain 14 1015 90 0 2.63 70 19:38 11.01.2020
4802 Rain 14 1015 90 0 2.63 70 19:38 11.01.2020
4803 Clouds 18 1026 45 10000 5.1 80 19:20 11.01.2020
4804 Clouds 18 1026 45 10000 5.1 80 18:57 11.01.2020
4805 Clouds 18 1026 45 10000 5.1 80 18:37 11.01.2020
4806 Clouds 18 1026 45 10000 5.1 80 18:19 11.01.2020
4807 Clouds 18 1026 45 10000 5.1 80 18:19 11.01.2020
4808 Rain 14 1015 90 0 2.63 70 17:57 11.01.2020
4809 Rain 14 1015 90 0 2.63 70 17:39 11.01.2020
4810 Clouds 22 1024 35 10000 5.1 150 17:19 11.01.2020
4811 Clouds 22 1024 35 10000 5.1 150 16:44 11.01.2020
4812 Clouds 22 1024 35 10000 5.1 150 16:25 11.01.2020
4813 Clouds 24 1024 33 10000 5.1 180 15:57 11.01.2020
4814 Clouds 24 1024 33 10000 5.1 180 15:39 11.01.2020
4815 Clouds 24 1024 33 10000 5.1 180 15:20 11.01.2020
4816 Clouds 24 1024 33 10000 5.1 180 15:20 11.01.2020
4817 Clouds 25 1023 31 10000 4.1 140 14:49 11.01.2020
4818 Clouds 25 1023 31 10000 4.1 140 14:26 11.01.2020
4819 Clouds 24 1023 33 10000 4.1 180 13:59 11.01.2020
4820 Clouds 24 1023 33 10000 4.1 180 13:38 11.01.2020
4821 Clouds 24 1023 33 10000 4.1 180 13:20 11.01.2020
4822 Clouds 20 1024 49 10000 3.6 190 12:56 11.01.2020
4823 Clouds 20 1024 49 10000 3.6 190 12:38 11.01.2020
4824 Clouds 20 1024 49 10000 3.6 190 12:20 11.01.2020
4825 Clouds 21 1025 46 10000 3.1 130 11:45 11.01.2020
4826 Clouds 21 1025 46 10000 3.1 130 11:24 11.01.2020
4827 Clouds 21 1026 46 10000 3.6 180 10:50 11.01.2020
4828 Clouds 21 1026 46 10000 3.6 180 10:30 11.01.2020
4829 Clouds 20 1027 49 10000 3.6 150 09:44 11.01.2020
4830 Clouds 20 1027 49 10000 3.6 150 09:21 11.01.2020
4831 Clouds 20 1027 49 10000 3.6 150 09:21 11.01.2020
4832 Clouds 20 1027 49 10000 3.6 150 09:21 11.01.2020
4833 Clouds 20 1027 49 10000 3.6 150 09:21 11.01.2020
4834 Clouds 18 1028 52 10000 2.1 110 08:59 11.01.2020
4835 Clouds 18 1028 52 10000 2.1 110 08:41 11.01.2020
4836 Clouds 18 1028 52 10000 2.1 110 08:20 11.01.2020
4837 Clouds 16 1028 59 10000 2.6 60 07:43 11.01.2020
4838 Clouds 16 1028 59 10000 2.6 60 07:24 11.01.2020
4839 Clouds 14 1028 67 10000 3.6 60 06:45 11.01.2020
4840 Clouds 13 1027 76 10000 5.1 70 05:31 11.01.2020
4841 Clouds 13 1026 71 10000 2.1 90 04:43 11.01.2020
4842 Clouds 13 1026 71 10000 2.1 90 04:25 11.01.2020
4843 Clouds 14 1026 67 10000 3.6 80 02:48 11.01.2020
4844 Clouds 14 1026 67 10000 3.6 80 01:48 11.01.2020
4845 Clouds 16 1026 59 10000 4.6 70 01:30 11.01.2020
4846 Rain 12 1014 85 0 1.03 111 00:58 11.01.2020
4847 Clouds 18 1026 52 10000 4.1 70 00:29 11.01.2020
4848 Clouds 18 1026 52 10000 4.1 70 23:59 10.01.2020
4849 Clouds 18 1026 52 10000 4.1 70 23:39 10.01.2020
4850 Clouds 18 1026 52 10000 4.1 70 23:20 10.01.2020
4851 Clouds 18 1026 52 10000 4.1 70 22:54 10.01.2020
4852 Clouds 18 1026 52 10000 4.1 70 22:36 10.01.2020
4853 Clouds 13 1016 80 0 1.72 74 22:18 10.01.2020
4854 Clouds 13 1016 80 0 1.72 74 21:41 10.01.2020
4855 Clouds 19 1027 45 10000 4.1 80 21:21 10.01.2020
4856 Clouds 19 1027 45 10000 4.1 80 21:00 10.01.2020
4857 Clouds 19 1027 45 10000 4.1 80 20:41 10.01.2020
4858 Clouds 19 1027 45 10000 4.1 80 20:23 10.01.2020
4859 Clouds 15 1014 69 0 2.77 64 19:42 10.01.2020
4860 Clouds 20 1026 45 10000 5.1 70 19:21 10.01.2020
4861 Clouds 20 1026 45 10000 5.1 70 18:58 10.01.2020
4862 Clouds 20 1026 45 10000 5.1 70 18:40 10.01.2020
4863 Clouds 20 1026 45 10000 5.1 70 18:18 10.01.2020
4864 Clouds 15 1014 69 0 2.77 64 17:57 10.01.2020
4865 Clouds 15 1014 69 0 2.77 64 17:38 10.01.2020
4866 Clouds 20 1012 45 0 5.37 109 17:20 10.01.2020
4867 Clouds 20 1012 45 0 5.37 109 16:55 10.01.2020
4868 Clouds 20 1012 45 0 5.37 109 16:36 10.01.2020
4869 Clouds 23 1024 33 10000 2.6 180 16:18 10.01.2020
4870 Clouds 23 1024 33 10000 2.6 180 15:55 10.01.2020
4871 Clouds 23 1024 33 10000 2.6 180 15:36 10.01.2020
4872 Clouds 23 1024 33 10000 2.6 180 15:18 10.01.2020
4873 Clouds 23 1024 33 10000 2.6 180 14:42 10.01.2020
4874 Clouds 24 1024 31 10000 3.1 150 14:20 10.01.2020
4875 Clouds 25 1024 31 10000 3.1 220 13:58 10.01.2020
4876 Clouds 25 1024 31 10000 3.1 220 13:58 10.01.2020
4877 Clouds 25 1024 31 10000 3.1 220 13:40 10.01.2020
4878 Clouds 25 1024 31 10000 3.1 220 13:22 10.01.2020
4879 Clouds 25 1025 31 10000 3.1 210 12:57 10.01.2020
4880 Clouds 25 1025 31 10000 3.1 210 12:38 10.01.2020
4881 Clouds 25 1025 31 10000 3.1 210 12:18 10.01.2020
4882 Clear 24 1026 33 0 3.1 150 11:54 10.01.2020
4883 Clear 24 1026 33 0 3.1 150 11:36 10.01.2020
4884 Clear 24 1026 33 0 3.1 150 11:18 10.01.2020
4885 Clear 23 1027 38 0 1.5 170 10:39 10.01.2020
4886 Clear 23 1027 38 0 1.5 170 10:21 10.01.2020
4887 Clear 21 1027 40 0 3.1 110 09:56 10.01.2020
4888 Clear 21 1027 40 0 3.1 110 09:37 10.01.2020
4889 Clear 21 1027 40 0 3.1 110 09:19 10.01.2020
4890 Clear 19 1028 48 0 2.1 120 08:41 10.01.2020
4891 Clear 19 1028 48 0 2.1 120 08:22 10.01.2020
4892 Clear 16 1028 51 0 2.1 120 07:44 10.01.2020
4893 Clouds 12 1028 71 10000 1 40 07:24 10.01.2020
4894 Clouds 12 1028 71 10000 1 40 06:45 10.01.2020
4895 Clouds 12 1028 71 10000 1 40 06:25 10.01.2020
4896 Clouds 11 1027 76 10000 3.1 310 05:48 10.01.2020
4897 Clear 10 1017 79 0 1.4 3 03:37 10.01.2020
4898 Clouds 12 1025 66 10000 3.1 80 03:18 10.01.2020
4899 Clouds 12 1025 66 10000 3.1 80 02:47 10.01.2020
4900 Clouds 12 1025 66 10000 3.1 80 01:38 10.01.2020
4901 Clouds 12 1025 66 10000 3.1 80 01:19 10.01.2020
4902 Clear 11 1015 76 0 1.49 12 00:39 10.01.2020
4903 Clear 11 1015 76 0 1.49 12 23:58 09.01.2020
4904 Clear 11 1015 76 0 1.49 12 23:38 09.01.2020
4905 Clouds 14 1026 62 10000 3.1 90 23:20 09.01.2020
4906 Clouds 14 1026 62 10000 3.1 90 22:57 09.01.2020
4907 Clouds 14 1026 62 10000 3.1 90 22:39 09.01.2020
4908 Clouds 14 1026 62 10000 3.1 90 22:19 09.01.2020
4909 Clouds 15 1026 58 10000 2.1 130 21:57 09.01.2020
4910 Clouds 15 1026 58 10000 2.1 130 21:37 09.01.2020
4911 Clouds 15 1026 58 10000 2.1 130 21:37 09.01.2020
4912 Clouds 15 1026 58 10000 2.1 130 21:19 09.01.2020
4913 Clouds 16 1027 48 10000 2.1 100 20:57 09.01.2020
4914 Clouds 16 1027 48 10000 2.1 100 20:39 09.01.2020
4915 Clouds 16 1027 48 10000 2.1 100 20:19 09.01.2020
4916 Clouds 16 1027 48 10000 2.1 100 20:19 09.01.2020
4917 Clouds 16 1027 48 10000 3.1 100 19:56 09.01.2020
4918 Clear 14 1014 68 0 2.72 62 19:37 09.01.2020
4919 Clouds 17 1026 42 10000 5.1 60 19:19 09.01.2020
4920 Clouds 17 1026 42 10000 5.1 60 18:55 09.01.2020
4921 Clouds 17 1026 42 10000 5.1 60 18:36 09.01.2020
4922 Clouds 17 1026 42 10000 5.1 60 18:18 09.01.2020
4923 Clouds 19 1025 39 10000 5.1 90 17:41 09.01.2020
4924 Clouds 19 1025 39 10000 5.1 90 17:18 09.01.2020
4925 Clouds 19 1025 39 10000 5.1 90 16:48 09.01.2020
4926 Clouds 21 1024 32 10000 6.2 90 16:23 09.01.2020
4927 Clouds 21 1024 32 10000 6.2 90 15:57 09.01.2020
4928 Clouds 21 1024 32 10000 6.2 90 15:57 09.01.2020
4929 Clouds 24 1024 27 10000 4.1 120 15:39 09.01.2020
4930 Clouds 24 1024 27 10000 4.1 120 15:18 09.01.2020
4931 Clouds 24 1024 31 10000 3.1 120 14:42 09.01.2020
4932 Clouds 24 1024 31 10000 3.1 120 14:22 09.01.2020
4933 Clouds 25 1024 29 10000 3.1 120 13:57 09.01.2020
4934 Clouds 25 1024 29 10000 3.1 120 13:39 09.01.2020
4935 Clouds 25 1024 29 10000 3.1 120 13:20 09.01.2020
4936 Clouds 23 1025 40 10000 4.1 100 12:58 09.01.2020
4937 Clouds 23 1025 40 10000 4.1 100 12:58 09.01.2020
4938 Clouds 23 1025 40 10000 4.1 100 12:39 09.01.2020
4939 Clouds 23 1025 40 10000 4.1 100 12:19 09.01.2020
4940 Clouds 23 1025 40 10000 4.1 100 11:56 09.01.2020
4941 Clouds 22 1026 43 10000 3.6 110 11:37 09.01.2020
4942 Clouds 22 1026 43 10000 3.6 110 11:19 09.01.2020
4943 Clouds 21 1027 46 10000 3.6 110 10:43 09.01.2020
4944 Clouds 21 1027 46 10000 3.6 110 10:22 09.01.2020
4945 Clouds 21 1027 46 10000 3.6 110 09:55 09.01.2020
4946 Clouds 19 1028 52 10000 4.6 110 09:37 09.01.2020
4947 Clouds 19 1028 52 10000 4.6 110 09:18 09.01.2020
4948 Clouds 19 1028 52 10000 4.6 110 08:54 09.01.2020
4949 Clouds 18 1029 59 0 4.1 90 08:36 09.01.2020
4950 Clouds 18 1029 59 0 4.1 90 08:18 09.01.2020
4951 Clouds 16 1029 59 0 4.1 100 07:41 09.01.2020
4952 Clouds 16 1029 59 0 4.1 100 07:23 09.01.2020
4953 Clouds 15 1029 58 0 1.5 110 06:38 09.01.2020
4954 Clouds 15 1029 58 0 1.5 110 06:18 09.01.2020
4955 Clouds 12 1028 71 0 2.6 300 05:43 09.01.2020
4956 Clouds 10 1018 72 0 2.36 25 04:42 09.01.2020
4957 Clouds 13 1027 66 0 3.1 60 03:28 09.01.2020
4958 Clouds 14 1027 67 10000 6.7 60 02:48 09.01.2020
4959 Clouds 14 1027 67 10000 6.7 60 01:56 09.01.2020
4960 Clouds 14 1027 67 10000 6.7 60 01:34 09.01.2020
4961 Clouds 14 1028 67 0 5.1 70 00:40 09.01.2020
4962 Clouds 14 1028 67 0 5.1 70 00:20 09.01.2020
4963 Clouds 15 1028 62 10000 6.2 60 23:41 08.01.2020
4964 Clouds 15 1028 62 10000 6.2 60 23:23 08.01.2020
4965 Clouds 12 1018 59 0 2.01 28 22:58 08.01.2020
4966 Clouds 12 1018 59 0 2.01 28 22:38 08.01.2020
4967 Clouds 12 1018 59 0 2.01 28 22:20 08.01.2020
4968 Clouds 12 1018 59 0 2.01 28 21:56 08.01.2020
4969 Clouds 12 1018 59 0 2.01 28 21:56 08.01.2020
4970 Clouds 12 1018 59 0 2.01 28 21:37 08.01.2020
4971 Clouds 12 1018 59 0 2.01 28 21:18 08.01.2020
4972 Clouds 12 1018 59 0 2.01 28 20:56 08.01.2020
4973 Clouds 12 1018 59 0 2.01 28 20:37 08.01.2020
4974 Clouds 16 1028 55 10000 5.1 40 20:19 08.01.2020
4975 Clouds 16 1028 55 10000 5.1 40 19:39 08.01.2020
4976 Clouds 16 1028 55 10000 5.1 40 19:21 08.01.2020
4977 Clouds 13 1017 52 0 3.79 65 18:59 08.01.2020
4978 Clouds 13 1017 52 0 3.79 65 18:40 08.01.2020
4979 Clouds 13 1017 52 0 3.79 65 18:19 08.01.2020
4980 Clouds 13 1017 52 0 3.79 65 18:19 08.01.2020
4981 Clouds 13 1017 52 0 3.79 65 17:59 08.01.2020
4982 Clouds 13 1017 52 0 3.79 65 17:40 08.01.2020
4983 Clouds 19 1026 52 10000 5.7 90 17:22 08.01.2020
4984 Clouds 19 1026 52 10000 5.7 90 16:57 08.01.2020
4985 Clouds 19 1026 52 10000 5.7 90 16:38 08.01.2020
4986 Clouds 19 1026 52 10000 5.7 90 16:19 08.01.2020
4987 Clouds 19 1026 55 10000 8.2 100 15:55 08.01.2020
4988 Clouds 19 1026 55 10000 8.2 100 15:37 08.01.2020
4989 Clouds 19 1026 55 10000 8.2 100 15:18 08.01.2020
4990 Clouds 21 1025 46 10000 6.2 100 14:40 08.01.2020
4991 Clouds 21 1025 46 10000 6.2 100 14:21 08.01.2020
4992 Clouds 23 1025 38 10000 5.1 140 13:42 08.01.2020
4993 Clouds 23 1025 38 10000 5.1 140 13:24 08.01.2020
4994 Clouds 20 1012 38 0 6.83 96 12:59 08.01.2020
4995 Clouds 20 1012 38 0 6.83 96 12:40 08.01.2020
4996 Clouds 21 1026 40 10000 4.1 130 12:18 08.01.2020
4997 Clouds 21 1026 40 10000 4.1 130 11:48 08.01.2020
4998 Clouds 21 1026 40 10000 4.1 130 11:20 08.01.2020
4999 Clouds 20 1027 42 10000 4.1 80 10:59 08.01.2020
5000 Clouds 20 1027 42 10000 4.1 80 10:41 08.01.2020
5001 Clouds 20 1027 42 10000 4.1 80 10:21 08.01.2020
5002 Clouds 19 1028 45 10000 9.3 70 09:57 08.01.2020
5003 Clouds 19 1028 45 10000 9.3 70 09:36 08.01.2020
5004 Clouds 19 1028 45 10000 9.3 70 09:18 08.01.2020
5005 Clouds 18 1029 48 10000 7.2 90 08:41 08.01.2020
5006 Clouds 18 1029 48 10000 7.2 90 08:22 08.01.2020
5007 Clouds 17 1029 55 10000 6.2 90 07:59 08.01.2020
5008 Clouds 17 1029 55 10000 6.2 90 07:40 08.01.2020
5009 Clouds 17 1029 55 10000 6.2 90 07:19 08.01.2020
5010 Clouds 14 1029 67 10000 6.2 70 06:42 08.01.2020
5011 Clouds 15 1019 65 0 3.07 98 05:56 08.01.2020
5012 Clouds 15 1019 65 0 3.07 98 05:26 08.01.2020
5013 Clouds 10 1018 88 0 1.79 1 04:37 08.01.2020
5014 Clouds 12 1027 58 10000 6.2 70 02:46 08.01.2020
5015 Clouds 12 1027 58 10000 6.2 70 02:28 08.01.2020
5016 Clouds 12 1027 58 10000 4.1 70 01:57 08.01.2020
5017 Clouds 12 1027 58 10000 4.1 70 01:32 08.01.2020
5018 Clouds 10 1017 88 0 1.95 12 00:51 08.01.2020
5019 Clouds 10 1017 88 0 1.95 12 00:23 08.01.2020
5020 Clouds 10 1017 88 0 1.95 12 23:46 07.01.2020
5021 Clouds 11 1018 94 0 2.05 41 23:21 07.01.2020
5022 Clouds 11 1018 94 0 2.05 41 22:56 07.01.2020
5023 Clouds 11 1018 94 0 2.05 41 22:37 07.01.2020
5024 Clouds 11 1018 94 0 2.05 41 22:18 07.01.2020
5025 Clouds 11 1018 94 0 2.05 41 21:42 07.01.2020
5026 Clouds 11 1018 94 0 2.05 41 21:22 07.01.2020
5027 Clouds 11 1018 94 0 2.05 41 20:58 07.01.2020
5028 Clouds 11 1018 94 0 2.05 41 20:40 07.01.2020
5029 Clouds 13 1017 92 0 3.14 70 20:21 07.01.2020
5030 Clouds 13 1017 90 0 3.28 70 19:57 07.01.2020
5031 Clouds 13 1017 90 0 3.28 70 19:37 07.01.2020
5032 Clouds 13 1017 90 0 3.28 70 19:19 07.01.2020
5033 Clouds 13 1017 90 0 3.28 70 18:56 07.01.2020
5034 Clouds 13 1017 90 0 3.28 70 18:38 07.01.2020
5035 Clouds 13 1017 90 0 3.28 70 18:18 07.01.2020
5036 Clouds 13 1017 90 0 3.28 70 17:42 07.01.2020
5037 Clouds 16 1014 65 0 6.6 91 17:23 07.01.2020
5038 Clouds 13 1017 90 0 3.28 70 17:23 07.01.2020
5039 Clouds 16 1014 65 0 6.6 91 16:58 07.01.2020
5040 Clouds 16 1014 65 0 6.6 91 16:39 07.01.2020
5041 Clouds 16 1014 65 0 6.6 91 16:20 07.01.2020
5042 Clouds 16 1014 65 0 6.6 91 15:59 07.01.2020
5043 Clouds 16 1014 65 0 6.6 91 15:41 07.01.2020
5044 Clouds 16 1014 65 0 6.6 91 15:23 07.01.2020
5045 Clouds 16 1014 65 0 6.6 91 14:57 07.01.2020
5046 Clouds 16 1014 65 0 6.6 91 14:37 07.01.2020
5047 Clouds 21 1012 47 0 6.7 98 14:19 07.01.2020
5048 Clouds 21 1012 47 0 6.7 98 14:19 07.01.2020
5049 Clouds 21 1012 47 0 6.7 98 13:40 07.01.2020
5050 Clouds 21 1012 51 0 7.14 97 13:20 07.01.2020
5051 Clouds 21 1012 51 0 7.14 97 12:54 07.01.2020
5052 Clouds 21 1012 51 0 7.14 97 12:36 07.01.2020
5053 Clouds 21 1012 51 0 7.14 97 12:18 07.01.2020
5054 Clouds 21 1012 51 0 7.14 97 11:41 07.01.2020
5055 Clear 21 1016 41 0 4.59 95 11:21 07.01.2020
5056 Clear 21 1016 41 0 4.59 95 10:43 07.01.2020
5057 Clear 21 1016 41 0 4.59 95 10:43 07.01.2020
5058 Clear 21 1016 41 0 4.59 95 10:24 07.01.2020
5059 Clear 21 1016 41 0 4.59 95 09:59 07.01.2020
5060 Clear 21 1016 41 0 4.59 95 09:38 07.01.2020
5061 Clear 21 1016 41 0 4.59 95 09:20 07.01.2020
5062 Clear 21 1016 41 0 4.59 95 08:47 07.01.2020
5063 Clear 21 1016 41 0 4.59 95 08:27 07.01.2020
5064 Clouds 15 1018 72 0 2.73 83 07:55 07.01.2020
5065 Clouds 15 1018 72 0 2.73 83 07:34 07.01.2020
5066 Clouds 15 1018 72 0 2.73 83 06:54 07.01.2020
5067 Clouds 15 1018 72 0 2.73 83 06:35 07.01.2020
5068 Clouds 15 1018 72 0 2.73 83 05:58 07.01.2020
5069 Clouds 15 1018 72 0 2.73 83 05:39 07.01.2020
5070 Clouds 11 1027 87 10000 4.1 130 03:44 07.01.2020
5071 Clouds 11 1027 87 10000 1.5 100 02:38 07.01.2020
5072 Clouds 12 1027 87 10000 1 120 01:59 07.01.2020
5073 Clouds 12 1027 87 10000 1 120 01:35 07.01.2020
5074 Clouds 12 1027 87 10000 2.1 100 00:51 07.01.2020
5075 Clouds 12 1027 87 10000 2.1 100 00:20 07.01.2020
5076 Clouds 12 1027 87 10000 2.1 100 23:56 06.01.2020
5077 Clouds 12 1028 87 10000 3.1 80 23:37 06.01.2020
5078 Clouds 12 1028 87 10000 3.1 80 23:18 06.01.2020
5079 Clouds 12 1028 87 10000 3.1 80 22:43 06.01.2020
5080 Clouds 13 1028 82 10000 5.1 90 22:24 06.01.2020
5081 Clouds 13 1028 82 10000 5.1 90 21:58 06.01.2020
5082 Clouds 14 1028 76 10000 3.1 80 21:39 06.01.2020
5083 Clouds 14 1028 76 10000 3.1 80 21:20 06.01.2020
5084 Clouds 14 1028 76 10000 3.1 80 21:20 06.01.2020
5085 Clouds 14 1028 76 10000 3.1 80 21:20 06.01.2020
5086 Clouds 14 1028 76 10000 3.1 80 20:57 06.01.2020
5087 Clouds 14 1028 76 10000 4.1 80 20:38 06.01.2020
5088 Clouds 14 1028 76 10000 4.1 80 20:20 06.01.2020
5089 Clouds 14 1028 76 10000 4.1 80 19:56 06.01.2020
5090 Clouds 15 1028 77 10000 5.1 60 19:38 06.01.2020
5091 Clouds 15 1028 77 10000 5.1 60 19:20 06.01.2020
5092 Clouds 15 1028 77 10000 5.1 60 18:48 06.01.2020
5093 Clouds 15 1027 67 10000 5.1 70 18:22 06.01.2020
5094 Clouds 15 1027 67 10000 5.1 70 17:59 06.01.2020
5095 Clouds 17 1026 59 10000 6.2 80 17:38 06.01.2020
5096 Clouds 17 1026 59 10000 6.2 80 17:18 06.01.2020
5097 Clouds 17 1026 59 10000 6.2 80 16:44 06.01.2020
5098 Clouds 19 1025 52 10000 5.1 90 16:25 06.01.2020
5099 Clouds 19 1025 52 10000 5.1 90 16:25 06.01.2020
5100 Clouds 19 1025 52 10000 5.1 90 15:59 06.01.2020
5101 Clear 21 1025 43 10000 5.1 100 15:39 06.01.2020
5102 Clear 21 1025 43 10000 5.1 100 15:19 06.01.2020
5103 Clouds 24 1024 33 10000 7.2 140 14:58 06.01.2020
5104 Clouds 24 1024 33 10000 7.2 140 14:39 06.01.2020
5105 Clouds 24 1024 33 10000 7.2 140 14:19 06.01.2020
5106 Clouds 24 1024 33 10000 7.2 140 13:54 06.01.2020
5107 Clouds 24 1024 33 10000 4.71 117 13:36 06.01.2020
5108 Clouds 24 1024 33 10000 4.71 117 13:18 06.01.2020
5109 Clouds 23 1025 40 10000 3.1 120 12:41 06.01.2020
5110 Clouds 23 1025 40 10000 3.1 120 12:20 06.01.2020
5111 Clouds 23 1025 40 10000 3.1 120 11:57 06.01.2020
5112 Clouds 22 1026 43 10000 4.6 100 11:38 06.01.2020
5113 Clouds 22 1026 43 10000 4.6 100 11:38 06.01.2020
5114 Clouds 22 1026 43 10000 4.6 100 11:20 06.01.2020
5115 Clouds 22 1026 43 10000 4.6 100 10:43 06.01.2020
5116 Clouds 21 1027 46 10000 3.6 120 10:25 06.01.2020
5117 Clouds 20 1015 46 0 4.56 107 09:57 06.01.2020
5118 Clouds 20 1015 46 0 4.56 107 09:37 06.01.2020
5119 Clouds 16 1029 67 10000 4.6 90 09:19 06.01.2020
5120 Clouds 16 1029 67 10000 4.6 90 08:42 06.01.2020
5121 Clouds 16 1029 67 10000 4.6 90 08:23 06.01.2020
5122 Clouds 15 1029 72 10000 4.6 60 07:48 06.01.2020
5123 Clouds 15 1029 72 10000 4.6 60 07:21 06.01.2020
5124 Clouds 15 1018 68 0 2.78 99 06:44 06.01.2020
5125 Clouds 15 1018 68 0 2.78 99 05:52 06.01.2020
5126 Clouds 15 1018 68 0 2.78 99 05:33 06.01.2020
5127 Clouds 12 1027 76 10000 3.6 70 04:26 06.01.2020
5128 Clouds 12 1026 76 10000 3.6 70 03:57 06.01.2020
5129 Clouds 11 1017 83 0 0.67 44 02:40 06.01.2020
5130 Clouds 12 1026 76 10000 2.6 90 02:20 06.01.2020
5131 Clouds 12 1026 76 10000 2.6 90 01:41 06.01.2020
5132 Clouds 12 1026 76 10000 2.6 90 01:20 06.01.2020
5133 Clouds 11 1016 81 0 1.4 25 00:40 06.01.2020
5134 Clouds 11 1016 81 0 1.4 25 00:19 06.01.2020
5135 Clouds 11 1016 81 0 1.4 25 23:41 05.01.2020
5136 Clouds 14 1027 71 10000 3.1 90 23:21 05.01.2020
5137 Clouds 14 1027 71 10000 3.1 90 22:55 05.01.2020
5138 Clouds 14 1027 71 10000 3.1 90 22:37 05.01.2020
5139 Clouds 14 1027 71 10000 3.1 90 22:18 05.01.2020
5140 Clouds 15 1027 72 10000 2.6 100 21:41 05.01.2020
5141 Clouds 15 1027 72 10000 2.6 100 21:21 05.01.2020
5142 Clear 12 1016 75 0 1.98 45 20:58 05.01.2020
5143 Clear 12 1016 75 0 1.98 45 20:39 05.01.2020
5144 Clouds 16 1027 67 10000 4.1 50 20:20 05.01.2020
5145 Clouds 16 1027 67 10000 4.1 50 20:20 05.01.2020
5146 Clouds 16 1027 67 10000 4.1 50 19:59 05.01.2020
5147 Clouds 16 1027 67 10000 4.1 50 19:40 05.01.2020
5148 Clouds 16 1027 67 10000 4.1 50 19:21 05.01.2020
5149 Clear 14 1015 68 0 3.05 73 18:56 05.01.2020
5150 Clear 14 1015 68 0 3.05 73 18:38 05.01.2020
5151 Clear 14 1015 68 0 3.05 73 18:19 05.01.2020
5152 Clear 14 1015 68 0 3.05 73 17:59 05.01.2020
5153 Clear 14 1015 68 0 3.05 73 17:39 05.01.2020
5154 Clear 14 1015 68 0 3.05 73 17:39 05.01.2020
5155 Clear 17 1011 54 0 4.97 103 17:20 05.01.2020
5156 Clear 17 1011 54 0 4.97 103 16:57 05.01.2020
5157 Clear 17 1011 54 0 4.97 103 16:39 05.01.2020
5158 Clouds 24 1023 38 10000 4.6 140 16:20 05.01.2020
5159 Clouds 24 1023 38 10000 4.6 140 15:40 05.01.2020
5160 Clouds 24 1023 38 10000 4.6 140 15:21 05.01.2020
5161 Clouds 24 1023 38 10000 4.6 140 14:57 05.01.2020
5162 Clouds 25 1023 33 10000 3.6 170 14:38 05.01.2020
5163 Clouds 25 1023 33 10000 3.6 170 14:20 05.01.2020
5164 Clouds 25 1023 33 10000 3.6 170 13:57 05.01.2020
5165 Clouds 25 1023 33 10000 4.1 160 13:38 05.01.2020
5166 Clouds 25 1023 33 10000 4.1 160 13:38 05.01.2020
5167 Clouds 25 1023 33 10000 4.1 160 13:19 05.01.2020
5168 Clear 25 1024 31 0 3.1 180 12:56 05.01.2020
5169 Clear 25 1024 31 0 3.1 180 12:56 05.01.2020
5170 Clear 25 1024 31 0 3.1 180 12:37 05.01.2020
5171 Clear 25 1024 31 0 3.1 180 12:19 05.01.2020
5172 Clear 25 1024 31 0 3.1 180 11:44 05.01.2020
5173 Clear 23 1026 38 0 3.1 150 11:20 05.01.2020
5174 Clear 21 1014 38 0 3.86 107 11:00 05.01.2020
5175 Clear 21 1014 38 0 3.86 107 10:40 05.01.2020
5176 Clear 21 1014 38 0 3.86 107 10:20 05.01.2020
5177 Clear 21 1014 38 0 3.86 107 09:42 05.01.2020
5178 Clear 19 1028 52 0 2.6 150 09:22 05.01.2020
5179 Clear 19 1028 52 0 2.6 150 08:54 05.01.2020
5180 Clear 19 1028 52 0 2.6 150 08:35 05.01.2020
5181 Clouds 16 1028 63 10000 2.1 190 07:59 05.01.2020
5182 Clouds 16 1028 63 10000 2.1 190 07:39 05.01.2020
5183 Clouds 16 1028 63 10000 2.1 190 07:21 05.01.2020
5184 Clouds 16 1028 63 10000 2.1 190 06:47 05.01.2020
5185 Clouds 11 1027 76 10000 1 20 05:39 05.01.2020
5186 Clouds 11 1026 76 10000 2.1 330 04:56 05.01.2020
5187 Clouds 11 1026 76 10000 2.1 330 04:18 05.01.2020
5188 Clouds 10 1016 82 0 1.45 351 03:26 05.01.2020
5189 Clouds 13 1026 66 10000 2.1 340 02:32 05.01.2020
5190 Clouds 13 1026 66 10000 2.1 340 01:49 05.01.2020
5191 Clouds 13 1026 66 10000 2.1 340 01:20 05.01.2020
5192 Clouds 14 1026 67 10000 3.1 80 00:57 05.01.2020
5193 Clouds 14 1026 67 10000 3.1 80 00:57 05.01.2020
5194 Clouds 14 1026 67 10000 3.1 80 00:39 05.01.2020
5195 Clouds 14 1026 67 10000 3.1 80 00:19 05.01.2020
5196 Clouds 11 1015 84 0 1.22 19 23:41 04.01.2020
5197 Clouds 15 1027 58 10000 2.1 130 23:20 04.01.2020
5198 Clouds 15 1027 58 10000 2.1 130 22:56 04.01.2020
5199 Clouds 15 1027 58 10000 2.1 130 22:38 04.01.2020
5200 Clouds 15 1027 58 10000 2.1 130 22:20 04.01.2020
5201 Clouds 16 1027 55 10000 4.1 70 21:55 04.01.2020
5202 Clouds 16 1027 55 10000 4.1 70 21:36 04.01.2020
5203 Clouds 16 1027 55 10000 4.1 70 21:18 04.01.2020
5204 Clouds 16 1028 55 10000 3.1 50 20:41 04.01.2020
5205 -273 0 0 0 0 0 20:22 04.01.2020
5206 Clouds 16 1028 67 10000 4.1 60 19:57 04.01.2020
5207 Clouds 13 1016 69 0 3.06 72 19:39 04.01.2020
5208 Clouds 13 1016 69 0 3.06 72 19:21 04.01.2020
5209 Clouds 13 1016 69 0 3.06 72 18:57 04.01.2020
5210 Clouds 13 1016 69 0 3.06 72 18:38 04.01.2020
5211 Clouds 13 1016 69 0 3.06 72 18:19 04.01.2020
5212 Clouds 13 1016 69 0 3.06 72 17:42 04.01.2020
5213 Clouds 13 1016 69 0 3.06 72 17:42 04.01.2020
5214 Clouds 21 1026 40 10000 5.1 90 17:24 04.01.2020
5215 Clouds 21 1026 40 10000 5.1 90 16:59 04.01.2020
5216 Clouds 17 1013 56 0 5.4 98 16:40 04.01.2020
5217 Clouds 21 1025 40 10000 4.6 100 16:22 04.01.2020
5218 Clouds 21 1025 40 10000 4.6 100 15:56 04.01.2020
5219 Clouds 21 1025 40 10000 4.6 100 15:38 04.01.2020
5220 Clouds 21 1025 40 10000 4.6 100 15:19 04.01.2020
5221 Clouds 21 1025 40 10000 4.6 100 14:54 04.01.2020
5222 Clouds 22 1024 40 10000 5.1 160 14:36 04.01.2020
5223 Clouds 22 1024 40 10000 5.1 160 14:18 04.01.2020
5224 Clouds 21 1012 44 0 4.76 89 13:39 04.01.2020
5225 Clouds 21 1012 44 0 4.76 89 13:39 04.01.2020
5226 Clouds 21 1012 42 0 5 93 13:20 04.01.2020
5227 Clouds 21 1012 42 0 5 93 12:59 04.01.2020
5228 Clouds 21 1012 42 0 5 93 12:40 04.01.2020
5229 Clouds 21 1012 42 0 5 93 12:40 04.01.2020
5230 Clouds 21 1012 42 0 5 93 12:19 04.01.2020
5231 Clouds 21 1012 42 0 5 93 11:57 04.01.2020
5232 Clouds 21 1012 42 0 5 93 11:38 04.01.2020
5233 Clouds 21 1028 43 10000 5.1 120 11:18 04.01.2020
5234 Clouds 21 1028 43 10000 5.1 120 10:41 04.01.2020
5235 Clouds 21 1028 43 10000 5.1 120 10:22 04.01.2020
5236 Clouds 21 1028 43 10000 5.1 120 09:50 04.01.2020
5237 Clouds 19 1029 42 10000 5.1 90 09:26 04.01.2020
5238 Clouds 19 1029 42 10000 5.1 90 09:26 04.01.2020
5239 Clouds 19 1029 42 10000 5.1 80 08:57 04.01.2020
5240 Clouds 19 1029 42 10000 5.1 80 08:37 04.01.2020
5241 Clouds 19 1029 42 10000 5.1 80 08:19 04.01.2020
5242 Clouds 17 1029 51 10000 5.1 80 07:42 04.01.2020
5243 Clouds 14 1029 62 10000 3.1 70 06:49 04.01.2020
5244 Clouds 14 1029 62 10000 3.1 70 05:59 04.01.2020
5245 Clouds 12 1028 71 10000 3.1 100 05:18 04.01.2020
5246 Clouds 12 1028 71 10000 3.1 40 04:32 04.01.2020
5247 Clear 10 1018 84 0 2.04 26 03:39 04.01.2020
5248 Clear 10 1018 84 0 2.04 26 03:18 04.01.2020
5249 Clouds 14 1027 67 10000 2.6 80 02:20 04.01.2020
5250 Clouds 14 1027 67 10000 2.6 80 01:53 04.01.2020
5251 Clouds 14 1027 67 10000 2.6 80 01:30 04.01.2020
5252 Clouds 14 1028 67 10000 2.1 110 00:30 04.01.2020
5253 Clouds 14 1028 67 10000 2.1 110 23:59 03.01.2020
5254 Clear 10 1017 82 0 1.49 22 23:38 03.01.2020
5255 Clouds 15 1029 62 10000 2.1 80 23:20 03.01.2020
5256 Clouds 15 1029 62 10000 2.1 80 22:41 03.01.2020
5257 Clouds 15 1029 62 10000 2.1 80 22:20 03.01.2020
5258 Clouds 15 1029 62 10000 2.1 80 21:58 03.01.2020
5259 Clouds 15 1029 62 10000 3.1 80 21:38 03.01.2020
5260 Clouds 15 1029 62 10000 3.1 80 21:19 03.01.2020
5261 Clouds 15 1029 62 10000 3.1 80 20:57 03.01.2020
5262 Clouds 15 1029 62 10000 2.1 110 20:39 03.01.2020
5263 Clouds 15 1029 62 10000 2.1 110 20:18 03.01.2020
5264 Clouds 15 1029 62 10000 2.1 110 19:55 03.01.2020
5265 Clouds 15 1029 62 10000 4.1 70 19:37 03.01.2020
5266 Clouds 15 1029 62 10000 4.1 70 19:18 03.01.2020
5267 Clouds 17 1028 63 10000 5.1 70 18:41 03.01.2020
5268 Clouds 17 1028 63 10000 5.1 70 18:23 03.01.2020
5269 Clouds 17 1028 63 10000 5.1 70 17:55 03.01.2020
5270 Clouds 18 1027 55 10000 5.1 80 17:36 03.01.2020
5271 Clouds 18 1027 55 10000 5.1 80 17:36 03.01.2020
5272 Clouds 18 1027 55 10000 5.1 80 17:18 03.01.2020
5273 Clouds 19 1027 52 10000 7.2 100 16:42 03.01.2020
5274 Clouds 19 1027 52 10000 7.2 100 16:22 03.01.2020
5275 Clouds 20 1026 45 10000 6.2 90 15:43 03.01.2020
5276 Clouds 20 1026 45 10000 6.2 90 15:19 03.01.2020
5277 Clouds 21 1026 43 10000 4.6 100 14:57 03.01.2020
5278 Clouds 21 1026 43 10000 4.6 100 14:37 03.01.2020
5279 Clouds 21 1026 43 10000 4.6 100 14:19 03.01.2020
5280 Clouds 22 1026 43 10000 5.1 100 13:43 03.01.2020
5281 Clouds 22 1026 43 10000 5.1 100 13:23 03.01.2020
5282 Clouds 22 1026 43 10000 5.1 100 12:57 03.01.2020
5283 Clear 22 1013 39 0 5.42 94 12:38 03.01.2020
5284 Clouds 21 1028 46 10000 5.1 110 12:20 03.01.2020
5285 Clouds 21 1028 46 10000 5.1 110 11:44 03.01.2020
5286 Clouds 21 1028 46 10000 5.1 110 11:19 03.01.2020
5287 Clouds 19 1030 48 10000 5.1 110 10:44 03.01.2020
5288 Clouds 19 1030 48 10000 5.1 110 10:25 03.01.2020
5289 Clouds 19 1030 48 10000 5.1 110 09:57 03.01.2020
5290 Clouds 19 1030 48 10000 5.1 110 09:39 03.01.2020
5291 Clouds 19 1030 48 10000 5.1 110 09:21 03.01.2020
5292 Clouds 18 1031 63 10000 4.1 100 08:56 03.01.2020
5293 Clouds 18 1031 63 10000 4.1 100 08:36 03.01.2020
5294 Clouds 18 1031 63 10000 4.1 100 08:18 03.01.2020
5295 Clouds 16 1031 72 10000 4.1 120 07:39 03.01.2020
5296 Clouds 16 1031 72 10000 4.1 120 07:18 03.01.2020
5297 Rain 16 1020 64 0 4.36 83 06:43 03.01.2020
5298 Clouds 13 1029 76 10000 1 150 06:24 03.01.2020
5299 Clouds 13 1029 76 10000 1 150 05:28 03.01.2020
5300 Clear 11 1019 90 0 1.03 57 03:55 03.01.2020
5301 Clear 11 1019 90 0 1.03 57 02:55 03.01.2020
5302 Clouds 11 1016 90 0 1.34 37 01:57 03.01.2020
5303 Clouds 11 1016 90 0 1.34 37 01:38 03.01.2020
5304 Clouds 13 1017 83 0 1.41 64 00:46 03.01.2020
5305 Clouds 13 1017 83 0 1.41 64 00:26 03.01.2020
5306 Clouds 13 1017 83 0 1.41 64 23:55 02.01.2020
5307 Clouds 13 1017 83 0 1.41 64 23:37 02.01.2020
5308 Clear 12 1018 86 0 3 58 23:18 02.01.2020
5309 Clear 12 1018 86 0 3 58 22:44 02.01.2020
5310 Clouds 15 1029 72 10000 4.1 70 22:20 02.01.2020
5311 Clear 12 1018 86 0 3 58 21:57 02.01.2020
5312 Clear 12 1018 86 0 3 58 21:38 02.01.2020
5313 Clear 12 1018 86 0 3 58 21:38 02.01.2020
5314 Clear 12 1018 86 0 3 58 21:20 02.01.2020
5315 Clear 12 1018 86 0 3 58 20:57 02.01.2020
5316 Clear 12 1018 86 0 3 58 20:38 02.01.2020
5317 Clouds 17 1029 63 10000 5.1 70 20:20 02.01.2020
5318 Clouds 17 1029 63 10000 5.1 70 20:20 02.01.2020
5319 Clouds 17 1029 63 10000 5.1 70 19:55 02.01.2020
5320 Clouds 17 1029 63 10000 5.1 70 19:36 02.01.2020
5321 Clouds 17 1029 63 10000 5.1 70 19:18 02.01.2020
5322 Clouds 18 1028 59 10000 6.2 70 18:54 02.01.2020
5323 Clouds 18 1028 59 10000 6.2 70 18:36 02.01.2020
5324 Clouds 18 1028 59 10000 6.2 70 18:18 02.01.2020
5325 Clouds 19 1027 55 10000 6.2 80 17:55 02.01.2020
5326 Clouds 19 1027 55 10000 6.2 80 17:36 02.01.2020
5327 Clouds 19 1027 55 10000 6.2 80 17:18 02.01.2020
5328 Clouds 20 1027 52 10000 4.1 80 16:42 02.01.2020
5329 Clouds 20 1027 52 10000 4.1 80 16:21 02.01.2020
5330 Clouds 22 1026 40 10000 7.2 110 15:58 02.01.2020
5331 Clouds 22 1026 40 10000 7.2 110 15:40 02.01.2020
5332 Clouds 22 1026 40 10000 7.2 110 15:40 02.01.2020
5333 Clouds 22 1026 40 10000 7.2 110 15:22 02.01.2020
5334 Clouds 23 1026 53 10000 5.1 100 14:57 02.01.2020
5335 Clear 17 1014 62 0 7.06 95 14:37 02.01.2020
5336 Clouds 23 1026 49 10000 6.2 70 14:18 02.01.2020
5337 Clouds 23 1026 49 10000 6.2 70 13:51 02.01.2020
5338 Clouds 23 1026 49 10000 6.2 70 13:32 02.01.2020
5339 Clear 22 1013 41 0 6.23 100 12:47 02.01.2020
5340 Clouds 21 1028 46 10000 6.2 90 12:28 02.01.2020
5341 Clouds 21 1028 46 10000 6.2 90 11:59 02.01.2020
5342 Clouds 21 1028 46 10000 6.2 90 11:41 02.01.2020
5343 Clouds 21 1028 46 10000 6.2 90 11:20 02.01.2020
5344 Clouds 21 1028 46 10000 6.2 90 10:45 02.01.2020
5345 Clouds 21 1028 46 10000 6.2 110 10:26 02.01.2020
5346 Clouds 21 1028 46 10000 6.2 110 09:55 02.01.2020
5347 Clouds 19 1029 45 10000 6.2 80 09:34 02.01.2020
5348 Clouds 19 1029 45 10000 6.2 80 08:50 02.01.2020
5349 Clouds 19 1029 45 10000 6.2 80 08:28 02.01.2020
5350 Clouds 17 1030 45 10000 5.1 70 07:57 02.01.2020
5351 Clouds 17 1030 45 10000 5.1 70 07:31 02.01.2020
5352 Clouds 16 1018 66 0 3.6 96 06:57 02.01.2020
5353 Clouds 16 1018 66 0 3.6 96 06:57 02.01.2020
5354 Clouds 16 1018 66 0 3.6 96 06:57 02.01.2020
5355 Clouds 16 1018 66 0 3.6 96 06:39 02.01.2020
5356 Clouds 14 1028 62 10000 3.1 70 05:37 02.01.2020
5357 Clouds 10 1027 87 10000 1 10 04:34 02.01.2020
5358 Clouds 10 1026 87 10000 1 60 03:19 02.01.2020
5359 Clouds 11 1026 87 10000 2.6 30 02:20 02.01.2020
5360 Clouds 11 1026 87 10000 1 360 01:47 02.01.2020
5361 Clouds 11 1026 87 10000 1 360 01:19 02.01.2020
5362 Clouds 13 1027 66 10000 3.1 350 00:36 02.01.2020
5363 Clouds 13 1027 66 10000 3.1 350 00:18 02.01.2020
5364 Clouds 11 1016 88 0 1.93 27 23:40 01.01.2020
5365 Clear 12 1017 87 0 2.34 47 23:20 01.01.2020
5366 Clear 12 1017 87 0 2.34 47 22:38 01.01.2020
5367 Clear 12 1017 87 0 2.34 47 22:20 01.01.2020
5368 Clear 12 1017 87 0 2.34 47 22:20 01.01.2020
5369 Clear 12 1017 87 0 2.34 47 21:56 01.01.2020
5370 Clear 12 1017 87 0 2.34 47 21:38 01.01.2020
5371 Clear 12 1017 87 0 2.34 47 21:38 01.01.2020
5372 Clear 12 1017 87 0 2.34 47 21:19 01.01.2020
5373 Clear 12 1017 87 0 2.34 47 20:56 01.01.2020
5374 Clear 12 1017 87 0 2.34 47 20:56 01.01.2020
5375 Clear 12 1017 87 0 2.34 47 20:38 01.01.2020
5376 Clear 12 1017 87 0 2.34 47 20:38 01.01.2020
5377 Clouds 13 1017 83 0 3.11 61 20:19 01.01.2020
5378 Clouds 13 1017 82 0 3.07 60 19:55 01.01.2020
5379 Clouds 13 1017 82 0 3.07 60 19:55 01.01.2020
5380 Clouds 13 1017 82 0 3.07 60 19:55 01.01.2020
5381 Clouds 13 1017 82 0 3.07 60 19:37 01.01.2020
5382 Clouds 13 1017 82 0 3.07 60 19:37 01.01.2020
5383 Clouds 13 1017 82 0 3.07 60 19:19 01.01.2020
5384 Clouds 13 1017 82 0 3.07 60 18:55 01.01.2020
5385 Clouds 13 1017 82 0 3.07 60 18:36 01.01.2020
5386 Clouds 13 1017 82 0 3.07 60 18:18 01.01.2020
5387 Clouds 13 1017 82 0 3.07 60 17:56 01.01.2020
5388 Clouds 13 1017 82 0 3.07 60 17:38 01.01.2020
5389 Clouds 17 1014 58 0 5.09 94 17:18 01.01.2020
5390 Clouds 17 1014 58 0 5.09 94 16:41 01.01.2020
5391 Clouds 17 1014 58 0 5.09 94 16:22 01.01.2020
5392 Clouds 17 1014 58 0 5.09 94 15:58 01.01.2020
5393 Clouds 17 1014 58 0 5.09 94 15:40 01.01.2020
5394 Clouds 22 1025 37 10000 4.1 110 15:21 01.01.2020
5395 Clouds 22 1025 37 10000 4.1 110 14:59 01.01.2020
5396 Clouds 22 1025 37 10000 4.1 110 14:40 01.01.2020
5397 Clouds 22 1025 37 10000 4.1 110 14:21 01.01.2020
5398 Clear 21 1012 38 0 5.78 105 13:56 01.01.2020
5399 Clear 21 1012 38 0 5.78 105 13:37 01.01.2020
5400 Clear 21 1012 38 0 5.78 105 13:37 01.01.2020
5401 Clear 21 1012 37 0 5.72 103 13:37 01.01.2020
5402 Clear 21 1012 37 0 5.72 103 13:37 01.01.2020
5403 Clear 21 1012 37 0 5.72 103 13:18 01.01.2020
5404 Clear 21 1012 37 0 5.72 103 12:56 01.01.2020
5405 Clear 21 1012 37 0 5.72 103 12:56 01.01.2020
5406 Clear 21 1012 37 0 5.72 103 12:38 01.01.2020
5407 Clear 21 1012 37 0 5.72 103 12:18 01.01.2020
5408 Clear 21 1012 37 0 5.72 103 11:43 01.01.2020
5409 Clouds 21 1027 40 10000 4.1 110 11:23 01.01.2020
5410 Clouds 21 1027 40 10000 4.1 110 10:59 01.01.2020
5411 Clouds 21 1027 40 10000 4.1 110 10:41 01.01.2020
5412 Clouds 21 1027 40 10000 4.1 110 10:20 01.01.2020
5413 Clouds 21 1027 40 10000 4.1 110 09:57 01.01.2020
5414 Clouds 19 1028 42 10000 4.1 90 09:37 01.01.2020
5415 Clouds 19 1028 42 10000 4.1 90 09:18 01.01.2020
5416 Clouds 18 1029 45 10000 4.1 80 08:55 01.01.2020
5417 Clouds 18 1029 45 10000 4.1 80 08:36 01.01.2020
5418 Clouds 18 1029 45 10000 4.1 80 08:36 01.01.2020
5419 Clouds 18 1029 45 10000 4.1 80 08:18 01.01.2020
5420 Clouds 15 1029 51 10000 4.1 100 07:51 01.01.2020
5421 Clouds 15 1029 51 10000 4.1 100 07:32 01.01.2020
5422 Clear 14 1028 62 0 3.1 70 06:44 01.01.2020
5423 Clear 14 1028 62 0 3.1 70 06:20 01.01.2020
5424 Clear 11 1027 76 0 3.6 60 05:21 01.01.2020
5425 Clear 10 1017 79 0 1.72 16 03:43 01.01.2020
5426 Clear 12 1025 71 0 1 350 03:22 01.01.2020
5427 Clear 12 1025 71 0 1 350 02:57 01.01.2020
5428 Clear 12 1025 71 0 1 350 02:34 01.01.2020
5429 Clear 10 1016 78 0 2.09 15 01:55 01.01.2020
5430 Clear 10 1016 78 0 2.09 15 01:36 01.01.2020
5431 Clear 13 1026 66 0 5.1 60 01:18 01.01.2020
5432 Clear 13 1026 66 0 5.1 60 00:44 01.01.2020
5433 Clear 13 1026 66 0 5.1 60 00:24 01.01.2020
5434 Clouds 13 1027 66 10000 4.1 80 23:41 31.12.2019
5435 Clouds 13 1027 66 10000 4.1 80 23:21 31.12.2019
5436 Clouds 14 1027 67 10000 7.2 60 22:57 31.12.2019
5437 Clouds 14 1027 67 10000 7.2 60 22:38 31.12.2019
5438 Clouds 14 1027 67 10000 7.2 60 22:19 31.12.2019
5439 Clouds 14 1027 67 10000 7.2 60 21:57 31.12.2019
5440 Clouds 14 1028 67 10000 3.1 60 21:37 31.12.2019
5441 Clouds 14 1028 67 10000 3.1 60 21:19 31.12.2019
5442 Clouds 14 1028 67 10000 3.1 60 20:54 31.12.2019
5443 Clouds 14 1028 67 10000 5.1 50 20:36 31.12.2019
5444 Clouds 14 1028 67 10000 5.1 50 20:18 31.12.2019
5445 Clouds 15 1028 58 10000 5.1 50 19:41 31.12.2019
5446 Clouds 15 1028 58 10000 5.1 50 19:22 31.12.2019
5447 Clouds 16 1028 55 10000 4.1 40 18:59 31.12.2019
5448 Clouds 16 1028 55 10000 4.1 40 18:40 31.12.2019
5449 Clouds 16 1028 55 10000 4.1 40 18:20 31.12.2019
5450 Clouds 18 1027 45 10000 6.2 60 17:56 31.12.2019
5451 Clouds 18 1027 45 10000 6.2 60 17:38 31.12.2019
5452 Clouds 18 1027 45 10000 6.2 60 17:19 31.12.2019
5453 Clouds 18 1027 45 10000 6.2 60 16:57 31.12.2019
5454 Clouds 21 1027 37 10000 7.2 90 16:38 31.12.2019
5455 Clouds 21 1027 37 10000 7.2 90 16:19 31.12.2019
5456 Clouds 21 1027 37 10000 7.2 90 15:56 31.12.2019
5457 Clear 16 1014 52 0 5.18 90 15:38 31.12.2019
5458 Clouds 23 1026 31 10000 5.7 70 15:20 31.12.2019
5459 Clouds 23 1026 31 10000 5.7 70 14:58 31.12.2019
5460 Clouds 23 1026 31 10000 5.7 70 14:38 31.12.2019
5461 Clouds 23 1026 31 10000 5.7 70 14:19 31.12.2019
5462 Clouds 23 1026 31 10000 5.7 70 13:57 31.12.2019
5463 Clouds 21 1012 35 0 6.13 98 13:39 31.12.2019
5464 Clouds 21 1013 38 0 6.15 98 13:21 31.12.2019
5465 Clouds 21 1013 38 0 6.15 98 13:21 31.12.2019
5466 Clouds 21 1013 38 0 6.15 98 12:58 31.12.2019
5467 Clouds 21 1013 38 0 6.15 98 12:39 31.12.2019
5468 Clouds 21 1013 38 0 6.15 98 12:20 31.12.2019
5469 Clouds 21 1013 38 0 6.15 98 11:56 31.12.2019
5470 Clouds 21 1013 38 0 6.15 98 11:38 31.12.2019
5471 Clouds 22 1028 37 0 6.2 100 11:20 31.12.2019
5472 Clouds 22 1028 37 0 6.2 100 10:57 31.12.2019
5473 Clouds 22 1028 37 0 6.2 100 10:57 31.12.2019
5474 Clouds 22 1028 37 0 6.2 100 10:38 31.12.2019
5475 Clouds 22 1028 37 0 6.2 100 10:20 31.12.2019
5476 Clouds 21 1029 40 0 5.7 100 09:58 31.12.2019
5477 Clouds 21 1029 40 0 5.7 100 09:39 31.12.2019
5478 Clouds 21 1029 40 0 5.7 100 09:20 31.12.2019
5479 Clouds 20 1017 41 0 5.49 97 08:57 31.12.2019
5480 Clouds 20 1017 41 0 5.49 97 08:37 31.12.2019
5481 Clouds 15 1019 56 0 4.08 87 08:19 31.12.2019
5482 Clouds 15 1019 56 0 4.08 87 07:42 31.12.2019
5483 Clouds 15 1019 56 0 4.08 87 07:20 31.12.2019
5484 Clouds 15 1019 56 0 4.08 87 06:49 31.12.2019
5485 Clouds 11 1028 87 10000 2.1 70 05:57 31.12.2019
5486 Clouds 9 1018 80 0 1.87 30 04:28 31.12.2019
5487 Clouds 9 1018 80 0 1.87 30 03:27 31.12.2019
5488 Clouds 9 1018 80 0 1.87 30 02:54 31.12.2019
5489 Clear 10 1016 79 0 2 16 01:55 31.12.2019
5490 Clear 10 1016 79 0 2 16 01:35 31.12.2019
5491 Clear 10 1016 80 0 1.91 16 00:59 31.12.2019
5492 Clear 10 1016 80 0 1.91 16 00:41 31.12.2019
5493 Clear 10 1016 80 0 1.91 16 00:21 31.12.2019
5494 Clear 10 1016 80 0 1.91 16 23:56 30.12.2019
5495 Clear 10 1016 80 0 1.91 16 23:37 30.12.2019
5496 Clear 11 1018 78 0 2.61 43 23:19 30.12.2019
5497 Clear 11 1018 78 0 2.61 43 22:56 30.12.2019
5498 Clear 11 1018 78 0 2.61 43 22:37 30.12.2019
5499 Clear 11 1018 78 0 2.61 43 22:37 30.12.2019
5500 Clear 11 1018 78 0 2.61 43 22:37 30.12.2019
5501 Clear 11 1018 78 0 2.61 43 22:18 30.12.2019
5502 Clear 11 1018 78 0 2.61 43 21:56 30.12.2019
5503 Clear 11 1018 78 0 2.61 43 21:38 30.12.2019
5504 Clear 11 1018 78 0 2.61 43 21:18 30.12.2019
5505 Clear 11 1018 78 0 2.61 43 20:56 30.12.2019
5506 Clear 11 1018 78 0 2.61 43 20:38 30.12.2019
5507 Clouds 12 1017 69 0 3.85 62 20:19 30.12.2019
5508 Clouds 12 1017 69 0 3.85 62 19:56 30.12.2019
5509 Clouds 12 1017 69 0 3.85 62 19:37 30.12.2019
5510 Clouds 12 1017 69 0 3.85 62 19:37 30.12.2019
5511 Clouds 12 1017 69 0 3.85 62 19:18 30.12.2019
5512 Clouds 12 1017 69 0 3.85 62 18:56 30.12.2019
5513 Clouds 12 1017 69 0 3.85 62 18:36 30.12.2019
5514 Clouds 18 1027 52 10000 5.1 70 18:18 30.12.2019
5515 Clouds 18 1027 52 10000 5.1 70 17:54 30.12.2019
5516 Clouds 18 1027 52 10000 5.1 70 17:36 30.12.2019
5517 Clouds 18 1027 52 10000 5.1 70 17:36 30.12.2019
5518 Clouds 18 1027 52 10000 5.1 70 17:18 30.12.2019
5519 Clouds 20 1026 42 10000 5.1 100 16:41 30.12.2019
5520 Clouds 20 1026 42 10000 5.1 100 16:41 30.12.2019
5521 Clouds 20 1026 42 10000 5.1 100 16:20 30.12.2019
5522 Clouds 20 1026 42 10000 5.1 100 15:57 30.12.2019
5523 Clouds 20 1025 45 10000 4.1 100 15:39 30.12.2019
5524 Clouds 20 1025 45 10000 4.1 100 15:19 30.12.2019
5525 Clouds 20 1025 45 10000 4.1 100 15:19 30.12.2019
5526 Clouds 20 1025 45 10000 4.1 100 14:55 30.12.2019
5527 Clouds 22 1025 40 10000 4.1 80 14:37 30.12.2019
5528 Clouds 22 1025 40 10000 4.1 80 14:37 30.12.2019
5529 Clouds 22 1025 40 10000 4.1 80 14:18 30.12.2019
5530 Clouds 22 1025 40 10000 4.1 80 13:42 30.12.2019
5531 Clouds 22 1025 40 10000 4.1 80 13:24 30.12.2019
5532 Clouds 22 1025 40 10000 4.1 80 13:24 30.12.2019
5533 Clouds 22 1025 40 10000 4.1 80 12:59 30.12.2019
5534 Clear 20 1012 43 0 6.47 101 12:41 30.12.2019
5535 Clouds 22 1026 40 10000 3.1 110 12:19 30.12.2019
5536 Clear 20 1012 43 0 6.47 101 11:56 30.12.2019
5537 Clear 20 1012 43 0 6.47 101 11:38 30.12.2019
5538 Clouds 21 1028 43 10000 4.1 80 11:18 30.12.2019
5539 Clouds 21 1028 43 10000 4.1 80 10:43 30.12.2019
5540 Clouds 21 1028 43 10000 4.1 80 10:20 30.12.2019
5541 Clouds 19 1028 52 10000 5.1 100 09:55 30.12.2019
5542 Clouds 19 1028 52 10000 5.1 100 09:55 30.12.2019
5543 Clouds 19 1028 52 10000 5.1 100 09:37 30.12.2019
5544 Clouds 19 1028 52 10000 5.1 100 09:18 30.12.2019
5545 Clouds 17 1028 63 10000 5.1 60 08:46 30.12.2019
5546 Clouds 15 1028 72 10000 6.2 80 08:23 30.12.2019
5547 Clouds 15 1028 72 10000 6.2 80 07:53 30.12.2019
5548 Clouds 15 1028 72 10000 6.2 80 07:32 30.12.2019
5549 Clouds 14 1028 76 10000 4.1 70 06:39 30.12.2019
5550 Clouds 12 1026 62 10000 1 290 04:45 30.12.2019
5551 Clouds 12 1026 62 10000 1 290 03:52 30.12.2019
5552 Clouds 10 1017 95 0 1.21 40 02:47 30.12.2019
5553 Clouds 13 1025 58 10000 5.1 80 02:29 30.12.2019
5554 Clouds 13 1025 58 10000 5.1 80 01:43 30.12.2019
5555 Clouds 13 1025 58 10000 5.1 80 01:19 30.12.2019
5556 Clouds 13 1025 58 10000 5.1 70 00:42 30.12.2019
5557 Clouds 14 1026 62 10000 6.2 70 23:58 29.12.2019
5558 Clouds 14 1026 62 10000 6.2 70 23:38 29.12.2019
5559 Clouds 14 1026 62 10000 6.2 70 23:38 29.12.2019
5560 Clouds 14 1026 62 10000 6.2 70 23:19 29.12.2019
5561 Clouds 14 1026 62 10000 6.2 60 22:41 29.12.2019
5562 Clouds 14 1026 62 10000 6.2 60 22:41 29.12.2019
5563 Clouds 14 1026 62 10000 6.2 60 22:22 29.12.2019
5564 Clouds 14 1026 62 10000 6.2 60 21:56 29.12.2019
5565 Clouds 11 1015 93 0 2.42 67 21:38 29.12.2019
5566 Clouds 15 1027 54 10000 5.1 60 21:20 29.12.2019
5567 Clouds 15 1027 54 10000 5.1 60 20:56 29.12.2019
5568 Clouds 15 1027 54 10000 5.1 60 20:38 29.12.2019
5569 Clouds 15 1027 54 10000 5.1 60 20:20 29.12.2019
5570 Clouds 16 1027 48 10000 5.1 70 19:58 29.12.2019
5571 Clouds 16 1027 48 10000 5.1 70 19:39 29.12.2019
5572 Clouds 16 1027 48 10000 5.1 70 19:20 29.12.2019
5573 Clouds 16 1027 48 10000 5.1 70 18:55 29.12.2019
5574 Clouds 16 1026 48 10000 5.1 70 18:37 29.12.2019
5575 Clouds 16 1026 48 10000 5.1 70 18:19 29.12.2019
5576 Clouds 16 1026 48 10000 5.1 70 18:19 29.12.2019
5577 Clouds 16 1026 48 10000 5.1 70 17:56 29.12.2019
5578 Clouds 16 1025 48 10000 5.1 70 17:38 29.12.2019
5579 Clouds 16 1025 48 10000 5.1 70 17:38 29.12.2019
5580 Clouds 16 1025 48 10000 5.1 70 17:19 29.12.2019
5581 Clouds 19 1024 48 10000 4.1 80 16:56 29.12.2019
5582 Clouds 19 1024 48 10000 4.1 80 16:36 29.12.2019
5583 Clouds 19 1024 48 10000 4.1 80 16:18 29.12.2019
5584 Clouds 19 1024 48 10000 4.1 80 15:56 29.12.2019
5585 Clouds 21 1023 43 10000 5.1 90 15:38 29.12.2019
5586 Clouds 21 1023 43 10000 5.1 90 15:19 29.12.2019
5587 Clouds 21 1023 43 10000 5.1 90 14:55 29.12.2019
5588 Clouds 22 1023 40 10000 5.1 160 14:37 29.12.2019
5589 Clouds 22 1023 40 10000 5.1 160 14:18 29.12.2019
5590 Clouds 22 1023 40 10000 5.1 160 13:55 29.12.2019
5591 Clouds 22 1023 40 10000 5.1 150 13:37 29.12.2019
5592 Clouds 22 1023 40 10000 5.1 150 13:18 29.12.2019
5593 Clouds 23 1025 38 10000 2.1 90 12:42 29.12.2019
5594 Clouds 23 1025 38 10000 2.1 90 12:24 29.12.2019
5595 Clouds 22 1026 40 10000 4.1 90 11:56 29.12.2019
5596 Clouds 22 1026 40 10000 4.1 90 11:37 29.12.2019
5597 Clouds 22 1026 40 10000 4.1 90 11:19 29.12.2019
5598 Clouds 21 1026 43 10000 4.1 90 10:42 29.12.2019
5599 Clouds 21 1026 43 10000 4.1 90 10:22 29.12.2019
5600 Clouds 19 1027 55 10000 4.1 70 09:56 29.12.2019
5601 Clouds 19 1027 55 10000 4.1 70 09:38 29.12.2019
5602 Clouds 19 1027 55 10000 4.1 70 09:19 29.12.2019
5603 Clouds 15 1028 77 10000 5.1 80 08:46 29.12.2019
5604 Clouds 15 1028 77 10000 5.1 80 08:24 29.12.2019
5605 Clouds 14 1017 79 0 2.63 91 07:54 29.12.2019
5606 Clouds 14 1017 79 0 2.63 91 07:28 29.12.2019
5607 Clouds 14 1017 79 0 2.63 91 06:53 29.12.2019
5608 Clouds 14 1017 79 0 2.63 91 06:24 29.12.2019
5609 Clouds 14 1017 79 0 2.63 91 05:51 29.12.2019
5610 Clouds 11 1016 92 0 1.42 36 04:36 29.12.2019
5611 Clouds 11 1016 92 0 1.42 36 03:43 29.12.2019
5612 Clouds 11 1016 92 0 1.42 36 03:19 29.12.2019
5613 Clouds 10 1014 95 0 1.84 30 02:20 29.12.2019
5614 Clouds 10 1014 95 0 1.84 30 02:20 29.12.2019
5615 Clouds 10 1014 95 0 1.84 30 01:31 29.12.2019
5616 Clouds 10 1014 95 0 1.84 30 01:31 29.12.2019
5617 Clouds 11 1014 93 0 1.97 46 00:55 29.12.2019
5618 Clouds 11 1014 93 0 1.97 46 00:36 29.12.2019
5619 Clouds 11 1014 93 0 1.97 46 00:18 29.12.2019
5620 Clouds 11 1014 93 0 1.97 46 23:41 28.12.2019
5621 Clouds 12 1015 96 0 2.43 60 23:18 28.12.2019
5622 Clouds 12 1015 96 0 2.43 60 22:39 28.12.2019
5623 Clouds 12 1015 96 0 2.43 60 22:20 28.12.2019
5624 Clouds 12 1015 96 0 2.43 60 21:58 28.12.2019
5625 Clouds 12 1015 96 0 2.43 60 21:39 28.12.2019
5626 Clouds 12 1015 96 0 2.43 60 21:20 28.12.2019
5627 Clouds 12 1015 96 0 2.43 60 20:56 28.12.2019
5628 Clouds 12 1015 96 0 2.43 60 20:37 28.12.2019
5629 Rain 13 1014 89 0 4.04 67 20:18 28.12.2019
5630 Rain 13 1014 89 0 4.04 67 19:55 28.12.2019
5631 Rain 13 1014 89 0 4.04 67 19:36 28.12.2019
5632 Clouds 19 1025 52 10000 5.1 70 19:18 28.12.2019
5633 Clouds 19 1025 52 10000 5.1 70 18:55 28.12.2019
5634 Clouds 19 1025 52 10000 5.1 70 18:37 28.12.2019
5635 Clouds 19 1024 52 10000 6.2 70 18:18 28.12.2019
5636 Clouds 19 1024 52 10000 6.2 70 17:42 28.12.2019
5637 Clouds 19 1024 52 10000 6.2 70 17:21 28.12.2019
5638 Clouds 16 1011 72 0 4.99 100 16:55 28.12.2019
5639 Clouds 16 1011 72 0 4.99 100 16:37 28.12.2019
5640 Clouds 16 1011 72 0 4.99 100 16:19 28.12.2019
5641 Clouds 16 1011 72 0 4.99 100 15:43 28.12.2019
5642 Clouds 16 1011 72 0 4.99 100 15:21 28.12.2019
5643 Clouds 16 1011 72 0 4.99 100 14:48 28.12.2019
5644 Clouds 23 1022 38 10000 5.1 190 14:26 28.12.2019
5645 Clouds 23 1022 38 10000 5.1 190 13:58 28.12.2019
5646 Clouds 23 1022 38 10000 5.1 190 13:40 28.12.2019
5647 Clouds 23 1022 38 10000 5.1 190 13:21 28.12.2019
5648 Clouds 23 1009 31 0 3.4 199 12:58 28.12.2019
5649 Clouds 23 1009 31 0 3.4 199 12:40 28.12.2019
5650 Clouds 21 1024 40 10000 3.1 210 12:21 28.12.2019
5651 Clouds 21 1024 40 10000 3.1 210 11:40 28.12.2019
5652 Clouds 21 1024 40 10000 3.1 210 11:21 28.12.2019
5653 Clouds 21 1024 40 10000 3.1 210 11:21 28.12.2019
5654 Clouds 21 1024 40 10000 3.1 210 10:56 28.12.2019
5655 Clouds 20 1026 45 10000 2.1 130 10:37 28.12.2019
5656 Clouds 20 1026 45 10000 2.1 130 10:18 28.12.2019
5657 Clouds 20 1026 45 10000 2.1 130 09:46 28.12.2019
5658 Clouds 18 1027 48 10000 2.1 100 09:24 28.12.2019
5659 Clouds 18 1027 48 10000 2.1 100 08:58 28.12.2019
5660 Clouds 18 1027 45 10000 3.1 100 08:40 28.12.2019
5661 Clouds 18 1027 45 10000 3.1 100 08:22 28.12.2019
5662 Clouds 18 1027 45 10000 3.1 100 07:43 28.12.2019
5663 Clouds 16 1027 59 10000 4.1 50 07:21 28.12.2019
5664 Clouds 14 1016 69 0 1.99 99 05:45 28.12.2019
5665 Clouds 11 1025 87 10000 4.1 50 03:48 28.12.2019
5666 Clouds 11 1024 87 10000 4.1 50 02:50 28.12.2019
5667 Clouds 11 1024 87 10000 4.1 50 02:20 28.12.2019
5668 Clouds 11 1024 87 10000 4.1 50 01:54 28.12.2019
5669 Clouds 12 1024 87 10000 4.1 80 01:22 28.12.2019
5670 Clouds 12 1025 87 10000 4.1 70 00:45 28.12.2019
5671 Clouds 12 1025 87 10000 4.1 70 00:27 28.12.2019
5672 Clouds 12 1025 87 10000 5.7 60 23:57 27.12.2019
5673 Clouds 12 1025 87 10000 5.7 60 23:37 27.12.2019
5674 Clouds 12 1025 87 10000 5.7 60 23:18 27.12.2019
5675 Clouds 12 1025 87 10000 4.1 70 22:55 27.12.2019
5676 Clouds 12 1025 87 10000 4.1 70 22:37 27.12.2019
5677 Clouds 12 1025 87 10000 4.1 70 22:19 27.12.2019
5678 Clouds 13 1026 87 10000 4.1 50 21:41 27.12.2019
5679 Clouds 13 1026 87 10000 4.1 50 21:23 27.12.2019
5680 Clouds 14 1026 67 10000 5.7 60 20:44 27.12.2019
5681 Clouds 14 1026 67 10000 5.7 60 20:26 27.12.2019
5682 Clouds 15 1026 62 10000 3.1 70 19:58 27.12.2019
5683 Clouds 15 1026 62 10000 3.1 70 19:58 27.12.2019
5684 Clouds 15 1026 62 10000 3.1 70 19:40 27.12.2019
5685 Clouds 15 1026 62 10000 3.1 70 19:19 27.12.2019
5686 Clouds 16 1025 59 10000 4.1 70 18:55 27.12.2019
5687 Clouds 16 1025 59 10000 4.1 70 18:36 27.12.2019
5688 Clouds 16 1025 59 10000 4.1 70 18:18 27.12.2019
5689 Clouds 18 1024 52 10000 4.1 120 17:55 27.12.2019
5690 Clouds 18 1024 52 10000 4.1 120 17:36 27.12.2019
5691 Clouds 18 1024 52 10000 4.1 120 17:18 27.12.2019
5692 Clouds 20 1023 45 10000 3.1 150 16:41 27.12.2019
5693 Clouds 20 1023 45 10000 3.1 150 16:22 27.12.2019
5694 Clouds 20 1023 45 10000 3.1 150 15:57 27.12.2019
5695 Clouds 22 1022 37 10000 4.1 190 15:37 27.12.2019
5696 Clouds 22 1022 37 10000 4.1 190 15:37 27.12.2019
5697 Clouds 22 1022 37 10000 4.1 190 15:18 27.12.2019
5698 Clouds 22 1022 37 10000 4.1 190 14:55 27.12.2019
5699 Clouds 16 1011 70 0 3.97 99 14:37 27.12.2019
5700 Clouds 22 1022 37 10000 5.1 190 14:19 27.12.2019
5701 Clouds 22 1022 37 10000 5.1 190 13:44 27.12.2019
5702 Clouds 22 1022 37 10000 5.1 190 13:22 27.12.2019
5703 Clouds 22 1023 40 10000 3.1 210 12:49 27.12.2019
5704 Clouds 22 1023 40 10000 3.1 210 12:29 27.12.2019
5705 Clouds 22 1023 40 10000 3.1 210 11:59 27.12.2019
5706 Clouds 20 1024 45 10000 2.6 210 11:41 27.12.2019
5707 Clouds 20 1024 45 10000 2.6 210 11:20 27.12.2019
5708 Clouds 20 1024 45 10000 2.6 210 11:20 27.12.2019
5709 Clouds 20 1024 45 10000 2.6 210 11:20 27.12.2019
5710 Clouds 20 1024 45 10000 2.6 210 10:47 27.12.2019
5711 Clouds 20 1025 45 10000 3.1 160 10:24 27.12.2019
5712 Clouds 20 1025 45 10000 3.1 160 09:57 27.12.2019
5713 Clouds 17 1026 59 10000 1.5 90 09:38 27.12.2019
5714 Clouds 17 1026 59 10000 1.5 90 09:20 27.12.2019
5715 Clouds 15 1027 67 10000 1.5 150 08:46 27.12.2019
5716 Clouds 15 1027 67 10000 1.5 150 08:27 27.12.2019
5717 Clouds 14 1027 67 7000 1.64 130 07:41 27.12.2019
5718 Clouds 14 1027 67 7000 1.64 130 07:22 27.12.2019
5719 Clouds 13 1027 71 6000 1.64 130 06:27 27.12.2019
5720 Clouds 11 1026 76 0 1.5 350 04:40 27.12.2019
5721 Clouds 11 1025 76 0 3.6 70 02:29 27.12.2019
5722 Clear 11 1025 76 0 3.6 70 01:48 27.12.2019
5723 Clear 10 1015 93 0 0.9 43 01:23 27.12.2019
5724 Clear 10 1015 92 0 0.81 39 00:47 27.12.2019
5725 Clear 10 1015 92 0 0.81 39 00:27 27.12.2019
5726 Clear 10 1015 92 0 0.81 39 23:56 26.12.2019
5727 Clear 10 1015 92 0 0.81 39 23:38 26.12.2019
5728 Clear 11 1016 92 0 1.25 31 23:19 26.12.2019
5729 Clear 11 1016 92 0 1.25 31 22:40 26.12.2019
5730 Clear 11 1016 92 0 1.25 31 22:18 26.12.2019
5731 Clear 11 1016 92 0 1.25 31 21:40 26.12.2019
5732 Clear 11 1016 92 0 1.25 31 21:21 26.12.2019
5733 Clear 11 1016 92 0 1.25 31 20:58 26.12.2019
5734 Clear 11 1016 92 0 1.25 31 20:39 26.12.2019
5735 Clear 11 1016 92 0 1.25 31 20:39 26.12.2019
5736 Clouds 16 1026 63 10000 5.1 70 20:21 26.12.2019
5737 Clouds 16 1026 63 10000 5.1 70 19:56 26.12.2019
5738 Clouds 16 1026 63 10000 5.1 70 19:38 26.12.2019
5739 Clouds 16 1026 63 10000 5.1 70 19:19 26.12.2019
5740 Clouds 12 1015 84 0 2.77 57 18:57 26.12.2019
5741 Clouds 12 1015 84 0 2.77 57 18:36 26.12.2019
5742 Clouds 12 1015 84 0 2.77 57 18:18 26.12.2019
5743 Clouds 12 1015 84 0 2.77 57 17:42 26.12.2019
5744 Clouds 20 1024 45 10000 4.1 120 17:22 26.12.2019
5745 Clouds 20 1024 45 10000 4.1 120 16:50 26.12.2019
5746 Clouds 20 1024 45 10000 4.1 120 16:28 26.12.2019
5747 Clouds 21 1024 46 10000 5.1 140 15:58 26.12.2019
5748 Clouds 21 1024 46 10000 5.1 140 15:40 26.12.2019
5749 Clouds 21 1024 46 10000 5.1 140 15:19 26.12.2019
5750 Clouds 16 1012 69 0 4.17 103 14:42 26.12.2019
5751 Clouds 22 1024 43 10000 4.6 117 14:23 26.12.2019
5752 Clouds 22 1024 43 10000 4.6 117 13:57 26.12.2019
5753 Clouds 22 1024 43 10000 4.6 117 13:39 26.12.2019
5754 Clouds 22 1024 43 10000 4.6 117 13:39 26.12.2019
5755 Clouds 22 1024 43 10000 4.6 117 13:18 26.12.2019
5756 Clouds 21 1025 43 10000 4.1 140 12:45 26.12.2019
5757 Clouds 21 1025 43 10000 4.1 140 12:26 26.12.2019
5758 Clouds 21 1025 43 10000 4.1 140 11:59 26.12.2019
5759 Clouds 21 1026 43 10000 4.1 160 11:40 26.12.2019
5760 Clouds 21 1026 43 10000 4.1 160 11:22 26.12.2019
5761 Clouds 21 1026 43 10000 4.1 160 10:51 26.12.2019
5762 Clouds 18 1027 55 10000 4.1 160 10:27 26.12.2019
5763 Clouds 18 1027 55 10000 4.1 160 09:59 26.12.2019
5764 Clouds 18 1027 55 10000 4.1 160 09:41 26.12.2019
5765 Clouds 18 1027 55 10000 4.1 160 09:22 26.12.2019
5766 Clouds 17 1028 55 10000 4.1 120 08:39 26.12.2019
5767 Clouds 17 1028 55 10000 4.1 120 08:21 26.12.2019
5768 Clouds 16 1028 59 10000 4.1 90 07:44 26.12.2019
5769 Clouds 16 1028 59 10000 4.1 90 07:24 26.12.2019
5770 Clear 14 1018 68 0 2.71 90 06:38 26.12.2019
5771 Clear 14 1018 68 0 2.71 90 06:20 26.12.2019
5772 Clear 14 1018 68 0 2.71 90 05:42 26.12.2019
5773 Clear 10 1017 91 0 1.34 28 04:33 26.12.2019
5774 Clear 10 1017 91 0 1.34 28 03:32 26.12.2019
5775 Clear 10 1017 91 0 1.34 28 02:46 26.12.2019
5776 Clear 10 1017 91 0 1.34 28 02:27 26.12.2019
5777 Clear 10 1015 92 0 1 29 01:44 26.12.2019
5778 Clear 10 1015 91 0 1 35 01:25 26.12.2019
5779 Clear 10 1015 91 0 1 35 00:44 26.12.2019
5780 Clear 10 1015 91 0 1 35 00:23 26.12.2019
5781 Clear 10 1015 91 0 1 35 23:57 25.12.2019
5782 Clear 10 1015 91 0 1 35 23:37 25.12.2019
5783 Clear 11 1016 89 0 1.76 46 23:19 25.12.2019
5784 Clear 11 1016 89 0 1.76 46 22:56 25.12.2019
5785 Clear 11 1016 89 0 1.76 46 22:37 25.12.2019
5786 Clear 11 1016 89 0 1.76 46 22:18 25.12.2019
5787 Clear 11 1016 89 0 1.76 46 22:18 25.12.2019
5788 Clear 11 1016 89 0 1.76 46 21:55 25.12.2019
5789 Clear 11 1016 89 0 1.76 46 21:55 25.12.2019
5790 Clear 11 1016 89 0 1.76 46 21:37 25.12.2019
5791 Clear 11 1016 89 0 1.76 46 21:18 25.12.2019
5792 Clear 11 1016 89 0 1.76 46 20:40 25.12.2019
5793 Clouds 13 1016 80 0 2.7 59 20:21 25.12.2019
5794 Clouds 13 1016 80 0 2.7 59 19:59 25.12.2019
5795 Clouds 13 1016 80 0 2.7 59 19:41 25.12.2019
5796 Clouds 13 1016 80 0 2.7 59 19:21 25.12.2019
5797 Clouds 13 1016 80 0 2.7 59 18:40 25.12.2019
5798 Clouds 13 1016 80 0 2.7 59 18:21 25.12.2019
5799 Clouds 13 1016 80 0 2.7 59 18:21 25.12.2019
5800 Clouds 13 1016 80 0 2.7 59 17:57 25.12.2019
5801 Clouds 13 1016 80 0 2.7 59 17:39 25.12.2019
5802 Clouds 17 1013 62 0 4.49 103 17:18 25.12.2019
5803 Clouds 17 1013 62 0 4.49 103 16:54 25.12.2019
5804 Clouds 17 1013 62 0 4.49 103 16:36 25.12.2019
5805 Clouds 17 1013 62 0 4.49 103 16:18 25.12.2019
5806 Clouds 17 1013 62 0 4.49 103 15:40 25.12.2019
5807 Clouds 17 1013 62 0 4.49 103 15:22 25.12.2019
5808 Clouds 17 1013 62 0 4.49 103 14:59 25.12.2019
5809 Clouds 17 1013 62 0 4.49 103 14:41 25.12.2019
5810 Clouds 22 1012 39 0 1.38 196 14:23 25.12.2019
5811 Clouds 23 1024 35 10000 3.1 170 13:58 25.12.2019
5812 Clouds 23 1024 35 10000 3.1 170 13:39 25.12.2019
5813 Clouds 23 1024 35 10000 3.1 170 13:19 25.12.2019
5814 Clouds 22 1024 40 10000 2.6 180 12:43 25.12.2019
5815 Clouds 22 1024 40 10000 2.6 180 12:21 25.12.2019
5816 Clouds 22 1024 40 10000 2.6 180 12:21 25.12.2019
5817 Clouds 21 1026 43 10000 3.6 210 11:57 25.12.2019
5818 Clouds 21 1026 43 10000 3.6 210 11:39 25.12.2019
5819 Clouds 21 1026 43 10000 3.6 210 11:20 25.12.2019
5820 Clouds 20 1027 45 10000 3.1 180 10:39 25.12.2019
5821 Clouds 20 1027 45 10000 3.1 180 10:21 25.12.2019
5822 Clouds 20 1027 45 10000 3.1 180 09:51 25.12.2019
5823 Clouds 19 1028 48 10000 3.1 180 09:33 25.12.2019
5824 Clouds 19 1028 48 10000 3.1 180 08:51 25.12.2019
5825 Clouds 17 1029 55 10000 1.5 100 08:32 25.12.2019
5826 Clouds 15 1029 72 10000 1.5 130 07:59 25.12.2019
5827 Clouds 15 1029 72 10000 1.5 130 07:59 25.12.2019
5828 Clouds 15 1029 72 10000 1.5 130 07:37 25.12.2019
5829 Clouds 15 1029 72 10000 1.5 130 07:19 25.12.2019
5830 Clouds 11 1028 81 10000 2.1 220 06:23 25.12.2019
5831 Clouds 15 1018 55 0 2.22 97 05:43 25.12.2019
5832 Clouds 11 1026 81 10000 2.1 90 04:39 25.12.2019
5833 Clouds 11 1026 81 10000 2.1 90 04:20 25.12.2019
5834 Clouds 11 1026 81 10000 3.1 90 03:43 25.12.2019
5835 Clouds 11 1025 81 10000 4.1 80 02:57 25.12.2019
5836 Clouds 11 1025 81 10000 4.1 80 02:28 25.12.2019
5837 Clouds 12 1025 76 10000 5.1 60 01:26 25.12.2019
5838 Clouds 12 1025 76 10000 5.1 60 01:26 25.12.2019
5839 Clouds 13 1015 67 0 0.87 58 00:56 25.12.2019
5840 Clouds 13 1015 67 0 0.87 58 00:33 25.12.2019
5841 Clouds 17 1026 63 10000 5.1 60 23:59 24.12.2019
5842 Clouds 17 1026 63 10000 5.1 60 23:39 24.12.2019
5843 Clouds 17 1026 63 10000 5.1 60 23:39 24.12.2019
5844 Clouds 17 1026 63 10000 5.1 60 23:20 24.12.2019
5845 Clouds 17 1026 63 10000 5.1 60 23:20 24.12.2019
5846 Clear 12 1016 77 0 1.12 60 22:42 24.12.2019
5847 Clouds 17 1027 63 10000 3.1 100 22:23 24.12.2019
5848 Clouds 17 1027 63 10000 3.1 100 21:55 24.12.2019
5849 Clouds 17 1027 63 10000 3.1 100 21:37 24.12.2019
5850 Clouds 17 1027 63 10000 3.1 100 21:18 24.12.2019
5851 Clouds 18 1027 59 10000 5.1 60 20:41 24.12.2019
5852 Clouds 18 1027 59 10000 5.1 60 20:19 24.12.2019
5853 Clouds 13 1016 70 0 2.5 52 19:46 24.12.2019
5854 Clouds 19 1026 48 10000 5.1 60 19:22 24.12.2019
5855 Clouds 19 1026 48 10000 5.1 60 18:58 24.12.2019
5856 Clouds 19 1026 48 10000 5.1 60 18:40 24.12.2019
5857 Clouds 19 1026 48 10000 5.1 60 18:18 24.12.2019
5858 Clouds 13 1016 70 0 2.5 52 17:42 24.12.2019
5859 Clouds 19 1024 48 10000 4.1 130 17:21 24.12.2019
5860 Clouds 19 1024 48 10000 4.1 130 16:58 24.12.2019
5861 Clouds 19 1024 48 10000 4.1 130 16:58 24.12.2019
5862 Clouds 19 1024 48 10000 4.1 130 16:39 24.12.2019
5863 Clouds 19 1024 48 10000 4.1 130 16:39 24.12.2019
5864 Clouds 19 1024 48 10000 4.1 130 16:20 24.12.2019
5865 Clouds 20 1024 45 10000 4.6 150 15:57 24.12.2019
5866 Clouds 20 1024 45 10000 4.6 150 15:37 24.12.2019
5867 Clouds 20 1024 45 10000 4.6 150 15:19 24.12.2019
5868 Clouds 20 1024 45 10000 4.6 150 14:57 24.12.2019
5869 Clouds 21 1024 43 10000 2.1 220 14:39 24.12.2019
5870 Clouds 21 1024 43 10000 2.1 220 14:21 24.12.2019
5871 Clouds 21 1024 43 10000 2.1 220 14:21 24.12.2019
5872 Clouds 21 1024 43 10000 2.1 220 13:56 24.12.2019
5873 Clouds 22 1024 40 10000 2.1 60 13:37 24.12.2019
5874 Clouds 22 1024 40 10000 2.1 60 13:37 24.12.2019
5875 Clouds 22 1024 40 10000 2.1 60 13:19 24.12.2019
5876 Clouds 22 1024 40 10000 2.1 60 13:19 24.12.2019
5877 Clouds 21 1025 46 10000 6.2 180 12:56 24.12.2019
5878 Clouds 21 1025 46 10000 6.2 180 12:37 24.12.2019
5879 Clouds 21 1025 46 10000 6.2 180 12:19 24.12.2019
5880 Clouds 21 1026 46 10000 5.1 170 12:19 24.12.2019
5881 Clouds 21 1026 46 10000 5.1 170 11:56 24.12.2019
5882 Clouds 21 1026 46 10000 5.1 170 11:37 24.12.2019
5883 Clouds 21 1026 46 10000 5.1 170 11:37 24.12.2019
5884 Clouds 21 1026 46 10000 5.1 170 11:19 24.12.2019
5885 Clouds 21 1027 46 10000 3.1 150 10:56 24.12.2019
5886 Clouds 21 1027 46 10000 3.1 150 10:56 24.12.2019
5887 Clouds 21 1027 46 10000 3.1 150 10:37 24.12.2019
5888 Clouds 21 1027 46 10000 3.1 150 10:19 24.12.2019
5889 Clouds 18 1028 52 10000 3.1 100 09:55 24.12.2019
5890 Clouds 18 1028 52 10000 3.1 100 09:37 24.12.2019
5891 Clouds 18 1028 52 10000 3.1 100 09:37 24.12.2019
5892 Clouds 18 1028 52 10000 3.1 100 09:19 24.12.2019
5893 Clouds 17 1029 55 10000 4.1 150 08:45 24.12.2019
5894 Clouds 17 1029 55 10000 4.1 150 08:24 24.12.2019
5895 Clouds 17 1029 51 10000 5.1 80 07:46 24.12.2019
5896 Clouds 17 1029 51 10000 5.1 80 07:26 24.12.2019
5897 Clouds 15 1028 58 10000 3.1 50 06:58 24.12.2019
5898 Clouds 15 1028 58 10000 3.1 50 06:38 24.12.2019
5899 Clouds 15 1028 58 10000 3.1 50 06:19 24.12.2019
5900 Clouds 12 1027 71 10000 2.6 40 05:21 24.12.2019
5901 Clouds 12 1027 71 10000 2.6 40 04:59 24.12.2019
5902 Clouds 12 1027 71 10000 2.6 40 03:50 24.12.2019
5903 Clouds 12 1026 66 10000 1 40 03:22 24.12.2019
5904 Clouds 12 1026 71 10000 3.6 60 02:23 24.12.2019
5905 Clouds 12 1026 81 10000 4.6 80 01:51 24.12.2019
5906 Clouds 12 1026 81 10000 4.6 80 01:22 24.12.2019
5907 Clouds 13 1015 68 0 0.84 72 00:45 24.12.2019
5908 Clouds 13 1026 76 10000 4.6 60 00:24 24.12.2019
5909 Clouds 13 1015 68 0 0.84 72 23:59 23.12.2019
5910 Clouds 13 1015 68 0 0.84 72 23:40 23.12.2019
5911 Clouds 15 1026 62 10000 3.1 90 23:22 23.12.2019
5912 Clouds 15 1026 62 10000 3.1 90 22:56 23.12.2019
5913 Clouds 15 1026 62 10000 3.1 90 22:37 23.12.2019
5914 Clouds 15 1026 62 10000 3.1 90 22:18 23.12.2019
5915 Clouds 15 1026 62 10000 3.1 90 21:55 23.12.2019
5916 Clouds 14 1016 67 0 1.31 87 21:36 23.12.2019
5917 Clouds 14 1016 67 0 1.31 87 21:18 23.12.2019
5918 Clouds 14 1016 67 0 1.31 87 20:57 23.12.2019
5919 Clouds 14 1016 67 0 1.31 87 20:39 23.12.2019
5920 Clouds 13 1016 69 0 2.66 44 20:18 23.12.2019
5921 Clouds 13 1016 69 0 2.66 44 19:55 23.12.2019
5922 Clouds 13 1016 69 0 2.66 44 19:37 23.12.2019
5923 Clouds 17 1026 55 10000 4.1 60 19:19 23.12.2019
5924 Clouds 17 1026 55 10000 4.1 60 18:57 23.12.2019
5925 Clouds 17 1026 55 10000 4.1 60 18:38 23.12.2019
5926 Clouds 17 1026 55 10000 4.1 60 18:20 23.12.2019
5927 Clouds 13 1016 69 0 2.66 44 17:55 23.12.2019
5928 Clouds 13 1016 69 0 2.66 44 17:55 23.12.2019
5929 Clouds 19 1025 48 10000 4.1 120 17:37 23.12.2019
5930 Clouds 19 1025 48 10000 4.1 120 17:19 23.12.2019
5931 Clouds 19 1025 48 10000 4.1 120 16:42 23.12.2019
5932 Clouds 19 1025 48 10000 4.1 120 16:19 23.12.2019
5933 Clouds 21 1024 43 10000 4.1 180 15:59 23.12.2019
5934 Clouds 21 1024 43 10000 4.1 180 15:39 23.12.2019
5935 Clouds 21 1024 43 10000 4.1 180 15:20 23.12.2019
5936 Clouds 18 1013 49 0 2.21 140 14:59 23.12.2019
5937 Clouds 18 1013 49 0 2.21 140 14:41 23.12.2019
5938 Clouds 22 1024 40 10000 4.1 190 14:23 23.12.2019
5939 Clouds 22 1024 40 10000 4.1 190 13:58 23.12.2019
5940 Clouds 22 1024 40 10000 4.1 190 13:40 23.12.2019
5941 Clouds 22 1024 40 10000 4.1 190 13:22 23.12.2019
5942 Clouds 19 1013 46 0 3.24 211 12:57 23.12.2019
5943 Clouds 19 1013 46 0 3.24 211 12:39 23.12.2019
5944 Clouds 21 1024 43 10000 3.1 160 12:19 23.12.2019
5945 Clouds 19 1013 46 0 3.24 211 11:44 23.12.2019
5946 Clouds 19 1013 46 0 3.24 211 11:26 23.12.2019
5947 Clouds 18 1017 48 0 2.24 154 10:59 23.12.2019
5948 Clouds 18 1017 48 0 2.24 154 10:40 23.12.2019
5949 Clouds 19 1028 45 10000 3.1 80 10:21 23.12.2019
5950 Clouds 19 1028 45 10000 3.1 80 09:59 23.12.2019
5951 Clouds 19 1028 45 10000 3.1 80 09:40 23.12.2019
5952 Clouds 19 1028 45 10000 3.1 80 09:21 23.12.2019
5953 Clouds 19 1028 45 10000 3.1 80 08:56 23.12.2019
5954 Clouds 17 1028 51 10000 4.1 130 08:38 23.12.2019
5955 Clouds 17 1028 51 10000 4.1 130 08:20 23.12.2019
5956 Clouds 17 1028 51 10000 5.1 100 07:43 23.12.2019
5957 Clouds 17 1028 51 10000 5.1 100 07:20 23.12.2019
5958 Clouds 15 1028 58 10000 2.1 110 06:53 23.12.2019
5959 Clouds 15 1028 58 10000 2.1 110 06:26 23.12.2019
5960 Clouds 15 1028 58 10000 2.1 110 05:53 23.12.2019
5961 Clouds 12 1027 66 10000 2.29 72 05:28 23.12.2019
5962 Clouds 12 1027 66 10000 1.41 41 04:31 23.12.2019
5963 Clouds 14 1026 58 10000 4.1 60 03:18 23.12.2019
5964 Clouds 14 1026 58 10000 4.1 60 02:40 23.12.2019
5965 Clouds 14 1026 58 10000 4.1 60 02:18 23.12.2019
5966 Clouds 14 1026 58 10000 5.1 70 01:41 23.12.2019
5967 Clouds 14 1026 58 10000 5.1 70 01:20 23.12.2019
5968 Clouds 14 1026 62 10000 5.1 70 00:43 23.12.2019
5969 Clouds 14 1026 62 10000 5.1 70 00:21 23.12.2019
5970 Clouds 14 1027 67 10000 4.1 80 23:39 22.12.2019
5971 Clouds 14 1027 67 10000 4.1 80 23:21 22.12.2019
5972 Clouds 15 1027 62 10000 5.7 70 22:58 22.12.2019
5973 Clouds 15 1027 62 10000 5.7 70 22:39 22.12.2019
5974 Clouds 15 1027 62 10000 5.7 70 22:19 22.12.2019
5975 Clouds 14 1027 71 10000 6.7 70 21:57 22.12.2019
5976 Clouds 14 1027 71 10000 6.7 70 21:39 22.12.2019
5977 Clouds 14 1027 71 10000 6.7 70 21:21 22.12.2019
5978 Clouds 14 1028 71 10000 4.1 80 20:57 22.12.2019
5979 Clouds 14 1028 71 10000 4.1 80 20:38 22.12.2019
5980 Clouds 14 1028 71 10000 4.1 80 20:18 22.12.2019
5981 Clouds 15 1027 67 10000 4.1 70 19:55 22.12.2019
5982 Clouds 15 1027 67 10000 4.1 70 19:37 22.12.2019
5983 Clouds 15 1027 67 10000 4.1 70 19:18 22.12.2019
5984 Clouds 15 1027 67 10000 5.1 70 18:40 22.12.2019
5985 Clouds 15 1027 67 10000 5.1 70 18:22 22.12.2019
5986 Clouds 15 1027 67 10000 5.1 70 17:55 22.12.2019
5987 Clouds 17 1026 59 10000 5.1 70 17:37 22.12.2019
5988 Clouds 17 1026 59 10000 5.1 70 17:18 22.12.2019
5989 Clouds 17 1026 59 10000 5.1 70 16:56 22.12.2019
5990 Clouds 19 1025 52 10000 5.1 90 16:37 22.12.2019
5991 Clouds 19 1025 52 10000 5.1 90 16:19 22.12.2019
5992 Clouds 19 1025 52 10000 5.1 90 15:56 22.12.2019
5993 Clouds 21 1024 46 10000 5.1 160 15:36 22.12.2019
5994 Clouds 21 1024 46 10000 5.1 160 15:36 22.12.2019
5995 Clouds 21 1024 46 10000 5.1 160 15:18 22.12.2019
5996 Clouds 21 1024 46 10000 5.1 160 14:54 22.12.2019
5997 Clouds 21 1024 46 10000 5.1 160 14:54 22.12.2019
5998 Clouds 15 1014 57 0 4.51 104 14:36 22.12.2019
5999 Clouds 21 1024 46 10000 5.1 140 14:18 22.12.2019
6000 Clouds 21 1024 46 10000 5.1 140 14:18 22.12.2019
6001 Clouds 21 1024 46 10000 5.1 140 13:54 22.12.2019
6002 Clouds 21 1024 46 10000 5.1 140 13:36 22.12.2019
6003 Clouds 21 1024 46 10000 5.1 140 13:18 22.12.2019
6004 Clouds 21 1024 46 10000 5.1 140 12:54 22.12.2019
6005 Clouds 20 1026 45 10000 5.1 160 12:36 22.12.2019
6006 Clouds 20 1026 45 10000 5.1 160 12:18 22.12.2019
6007 Clouds 19 1012 43 0 3.38 107 11:39 22.12.2019
6008 Clouds 20 1026 45 10000 4.6 100 11:20 22.12.2019
6009 Clouds 20 1026 45 10000 4.6 100 10:58 22.12.2019
6010 Clouds 20 1026 45 10000 4.6 100 10:40 22.12.2019
6011 Clouds 20 1026 45 10000 4.6 100 10:21 22.12.2019
6012 Clouds 20 1027 45 10000 4.6 120 09:58 22.12.2019
6013 Clouds 20 1027 45 10000 4.6 120 09:40 22.12.2019
6014 Clouds 20 1027 45 10000 4.6 120 09:21 22.12.2019
6015 Clouds 17 1029 42 10000 3.1 110 08:55 22.12.2019
6016 Clouds 17 1029 42 10000 3.1 110 08:37 22.12.2019
6017 Clouds 17 1029 55 10000 3.1 110 08:18 22.12.2019
6018 Clouds 16 1029 55 10000 2.1 150 07:36 22.12.2019
6019 Clouds 16 1029 55 10000 2.1 150 07:18 22.12.2019
6020 Clouds 13 1029 55 10000 1.5 260 06:40 22.12.2019
6021 Clouds 11 1028 81 10000 2.1 360 05:49 22.12.2019
6022 Clouds 11 1028 81 10000 2.1 360 05:21 22.12.2019
6023 Clouds 10 1017 86 0 1.75 47 04:27 22.12.2019
6024 Clouds 10 1017 86 0 1.75 47 03:45 22.12.2019
6025 Clouds 10 1017 86 0 1.75 47 02:38 22.12.2019
6026 Clear 10 1017 89 0 1.27 352 01:37 22.12.2019
6027 Clear 10 1017 89 0 1.51 3 01:18 22.12.2019
6028 Clear 10 1017 89 0 1.51 3 00:45 22.12.2019
6029 Clear 10 1017 89 0 1.51 3 00:21 22.12.2019
6030 Clear 10 1017 89 0 1.51 3 23:42 21.12.2019
6031 Clear 10 1017 90 0 0.85 9 23:24 21.12.2019
6032 Clear 10 1017 90 0 0.85 9 22:59 21.12.2019
6033 Clear 10 1017 90 0 0.85 9 22:40 21.12.2019
6034 Clear 10 1017 90 0 0.85 9 22:19 21.12.2019
6035 Clouds 23 1025 90 0 4.1 160 21:56 21.12.2019
6036 Clouds 23 1025 90 0 4.1 160 21:37 21.12.2019
6037 Clouds 23 1025 90 0 4.1 160 21:19 21.12.2019
6038 Clouds 23 1025 90 0 4.1 160 20:58 21.12.2019
6039 Clouds 23 1025 90 0 4.1 160 20:39 21.12.2019
6040 Clouds 23 1025 88 0 4.1 160 20:21 21.12.2019
6041 Clear 12 1017 88 0 3.06 57 19:57 21.12.2019
6042 Clear 12 1017 88 0 3.06 57 19:39 21.12.2019
6043 Clear 12 1017 88 0 3.06 57 19:19 21.12.2019
6044 Clear 12 1017 88 0 3.06 57 18:44 21.12.2019
6045 Clear 12 1017 88 0 3.06 57 18:24 21.12.2019
6046 Clear 12 1017 88 0 3.06 57 17:57 21.12.2019
6047 Clear 12 1017 88 0 3.06 57 17:39 21.12.2019
6048 Rain 15 1013 75 0 4.02 100 17:21 21.12.2019
6049 Rain 15 1013 75 0 4.02 100 16:58 21.12.2019
6050 Rain 15 1013 75 0 4.02 100 16:39 21.12.2019
6051 Rain 15 1013 75 0 4.02 100 16:18 21.12.2019
6052 Rain 15 1013 75 0 4.02 100 15:56 21.12.2019
6053 Rain 15 1013 75 0 4.02 100 15:38 21.12.2019
6054 Rain 15 1013 75 0 4.02 100 15:19 21.12.2019
6055 Rain 15 1013 75 0 4.02 100 14:45 21.12.2019
6056 Rain 15 1013 75 0 4.02 100 14:26 21.12.2019
6057 Clouds 19 1012 54 0 4.18 122 13:59 21.12.2019
6058 Clouds 19 1012 54 0 4.18 122 13:40 21.12.2019
6059 Clouds 18 1012 55 0 4.6 115 13:20 21.12.2019
6060 Clouds 18 1012 55 0 4.6 115 12:58 21.12.2019
6061 Clouds 18 1012 55 0 4.6 115 12:39 21.12.2019
6062 Clouds 18 1012 55 0 4.6 115 12:21 21.12.2019
6063 Clouds 18 1012 55 0 4.6 115 11:57 21.12.2019
6064 Clouds 18 1012 55 0 4.6 115 11:39 21.12.2019
6065 Clouds 20 1015 39 0 1.77 138 11:21 21.12.2019
6066 Clouds 20 1015 39 0 1.77 138 10:42 21.12.2019
6067 Clouds 20 1015 39 0 1.77 138 10:23 21.12.2019
6068 Clouds 20 1015 39 0 1.77 138 09:59 21.12.2019
6069 Clouds 20 1015 39 0 1.77 138 09:41 21.12.2019
6070 Clouds 20 1015 39 0 1.77 138 09:20 21.12.2019
6071 Clouds 20 1015 39 0 1.77 138 08:55 21.12.2019
6072 Clouds 20 1015 39 0 1.77 138 08:36 21.12.2019
6073 Clouds 14 1019 58 0 2.35 73 08:18 21.12.2019
6074 Clouds 14 1019 60 0 2.53 76 07:41 21.12.2019
6075 Clouds 14 1019 60 0 2.53 76 07:21 21.12.2019
6076 Clouds 14 1019 60 0 2.53 76 06:42 21.12.2019
6077 Clouds 14 1019 60 0 2.53 76 06:24 21.12.2019
6078 Clouds 14 1019 60 0 2.53 76 05:45 21.12.2019
6079 Clouds 10 1027 87 10000 2.1 310 04:57 21.12.2019
6080 Clouds 10 1027 87 10000 2.1 310 03:56 21.12.2019
6081 Clouds 9 1018 83 0 1.12 28 02:39 21.12.2019
6082 Clear 9 1016 85 0 1.7 8 01:53 21.12.2019
6083 Clouds 12 1026 81 10000 4.1 50 01:27 21.12.2019
6084 Clouds 12 1026 81 10000 4.1 50 00:50 21.12.2019
6085 Clouds 12 1026 81 10000 4.1 50 00:28 21.12.2019
6086 Clouds 9 1016 85 0 1.69 10 23:55 20.12.2019
6087 Clouds 9 1016 85 0 1.69 10 23:36 20.12.2019
6088 Clouds 12 1028 81 10000 5.1 60 23:18 20.12.2019
6089 Clouds 12 1028 81 10000 5.1 60 22:40 20.12.2019
6090 Clouds 12 1028 81 10000 5.1 60 22:21 20.12.2019
6091 Clouds 12 1028 81 10000 5.1 60 21:57 20.12.2019
6092 Clouds 13 1028 82 10000 4.1 80 21:39 20.12.2019
6093 Clouds 13 1028 82 10000 4.1 80 21:39 20.12.2019
6094 Clouds 13 1028 82 10000 4.1 80 21:18 20.12.2019
6095 Clouds 13 1028 82 10000 6.2 70 20:39 20.12.2019
6096 Clouds 13 1028 82 10000 6.2 70 20:19 20.12.2019
6097 Clouds 13 1028 82 10000 6.2 70 19:57 20.12.2019
6098 Clouds 14 1028 76 10000 5.1 80 19:39 20.12.2019
6099 Clouds 14 1028 76 10000 5.1 80 19:19 20.12.2019
6100 Clear 12 1017 80 0 2.61 60 18:42 20.12.2019
6101 Clear 12 1017 80 0 2.61 60 18:42 20.12.2019
6102 Clouds 17 1026 63 10000 5.1 90 18:23 20.12.2019
6103 Clouds 17 1026 63 10000 5.1 90 17:58 20.12.2019
6104 Clouds 17 1026 63 10000 5.1 90 17:40 20.12.2019
6105 Clouds 17 1026 63 10000 5.1 90 17:20 20.12.2019
6106 Clouds 19 1026 55 10000 4.1 130 16:59 20.12.2019
6107 Clouds 19 1026 55 10000 4.1 130 16:59 20.12.2019
6108 Clouds 19 1026 55 10000 4.1 130 16:38 20.12.2019
6109 Clouds 19 1026 55 10000 4.1 130 16:20 20.12.2019
6110 Clouds 19 1026 55 10000 4.1 130 16:20 20.12.2019
6111 Clear 20 1025 45 0 4.1 150 15:56 20.12.2019
6112 Clear 20 1025 45 0 4.1 150 15:38 20.12.2019
6113 Clear 20 1025 45 0 4.1 150 15:38 20.12.2019
6114 Clear 15 1013 65 0 3.43 99 15:19 20.12.2019
6115 Clear 15 1013 65 0 3.43 99 14:43 20.12.2019
6116 Clear 20 1012 44 0 4.73 115 14:24 20.12.2019
6117 Clear 20 1012 44 0 4.73 115 13:59 20.12.2019
6118 Clear 20 1012 44 0 4.73 115 13:59 20.12.2019
6119 Clear 20 1012 44 0 4.73 115 13:40 20.12.2019
6120 Clouds 21 1025 49 10000 4.6 150 13:19 20.12.2019
6121 Clouds 21 1025 49 10000 4.6 150 12:57 20.12.2019
6122 Clouds 21 1025 49 10000 4.6 150 12:37 20.12.2019
6123 Clouds 21 1025 49 10000 4.6 150 12:18 20.12.2019
6124 Clouds 19 1027 48 10000 3.6 100 11:57 20.12.2019
6125 Clouds 19 1027 48 10000 3.6 100 11:39 20.12.2019
6126 Clouds 19 1027 48 10000 3.6 100 11:18 20.12.2019
6127 Clouds 19 1027 48 10000 3.6 100 10:56 20.12.2019
6128 Clouds 19 1027 48 10000 3.6 100 10:38 20.12.2019
6129 Clouds 19 1027 48 10000 3.6 100 10:20 20.12.2019
6130 Clouds 18 1027 52 10000 3.6 110 09:43 20.12.2019
6131 Clouds 18 1027 52 10000 3.6 110 09:21 20.12.2019
6132 Clear 19 1016 42 0 3.32 114 08:58 20.12.2019
6133 Clear 19 1016 42 0 3.32 114 08:38 20.12.2019
6134 Clouds 13 1019 61 0 2.37 84 08:20 20.12.2019
6135 Clouds 13 1020 60 0 2.18 86 08:20 20.12.2019
6136 Clouds 13 1019 61 0 2.37 84 07:57 20.12.2019
6137 Clouds 13 1019 61 0 2.37 84 07:57 20.12.2019
6138 Clouds 13 1019 61 0 2.37 84 07:38 20.12.2019
6139 Clouds 13 1019 61 0 2.37 84 07:18 20.12.2019
6140 Clouds 12 1028 66 10000 4.6 80 06:46 20.12.2019
6141 Clouds 12 1028 66 10000 4.6 80 06:28 20.12.2019
6142 Clouds 13 1019 61 0 2.37 84 05:48 20.12.2019
6143 Clouds 9 1027 76 10000 4.1 50 05:18 20.12.2019
6144 Clouds 9 1027 76 10000 3.1 70 03:49 20.12.2019
6145 Clouds 9 1027 76 10000 3.1 70 03:20 20.12.2019
6146 Clouds 9 1026 81 10000 1.32 37 02:20 20.12.2019
6147 Clouds 10 1026 76 0 1.32 37 01:36 20.12.2019
6148 Clouds 11 1026 71 10000 3.1 40 00:57 20.12.2019
6149 Clouds 11 1026 71 10000 3.1 40 00:35 20.12.2019
6150 Clouds 12 1027 66 10000 4.1 50 23:58 19.12.2019
6151 Clouds 12 1027 66 10000 4.1 50 23:58 19.12.2019
6152 Clouds 12 1027 66 10000 4.1 50 23:40 19.12.2019
6153 Clouds 12 1027 66 10000 4.1 50 23:19 19.12.2019
6154 Clouds 12 1028 66 10000 5.1 60 22:40 19.12.2019
6155 Clouds 12 1028 66 10000 5.1 60 22:22 19.12.2019
6156 Clouds 12 1028 66 10000 5.1 70 21:57 19.12.2019
6157 Clouds 12 1028 66 10000 5.1 70 21:39 19.12.2019
6158 Clouds 12 1028 66 10000 5.1 70 21:19 19.12.2019
6159 Clouds 13 1028 62 10000 7.2 70 20:56 19.12.2019
6160 Clouds 13 1028 62 10000 7.2 70 20:37 19.12.2019
6161 Clouds 13 1028 62 10000 7.2 70 20:19 19.12.2019
6162 Clouds 13 1028 62 10000 6.2 70 19:58 19.12.2019
6163 Clouds 13 1028 62 10000 6.2 70 19:58 19.12.2019
6164 Clouds 13 1028 62 10000 6.2 70 19:39 19.12.2019
6165 Clouds 13 1028 62 10000 6.2 70 19:19 19.12.2019
6166 Clouds 13 1028 62 10000 6.2 70 19:19 19.12.2019
6167 Clouds 13 1028 62 10000 6.2 70 19:19 19.12.2019
6168 Clouds 14 1028 58 10000 6.2 50 18:57 19.12.2019
6169 Clouds 14 1028 58 10000 6.2 50 18:39 19.12.2019
6170 Clouds 14 1028 58 10000 6.2 50 18:19 19.12.2019
6171 Clouds 16 1027 48 10000 4.1 90 17:55 19.12.2019
6172 Clouds 16 1027 48 10000 4.1 90 17:37 19.12.2019
6173 Clouds 16 1027 48 10000 4.1 90 17:18 19.12.2019
6174 Clouds 18 1026 39 10000 4.1 100 16:55 19.12.2019
6175 Clouds 18 1026 39 10000 4.1 100 16:36 19.12.2019
6176 Clouds 18 1026 39 10000 4.1 100 16:18 19.12.2019
6177 Clouds 20 1025 32 10000 5.7 100 15:55 19.12.2019
6178 Clouds 20 1025 32 10000 5.7 100 15:36 19.12.2019
6179 Clouds 20 1025 32 10000 5.7 100 15:18 19.12.2019
6180 Clouds 20 1025 32 10000 6.7 100 14:42 19.12.2019
6181 Clouds 20 1025 32 10000 6.7 100 14:20 19.12.2019
6182 Clouds 21 1025 30 10000 6.7 100 13:58 19.12.2019
6183 Clouds 21 1025 30 10000 6.7 100 13:38 19.12.2019
6184 Clouds 21 1025 30 10000 6.7 100 13:19 19.12.2019
6185 Clouds 21 1025 30 10000 6.7 100 13:19 19.12.2019
6186 Clouds 20 1026 34 10000 8.2 110 12:57 19.12.2019
6187 Clouds 20 1026 34 10000 8.2 110 12:38 19.12.2019
6188 Clouds 20 1026 34 10000 8.2 110 12:19 19.12.2019
6189 Clouds 20 1026 34 10000 8.2 110 12:19 19.12.2019
6190 Clouds 20 1026 37 10000 6.2 100 11:58 19.12.2019
6191 Clouds 20 1026 37 10000 6.2 100 11:40 19.12.2019
6192 Clouds 20 1026 37 10000 6.2 100 11:18 19.12.2019
6193 Clouds 20 1026 37 10000 6.2 100 11:18 19.12.2019
6194 Clouds 20 1026 37 10000 6.2 100 11:18 19.12.2019
6195 Clouds 19 1028 34 10000 7.2 90 10:56 19.12.2019
6196 Clouds 19 1028 34 10000 7.2 90 10:37 19.12.2019
6197 Clouds 19 1028 34 10000 7.2 90 10:19 19.12.2019
6198 Clouds 18 1028 45 10000 6.2 100 09:40 19.12.2019
6199 Clouds 18 1028 45 10000 6.2 100 09:40 19.12.2019
6200 Clouds 18 1028 45 10000 6.2 100 09:21 19.12.2019
6201 Clouds 19 1016 29 0 5.95 96 08:58 19.12.2019
6202 Clouds 19 1016 29 0 5.95 96 08:40 19.12.2019
6203 Clouds 15 1029 47 10000 5.1 70 08:19 19.12.2019
6204 Clouds 15 1029 47 10000 5.1 70 07:57 19.12.2019
6205 Clouds 15 1029 47 10000 5.1 70 07:38 19.12.2019
6206 Clouds 15 1029 47 10000 5.1 70 07:19 19.12.2019
6207 Clouds 11 1029 76 10000 2.1 170 06:49 19.12.2019
6208 Clouds 11 1029 76 10000 2.1 170 06:29 19.12.2019
6209 Clear 14 1019 37 0 3.86 91 05:55 19.12.2019
6210 Clear 14 1019 37 0 3.86 91 05:33 19.12.2019
6211 Clear 7 1019 77 0 1.67 2 04:51 19.12.2019
6212 Clear 7 1019 77 0 1.67 2 02:54 19.12.2019
6213 Clouds 11 1027 81 10000 3.1 110 01:51 19.12.2019
6214 Clouds 11 1027 81 10000 3.1 110 01:22 19.12.2019
6215 Clouds 11 1027 76 10000 4.6 70 00:41 19.12.2019
6216 Clouds 11 1027 76 10000 4.6 70 00:22 19.12.2019
6217 Clouds 10 1028 87 10000 3.6 80 23:56 18.12.2019
6218 Clouds 10 1028 87 10000 3.6 80 23:38 18.12.2019
6219 Clouds 10 1028 87 10000 3.6 80 23:18 18.12.2019
6220 Clear 9 1018 81 0 1.44 14 22:55 18.12.2019
6221 Clear 9 1018 81 0 1.44 14 22:36 18.12.2019
6222 Clear 9 1018 81 0 1.44 14 22:18 18.12.2019
6223 Clear 9 1018 81 0 1.44 14 21:55 18.12.2019
6224 Clear 9 1018 81 0 1.44 14 21:37 18.12.2019
6225 Clouds 12 1028 81 10000 3.6 100 21:18 18.12.2019
6226 Clouds 12 1028 81 10000 3.6 100 20:54 18.12.2019
6227 Clouds 12 1028 81 10000 3.6 100 20:36 18.12.2019
6228 Clouds 12 1028 81 10000 3.6 100 20:18 18.12.2019
6229 Clouds 14 1028 71 10000 3.1 120 19:54 18.12.2019
6230 Clouds 14 1028 71 10000 3.1 120 19:36 18.12.2019
6231 Clouds 14 1028 71 10000 3.1 120 19:18 18.12.2019
6232 Clouds 14 1028 71 10000 3.1 120 19:18 18.12.2019
6233 Clouds 11 1018 73 0 2.92 67 18:43 18.12.2019
6234 Clouds 11 1018 73 0 2.92 67 18:25 18.12.2019
6235 Clouds 11 1018 73 0 2.92 67 18:25 18.12.2019
6236 Clouds 11 1018 73 0 2.92 67 17:57 18.12.2019
6237 Clouds 11 1018 73 0 2.92 67 17:38 18.12.2019
6238 Clouds 14 1014 62 0 5.53 91 17:19 18.12.2019
6239 Clouds 14 1014 62 0 5.53 91 16:54 18.12.2019
6240 Clouds 14 1014 62 0 5.53 91 16:36 18.12.2019
6241 Clouds 20 1024 37 0 6.7 100 16:18 18.12.2019
6242 Clouds 20 1024 37 0 6.7 100 15:54 18.12.2019
6243 Clouds 20 1024 37 0 6.7 100 15:36 18.12.2019
6244 Clouds 20 1024 37 0 6.7 100 15:18 18.12.2019
6245 Clouds 21 1024 35 0 6.2 100 14:40 18.12.2019
6246 Clouds 21 1024 35 0 6.2 100 14:20 18.12.2019
6247 Clouds 22 1024 37 0 7.2 100 13:56 18.12.2019
6248 Clouds 22 1024 37 0 7.2 100 13:37 18.12.2019
6249 Clouds 22 1024 37 0 7.2 100 13:19 18.12.2019
6250 Clouds 21 1025 43 10000 7.2 100 12:57 18.12.2019
6251 Clouds 21 1025 43 10000 7.2 100 12:37 18.12.2019
6252 Clouds 21 1025 43 10000 7.2 100 12:19 18.12.2019
6253 Clouds 20 1026 45 10000 6.2 90 11:55 18.12.2019
6254 Clouds 20 1026 45 10000 6.2 90 11:37 18.12.2019
6255 Clouds 20 1026 45 10000 6.2 90 11:18 18.12.2019
6256 Clouds 19 1027 48 10000 5.1 100 10:55 18.12.2019
6257 Clouds 19 1027 48 10000 5.1 100 10:37 18.12.2019
6258 Clouds 19 1027 48 10000 5.1 100 10:18 18.12.2019
6259 Clouds 18 1028 55 10000 3.1 70 09:43 18.12.2019
6260 Clouds 18 1028 55 10000 3.1 70 09:18 18.12.2019
6261 Clouds 17 1029 59 10000 5.1 90 08:40 18.12.2019
6262 Clouds 17 1029 59 10000 5.1 90 08:21 18.12.2019
6263 Clouds 15 1029 67 10000 4.1 100 07:43 18.12.2019
6264 Clouds 15 1029 67 10000 4.1 100 07:22 18.12.2019
6265 Clouds 15 1029 67 10000 4.1 100 06:55 18.12.2019
6266 Clouds 13 1029 76 10000 3.1 70 06:27 18.12.2019
6267 Clear 14 1018 57 0 3.08 84 05:44 18.12.2019
6268 Clouds 12 1027 76 10000 3.1 60 04:46 18.12.2019
6269 Clear 8 1019 86 0 1.61 17 02:51 18.12.2019
6270 Clear 8 1019 86 0 1.61 17 02:31 18.12.2019
6271 Clouds 9 1017 86 0 2.08 20 01:57 18.12.2019
6272 Clouds 9 1017 86 0 2.08 20 01:37 18.12.2019
6273 Clouds 11 1027 87 0 2.6 100 01:19 18.12.2019
6274 Clouds 11 1027 87 0 2.6 100 00:40 18.12.2019
6275 Clouds 11 1027 87 0 2.6 100 00:21 18.12.2019
6276 Clouds 11 1027 87 0 2.6 100 23:54 17.12.2019
6277 Clouds 13 1027 76 0 1 150 23:36 17.12.2019
6278 Clear 13 1027 76 0 1 150 23:18 17.12.2019
6279 Clear 13 1027 76 0 1 150 23:18 17.12.2019
6280 Clear 13 1027 82 0 5.1 70 22:55 17.12.2019
6281 Clear 13 1027 82 0 5.1 70 22:37 17.12.2019
6282 Clear 13 1027 82 0 5.1 70 22:18 17.12.2019
6283 Clear 14 1028 71 0 6.2 70 21:55 17.12.2019
6284 Clear 14 1028 71 0 6.2 70 21:55 17.12.2019
6285 Clear 14 1028 71 0 6.2 70 21:36 17.12.2019
6286 Clear 14 1028 71 0 6.2 70 21:18 17.12.2019
6287 Clear 9 1018 89 0 1.83 39 20:55 17.12.2019
6288 Clouds 9 1017 88 0 1.94 38 20:37 17.12.2019
6289 Clouds 15 1027 72 0 4.1 70 20:18 17.12.2019
6290 Clouds 15 1027 72 0 4.1 70 19:41 17.12.2019
6291 Clouds 15 1027 72 0 4.1 70 19:20 17.12.2019
6292 Clouds 15 1027 72 0 4.1 70 18:58 17.12.2019
6293 Clouds 15 1027 72 10000 5.1 60 18:40 17.12.2019
6294 Clouds 15 1027 72 10000 5.1 60 18:21 17.12.2019
6295 Clouds 15 1027 72 10000 5.1 60 17:58 17.12.2019
6296 Clouds 11 1017 85 0 2.82 58 17:40 17.12.2019
6297 Clouds 19 1025 52 10000 5.1 90 17:19 17.12.2019
6298 Clouds 14 1013 67 0 4.08 90 16:56 17.12.2019
6299 Clouds 14 1013 67 0 4.08 90 16:37 17.12.2019
6300 Clouds 14 1013 67 0 4.08 90 16:19 17.12.2019
6301 Clouds 14 1013 67 0 4.08 90 15:55 17.12.2019
6302 Clouds 22 1024 40 10000 4.1 110 15:37 17.12.2019
6303 Clouds 22 1024 40 10000 4.1 110 15:18 17.12.2019
6304 Clouds 22 1024 40 10000 4.1 110 14:55 17.12.2019
6305 Clouds 22 1024 40 10000 4.1 110 14:36 17.12.2019
6306 Clouds 22 1024 40 10000 4.1 110 14:18 17.12.2019
6307 Clouds 22 1024 40 10000 4.1 110 13:55 17.12.2019
6308 Clouds 22 1024 37 10000 4.1 120 13:37 17.12.2019
6309 Clouds 22 1024 37 10000 4.1 120 13:18 17.12.2019
6310 Clouds 22 1024 37 10000 3.6 80 12:40 17.12.2019
6311 Clouds 22 1024 37 10000 3.6 80 12:19 17.12.2019
6312 Clouds 22 1024 37 10000 3.6 80 12:19 17.12.2019
6313 Clear 19 1011 47 0 6.07 106 11:59 17.12.2019
6314 Clear 19 1011 47 0 6.07 106 11:37 17.12.2019
6315 Clouds 20 1026 42 10000 4.1 90 11:19 17.12.2019
6316 Clouds 20 1026 42 10000 4.1 90 10:59 17.12.2019
6317 Clouds 20 1026 42 10000 4.1 90 10:40 17.12.2019
6318 Clouds 20 1026 42 10000 4.1 90 10:21 17.12.2019
6319 Clouds 19 1027 48 10000 4.1 90 09:59 17.12.2019
6320 Clouds 19 1027 48 10000 4.1 90 09:41 17.12.2019
6321 Clouds 19 1027 48 10000 4.1 90 09:20 17.12.2019
6322 Clouds 18 1027 52 10000 4.1 90 08:56 17.12.2019
6323 Clouds 18 1027 52 10000 4.1 90 08:38 17.12.2019
6324 Clouds 18 1027 52 10000 4.1 90 08:19 17.12.2019
6325 Clear 16 1027 55 0 4.1 110 07:45 17.12.2019
6326 Clear 16 1027 55 0 4.1 110 07:26 17.12.2019
6327 Clear 14 1027 62 0 2.6 120 06:56 17.12.2019
6328 Clear 14 1017 60 0 3.25 93 06:35 17.12.2019
6329 Clear 9 1026 81 0 2.1 20 05:53 17.12.2019
6330 Clear 9 1026 81 0 2.1 20 05:34 17.12.2019
6331 Clouds 10 1026 76 10000 2.6 80 04:30 17.12.2019
6332 Clouds 11 1025 76 10000 1.5 20 02:34 17.12.2019
6333 Clouds 13 1025 66 10000 1.5 70 01:54 17.12.2019
6334 Clouds 13 1025 66 10000 4.1 70 00:58 17.12.2019
6335 Clouds 13 1025 66 10000 4.1 70 00:37 17.12.2019
6336 Clouds 13 1025 66 10000 4.1 70 00:18 17.12.2019
6337 Clouds 13 1026 66 10000 3.1 80 23:41 16.12.2019
6338 Clouds 13 1026 66 10000 3.1 80 23:19 16.12.2019
6339 Clouds 13 1026 66 10000 3.1 80 23:19 16.12.2019
6340 Clouds 13 1026 66 10000 3.1 80 22:56 16.12.2019
6341 Clouds 14 1026 67 10000 4.1 60 22:37 16.12.2019
6342 Clouds 14 1026 67 10000 4.1 60 22:19 16.12.2019
6343 Clouds 14 1026 67 10000 4.1 60 21:55 16.12.2019
6344 Clouds 15 1026 62 10000 6.2 50 21:37 16.12.2019
6345 Clouds 15 1026 62 10000 6.2 50 21:37 16.12.2019
6346 Clouds 15 1026 62 10000 6.2 50 21:37 16.12.2019
6347 Clouds 15 1026 62 10000 6.2 50 21:18 16.12.2019
6348 Clouds 15 1026 62 10000 6.2 50 20:56 16.12.2019
6349 Clouds 15 1026 62 10000 6.2 50 20:56 16.12.2019
6350 Clouds 15 1026 58 10000 6.2 60 20:37 16.12.2019
6351 Clouds 15 1026 58 10000 6.2 60 20:19 16.12.2019
6352 Clouds 15 1026 58 10000 6.2 60 19:55 16.12.2019
6353 Clouds 15 1026 58 10000 5.1 60 19:36 16.12.2019
6354 Clouds 15 1026 58 10000 5.1 60 19:18 16.12.2019
6355 Clouds 15 1026 58 10000 5.1 60 18:55 16.12.2019
6356 Clouds 15 1026 58 10000 5.1 70 18:37 16.12.2019
6357 Clouds 15 1026 58 10000 5.1 70 18:37 16.12.2019
6358 Clouds 15 1026 58 10000 5.1 70 18:19 16.12.2019
6359 Clouds 15 1026 58 10000 5.1 70 17:57 16.12.2019
6360 Clouds 17 1025 51 10000 5.1 70 17:37 16.12.2019
6361 Clouds 17 1025 51 10000 5.1 70 17:19 16.12.2019
6362 Clouds 17 1025 51 10000 5.1 70 16:55 16.12.2019
6363 Clouds 19 1024 45 10000 6.2 90 16:37 16.12.2019
6364 Clouds 19 1024 45 10000 6.2 90 16:18 16.12.2019
6365 Clouds 19 1024 45 10000 6.2 90 15:55 16.12.2019
6366 Clouds 21 1023 40 10000 6.2 90 15:37 16.12.2019
6367 Clouds 21 1023 40 10000 6.2 90 15:19 16.12.2019
6368 Clouds 21 1023 40 10000 6.2 90 14:54 16.12.2019
6369 Clouds 22 1023 35 0 4.6 110 14:36 16.12.2019
6370 Clouds 22 1023 35 0 4.6 110 14:18 16.12.2019
6371 Clouds 22 1023 35 0 4.6 110 14:18 16.12.2019
6372 Clouds 23 1023 33 0 5.1 150 13:55 16.12.2019
6373 Clouds 23 1023 33 0 5.1 150 13:36 16.12.2019
6374 Clouds 23 1023 33 0 5.1 150 13:18 16.12.2019
6375 Clouds 23 1023 33 0 5.1 150 13:18 16.12.2019
6376 Clouds 23 1023 33 0 5.1 150 12:54 16.12.2019
6377 Clouds 20 1010 37 0 4.88 106 12:36 16.12.2019
6378 Clouds 21 1024 32 0 2.6 90 12:18 16.12.2019
6379 Clouds 21 1024 32 0 2.6 90 11:55 16.12.2019
6380 Clouds 21 1024 32 0 2.6 90 11:37 16.12.2019
6381 Clouds 21 1024 32 0 2.6 90 11:19 16.12.2019
6382 Clouds 21 1025 32 0 4.1 170 10:40 16.12.2019
6383 Clouds 21 1025 32 0 4.1 170 10:21 16.12.2019
6384 Clouds 19 1027 39 0 3.1 110 09:56 16.12.2019
6385 Clouds 19 1027 39 0 3.1 110 09:38 16.12.2019
6386 Clouds 19 1027 39 0 3.1 110 09:20 16.12.2019
6387 Clouds 17 1027 48 0 2.1 90 08:39 16.12.2019
6388 Clouds 17 1027 48 0 2.1 90 08:19 16.12.2019
6389 Clouds 16 1028 55 0 3.1 110 07:52 16.12.2019
6390 Clouds 16 1028 55 0 3.1 110 07:31 16.12.2019
6391 Clouds 15 1028 58 0 2.1 90 06:52 16.12.2019
6392 Clouds 15 1017 46 0 2.58 81 06:27 16.12.2019
6393 Clouds 15 1017 46 0 2.58 81 05:59 16.12.2019
6394 Clouds 15 1017 46 0 2.58 81 05:40 16.12.2019
6395 Clouds 9 1026 76 0 2.1 340 05:22 16.12.2019
6396 Clouds 9 1017 70 0 1.56 355 02:59 16.12.2019
6397 Clouds 10 1025 76 0 2.1 350 01:46 16.12.2019
6398 Clouds 9 1016 67 0 1.51 349 00:57 16.12.2019
6399 Clouds 9 1016 67 0 1.51 349 00:38 16.12.2019
6400 Clouds 9 1016 67 0 1.51 349 00:19 16.12.2019
6401 Clouds 9 1016 67 0 1.51 349 23:43 15.12.2019
6402 Clouds 12 1027 66 0 1 300 23:25 15.12.2019
6403 Clouds 12 1027 66 0 1 300 22:57 15.12.2019
6404 Clouds 12 1027 66 0 1 300 22:38 15.12.2019
6405 Clouds 12 1027 66 0 1 300 22:38 15.12.2019
6406 Clouds 12 1027 66 0 1 300 22:19 15.12.2019
6407 Clouds 14 1027 58 0 1.5 40 21:58 15.12.2019
6408 Clouds 14 1027 58 0 1.5 40 21:38 15.12.2019
6409 Clouds 14 1027 58 0 1.5 40 21:20 15.12.2019
6410 Clouds 14 1028 58 0 5.1 50 20:58 15.12.2019
6411 Clouds 14 1028 58 0 5.1 50 20:40 15.12.2019
6412 Clouds 14 1028 58 0 5.1 50 20:21 15.12.2019
6413 Clouds 14 1028 58 0 5.1 50 20:21 15.12.2019
6414 Clouds 14 1028 58 0 5.1 50 20:21 15.12.2019
6415 Clouds 14 1027 58 0 4.6 60 19:58 15.12.2019
6416 Clouds 14 1027 58 0 4.6 60 19:40 15.12.2019
6417 Clouds 14 1027 58 0 4.6 60 19:20 15.12.2019
6418 Clouds 14 1027 58 0 4.6 60 19:20 15.12.2019
6419 Clouds 14 1026 50 0 3.1 80 18:58 15.12.2019
6420 Clouds 14 1026 50 0 3.1 80 18:39 15.12.2019
6421 Clouds 14 1026 50 0 3.1 80 18:19 15.12.2019
6422 Clouds 14 1026 50 0 3.1 80 17:57 15.12.2019
6423 Clouds 11 1017 62 0 2.2 51 17:38 15.12.2019
6424 Clouds 11 1017 62 0 2.2 51 17:38 15.12.2019
6425 Clouds 18 1025 39 0 5.1 80 17:19 15.12.2019
6426 Clouds 18 1025 39 0 5.1 80 16:59 15.12.2019
6427 Clouds 18 1025 39 0 5.1 80 16:41 15.12.2019
6428 Clouds 18 1025 39 0 5.1 80 16:21 15.12.2019
6429 Clouds 20 1025 34 0 6.2 100 15:56 15.12.2019
6430 Clouds 20 1025 34 0 6.2 100 15:38 15.12.2019
6431 Clouds 20 1025 34 0 6.2 100 15:19 15.12.2019
6432 Clouds 20 1025 34 0 6.2 100 15:19 15.12.2019
6433 Clouds 20 1025 34 0 6.2 100 14:56 15.12.2019
6434 Clouds 21 1024 30 0 6.2 100 14:37 15.12.2019
6435 Clouds 21 1024 30 0 6.2 100 14:18 15.12.2019
6436 Clouds 22 1024 24 10000 6.2 100 13:58 15.12.2019
6437 Clouds 22 1024 24 10000 6.2 100 13:37 15.12.2019
6438 Clouds 22 1024 24 10000 6.2 100 13:19 15.12.2019
6439 Clouds 22 1025 37 10000 6.7 110 12:56 15.12.2019
6440 Clouds 22 1025 37 10000 6.7 110 12:38 15.12.2019
6441 Clouds 22 1025 37 10000 6.7 110 12:20 15.12.2019
6442 Clouds 21 1027 28 10000 6.7 110 11:55 15.12.2019
6443 Clouds 21 1027 28 10000 6.7 110 11:36 15.12.2019
6444 Clouds 21 1027 28 10000 6.7 110 11:18 15.12.2019
6445 Clouds 21 1027 28 10000 6.7 110 10:55 15.12.2019
6446 Clouds 21 1027 28 10000 6.2 90 10:36 15.12.2019
6447 Clouds 21 1027 28 10000 6.2 90 10:18 15.12.2019
6448 Clouds 19 1028 39 10000 6.2 100 09:39 15.12.2019
6449 Clouds 19 1028 39 10000 6.2 100 09:20 15.12.2019
6450 Clouds 19 1028 39 10000 6.2 100 08:57 15.12.2019
6451 Clouds 17 1028 45 10000 3.1 70 08:39 15.12.2019
6452 Clouds 17 1028 45 10000 3.1 70 08:20 15.12.2019
6453 Clouds 17 1028 45 10000 3.1 70 07:55 15.12.2019
6454 Clouds 15 1029 58 10000 3.1 80 07:34 15.12.2019
6455 Clouds 13 1028 71 10000 2.1 210 06:39 15.12.2019
6456 Clouds 13 1028 71 10000 2.1 210 06:19 15.12.2019
6457 Clear 14 1019 54 0 3.08 88 05:25 15.12.2019
6458 Clear 9 1018 74 0 1.41 4 04:24 15.12.2019
6459 Clear 9 1018 74 0 1.41 4 03:22 15.12.2019
6460 Clear 9 1018 74 0 1.41 4 02:33 15.12.2019
6461 Clear 10 1018 71 0 1.14 4 01:44 15.12.2019
6462 Clouds 12 1028 76 10000 2.1 320 01:25 15.12.2019
6463 Clouds 12 1028 76 10000 2.1 320 00:54 15.12.2019
6464 Clouds 12 1028 76 10000 2.1 320 00:35 15.12.2019
6465 Clear 10 1018 70 0 1.17 15 23:58 14.12.2019
6466 Clear 10 1018 70 0 1.17 15 23:39 14.12.2019
6467 Clouds 13 1028 71 10000 3.1 80 23:19 14.12.2019
6468 Clouds 13 1028 71 10000 3.1 80 22:57 14.12.2019
6469 Clouds 13 1028 71 10000 3.1 80 22:39 14.12.2019
6470 Clouds 13 1028 71 10000 3.1 80 22:39 14.12.2019
6471 Clouds 13 1028 71 10000 3.1 80 22:20 14.12.2019
6472 Clouds 13 1028 71 10000 3.1 80 21:55 14.12.2019
6473 Clouds 13 1028 71 10000 3.1 80 21:55 14.12.2019
6474 Clouds 14 1029 67 10000 3.1 70 21:37 14.12.2019
6475 Clouds 14 1029 67 10000 3.1 70 21:18 14.12.2019
6476 Clouds 14 1029 67 10000 5.1 70 20:43 14.12.2019
6477 Clouds 14 1029 67 10000 5.1 70 20:21 14.12.2019
6478 Clouds 14 1029 67 10000 5.1 70 19:59 14.12.2019
6479 Clouds 14 1028 67 10000 6.2 80 19:40 14.12.2019
6480 Clouds 14 1028 67 10000 6.2 80 19:21 14.12.2019
6481 Clouds 14 1028 67 10000 6.2 80 18:57 14.12.2019
6482 Clouds 15 1028 62 10000 6.2 80 18:39 14.12.2019
6483 Clouds 15 1028 62 10000 6.2 80 18:21 14.12.2019
6484 Clouds 12 1018 63 0 3.16 58 17:58 14.12.2019
6485 Clouds 12 1018 63 0 3.16 58 17:40 14.12.2019
6486 Clouds 17 1027 59 10000 7.2 70 17:21 14.12.2019
6487 Clouds 17 1027 59 10000 7.2 70 16:41 14.12.2019
6488 Clouds 17 1027 59 10000 7.2 70 16:19 14.12.2019
6489 Clouds 15 1014 58 0 5.28 94 15:55 14.12.2019
6490 Clouds 15 1014 58 0 5.28 94 15:37 14.12.2019
6491 Clouds 20 1026 49 10000 5.7 100 15:19 14.12.2019
6492 Clouds 20 1026 49 10000 5.7 100 14:54 14.12.2019
6493 Clouds 20 1026 49 10000 5.7 100 14:36 14.12.2019
6494 Clouds 20 1026 49 10000 5.7 100 14:18 14.12.2019
6495 Clouds 20 1026 45 10000 5.1 80 13:42 14.12.2019
6496 Clouds 20 1026 45 10000 5.1 80 13:19 14.12.2019
6497 Clouds 20 1026 45 10000 5.1 80 12:57 14.12.2019
6498 Clouds 20 1026 45 10000 5.1 120 12:38 14.12.2019
6499 Clouds 20 1026 45 10000 5.1 120 12:38 14.12.2019
6500 Clouds 20 1026 45 10000 5.1 120 12:20 14.12.2019
6501 Clouds 19 1013 49 0 6.26 99 11:56 14.12.2019
6502 Clouds 19 1013 49 0 6.26 99 11:38 14.12.2019
6503 Clouds 21 1028 43 10000 5.1 120 11:19 14.12.2019
6504 Clouds 21 1028 43 10000 5.1 120 10:56 14.12.2019
6505 Clouds 21 1028 43 10000 5.1 120 10:38 14.12.2019
6506 Clouds 21 1028 43 10000 5.1 120 10:19 14.12.2019
6507 Clouds 19 1029 52 10000 5.1 90 09:43 14.12.2019
6508 Clouds 19 1029 52 10000 5.1 90 09:23 14.12.2019
6509 Clouds 19 1029 52 10000 5.1 90 08:57 14.12.2019
6510 Clouds 19 1029 52 10000 5.1 90 08:57 14.12.2019
6511 Clouds 17 1029 63 10000 5.1 110 08:38 14.12.2019
6512 Clouds 17 1029 63 10000 5.1 110 08:19 14.12.2019
6513 Clouds 16 1029 67 10000 2.1 60 07:40 14.12.2019
6514 Clouds 16 1029 67 10000 2.1 60 07:21 14.12.2019
6515 Clouds 13 1029 66 10000 1 350 06:55 14.12.2019
6516 Clouds 13 1029 66 10000 1 350 06:36 14.12.2019
6517 Clouds 10 1028 81 10000 2.1 130 05:50 14.12.2019
6518 Clouds 10 1027 76 10000 2.1 360 03:44 14.12.2019
6519 Clouds 11 1026 71 10000 3.1 340 02:24 14.12.2019
6520 Clouds 10 1026 81 10000 1 350 01:44 14.12.2019
6521 Clouds 10 1026 81 10000 1 350 01:20 14.12.2019
6522 Clouds 10 1027 87 10000 2.1 90 00:43 14.12.2019
6523 Clouds 10 1027 87 10000 2.1 90 00:22 14.12.2019
6524 Clouds 12 1027 76 10000 2.1 330 23:41 13.12.2019
6525 Clouds 12 1027 76 10000 2.1 330 23:20 13.12.2019
6526 Clouds 12 1027 76 10000 2.1 330 22:57 13.12.2019
6527 Clouds 12 1028 76 10000 2.1 320 22:38 13.12.2019
6528 Clouds 12 1028 76 10000 2.1 320 22:18 13.12.2019
6529 Clouds 12 1028 76 10000 2.1 350 21:44 13.12.2019
6530 Clouds 12 1028 76 10000 2.1 350 21:22 13.12.2019
6531 Clouds 12 1028 76 10000 2.1 350 20:59 13.12.2019
6532 Clouds 13 1028 71 10000 2.1 150 20:40 13.12.2019
6533 Clouds 13 1028 71 10000 2.1 150 20:21 13.12.2019
6534 Clouds 14 1027 67 10000 5.1 70 19:57 13.12.2019
6535 Clouds 14 1027 67 10000 5.1 70 19:39 13.12.2019
6536 Clouds 14 1027 67 10000 5.1 70 19:20 13.12.2019
6537 Clouds 15 1027 62 10000 6.2 60 18:55 13.12.2019
6538 Clouds 15 1027 62 10000 6.2 60 18:36 13.12.2019
6539 Clouds 15 1027 62 10000 6.2 60 18:18 13.12.2019
6540 Clouds 16 1026 59 10000 6.2 70 17:40 13.12.2019
6541 Clouds 16 1026 59 10000 6.2 70 17:40 13.12.2019
6542 Clouds 16 1026 59 10000 6.2 70 17:19 13.12.2019
6543 Clouds 16 1026 59 10000 6.2 70 16:57 13.12.2019
6544 Clouds 16 1026 59 10000 6.2 70 16:39 13.12.2019
6545 Clouds 21 1024 35 10000 6.2 90 16:20 13.12.2019
6546 Clouds 21 1024 35 10000 6.2 90 15:43 13.12.2019
6547 Clouds 21 1024 35 10000 6.2 90 15:22 13.12.2019
6548 Clouds 22 1024 37 10000 5.1 100 14:57 13.12.2019
6549 Clouds 22 1024 37 10000 5.1 100 14:39 13.12.2019
6550 Clouds 22 1024 37 10000 5.1 100 14:19 13.12.2019
6551 Clouds 22 1024 37 10000 6.2 100 13:44 13.12.2019
6552 Clouds 22 1024 37 10000 6.2 100 13:26 13.12.2019
6553 Clouds 23 1024 35 10000 5.1 100 12:59 13.12.2019
6554 Clouds 23 1024 35 10000 5.1 100 12:41 13.12.2019
6555 Clouds 23 1024 35 10000 5.1 100 12:19 13.12.2019
6556 Clouds 22 1025 33 10000 5.1 120 11:45 13.12.2019
6557 Clouds 22 1025 33 10000 5.1 120 11:45 13.12.2019
6558 Clouds 22 1025 33 10000 5.1 120 11:26 13.12.2019
6559 Clouds 22 1025 33 10000 5.1 120 10:58 13.12.2019
6560 Clouds 22 1025 33 10000 5.1 120 10:40 13.12.2019
6561 Clouds 21 1026 37 10000 5.1 130 10:21 13.12.2019
6562 Clear 19 1015 42 0 3.99 103 09:43 13.12.2019
6563 Clear 19 1015 42 0 3.99 103 09:22 13.12.2019
6564 Clear 19 1015 42 0 3.99 103 08:55 13.12.2019
6565 Clear 19 1015 42 0 3.99 103 08:36 13.12.2019
6566 Clouds 16 1028 67 10000 2.1 120 08:18 13.12.2019
6567 Clouds 16 1028 67 10000 2.1 120 07:42 13.12.2019
6568 Clouds 16 1028 67 10000 2.1 120 07:19 13.12.2019
6569 Clouds 14 1027 76 10000 3.1 330 06:45 13.12.2019
6570 Clouds 14 1027 76 10000 3.1 330 06:25 13.12.2019
6571 Clouds 13 1026 66 10000 2.1 340 05:38 13.12.2019
6572 Clouds 13 1026 66 10000 2.1 340 05:20 13.12.2019
6573 Clouds 11 1026 81 10000 2.1 300 04:28 13.12.2019
6574 Clouds 10 1017 80 0 1.28 9 02:56 13.12.2019
6575 Clouds 11 1025 81 10000 3.1 60 02:30 13.12.2019
6576 Clouds 11 1025 81 10000 3.1 60 01:34 13.12.2019
6577 Clouds 12 1026 76 10000 1.5 70 00:50 13.12.2019
6578 Clouds 12 1026 76 10000 1.5 70 00:28 13.12.2019
6579 Clear 10 1016 82 0 1.29 352 23:43 12.12.2019
6580 Clear 10 1016 82 0 1.29 352 23:25 12.12.2019
6581 Clear 11 1017 83 0 1.76 2 22:57 12.12.2019
6582 Clear 11 1017 83 0 1.76 2 22:39 12.12.2019
6583 Clear 11 1017 83 0 1.76 2 22:39 12.12.2019
6584 Clear 11 1017 83 0 1.76 2 22:21 12.12.2019
6585 Clear 11 1017 83 0 1.76 2 22:21 12.12.2019
6586 Clouds 14 1027 71 10000 3.6 70 21:56 12.12.2019
6587 Clouds 14 1027 71 10000 3.6 70 21:37 12.12.2019
6588 Clouds 14 1027 71 10000 3.6 70 21:19 12.12.2019
6589 Clouds 14 1027 82 10000 2.1 90 20:59 12.12.2019
6590 Clouds 14 1027 82 10000 2.1 90 20:40 12.12.2019
6591 Clouds 14 1027 82 10000 2.1 90 20:21 12.12.2019
6592 Clouds 15 1026 77 10000 2.6 70 19:56 12.12.2019
6593 Clouds 15 1026 77 10000 2.6 70 19:37 12.12.2019
6594 Clouds 15 1026 77 10000 2.6 70 19:18 12.12.2019
6595 Clouds 15 1026 82 10000 5.1 60 18:56 12.12.2019
6596 Clouds 15 1026 82 10000 5.1 60 18:37 12.12.2019
6597 Clouds 15 1026 82 10000 5.1 60 18:37 12.12.2019
6598 Clouds 15 1026 82 10000 5.1 60 18:19 12.12.2019
6599 Clouds 16 1025 72 10000 5.1 70 17:56 12.12.2019
6600 Clouds 16 1025 72 10000 5.1 70 17:38 12.12.2019
6601 Clouds 16 1025 72 10000 5.1 70 17:19 12.12.2019
6602 Clouds 18 1024 59 10000 3.1 90 16:54 12.12.2019
6603 Clouds 18 1024 59 10000 3.1 90 16:36 12.12.2019
6604 Clouds 18 1024 59 10000 3.1 90 16:18 12.12.2019
6605 Rain 15 1013 71 0 6.5 90 15:42 12.12.2019
6606 Clouds 21 1023 49 10000 8.2 100 15:20 12.12.2019
6607 Clouds 21 1023 49 10000 8.2 100 14:59 12.12.2019
6608 Clouds 21 1023 49 10000 8.2 100 14:38 12.12.2019
6609 Clouds 21 1023 49 10000 8.2 100 14:19 12.12.2019
6610 Clouds 19 1011 54 0 7.33 96 13:56 12.12.2019
6611 Clouds 19 1011 54 0 7.33 96 13:38 12.12.2019
6612 Clouds 22 1024 46 10000 4.6 90 13:20 12.12.2019
6613 Clouds 22 1024 46 10000 4.6 90 12:56 12.12.2019
6614 Clouds 22 1024 46 10000 4.6 90 12:38 12.12.2019
6615 Clouds 22 1024 46 10000 4.6 90 12:18 12.12.2019
6616 Clouds 21 1025 46 10000 4.1 100 11:43 12.12.2019
6617 Clouds 21 1025 46 10000 4.1 100 11:22 12.12.2019
6618 Clouds 21 1026 46 10000 5.7 110 10:59 12.12.2019
6619 Clouds 21 1026 46 10000 5.7 110 10:41 12.12.2019
6620 Clouds 21 1026 46 10000 5.7 110 10:23 12.12.2019
6621 Clouds 19 1027 52 10000 6.7 90 09:58 12.12.2019
6622 Clouds 19 1027 52 10000 6.7 90 09:40 12.12.2019
6623 Clouds 19 1027 52 10000 6.7 90 09:21 12.12.2019
6624 Clouds 18 1028 63 10000 3.6 100 08:54 12.12.2019
6625 Clouds 18 1028 63 10000 3.6 100 08:36 12.12.2019
6626 Clouds 18 1028 63 10000 3.6 100 08:18 12.12.2019
6627 Clouds 17 1027 59 10000 3.1 130 07:41 12.12.2019
6628 Clouds 17 1027 59 10000 3.1 130 07:21 12.12.2019
6629 Clear 16 1018 66 0 2.11 55 06:43 12.12.2019
6630 Clear 16 1018 66 0 2.11 55 06:23 12.12.2019
6631 Clear 16 1018 66 0 2.11 55 05:35 12.12.2019
6632 Clouds 11 1026 87 10000 1 40 04:51 12.12.2019
6633 Clear 10 1017 89 0 2.28 9 02:57 12.12.2019
6634 Clear 10 1017 89 0 2.28 9 02:37 12.12.2019
6635 Clouds 11 1026 87 10000 1.5 340 02:18 12.12.2019
6636 Clouds 11 1026 87 10000 1.5 340 01:37 12.12.2019
6637 Clouds 11 1026 87 10000 1.5 340 01:18 12.12.2019
6638 Clouds 11 1016 90 0 1.77 15 00:40 12.12.2019
6639 Clouds 11 1016 90 0 1.77 15 00:18 12.12.2019
6640 Clouds 11 1016 90 0 1.77 15 23:42 11.12.2019
6641 Clouds 12 1017 93 0 2.23 30 23:20 11.12.2019
6642 Clouds 12 1017 93 0 2.23 30 22:57 11.12.2019
6643 Clouds 12 1017 93 0 2.23 30 22:57 11.12.2019
6644 Clouds 12 1017 93 0 2.23 30 22:38 11.12.2019
6645 Clouds 12 1017 93 0 2.23 30 22:19 11.12.2019
6646 Clouds 12 1017 93 0 2.23 30 21:56 11.12.2019
6647 Clouds 12 1017 93 0 2.23 30 21:37 11.12.2019
6648 Clouds 12 1017 93 0 2.23 30 21:19 11.12.2019
6649 Clouds 12 1017 93 0 2.23 30 21:19 11.12.2019
6650 Clouds 12 1017 93 0 2.23 30 20:55 11.12.2019
6651 Clouds 12 1017 93 0 2.23 30 20:37 11.12.2019
6652 Clouds 12 1016 97 0 2.51 77 20:18 11.12.2019
6653 Clouds 12 1016 97 0 2.52 67 19:55 11.12.2019
6654 Clouds 12 1016 97 0 2.52 67 19:36 11.12.2019
6655 Clouds 12 1016 97 0 2.52 67 19:18 11.12.2019
6656 Clouds 12 1016 97 0 2.52 67 18:40 11.12.2019
6657 Clouds 12 1016 97 0 2.52 67 18:21 11.12.2019
6658 Clouds 12 1016 97 0 2.52 67 18:21 11.12.2019
6659 Clouds 12 1016 97 0 2.52 67 17:57 11.12.2019
6660 Clouds 12 1016 97 0 2.52 67 17:38 11.12.2019
6661 Clouds 14 1013 82 0 4.75 92 17:18 11.12.2019
6662 Clouds 14 1013 82 0 4.75 92 16:56 11.12.2019
6663 Clouds 14 1013 82 0 4.75 92 16:37 11.12.2019
6664 Clouds 18 1024 63 10000 5.7 100 16:19 11.12.2019
6665 Clouds 18 1024 63 10000 5.7 100 15:57 11.12.2019
6666 Clouds 18 1024 63 10000 5.7 100 15:57 11.12.2019
6667 Clouds 18 1024 63 10000 5.7 100 15:37 11.12.2019
6668 Clouds 18 1024 63 10000 5.7 100 15:19 11.12.2019
6669 Clouds 19 1024 59 10000 6.7 100 14:55 11.12.2019
6670 Clouds 19 1024 59 10000 6.7 100 14:37 11.12.2019
6671 Clouds 19 1024 59 10000 6.7 100 14:18 11.12.2019
6672 Clouds 20 1024 56 10000 5.1 100 13:44 11.12.2019
6673 Rain 18 1011 63 0 7.36 90 13:24 11.12.2019
6674 Rain 18 1011 63 0 7.36 90 12:59 11.12.2019
6675 Rain 18 1011 63 0 7.36 90 12:59 11.12.2019
6676 Rain 18 1011 63 0 7.36 90 12:40 11.12.2019
6677 Rain 18 1011 63 0 7.36 90 12:22 11.12.2019
6678 Rain 18 1011 63 0 7.36 90 11:58 11.12.2019
6679 Rain 18 1011 63 0 7.36 90 11:39 11.12.2019
6680 Rain 19 1015 62 0 4.69 92 11:19 11.12.2019
6681 Rain 19 1015 62 0 4.69 92 10:59 11.12.2019
6682 Rain 19 1015 62 0 4.69 92 10:40 11.12.2019
6683 Rain 13 1028 93 9000 2.1 30 10:21 11.12.2019
6684 Rain 13 1028 93 9000 2.1 30 10:21 11.12.2019
6685 Rain 13 1028 93 9000 2.1 30 09:57 11.12.2019
6686 Rain 13 1028 93 9000 2.1 30 09:38 11.12.2019
6687 Rain 13 1028 93 9000 2.1 30 09:19 11.12.2019
6688 Rain 13 1030 93 9000 5.1 50 08:55 11.12.2019
6689 Rain 13 1030 93 9000 5.1 50 08:36 11.12.2019
6690 Rain 13 1030 93 9000 5.1 50 08:18 11.12.2019
6691 Rain 13 1030 93 9000 5.1 60 07:43 11.12.2019
6692 Rain 13 1030 93 9000 5.1 60 07:24 11.12.2019
6693 Rain 13 1030 93 9000 5.1 60 07:24 11.12.2019
6694 Rain 13 1028 93 9000 4.1 100 06:46 11.12.2019
6695 Rain 13 1028 93 9000 4.1 100 06:25 11.12.2019
6696 Rain 13 1027 87 8000 1 90 05:56 11.12.2019
6697 Rain 13 1027 87 8000 1 90 05:35 11.12.2019
6698 Clouds 13 1026 87 10000 2.1 280 04:51 11.12.2019
6699 Drizzle 13 1025 82 10000 1.02 10 03:29 11.12.2019
6700 Clouds 13 1025 82 10000 1.02 10 02:35 11.12.2019
6701 Clouds 12 1025 87 10000 2.1 330 01:22 11.12.2019
6702 Clouds 12 1026 87 10000 3.1 320 00:43 11.12.2019
6703 Clouds 12 1026 87 10000 3.1 320 00:19 11.12.2019
6704 Clouds 12 1026 87 10000 2.1 340 23:45 10.12.2019
6705 Clouds 12 1026 87 10000 2.1 340 23:26 10.12.2019
6706 Clouds 14 1027 82 10000 1 190 22:57 10.12.2019
6707 Clouds 14 1027 82 10000 1 190 22:38 10.12.2019
6708 Clouds 14 1027 82 10000 1 190 22:20 10.12.2019
6709 Clouds 14 1026 82 10000 3.1 70 21:54 10.12.2019
6710 Clouds 14 1026 82 10000 3.1 70 21:36 10.12.2019
6711 Clouds 15 1027 77 10000 4.1 70 21:18 10.12.2019
6712 Clouds 15 1027 77 10000 4.1 70 20:55 10.12.2019
6713 Clouds 15 1027 77 10000 4.1 70 20:36 10.12.2019
6714 Clouds 15 1027 77 10000 4.1 70 20:18 10.12.2019
6715 Clouds 15 1027 72 10000 4.1 80 19:44 10.12.2019
6716 Clouds 15 1027 72 10000 4.1 80 19:25 10.12.2019
6717 Clouds 16 1025 67 10000 4.1 70 18:57 10.12.2019
6718 Clouds 16 1025 67 10000 4.1 70 18:39 10.12.2019
6719 Clouds 16 1025 67 10000 4.1 70 18:19 10.12.2019
6720 Clouds 17 1025 63 10000 5.1 70 17:55 10.12.2019
6721 Clouds 17 1025 63 10000 5.1 70 17:36 10.12.2019
6722 Clouds 17 1025 63 10000 5.1 70 17:18 10.12.2019